<?xml version='1.0' encoding='UTF-8'?><gpx version="1.1" creator="JPX - https://github.com/jenetics/jpx" xmlns="http://www.topografix.com/GPX/1/1"><trk><trkseg><trkpt lat="45.08318145165874" lon="9.45046042297879"><ele>54.25</ele><time>2026-04-10T13:12:55.172Z</time></trkpt><trkpt lat="45.083070325852795" lon="9.450436857452424"><ele>53.5</ele><time>2026-04-10T13:12:56.171Z</time></trkpt><trkpt lat="45.08293103674993" lon="9.45037227498382"><ele>52.75</ele><time>2026-04-10T13:12:57.17Z</time></trkpt><trkpt lat="45.08277566152229" lon="9.450350075376754"><ele>52.0</ele><time>2026-04-10T13:12:58.169Z</time></trkpt><trkpt lat="45.08262478774207" lon="9.450309097533527"><ele>52.0</ele><time>2026-04-10T13:12:59.168Z</time></trkpt><trkpt lat="45.082454708099206" lon="9.45027153579394"><ele>52.0</ele><time>2026-04-10T13:13:00.18Z</time></trkpt><trkpt lat="45.08227377880477" lon="9.450237441539999"><ele>52.0</ele><time>2026-04-10T13:13:01.185Z</time></trkpt><trkpt lat="45.082085656254215" lon="9.450199094428823"><ele>52.33333333333333</ele><time>2026-04-10T13:13:02.184Z</time></trkpt><trkpt lat="45.08189372295009" lon="9.450162085185658"><ele>52.66666666666667</ele><time>2026-04-10T13:13:03.183Z</time></trkpt><trkpt lat="45.08171098747933" lon="9.450123567974318"><ele>53.0</ele><time>2026-04-10T13:13:04.185Z</time></trkpt><trkpt lat="45.081549096376186" lon="9.450082455813382"><ele>53.25</ele><time>2026-04-10T13:13:05.167Z</time></trkpt><trkpt lat="45.081375750390336" lon="9.450045103385758"><ele>53.5</ele><time>2026-04-10T13:13:06.192Z</time></trkpt><trkpt lat="45.08123818982723" lon="9.450001925530895"><ele>53.75</ele><time>2026-04-10T13:13:07.175Z</time></trkpt><trkpt lat="45.08111680421544" lon="9.449957808985237"><ele>54.0</ele><time>2026-04-10T13:13:08.195Z</time></trkpt><trkpt lat="45.08101845162642" lon="9.449909448154058"><ele>54.0</ele><time>2026-04-10T13:13:09.189Z</time></trkpt><trkpt lat="45.08094794153507" lon="9.449845141488076"><ele>54.0</ele><time>2026-04-10T13:13:10.18Z</time></trkpt><trkpt lat="45.080888469779055" lon="9.449764626512929"><ele>54.0</ele><time>2026-04-10T13:13:11.191Z</time></trkpt><trkpt lat="45.08082851609332" lon="9.449696301558216"><ele>54.0</ele><time>2026-04-10T13:13:12.167Z</time></trkpt><trkpt lat="45.08076698172278" lon="9.44966928362095"><ele>54.0</ele><time>2026-04-10T13:13:13.172Z</time></trkpt><trkpt lat="45.08063850492082" lon="9.449697913316212"><ele>54.0</ele><time>2026-04-10T13:13:15.514Z</time></trkpt><trkpt lat="45.08056876195822" lon="9.449731637416074"><ele>54.0</ele><time>2026-04-10T13:13:16.17Z</time></trkpt><trkpt lat="45.08047931033297" lon="9.449757971493145"><ele>54.00000000000001</ele><time>2026-04-10T13:13:17.202Z</time></trkpt><trkpt lat="45.080381301164195" lon="9.449764224329686"><ele>54.00000000000001</ele><time>2026-04-10T13:13:18.169Z</time></trkpt><trkpt lat="45.08027572102966" lon="9.449743700431759"><ele>54.0</ele><time>2026-04-10T13:13:19.168Z</time></trkpt><trkpt lat="45.08017521740182" lon="9.449717285233028"><ele>54.0</ele><time>2026-04-10T13:13:20.169Z</time></trkpt><trkpt lat="45.08008216319264" lon="9.449694020654736"><ele>54.0</ele><time>2026-04-10T13:13:21.194Z</time></trkpt><trkpt lat="45.07999587954022" lon="9.449672958475745"><ele>54.0</ele><time>2026-04-10T13:13:22.178Z</time></trkpt><trkpt lat="45.07991641229752" lon="9.449652845354002"><ele>54.0</ele><time>2026-04-10T13:13:23.169Z</time></trkpt><trkpt lat="45.07983907506388" lon="9.449630961974835"><ele>54.0</ele><time>2026-04-10T13:13:24.168Z</time></trkpt><trkpt lat="45.079760642118664" lon="9.449611674867842"><ele>54.0</ele><time>2026-04-10T13:13:25.187Z</time></trkpt><trkpt lat="45.07968232775748" lon="9.44958591638678"><ele>54.0</ele><time>2026-04-10T13:13:26.183Z</time></trkpt><trkpt lat="45.07959429614276" lon="9.44955652229292"><ele>54.25</ele><time>2026-04-10T13:13:27.173Z</time></trkpt><trkpt lat="45.07949297166833" lon="9.449532137076526"><ele>54.5</ele><time>2026-04-10T13:13:28.173Z</time></trkpt><trkpt lat="45.07938088533451" lon="9.449505951500685"><ele>54.75</ele><time>2026-04-10T13:13:29.193Z</time></trkpt><trkpt lat="45.079265431165794" lon="9.449475821955641"><ele>55.0</ele><time>2026-04-10T13:13:30.169Z</time></trkpt><trkpt lat="45.079151274801085" lon="9.449443483756916"><ele>55.0</ele><time>2026-04-10T13:13:31.165Z</time></trkpt><trkpt lat="45.07904757855792" lon="9.449425655460436"><ele>55.0</ele><time>2026-04-10T13:13:32.169Z</time></trkpt><trkpt lat="45.07894618194413" lon="9.449405766668502"><ele>55.0</ele><time>2026-04-10T13:13:33.179Z</time></trkpt><trkpt lat="45.07884223290482" lon="9.449389958144542"><ele>55.0</ele><time>2026-04-10T13:13:34.174Z</time></trkpt><trkpt lat="45.07874091745187" lon="9.44937880714496"><ele>55.0</ele><time>2026-04-10T13:13:35.166Z</time></trkpt><trkpt lat="45.07863904442201" lon="9.449365593977278"><ele>55.0</ele><time>2026-04-10T13:13:36.188Z</time></trkpt><trkpt lat="45.07853631698826" lon="9.449353712924195"><ele>55.0</ele><time>2026-04-10T13:13:37.19Z</time></trkpt><trkpt lat="45.078430675895405" lon="9.449346281436002"><ele>55.0</ele><time>2026-04-10T13:13:38.195Z</time></trkpt><trkpt lat="45.07832562809705" lon="9.449336007542092"><ele>55.0</ele><time>2026-04-10T13:13:39.166Z</time></trkpt><trkpt lat="45.07821651862818" lon="9.449327668756538"><ele>55.0</ele><time>2026-04-10T13:13:40.165Z</time></trkpt><trkpt lat="45.07810875242232" lon="9.449313918612088"><ele>55.75</ele><time>2026-04-10T13:13:41.182Z</time></trkpt><trkpt lat="45.077992620240124" lon="9.449287623128537"><ele>56.5</ele><time>2026-04-10T13:13:42.173Z</time></trkpt><trkpt lat="45.07786685079411" lon="9.449247483760045"><ele>57.25</ele><time>2026-04-10T13:13:43.166Z</time></trkpt><trkpt lat="45.07772264395239" lon="9.449204646999366"><ele>58.0</ele><time>2026-04-10T13:13:44.167Z</time></trkpt><trkpt lat="45.0775828365147" lon="9.449124552105731"><ele>58.0</ele><time>2026-04-10T13:13:45.166Z</time></trkpt><trkpt lat="45.077442459925756" lon="9.449055270714217"><ele>58.0</ele><time>2026-04-10T13:13:46.165Z</time></trkpt><trkpt lat="45.077314599666344" lon="9.449003154118875"><ele>58.0</ele><time>2026-04-10T13:13:47.167Z</time></trkpt><trkpt lat="45.07719593511622" lon="9.448933792258188"><ele>58.0</ele><time>2026-04-10T13:13:48.174Z</time></trkpt><trkpt lat="45.0770858691839" lon="9.448866297806351"><ele>58.0</ele><time>2026-04-10T13:13:49.173Z</time></trkpt><trkpt lat="45.07698225392553" lon="9.448795769546129"><ele>58.0</ele><time>2026-04-10T13:13:50.166Z</time></trkpt><trkpt lat="45.07687821354815" lon="9.448728694822425"><ele>58.0</ele><time>2026-04-10T13:13:51.164Z</time></trkpt><trkpt lat="45.07677477893425" lon="9.448661542447848"><ele>58.0</ele><time>2026-04-10T13:13:52.167Z</time></trkpt><trkpt lat="45.07668221776774" lon="9.448610520181147"><ele>58.0</ele><time>2026-04-10T13:13:53.2Z</time></trkpt><trkpt lat="45.07660126442065" lon="9.448535925660181"><ele>58.599999999999994</ele><time>2026-04-10T13:13:54.168Z</time></trkpt><trkpt lat="45.07650726775875" lon="9.44848547474021"><ele>59.199999999999996</ele><time>2026-04-10T13:13:55.168Z</time></trkpt><trkpt lat="45.07641449815321" lon="9.448425159471226"><ele>59.8</ele><time>2026-04-10T13:13:56.163Z</time></trkpt><trkpt lat="45.07631836874287" lon="9.448357686964716"><ele>60.4</ele><time>2026-04-10T13:13:57.175Z</time></trkpt><trkpt lat="45.07622272309773" lon="9.4482874871297"><ele>61.0</ele><time>2026-04-10T13:13:58.19Z</time></trkpt><trkpt lat="45.076127760967324" lon="9.4482225395934"><ele>61.0</ele><time>2026-04-10T13:13:59.166Z</time></trkpt><trkpt lat="45.07603373401908" lon="9.448159707972934"><ele>61.0</ele><time>2026-04-10T13:14:00.166Z</time></trkpt><trkpt lat="45.07593371896666" lon="9.44810101395269"><ele>61.0</ele><time>2026-04-10T13:14:01.17Z</time></trkpt><trkpt lat="45.07582310653627" lon="9.448035632565784"><ele>61.0</ele><time>2026-04-10T13:14:02.186Z</time></trkpt><trkpt lat="45.07570068661319" lon="9.447960362534584"><ele>61.0</ele><time>2026-04-10T13:14:03.166Z</time></trkpt><trkpt lat="45.07557524266734" lon="9.447885161115735"><ele>61.0</ele><time>2026-04-10T13:14:04.167Z</time></trkpt><trkpt lat="45.07545754845447" lon="9.447815049967978"><ele>61.0</ele><time>2026-04-10T13:14:05.168Z</time></trkpt><trkpt lat="45.07534971070165" lon="9.44774715174147"><ele>61.0</ele><time>2026-04-10T13:14:06.199Z</time></trkpt><trkpt lat="45.07525400374101" lon="9.447682509578398"><ele>61.0</ele><time>2026-04-10T13:14:07.165Z</time></trkpt><trkpt lat="45.07516438162535" lon="9.447619764353213"><ele>60.99999999999999</ele><time>2026-04-10T13:14:08.166Z</time></trkpt><trkpt lat="45.07507528724844" lon="9.447561032437887"><ele>60.99999999999999</ele><time>2026-04-10T13:14:09.182Z</time></trkpt><trkpt lat="45.07498228483682" lon="9.447496854975865"><ele>61.0</ele><time>2026-04-10T13:14:10.188Z</time></trkpt><trkpt lat="45.07488658027793" lon="9.447427941900546"><ele>61.0</ele><time>2026-04-10T13:14:11.167Z</time></trkpt><trkpt lat="45.074791491765716" lon="9.44736168478933"><ele>60.75</ele><time>2026-04-10T13:14:12.165Z</time></trkpt><trkpt lat="45.074694843828055" lon="9.447287620100333"><ele>60.5</ele><time>2026-04-10T13:14:13.175Z</time></trkpt><trkpt lat="45.07459649591553" lon="9.447205980895179"><ele>60.25</ele><time>2026-04-10T13:14:14.184Z</time></trkpt><trkpt lat="45.07449380827265" lon="9.447118594178807"><ele>60.0</ele><time>2026-04-10T13:14:15.166Z</time></trkpt><trkpt lat="45.07439197563388" lon="9.447034154213421"><ele>60.0</ele><time>2026-04-10T13:14:16.172Z</time></trkpt><trkpt lat="45.0742952158134" lon="9.446952653992108"><ele>60.0</ele><time>2026-04-10T13:14:17.185Z</time></trkpt><trkpt lat="45.074216277274544" lon="9.446849260164738"><ele>60.0</ele><time>2026-04-10T13:14:18.162Z</time></trkpt><trkpt lat="45.074118227869" lon="9.446761219575242"><ele>60.0</ele><time>2026-04-10T13:14:19.168Z</time></trkpt><trkpt lat="45.07401182102652" lon="9.446662141074253"><ele>60.0</ele><time>2026-04-10T13:14:20.189Z</time></trkpt><trkpt lat="45.073895131746596" lon="9.4465533692293"><ele>60.0</ele><time>2026-04-10T13:14:21.166Z</time></trkpt><trkpt lat="45.07377515001518" lon="9.446447570708838"><ele>60.0</ele><time>2026-04-10T13:14:22.198Z</time></trkpt><trkpt lat="45.07366045266324" lon="9.446344100199825"><ele>60.0</ele><time>2026-04-10T13:14:23.175Z</time></trkpt><trkpt lat="45.07354038248925" lon="9.446249638310556"><ele>60.0</ele><time>2026-04-10T13:14:24.191Z</time></trkpt><trkpt lat="45.07341813309013" lon="9.446156612920904"><ele>60.0</ele><time>2026-04-10T13:14:25.171Z</time></trkpt><trkpt lat="45.07328990031759" lon="9.446067955965024"><ele>60.0</ele><time>2026-04-10T13:14:26.17Z</time></trkpt><trkpt lat="45.07315867539546" lon="9.445980872590045"><ele>60.0</ele><time>2026-04-10T13:14:27.174Z</time></trkpt><trkpt lat="45.073025232709846" lon="9.445892959711587"><ele>59.75</ele><time>2026-04-10T13:14:28.184Z</time></trkpt><trkpt lat="45.07289198062024" lon="9.44580492387853"><ele>59.5</ele><time>2026-04-10T13:14:29.161Z</time></trkpt><trkpt lat="45.07276061932723" lon="9.4457232968551"><ele>59.25</ele><time>2026-04-10T13:14:30.165Z</time></trkpt><trkpt lat="45.07262751628631" lon="9.445645352992967"><ele>59.0</ele><time>2026-04-10T13:14:31.169Z</time></trkpt><trkpt lat="45.07249828442443" lon="9.445569868510432"><ele>59.0</ele><time>2026-04-10T13:14:32.179Z</time></trkpt><trkpt lat="45.072372770472576" lon="9.44550099832852"><ele>59.0</ele><time>2026-04-10T13:14:33.177Z</time></trkpt><trkpt lat="45.072253821496176" lon="9.445435130710923"><ele>59.0</ele><time>2026-04-10T13:14:34.192Z</time></trkpt><trkpt lat="45.07213592474175" lon="9.445371456720252"><ele>59.0</ele><time>2026-04-10T13:14:35.192Z</time></trkpt><trkpt lat="45.072019313109216" lon="9.445310131679518"><ele>59.0</ele><time>2026-04-10T13:14:36.193Z</time></trkpt><trkpt lat="45.07191007836705" lon="9.445250969055209"><ele>59.00000000000001</ele><time>2026-04-10T13:14:37.185Z</time></trkpt><trkpt lat="45.07181303825027" lon="9.445198563018566"><ele>59.00000000000001</ele><time>2026-04-10T13:14:38.179Z</time></trkpt><trkpt lat="45.07171759149164" lon="9.445161688148568"><ele>59.0</ele><time>2026-04-10T13:14:39.177Z</time></trkpt><trkpt lat="45.0716271251821" lon="9.445126140302945"><ele>59.0</ele><time>2026-04-10T13:14:40.174Z</time></trkpt><trkpt lat="45.0715418383847" lon="9.445086930563638"><ele>59.00000000000001</ele><time>2026-04-10T13:14:41.173Z</time></trkpt><trkpt lat="45.07146394097598" lon="9.445040141722608"><ele>59.0</ele><time>2026-04-10T13:14:42.181Z</time></trkpt><trkpt lat="45.07139310869878" lon="9.444982298892258"><ele>59.0</ele><time>2026-04-10T13:14:43.178Z</time></trkpt><trkpt lat="45.07133031131822" lon="9.44491977558294"><ele>59.0</ele><time>2026-04-10T13:14:44.166Z</time></trkpt><trkpt lat="45.0712699217706" lon="9.444844702544554"><ele>59.00000000000001</ele><time>2026-04-10T13:14:45.181Z</time></trkpt><trkpt lat="45.07119889734783" lon="9.444745397892754"><ele>59.0</ele><time>2026-04-10T13:14:46.187Z</time></trkpt><trkpt lat="45.07112079376551" lon="9.444648702513827"><ele>59.0</ele><time>2026-04-10T13:14:47.17Z</time></trkpt><trkpt lat="45.07103027998904" lon="9.444586348715141"><ele>59.00000000000001</ele><time>2026-04-10T13:14:48.181Z</time></trkpt><trkpt lat="45.07093396538373" lon="9.444573704614433"><ele>59.00000000000001</ele><time>2026-04-10T13:14:49.656Z</time></trkpt><trkpt lat="45.070840083543665" lon="9.444613235979753"><ele>59.0</ele><time>2026-04-10T13:14:50.176Z</time></trkpt><trkpt lat="45.07075862954607" lon="9.444661897586288"><ele>59.0</ele><time>2026-04-10T13:14:51.177Z</time></trkpt><trkpt lat="45.0706750068331" lon="9.444702300788727"><ele>59.6</ele><time>2026-04-10T13:14:52.183Z</time></trkpt><trkpt lat="45.070581850780016" lon="9.444723985250858"><ele>60.2</ele><time>2026-04-10T13:14:53.17Z</time></trkpt><trkpt lat="45.07048698070371" lon="9.44473010892781"><ele>60.800000000000004</ele><time>2026-04-10T13:14:54.17Z</time></trkpt><trkpt lat="45.07040038951747" lon="9.444754756418861"><ele>61.400000000000006</ele><time>2026-04-10T13:14:55.169Z</time></trkpt><trkpt lat="45.0703071725026" lon="9.44469263731755"><ele>62.0</ele><time>2026-04-10T13:14:56.177Z</time></trkpt><trkpt lat="45.07022195599516" lon="9.444666470505197"><ele>62.0</ele><time>2026-04-10T13:14:57.171Z</time></trkpt><trkpt lat="45.07012453535667" lon="9.44464831152866"><ele>62.0</ele><time>2026-04-10T13:14:58.166Z</time></trkpt><trkpt lat="45.07000935001138" lon="9.444609284690289"><ele>62.0</ele><time>2026-04-10T13:14:59.171Z</time></trkpt><trkpt lat="45.06987917744177" lon="9.444579009586803"><ele>62.0</ele><time>2026-04-10T13:15:00.17Z</time></trkpt><trkpt lat="45.069750305663646" lon="9.444553080819778"><ele>62.333333333333336</ele><time>2026-04-10T13:15:01.169Z</time></trkpt><trkpt lat="45.06959775892425" lon="9.444524732903776"><ele>62.66666666666667</ele><time>2026-04-10T13:15:02.165Z</time></trkpt><trkpt lat="45.06940436007131" lon="9.444494627853677"><ele>63.0</ele><time>2026-04-10T13:15:03.175Z</time></trkpt><trkpt lat="45.06923347111844" lon="9.444471909911007"><ele>63.33333333333333</ele><time>2026-04-10T13:15:04.174Z</time></trkpt><trkpt lat="45.069078152853386" lon="9.444472729118905"><ele>63.666666666666664</ele><time>2026-04-10T13:15:05.185Z</time></trkpt><trkpt lat="45.06890734793444" lon="9.44444027338235"><ele>64.0</ele><time>2026-04-10T13:15:06.175Z</time></trkpt><trkpt lat="45.06871466006455" lon="9.44441177523508"><ele>64.0</ele><time>2026-04-10T13:15:07.178Z</time></trkpt><trkpt lat="45.06852559045159" lon="9.444383427499035"><ele>64.0</ele><time>2026-04-10T13:15:08.17Z</time></trkpt><trkpt lat="45.06834490195414" lon="9.44435597142713"><ele>64.0</ele><time>2026-04-10T13:15:09.171Z</time></trkpt><trkpt lat="45.06816342793843" lon="9.444333788900083"><ele>64.0</ele><time>2026-04-10T13:15:10.17Z</time></trkpt><trkpt lat="45.067980936568176" lon="9.444313423098338"><ele>64.0</ele><time>2026-04-10T13:15:11.172Z</time></trkpt><trkpt lat="45.06779678953292" lon="9.444290284228195"><ele>64.0</ele><time>2026-04-10T13:15:12.168Z</time></trkpt><trkpt lat="45.067606074925486" lon="9.44427258562205"><ele>64.0</ele><time>2026-04-10T13:15:13.185Z</time></trkpt><trkpt lat="45.06741078296212" lon="9.444236338300286"><ele>64.0</ele><time>2026-04-10T13:15:14.166Z</time></trkpt><trkpt lat="45.067200577405195" lon="9.444210615226757"><ele>64.0</ele><time>2026-04-10T13:15:15.173Z</time></trkpt><trkpt lat="45.06698553200601" lon="9.444182267340434"><ele>64.0</ele><time>2026-04-10T13:15:16.169Z</time></trkpt><trkpt lat="45.06678796857818" lon="9.444155687079272"><ele>64.0</ele><time>2026-04-10T13:15:17.17Z</time></trkpt><trkpt lat="45.06659578415184" lon="9.444131252127898"><ele>64.0</ele><time>2026-04-10T13:15:18.168Z</time></trkpt><trkpt lat="45.06641308484433" lon="9.444108153733374"><ele>64.66666666666666</ele><time>2026-04-10T13:15:19.169Z</time></trkpt><trkpt lat="45.066230377228564" lon="9.444085054302693"><ele>65.33333333333333</ele><time>2026-04-10T13:15:20.171Z</time></trkpt><trkpt lat="45.06604904539449" lon="9.444084233478623"><ele>66.0</ele><time>2026-04-10T13:15:21.172Z</time></trkpt><trkpt lat="45.065867416395584" lon="9.444060840298425"><ele>67.66666666666667</ele><time>2026-04-10T13:15:22.167Z</time></trkpt><trkpt lat="45.06569318594569" lon="9.444016880050807"><ele>69.33333333333334</ele><time>2026-04-10T13:15:23.168Z</time></trkpt><trkpt lat="45.06553087685615" lon="9.444018021227958"><ele>71.0</ele><time>2026-04-10T13:15:24.423Z</time></trkpt><trkpt lat="45.06537442825577" lon="9.443995469275553"><ele>71.0</ele><time>2026-04-10T13:15:25.176Z</time></trkpt><trkpt lat="45.06522242304999" lon="9.443955901844319"><ele>71.0</ele><time>2026-04-10T13:15:26.168Z</time></trkpt><trkpt lat="45.06506703415109" lon="9.443934370637198"><ele>71.0</ele><time>2026-04-10T13:15:27.179Z</time></trkpt><trkpt lat="45.06491565120315" lon="9.443926435622693"><ele>72.66666666666667</ele><time>2026-04-10T13:15:28.172Z</time></trkpt><trkpt lat="45.06477167117043" lon="9.443848467680777"><ele>74.33333333333333</ele><time>2026-04-10T13:15:29.18Z</time></trkpt><trkpt lat="45.064633261799685" lon="9.443759583048772"><ele>76.0</ele><time>2026-04-10T13:15:30.174Z</time></trkpt><trkpt lat="45.06450425475201" lon="9.443656991937278"><ele>76.0</ele><time>2026-04-10T13:15:31.168Z</time></trkpt><trkpt lat="45.06440510871703" lon="9.443505098401936"><ele>76.0</ele><time>2026-04-10T13:15:32.17Z</time></trkpt><trkpt lat="45.06432197072372" lon="9.443341587332403"><ele>76.0</ele><time>2026-04-10T13:15:33.174Z</time></trkpt><trkpt lat="45.0642548682542" lon="9.443166606822968"><ele>76.0</ele><time>2026-04-10T13:15:34.169Z</time></trkpt><trkpt lat="45.06419864199267" lon="9.442988681856882"><ele>75.0</ele><time>2026-04-10T13:15:35.169Z</time></trkpt><trkpt lat="45.06414619915929" lon="9.442802223533477"><ele>74.0</ele><time>2026-04-10T13:15:36.167Z</time></trkpt><trkpt lat="45.06408896513013" lon="9.442618687051567"><ele>73.0</ele><time>2026-04-10T13:15:37.171Z</time></trkpt><trkpt lat="45.06403171507866" lon="9.442436027324401"><ele>72.0</ele><time>2026-04-10T13:15:38.173Z</time></trkpt><trkpt lat="45.063968222511576" lon="9.44225601019545"><ele>73.25</ele><time>2026-04-10T13:15:39.171Z</time></trkpt><trkpt lat="45.063910328825116" lon="9.442074085668224"><ele>74.5</ele><time>2026-04-10T13:15:40.171Z</time></trkpt><trkpt lat="45.06385383108914" lon="9.44189277928053"><ele>75.75</ele><time>2026-04-10T13:15:41.179Z</time></trkpt><trkpt lat="45.063796536782085" lon="9.441712433487329"><ele>77.0</ele><time>2026-04-10T13:15:42.166Z</time></trkpt><trkpt lat="45.063741316644006" lon="9.441530387130829"><ele>77.0</ele><time>2026-04-10T13:15:43.172Z</time></trkpt><trkpt lat="45.06368697706167" lon="9.441348895394915"><ele>77.0</ele><time>2026-04-10T13:15:44.165Z</time></trkpt><trkpt lat="45.06363040120091" lon="9.441168319769192"><ele>77.0</ele><time>2026-04-10T13:15:45.161Z</time></trkpt><trkpt lat="45.06356562986575" lon="9.44099245287842"><ele>77.0</ele><time>2026-04-10T13:15:46.168Z</time></trkpt><trkpt lat="45.06349767931456" lon="9.44081711787861"><ele>77.0</ele><time>2026-04-10T13:15:47.168Z</time></trkpt><trkpt lat="45.06342115076825" lon="9.440646227412259"><ele>77.0</ele><time>2026-04-10T13:15:48.167Z</time></trkpt><trkpt lat="45.063333837520354" lon="9.440478110428133"><ele>77.0</ele><time>2026-04-10T13:15:49.177Z</time></trkpt><trkpt lat="45.06323097439715" lon="9.44030605918775"><ele>77.0</ele><time>2026-04-10T13:15:50.166Z</time></trkpt><trkpt lat="45.063120373490285" lon="9.440135009744429"><ele>77.0</ele><time>2026-04-10T13:15:51.163Z</time></trkpt><trkpt lat="45.06301416526279" lon="9.439979434107702"><ele>77.0</ele><time>2026-04-10T13:15:52.615Z</time></trkpt><trkpt lat="45.062913060199236" lon="9.439831185579337"><ele>77.0</ele><time>2026-04-10T13:15:53.164Z</time></trkpt><trkpt lat="45.062810572455675" lon="9.439700652307385"><ele>77.0</ele><time>2026-04-10T13:15:54.165Z</time></trkpt><trkpt lat="45.06273461683395" lon="9.439541250234553"><ele>77.0</ele><time>2026-04-10T13:15:55.167Z</time></trkpt><trkpt lat="45.06262817408329" lon="9.439405905872986"><ele>77.0</ele><time>2026-04-10T13:15:56.176Z</time></trkpt><trkpt lat="45.06251173641881" lon="9.43927859241292"><ele>76.25</ele><time>2026-04-10T13:15:57.167Z</time></trkpt><trkpt lat="45.06238898547887" lon="9.43916154840279"><ele>75.5</ele><time>2026-04-10T13:15:58.176Z</time></trkpt><trkpt lat="45.06226512058714" lon="9.439061825795074"><ele>74.75</ele><time>2026-04-10T13:15:59.168Z</time></trkpt><trkpt lat="45.0621488622881" lon="9.438985495152549"><ele>74.0</ele><time>2026-04-10T13:16:00.169Z</time></trkpt><trkpt lat="45.06202535341495" lon="9.438925124151167"><ele>74.0</ele><time>2026-04-10T13:16:01.174Z</time></trkpt><trkpt lat="45.06190953440833" lon="9.438875857288842"><ele>74.0</ele><time>2026-04-10T13:16:02.168Z</time></trkpt><trkpt lat="45.0617878862936" lon="9.438828381460109"><ele>74.0</ele><time>2026-04-10T13:16:03.168Z</time></trkpt><trkpt lat="45.061664310781005" lon="9.438782383437372"><ele>74.0</ele><time>2026-04-10T13:16:04.164Z</time></trkpt><trkpt lat="45.061536047145296" lon="9.43874087584362"><ele>72.5</ele><time>2026-04-10T13:16:05.167Z</time></trkpt><trkpt lat="45.0613990705907" lon="9.438698469765669"><ele>71.0</ele><time>2026-04-10T13:16:06.187Z</time></trkpt><trkpt lat="45.06125821173647" lon="9.438647257594523"><ele>69.5</ele><time>2026-04-10T13:16:07.171Z</time></trkpt><trkpt lat="45.061126282524114" lon="9.438591409321345"><ele>68.0</ele><time>2026-04-10T13:16:08.167Z</time></trkpt><trkpt lat="45.060997921697506" lon="9.438543875517002"><ele>68.0</ele><time>2026-04-10T13:16:09.178Z</time></trkpt><trkpt lat="45.06087110665988" lon="9.438500828919665"><ele>68.0</ele><time>2026-04-10T13:16:10.177Z</time></trkpt><trkpt lat="45.06076175837759" lon="9.438465108394738"><ele>68.0</ele><time>2026-04-10T13:16:11.166Z</time></trkpt><trkpt lat="45.06067838005247" lon="9.438435417193707"><ele>68.0</ele><time>2026-04-10T13:16:12.165Z</time></trkpt><trkpt lat="45.060611659204994" lon="9.438400562095769"><ele>68.0</ele><time>2026-04-10T13:16:13.168Z</time></trkpt><trkpt lat="45.06055168387543" lon="9.438359985236906"><ele>68.4</ele><time>2026-04-10T13:16:14.164Z</time></trkpt><trkpt lat="45.060498476784616" lon="9.438305996409824"><ele>68.8</ele><time>2026-04-10T13:16:15.166Z</time></trkpt><trkpt lat="45.06039032309933" lon="9.438227472508114"><ele>69.2</ele><time>2026-04-10T13:16:17.168Z</time></trkpt><trkpt lat="45.060275115320636" lon="9.438260837907047"><ele>69.6</ele><time>2026-04-10T13:16:19.722Z</time></trkpt><trkpt lat="45.06018635619183" lon="9.438400202346022"><ele>70.0</ele><time>2026-04-10T13:16:21.171Z</time></trkpt><trkpt lat="45.06010934799956" lon="9.438441755196331"><ele>70.0</ele><time>2026-04-10T13:16:22.17Z</time></trkpt><trkpt lat="45.06003578909624" lon="9.438480400241588"><ele>70.0</ele><time>2026-04-10T13:16:23.168Z</time></trkpt><trkpt lat="45.059955689086415" lon="9.438517663083527"><ele>70.0</ele><time>2026-04-10T13:16:24.179Z</time></trkpt><trkpt lat="45.05987112093757" lon="9.438558866574832"><ele>70.0</ele><time>2026-04-10T13:16:25.172Z</time></trkpt><trkpt lat="45.059784739103534" lon="9.438601436194865"><ele>70.0</ele><time>2026-04-10T13:16:26.168Z</time></trkpt><trkpt lat="45.05970072750228" lon="9.438638133688931"><ele>70.0</ele><time>2026-04-10T13:16:27.168Z</time></trkpt><trkpt lat="45.05961566524224" lon="9.438672742202069"><ele>70.16666666666666</ele><time>2026-04-10T13:16:28.166Z</time></trkpt><trkpt lat="45.05953561586776" lon="9.438708895724442"><ele>70.33333333333333</ele><time>2026-04-10T13:16:29.165Z</time></trkpt><trkpt lat="45.059461048139156" lon="9.438743401414657"><ele>70.5</ele><time>2026-04-10T13:16:30.172Z</time></trkpt><trkpt lat="45.0593665991969" lon="9.438790415157998"><ele>70.66666666666667</ele><time>2026-04-10T13:16:32.166Z</time></trkpt><trkpt lat="45.05929820224927" lon="9.438823434473315"><ele>70.83333333333334</ele><time>2026-04-10T13:16:34.171Z</time></trkpt><trkpt lat="45.0592371653448" lon="9.438846832791478"><ele>71.0</ele><time>2026-04-10T13:16:35.167Z</time></trkpt><trkpt lat="45.059171317744266" lon="9.438878542870798"><ele>70.83333333333334</ele><time>2026-04-10T13:16:36.167Z</time></trkpt><trkpt lat="45.05909276973435" lon="9.438912022275582"><ele>70.66666666666667</ele><time>2026-04-10T13:16:37.171Z</time></trkpt><trkpt lat="45.05901684568351" lon="9.43894178035556"><ele>70.5</ele><time>2026-04-10T13:16:38.168Z</time></trkpt><trkpt lat="45.058941528505855" lon="9.438972894377963"><ele>70.33333333333333</ele><time>2026-04-10T13:16:39.169Z</time></trkpt><trkpt lat="45.05887117139248" lon="9.438999504755737"><ele>70.16666666666666</ele><time>2026-04-10T13:16:40.162Z</time></trkpt><trkpt lat="45.05876022975937" lon="9.438994894813579"><ele>70.0</ele><time>2026-04-10T13:16:42.169Z</time></trkpt><trkpt lat="45.05867077062236" lon="9.439012512892043"><ele>70.0</ele><time>2026-04-10T13:16:44.166Z</time></trkpt><trkpt lat="45.05860241492479" lon="9.43910709676065"><ele>70.0</ele><time>2026-04-10T13:16:47.167Z</time></trkpt><trkpt lat="45.05850591295014" lon="9.439083114857937"><ele>70.0</ele><time>2026-04-10T13:16:48.168Z</time></trkpt><trkpt lat="45.058412578909035" lon="9.438993685300245"><ele>70.0</ele><time>2026-04-10T13:16:49.168Z</time></trkpt><trkpt lat="45.05829558958247" lon="9.439074359636491"><ele>70.0</ele><time>2026-04-10T13:16:50.17Z</time></trkpt><trkpt lat="45.05818993107138" lon="9.439070032482793"><ele>70.0</ele><time>2026-04-10T13:16:51.169Z</time></trkpt><trkpt lat="45.0580940487099" lon="9.439062834365606"><ele>70.0</ele><time>2026-04-10T13:16:52.161Z</time></trkpt><trkpt lat="45.05800525994709" lon="9.439059508897245"><ele>70.0</ele><time>2026-04-10T13:16:53.168Z</time></trkpt><trkpt lat="45.05792353350325" lon="9.439058233494595"><ele>70.0</ele><time>2026-04-10T13:16:54.586Z</time></trkpt><trkpt lat="45.05784941245036" lon="9.439035892494784"><ele>70.0</ele><time>2026-04-10T13:16:55.164Z</time></trkpt><trkpt lat="45.057781828560614" lon="9.439017920667485"><ele>70.0</ele><time>2026-04-10T13:16:56.168Z</time></trkpt><trkpt lat="45.057717297620556" lon="9.43901601836509"><ele>70.0</ele><time>2026-04-10T13:16:57.166Z</time></trkpt><trkpt lat="45.057641398499804" lon="9.439103877052464"><ele>70.0</ele><time>2026-04-10T13:16:59.161Z</time></trkpt><trkpt lat="45.05759993833333" lon="9.43925383836226"><ele>70.0</ele><time>2026-04-10T13:17:01.175Z</time></trkpt><trkpt lat="45.057542782652014" lon="9.439350280084993"><ele>70.0</ele><time>2026-04-10T13:17:02.431Z</time></trkpt><trkpt lat="45.05746724667658" lon="9.439453406037227"><ele>70.0</ele><time>2026-04-10T13:17:03.167Z</time></trkpt><trkpt lat="45.05738736601512" lon="9.439554991244757"><ele>70.75</ele><time>2026-04-10T13:17:04.165Z</time></trkpt><trkpt lat="45.057303960535386" lon="9.439663523233433"><ele>71.5</ele><time>2026-04-10T13:17:05.169Z</time></trkpt><trkpt lat="45.05722849945754" lon="9.439779452593992"><ele>72.25</ele><time>2026-04-10T13:17:06.166Z</time></trkpt><trkpt lat="45.057149206018316" lon="9.43989406024352"><ele>73.0</ele><time>2026-04-10T13:17:07.174Z</time></trkpt><trkpt lat="45.05705293681381" lon="9.439983500799597"><ele>73.0</ele><time>2026-04-10T13:17:08.166Z</time></trkpt><trkpt lat="45.05697882014239" lon="9.44009268953126"><ele>73.0</ele><time>2026-04-10T13:17:09.173Z</time></trkpt><trkpt lat="45.05691109843785" lon="9.440193556816629"><ele>73.0</ele><time>2026-04-10T13:17:10.166Z</time></trkpt><trkpt lat="45.056844522924564" lon="9.440289103044872"><ele>73.0</ele><time>2026-04-10T13:17:11.16Z</time></trkpt><trkpt lat="45.056783464567374" lon="9.440383168157666"><ele>73.0</ele><time>2026-04-10T13:17:12.178Z</time></trkpt><trkpt lat="45.05671763761702" lon="9.440481411348713"><ele>72.6</ele><time>2026-04-10T13:17:13.168Z</time></trkpt><trkpt lat="45.056651177419454" lon="9.440578237865681"><ele>72.19999999999999</ele><time>2026-04-10T13:17:14.199Z</time></trkpt><trkpt lat="45.05658968295256" lon="9.44067102101774"><ele>71.8</ele><time>2026-04-10T13:17:15.169Z</time></trkpt><trkpt lat="45.05653312919163" lon="9.440757629558746"><ele>71.39999999999999</ele><time>2026-04-10T13:17:16.187Z</time></trkpt><trkpt lat="45.05647465823621" lon="9.440850720816556"><ele>71.0</ele><time>2026-04-10T13:17:17.186Z</time></trkpt><trkpt lat="45.0564074592064" lon="9.440959907000495"><ele>72.0</ele><time>2026-04-10T13:17:18.192Z</time></trkpt><trkpt lat="45.056334313668145" lon="9.441070430481624"><ele>73.0</ele><time>2026-04-10T13:17:19.183Z</time></trkpt><trkpt lat="45.056260092858516" lon="9.44117666538815"><ele>74.0</ele><time>2026-04-10T13:17:20.168Z</time></trkpt><trkpt lat="45.056183124234494" lon="9.44128596537581"><ele>75.0</ele><time>2026-04-10T13:17:21.185Z</time></trkpt><trkpt lat="45.0561085040655" lon="9.441400044569207"><ele>76.0</ele><time>2026-04-10T13:17:22.167Z</time></trkpt><trkpt lat="45.05603983188375" lon="9.441505104697205"><ele>76.0</ele><time>2026-04-10T13:17:23.19Z</time></trkpt><trkpt lat="45.0559782736739" lon="9.441596947289888"><ele>76.0</ele><time>2026-04-10T13:17:24.169Z</time></trkpt><trkpt lat="45.05591401083098" lon="9.441661168631626"><ele>76.0</ele><time>2026-04-10T13:17:25.17Z</time></trkpt><trkpt lat="45.05584898529722" lon="9.441682241401576"><ele>76.0</ele><time>2026-04-10T13:17:26.165Z</time></trkpt><trkpt lat="45.055737878645246" lon="9.441709553128117"><ele>76.0</ele><time>2026-04-10T13:17:28.17Z</time></trkpt><trkpt lat="45.05575351870168" lon="9.441826238816672"><ele>76.0</ele><time>2026-04-10T13:17:29.192Z</time></trkpt><trkpt lat="45.055826676791135" lon="9.441834690727571"><ele>76.0</ele><time>2026-04-10T13:17:34.171Z</time></trkpt><trkpt lat="45.055902850738796" lon="9.44173193995494"><ele>76.0</ele><time>2026-04-10T13:17:35.173Z</time></trkpt><trkpt lat="45.05598163077488" lon="9.441599339786682"><ele>76.0</ele><time>2026-04-10T13:17:36.17Z</time></trkpt><trkpt lat="45.05608508330878" lon="9.441465633589145"><ele>76.0</ele><time>2026-04-10T13:17:37.17Z</time></trkpt><trkpt lat="45.05617282919028" lon="9.441343475626493"><ele>76.39999999999999</ele><time>2026-04-10T13:17:38.176Z</time></trkpt><trkpt lat="45.05625361376499" lon="9.441227347142943"><ele>76.8</ele><time>2026-04-10T13:17:39.168Z</time></trkpt><trkpt lat="45.05632565993194" lon="9.441123719645912"><ele>77.19999999999999</ele><time>2026-04-10T13:17:40.17Z</time></trkpt><trkpt lat="45.05638550837395" lon="9.44104939682165"><ele>77.6</ele><time>2026-04-10T13:17:41.169Z</time></trkpt><trkpt lat="45.056466288393175" lon="9.44096739199488"><ele>78.0</ele><time>2026-04-10T13:17:43.174Z</time></trkpt><trkpt lat="45.056514989898595" lon="9.440905590929265"><ele>78.0</ele><time>2026-04-10T13:17:45.18Z</time></trkpt><trkpt lat="45.05655824979027" lon="9.44083452580695"><ele>78.0</ele><time>2026-04-10T13:17:48.169Z</time></trkpt><trkpt lat="45.056612376186216" lon="9.440733379258226"><ele>78.0</ele><time>2026-04-10T13:17:50.17Z</time></trkpt><trkpt lat="45.05669205998656" lon="9.44059348006611"><ele>78.0</ele><time>2026-04-10T13:17:52.193Z</time></trkpt><trkpt lat="45.056741627720335" lon="9.440515301405217"><ele>78.0</ele><time>2026-04-10T13:17:53.173Z</time></trkpt><trkpt lat="45.056795605789915" lon="9.440429983165652"><ele>78.0</ele><time>2026-04-10T13:17:54.176Z</time></trkpt><trkpt lat="45.05685065415231" lon="9.440355748076035"><ele>77.16666666666667</ele><time>2026-04-10T13:17:55.172Z</time></trkpt><trkpt lat="45.056912463550695" lon="9.440294084173301"><ele>76.33333333333333</ele><time>2026-04-10T13:17:57.156Z</time></trkpt><trkpt lat="45.05695930588898" lon="9.440231370785998"><ele>75.5</ele><time>2026-04-10T13:18:00.17Z</time></trkpt><trkpt lat="45.05702915392486" lon="9.44019694140716"><ele>74.66666666666666</ele><time>2026-04-10T13:18:04.168Z</time></trkpt><trkpt lat="45.05701594359502" lon="9.440099133043834"><ele>73.83333333333333</ele><time>2026-04-10T13:18:13.164Z</time></trkpt><trkpt lat="45.05707212883178" lon="9.439983155660146"><ele>73.0</ele><time>2026-04-10T13:36:02.158Z</time></trkpt><trkpt lat="45.057122768268066" lon="9.439910417628797"><ele>73.0</ele><time>2026-04-10T13:36:03.172Z</time></trkpt><trkpt lat="45.05719786145354" lon="9.439800651538004"><ele>73.0</ele><time>2026-04-10T13:36:04.176Z</time></trkpt><trkpt lat="45.05727669395981" lon="9.439671547709121"><ele>73.0</ele><time>2026-04-10T13:36:05.166Z</time></trkpt><trkpt lat="45.05734930389117" lon="9.439557478496617"><ele>73.0</ele><time>2026-04-10T13:36:06.173Z</time></trkpt><trkpt lat="45.05745193205713" lon="9.4395121700829"><ele>73.0</ele><time>2026-04-10T13:36:07.166Z</time></trkpt><trkpt lat="45.05750635219543" lon="9.439451908409387"><ele>72.4</ele><time>2026-04-10T13:36:08.176Z</time></trkpt><trkpt lat="45.0575294698839" lon="9.439317613643077"><ele>71.8</ele><time>2026-04-10T13:36:09.166Z</time></trkpt><trkpt lat="45.05765320570289" lon="9.439297437866072"><ele>71.2</ele><time>2026-04-10T13:36:11.167Z</time></trkpt><trkpt lat="45.057719688126404" lon="9.439289647599638"><ele>70.6</ele><time>2026-04-10T13:36:12.174Z</time></trkpt><trkpt lat="45.05784238090809" lon="9.439258944182916"><ele>70.0</ele><time>2026-04-10T13:36:14.163Z</time></trkpt><trkpt lat="45.057926504471645" lon="9.439242431894423"><ele>70.0</ele><time>2026-04-10T13:36:15.196Z</time></trkpt><trkpt lat="45.0580457171531" lon="9.43924094202734"><ele>70.0</ele><time>2026-04-10T13:36:16.169Z</time></trkpt><trkpt lat="45.058176694193854" lon="9.439229039456341"><ele>70.0</ele><time>2026-04-10T13:36:17.175Z</time></trkpt><trkpt lat="45.058285296436175" lon="9.439228472091854"><ele>70.0</ele><time>2026-04-10T13:36:18.166Z</time></trkpt><trkpt lat="45.05839107875304" lon="9.439237399723437"><ele>70.0</ele><time>2026-04-10T13:36:19.181Z</time></trkpt><trkpt lat="45.05849909197496" lon="9.439247272329323"><ele>70.0</ele><time>2026-04-10T13:36:20.194Z</time></trkpt><trkpt lat="45.05859759992682" lon="9.439273922280549"><ele>70.0</ele><time>2026-04-10T13:36:21.16Z</time></trkpt><trkpt lat="45.058682133438275" lon="9.43930375147836"><ele>70.0</ele><time>2026-04-10T13:36:22.18Z</time></trkpt><trkpt lat="45.05875667968491" lon="9.439334262215677"><ele>70.0</ele><time>2026-04-10T13:36:23.167Z</time></trkpt><trkpt lat="45.058847490411864" lon="9.439236861105647"><ele>70.0</ele><time>2026-04-10T13:36:25.198Z</time></trkpt><trkpt lat="45.05883547922095" lon="9.439067115721231"><ele>70.0</ele><time>2026-04-10T13:36:27.176Z</time></trkpt><trkpt lat="45.05879729385605" lon="9.438988694158462"><ele>70.0</ele><time>2026-04-10T13:36:28.202Z</time></trkpt><trkpt lat="45.05877082413266" lon="9.438852355105453"><ele>70.0</ele><time>2026-04-10T13:36:30.194Z</time></trkpt><trkpt lat="45.058768863223264" lon="9.4387505463211"><ele>70.0</ele><time>2026-04-10T13:36:31.182Z</time></trkpt><trkpt lat="45.05878403251644" lon="9.438643117578891"><ele>70.0</ele><time>2026-04-10T13:36:32.167Z</time></trkpt><trkpt lat="45.05878684349153" lon="9.438530876138133"><ele>70.4</ele><time>2026-04-10T13:36:33.182Z</time></trkpt><trkpt lat="45.05879081823281" lon="9.43840238337846"><ele>70.8</ele><time>2026-04-10T13:36:34.187Z</time></trkpt><trkpt lat="45.0587908262448" lon="9.43827702556769"><ele>71.2</ele><time>2026-04-10T13:36:35.168Z</time></trkpt><trkpt lat="45.05880468378824" lon="9.438151120036487"><ele>71.6</ele><time>2026-04-10T13:36:36.184Z</time></trkpt><trkpt lat="45.058811151497416" lon="9.438025586527106"><ele>72.0</ele><time>2026-04-10T13:36:37.188Z</time></trkpt><trkpt lat="45.05881769839132" lon="9.437893096165318"><ele>72.16666666666667</ele><time>2026-04-10T13:36:38.185Z</time></trkpt><trkpt lat="45.058821228161726" lon="9.437774181329795"><ele>72.33333333333333</ele><time>2026-04-10T13:36:39.163Z</time></trkpt><trkpt lat="45.05882703091262" lon="9.437657519579181"><ele>72.5</ele><time>2026-04-10T13:36:40.179Z</time></trkpt><trkpt lat="45.05883210012999" lon="9.43754090698449"><ele>72.66666666666666</ele><time>2026-04-10T13:36:41.179Z</time></trkpt><trkpt lat="45.058836169473196" lon="9.437432494908677"><ele>72.83333333333333</ele><time>2026-04-10T13:36:42.163Z</time></trkpt><trkpt lat="45.05883606686167" lon="9.437318548289113"><ele>73.0</ele><time>2026-04-10T13:36:43.173Z</time></trkpt><trkpt lat="45.058838865477625" lon="9.43720774362577"><ele>73.16666666666666</ele><time>2026-04-10T13:36:44.156Z</time></trkpt><trkpt lat="45.058841943837784" lon="9.437095711251146"><ele>73.33333333333333</ele><time>2026-04-10T13:36:45.181Z</time></trkpt><trkpt lat="45.05885171673681" lon="9.43698025304267"><ele>73.5</ele><time>2026-04-10T13:36:46.174Z</time></trkpt><trkpt lat="45.05886066038372" lon="9.436869485939782"><ele>73.66666666666667</ele><time>2026-04-10T13:36:47.181Z</time></trkpt><trkpt lat="45.058864996663516" lon="9.43676049728234"><ele>73.83333333333334</ele><time>2026-04-10T13:36:48.179Z</time></trkpt><trkpt lat="45.05886511785808" lon="9.436658759509896"><ele>74.0</ele><time>2026-04-10T13:36:49.179Z</time></trkpt><trkpt lat="45.05887518384155" lon="9.436562623721416"><ele>74.0</ele><time>2026-04-10T13:36:50.175Z</time></trkpt><trkpt lat="45.058890748803236" lon="9.43639592165988"><ele>74.0</ele><time>2026-04-10T13:36:52.164Z</time></trkpt><trkpt lat="45.05888839589672" lon="9.436233455950548"><ele>74.0</ele><time>2026-04-10T13:36:54.175Z</time></trkpt><trkpt lat="45.058896060956556" lon="9.436074719693057"><ele>74.0</ele><time>2026-04-10T13:36:56.179Z</time></trkpt><trkpt lat="45.058897728476005" lon="9.435920525833323"><ele>74.0</ele><time>2026-04-10T13:36:58.167Z</time></trkpt><trkpt lat="45.05890676903388" lon="9.435760589354995"><ele>74.0</ele><time>2026-04-10T13:37:00.172Z</time></trkpt><trkpt lat="45.05891385851911" lon="9.43562094046473"><ele>74.0</ele><time>2026-04-10T13:37:02.177Z</time></trkpt><trkpt lat="45.05892993056721" lon="9.435435945243132"><ele>74.0</ele><time>2026-04-10T13:37:04.182Z</time></trkpt><trkpt lat="45.05893554258052" lon="9.435323542112512"><ele>74.0</ele><time>2026-04-10T13:37:05.178Z</time></trkpt><trkpt lat="45.05894162382461" lon="9.435201595244848"><ele>74.0</ele><time>2026-04-10T13:37:06.175Z</time></trkpt><trkpt lat="45.05893161672525" lon="9.435083532086503"><ele>74.0</ele><time>2026-04-10T13:37:07.173Z</time></trkpt><trkpt lat="45.05896236810078" lon="9.434948015699828"><ele>74.0</ele><time>2026-04-10T13:37:08.178Z</time></trkpt><trkpt lat="45.058966180368316" lon="9.434806324424512"><ele>74.0</ele><time>2026-04-10T13:37:09.159Z</time></trkpt><trkpt lat="45.058972157447975" lon="9.434675111354768"><ele>74.0</ele><time>2026-04-10T13:37:10.18Z</time></trkpt><trkpt lat="45.05897475942084" lon="9.434566020227985"><ele>73.83333333333334</ele><time>2026-04-10T13:37:11.179Z</time></trkpt><trkpt lat="45.05897483481835" lon="9.434467206038994"><ele>73.66666666666667</ele><time>2026-04-10T13:37:12.172Z</time></trkpt><trkpt lat="45.05898110006671" lon="9.43436803227016"><ele>73.5</ele><time>2026-04-10T13:37:13.18Z</time></trkpt><trkpt lat="45.05899719029825" lon="9.434272148349937"><ele>73.33333333333333</ele><time>2026-04-10T13:37:14.584Z</time></trkpt><trkpt lat="45.05900676319978" lon="9.434106136430536"><ele>73.16666666666666</ele><time>2026-04-10T13:37:16.176Z</time></trkpt><trkpt lat="45.05898140566043" lon="9.43396354956009"><ele>73.0</ele><time>2026-04-10T13:37:18.172Z</time></trkpt><trkpt lat="45.05884984599781" lon="9.433879479189528"><ele>73.0</ele><time>2026-04-10T13:37:21.175Z</time></trkpt><trkpt lat="45.05878100745254" lon="9.433874614230364"><ele>73.0</ele><time>2026-04-10T13:37:22.172Z</time></trkpt><trkpt lat="45.05870534489989" lon="9.433863421042176"><ele>73.0</ele><time>2026-04-10T13:37:23.18Z</time></trkpt><trkpt lat="45.058637858289565" lon="9.433856902237041"><ele>73.0</ele><time>2026-04-10T13:37:24.175Z</time></trkpt><trkpt lat="45.05852598223736" lon="9.433811936469583"><ele>73.0</ele><time>2026-04-10T13:37:26.18Z</time></trkpt><trkpt lat="45.05841526742913" lon="9.433786015328316"><ele>73.0</ele><time>2026-04-10T13:37:28.156Z</time></trkpt><trkpt lat="45.05830011516848" lon="9.433762089570672"><ele>72.83333333333333</ele><time>2026-04-10T13:37:30.59Z</time></trkpt><trkpt lat="45.05818235074752" lon="9.433771417188357"><ele>72.66666666666666</ele><time>2026-04-10T13:37:32.171Z</time></trkpt><trkpt lat="45.0581078344505" lon="9.433767455914229"><ele>72.5</ele><time>2026-04-10T13:37:33.172Z</time></trkpt><trkpt lat="45.05804181601623" lon="9.43376838048231"><ele>72.33333333333333</ele><time>2026-04-10T13:37:34.17Z</time></trkpt><trkpt lat="45.05797840087411" lon="9.433767632471046"><ele>72.16666666666667</ele><time>2026-04-10T13:37:35.175Z</time></trkpt><trkpt lat="45.057857916329624" lon="9.433740531802945"><ele>72.0</ele><time>2026-04-10T13:37:37.171Z</time></trkpt><trkpt lat="45.05774269749798" lon="9.433714560361803"><ele>72.0</ele><time>2026-04-10T13:37:39.171Z</time></trkpt><trkpt lat="45.057611052042525" lon="9.433702741517742"><ele>72.0</ele><time>2026-04-10T13:37:41.505Z</time></trkpt><trkpt lat="45.057540696015074" lon="9.43369098834828"><ele>72.0</ele><time>2026-04-10T13:37:42.164Z</time></trkpt><trkpt lat="45.05747710463108" lon="9.433687978982253"><ele>72.0</ele><time>2026-04-10T13:37:43.16Z</time></trkpt><trkpt lat="45.05739144138845" lon="9.433723430336057"><ele>72.0</ele><time>2026-04-10T13:37:45.16Z</time></trkpt><trkpt lat="45.057341434002986" lon="9.433831315075118"><ele>72.0</ele><time>2026-04-10T13:37:47.178Z</time></trkpt><trkpt lat="45.05733070072575" lon="9.43398764931716"><ele>71.75</ele><time>2026-04-10T13:37:49.186Z</time></trkpt><trkpt lat="45.057321801512096" lon="9.43411237098638"><ele>71.5</ele><time>2026-04-10T13:37:51.163Z</time></trkpt><trkpt lat="45.05753690222745" lon="9.43416329985219"><ele>71.25</ele><time>2026-04-10T13:37:53.159Z</time></trkpt><trkpt lat="45.05761967974167" lon="9.434166898286986"><ele>71.0</ele><time>2026-04-10T13:37:54.16Z</time></trkpt><trkpt lat="45.0577207976558" lon="9.434185921077802"><ele>71.0</ele><time>2026-04-10T13:37:55.17Z</time></trkpt><trkpt lat="45.05781689116875" lon="9.434207381648834"><ele>71.0</ele><time>2026-04-10T13:37:56.159Z</time></trkpt><trkpt lat="45.057905303030836" lon="9.434232762301713"><ele>71.0</ele><time>2026-04-10T13:37:57.157Z</time></trkpt><trkpt lat="45.057993048137" lon="9.434244282570608"><ele>71.0</ele><time>2026-04-10T13:37:58.161Z</time></trkpt><trkpt lat="45.05808446071627" lon="9.43425198523842"><ele>71.0</ele><time>2026-04-10T13:37:59.167Z</time></trkpt><trkpt lat="45.05818251993199" lon="9.434267897595692"><ele>71.0</ele><time>2026-04-10T13:38:00.161Z</time></trkpt><trkpt lat="45.05828298674665" lon="9.434292331848331"><ele>71.0</ele><time>2026-04-10T13:38:01.156Z</time></trkpt><trkpt lat="45.058384129156224" lon="9.434315299601057"><ele>71.0</ele><time>2026-04-10T13:38:02.157Z</time></trkpt><trkpt lat="45.05848786163624" lon="9.434333193076151"><ele>71.0</ele><time>2026-04-10T13:38:03.17Z</time></trkpt><trkpt lat="45.05859255197111" lon="9.434356595153707"><ele>71.0</ele><time>2026-04-10T13:38:04.177Z</time></trkpt><trkpt lat="45.058690363599226" lon="9.434384570886932"><ele>71.33333333333334</ele><time>2026-04-10T13:38:05.156Z</time></trkpt><trkpt lat="45.05878082209331" lon="9.434398238403531"><ele>71.66666666666667</ele><time>2026-04-10T13:38:06.179Z</time></trkpt><trkpt lat="45.058855428192814" lon="9.434407689544871"><ele>72.0</ele><time>2026-04-10T13:38:07.699Z</time></trkpt><trkpt lat="45.058934232457" lon="9.434394318350487"><ele>72.33333333333333</ele><time>2026-04-10T13:38:09.153Z</time></trkpt><trkpt lat="45.05899866290447" lon="9.434258932399784"><ele>72.66666666666666</ele><time>2026-04-10T13:38:12.177Z</time></trkpt><trkpt lat="45.059009247750545" lon="9.43415559484005"><ele>73.0</ele><time>2026-04-10T13:38:13.154Z</time></trkpt><trkpt lat="45.059015461457484" lon="9.43405546136177"><ele>73.0</ele><time>2026-04-10T13:38:14.174Z</time></trkpt><trkpt lat="45.05902336693421" lon="9.43395764767186"><ele>73.0</ele><time>2026-04-10T13:38:15.172Z</time></trkpt><trkpt lat="45.05902964512519" lon="9.433853027069825"><ele>73.0</ele><time>2026-04-10T13:38:16.177Z</time></trkpt><trkpt lat="45.05903732808532" lon="9.433744390462849"><ele>73.0</ele><time>2026-04-10T13:38:17.175Z</time></trkpt><trkpt lat="45.059041959493776" lon="9.43363138379392"><ele>73.0</ele><time>2026-04-10T13:38:18.176Z</time></trkpt><trkpt lat="45.05904982046091" lon="9.43351036082497"><ele>73.0</ele><time>2026-04-10T13:38:19.155Z</time></trkpt><trkpt lat="45.05905432488047" lon="9.433380932056705"><ele>73.2</ele><time>2026-04-10T13:38:20.173Z</time></trkpt><trkpt lat="45.05910000468905" lon="9.433251894201106"><ele>73.4</ele><time>2026-04-10T13:38:21.167Z</time></trkpt><trkpt lat="45.05911025117978" lon="9.433125996960321"><ele>73.60000000000001</ele><time>2026-04-10T13:38:22.159Z</time></trkpt><trkpt lat="45.059116503084326" lon="9.43300057765694"><ele>73.8</ele><time>2026-04-10T13:38:23.155Z</time></trkpt><trkpt lat="45.05912416174291" lon="9.432874081079206"><ele>74.0</ele><time>2026-04-10T13:38:24.188Z</time></trkpt><trkpt lat="45.059132022492236" lon="9.432756346739435"><ele>74.16666666666667</ele><time>2026-04-10T13:38:25.178Z</time></trkpt><trkpt lat="45.05913226665201" lon="9.432653035034654"><ele>74.33333333333334</ele><time>2026-04-10T13:38:26.186Z</time></trkpt><trkpt lat="45.05912527664293" lon="9.432549201567175"><ele>74.5</ele><time>2026-04-10T13:38:27.172Z</time></trkpt><trkpt lat="45.05912136966335" lon="9.43242728379677"><ele>74.66666666666667</ele><time>2026-04-10T13:38:28.172Z</time></trkpt><trkpt lat="45.05913306463993" lon="9.432303884605343"><ele>74.83333333333333</ele><time>2026-04-10T13:38:29.186Z</time></trkpt><trkpt lat="45.059144914193226" lon="9.432182726047632"><ele>75.0</ele><time>2026-04-10T13:38:30.174Z</time></trkpt><trkpt lat="45.05915430292095" lon="9.432064064789037"><ele>75.0</ele><time>2026-04-10T13:38:31.178Z</time></trkpt><trkpt lat="45.0591518792354" lon="9.431950175665852"><ele>75.0</ele><time>2026-04-10T13:38:32.176Z</time></trkpt><trkpt lat="45.05915543432572" lon="9.43183877088858"><ele>75.0</ele><time>2026-04-10T13:38:33.157Z</time></trkpt><trkpt lat="45.059163226995935" lon="9.431733161497336"><ele>75.0</ele><time>2026-04-10T13:38:34.176Z</time></trkpt><trkpt lat="45.05917157931248" lon="9.431633926073301"><ele>75.0</ele><time>2026-04-10T13:38:35.177Z</time></trkpt><trkpt lat="45.059181309015464" lon="9.431538703339692"><ele>75.0</ele><time>2026-04-10T13:38:36.175Z</time></trkpt><trkpt lat="45.05917791931148" lon="9.43141617085508"><ele>75.0</ele><time>2026-04-10T13:38:38.158Z</time></trkpt><trkpt lat="45.05918359268674" lon="9.431311642363054"><ele>75.0</ele><time>2026-04-10T13:38:41.164Z</time></trkpt><trkpt lat="45.05903050289902" lon="9.431273505695591"><ele>75.0</ele><time>2026-04-10T13:38:43.167Z</time></trkpt><trkpt lat="45.05897758373648" lon="9.431212241525172"><ele>75.0</ele><time>2026-04-10T13:38:45.167Z</time></trkpt><trkpt lat="45.05890406181943" lon="9.431151049413538"><ele>75.0</ele><time>2026-04-10T13:38:47.169Z</time></trkpt><trkpt lat="45.05880810461096" lon="9.431069984817212"><ele>74.5</ele><time>2026-04-10T13:38:49.155Z</time></trkpt><trkpt lat="45.05871156515647" lon="9.430982850806346"><ele>74.0</ele><time>2026-04-10T13:38:51.169Z</time></trkpt><trkpt lat="45.05865593661413" lon="9.43092037941981"><ele>73.5</ele><time>2026-04-10T13:38:52.158Z</time></trkpt><trkpt lat="45.05860518543786" lon="9.43084773938483"><ele>73.0</ele><time>2026-04-10T13:38:53.153Z</time></trkpt><trkpt lat="45.058543100490944" lon="9.430774023720675"><ele>72.5</ele><time>2026-04-10T13:38:54.16Z</time></trkpt><trkpt lat="45.05846825772697" lon="9.430689958895465"><ele>72.0</ele><time>2026-04-10T13:38:55.157Z</time></trkpt><trkpt lat="45.058394494609416" lon="9.430585484121563"><ele>72.0</ele><time>2026-04-10T13:38:56.171Z</time></trkpt><trkpt lat="45.05831637514799" lon="9.430480992914719"><ele>72.0</ele><time>2026-04-10T13:38:57.157Z</time></trkpt><trkpt lat="45.05825049274188" lon="9.430362621000945"><ele>72.0</ele><time>2026-04-10T13:38:58.16Z</time></trkpt><trkpt lat="45.05817506141246" lon="9.430240823679378"><ele>72.0</ele><time>2026-04-10T13:38:59.159Z</time></trkpt><trkpt lat="45.05809793814485" lon="9.430109087359336"><ele>72.0</ele><time>2026-04-10T13:39:00.159Z</time></trkpt><trkpt lat="45.05802173363865" lon="9.429978676073661"><ele>72.4</ele><time>2026-04-10T13:39:01.158Z</time></trkpt><trkpt lat="45.057946014974476" lon="9.429849541588107"><ele>72.80000000000001</ele><time>2026-04-10T13:39:02.161Z</time></trkpt><trkpt lat="45.05787193986978" lon="9.429727063270478"><ele>73.2</ele><time>2026-04-10T13:39:03.156Z</time></trkpt><trkpt lat="45.05780462869323" lon="9.42961941691465"><ele>73.60000000000001</ele><time>2026-04-10T13:39:04.164Z</time></trkpt><trkpt lat="45.05773087210698" lon="9.429539114286893"><ele>74.0</ele><time>2026-04-10T13:39:05.16Z</time></trkpt><trkpt lat="45.05767087181498" lon="9.429444201434656"><ele>74.0</ele><time>2026-04-10T13:39:06.157Z</time></trkpt><trkpt lat="45.05762749397979" lon="9.42935403144576"><ele>74.0</ele><time>2026-04-10T13:39:07.155Z</time></trkpt><trkpt lat="45.05757727278239" lon="9.42928179900076"><ele>74.0</ele><time>2026-04-10T13:39:08.155Z</time></trkpt><trkpt lat="45.05752159182706" lon="9.429213696966785"><ele>74.0</ele><time>2026-04-10T13:39:09.157Z</time></trkpt><trkpt lat="45.05746403082921" lon="9.429119901832228"><ele>74.0</ele><time>2026-04-10T13:39:10.153Z</time></trkpt><trkpt lat="45.05739913668011" lon="9.42901229266044"><ele>74.0</ele><time>2026-04-10T13:39:11.158Z</time></trkpt><trkpt lat="45.05736079523668" lon="9.428874055654067"><ele>74.0</ele><time>2026-04-10T13:39:12.156Z</time></trkpt><trkpt lat="45.05731536633369" lon="9.428728546681892"><ele>74.0</ele><time>2026-04-10T13:39:13.157Z</time></trkpt><trkpt lat="45.0572711297095" lon="9.428577659020236"><ele>74.0</ele><time>2026-04-10T13:39:14.156Z</time></trkpt><trkpt lat="45.05722334580488" lon="9.428421847269957"><ele>74.0</ele><time>2026-04-10T13:39:15.158Z</time></trkpt><trkpt lat="45.0571583857637" lon="9.428270873884909"><ele>74.0</ele><time>2026-04-10T13:39:16.172Z</time></trkpt><trkpt lat="45.05712628957578" lon="9.428101223910625"><ele>74.0</ele><time>2026-04-10T13:39:17.157Z</time></trkpt><trkpt lat="45.05707535517122" lon="9.42795044633531"><ele>74.0</ele><time>2026-04-10T13:39:18.156Z</time></trkpt><trkpt lat="45.05703064828026" lon="9.427789612674701"><ele>74.0</ele><time>2026-04-10T13:39:19.155Z</time></trkpt><trkpt lat="45.05698724695777" lon="9.427630243305215"><ele>74.25</ele><time>2026-04-10T13:39:20.163Z</time></trkpt><trkpt lat="45.05693990904708" lon="9.427471575412062"><ele>74.5</ele><time>2026-04-10T13:39:21.165Z</time></trkpt><trkpt lat="45.056883915566054" lon="9.427313099149426"><ele>74.75</ele><time>2026-04-10T13:39:22.162Z</time></trkpt><trkpt lat="45.056837733011314" lon="9.427155927069446"><ele>75.0</ele><time>2026-04-10T13:39:23.158Z</time></trkpt><trkpt lat="45.05679088170855" lon="9.427004254808853"><ele>75.0</ele><time>2026-04-10T13:39:24.161Z</time></trkpt><trkpt lat="45.05674149148354" lon="9.426862542720166"><ele>75.0</ele><time>2026-04-10T13:39:25.16Z</time></trkpt><trkpt lat="45.05668787526186" lon="9.426727294914746"><ele>75.0</ele><time>2026-04-10T13:39:26.158Z</time></trkpt><trkpt lat="45.05663779202104" lon="9.426603422794061"><ele>75.0</ele><time>2026-04-10T13:39:27.157Z</time></trkpt><trkpt lat="45.05657352615161" lon="9.426479237136284"><ele>75.0</ele><time>2026-04-10T13:39:28.156Z</time></trkpt><trkpt lat="45.05650386745591" lon="9.42634453367718"><ele>76.0</ele><time>2026-04-10T13:39:29.155Z</time></trkpt><trkpt lat="45.05643633342492" lon="9.426196326837292"><ele>77.0</ele><time>2026-04-10T13:39:30.157Z</time></trkpt><trkpt lat="45.05636940184871" lon="9.426040428674662"><ele>78.0</ele><time>2026-04-10T13:39:31.176Z</time></trkpt><trkpt lat="45.05628657459163" lon="9.425884105269391"><ele>79.0</ele><time>2026-04-10T13:39:32.154Z</time></trkpt><trkpt lat="45.05620826080545" lon="9.425735999976064"><ele>79.0</ele><time>2026-04-10T13:39:33.154Z</time></trkpt><trkpt lat="45.05610212914273" lon="9.425588832148229"><ele>79.0</ele><time>2026-04-10T13:39:34.17Z</time></trkpt><trkpt lat="45.05599992977338" lon="9.425452708129798"><ele>79.0</ele><time>2026-04-10T13:39:35.158Z</time></trkpt><trkpt lat="45.05589719088631" lon="9.425324246649458"><ele>79.0</ele><time>2026-04-10T13:39:36.157Z</time></trkpt><trkpt lat="45.0557870557223" lon="9.425186978234972"><ele>79.0</ele><time>2026-04-10T13:39:37.169Z</time></trkpt><trkpt lat="45.0556795410015" lon="9.425049995552849"><ele>79.0</ele><time>2026-04-10T13:39:38.159Z</time></trkpt><trkpt lat="45.05557026005009" lon="9.424911059141706"><ele>79.0</ele><time>2026-04-10T13:39:39.158Z</time></trkpt><trkpt lat="45.055461914126134" lon="9.424776658322399"><ele>79.0</ele><time>2026-04-10T13:39:40.155Z</time></trkpt><trkpt lat="45.05535279471832" lon="9.424641298013032"><ele>79.0</ele><time>2026-04-10T13:39:41.164Z</time></trkpt><trkpt lat="45.05524656889953" lon="9.42450427258024"><ele>79.0</ele><time>2026-04-10T13:39:42.164Z</time></trkpt><trkpt lat="45.055143601991624" lon="9.42436315538392"><ele>79.0</ele><time>2026-04-10T13:39:43.156Z</time></trkpt><trkpt lat="45.05503832509618" lon="9.424219064575688"><ele>79.0</ele><time>2026-04-10T13:39:44.155Z</time></trkpt><trkpt lat="45.05494059671317" lon="9.42406742562022"><ele>79.0</ele><time>2026-04-10T13:39:45.167Z</time></trkpt><trkpt lat="45.05483141920178" lon="9.42392379902858"><ele>79.0</ele><time>2026-04-10T13:39:46.155Z</time></trkpt><trkpt lat="45.05473665988917" lon="9.423765425255153"><ele>79.0</ele><time>2026-04-10T13:39:47.162Z</time></trkpt><trkpt lat="45.05464851388763" lon="9.423594095849914"><ele>79.0</ele><time>2026-04-10T13:39:48.169Z</time></trkpt><trkpt lat="45.05455473187303" lon="9.423426363377585"><ele>79.33333333333333</ele><time>2026-04-10T13:39:49.158Z</time></trkpt><trkpt lat="45.05445215568128" lon="9.423264727279316"><ele>79.66666666666667</ele><time>2026-04-10T13:39:50.157Z</time></trkpt><trkpt lat="45.054370423357035" lon="9.423079770306487"><ele>80.0</ele><time>2026-04-10T13:39:51.163Z</time></trkpt><trkpt lat="45.05428991276793" lon="9.42289772406631"><ele>80.0</ele><time>2026-04-10T13:39:52.161Z</time></trkpt><trkpt lat="45.05422194779315" lon="9.42272557458481"><ele>80.0</ele><time>2026-04-10T13:39:53.156Z</time></trkpt><trkpt lat="45.05415821844627" lon="9.422570088876222"><ele>80.0</ele><time>2026-04-10T13:39:54.156Z</time></trkpt><trkpt lat="45.05410215248486" lon="9.422428867309861"><ele>80.0</ele><time>2026-04-10T13:39:55.155Z</time></trkpt><trkpt lat="45.0540523344909" lon="9.422292387554926"><ele>80.0</ele><time>2026-04-10T13:39:56.156Z</time></trkpt><trkpt lat="45.054002096958364" lon="9.422166340455655"><ele>80.0</ele><time>2026-04-10T13:39:57.153Z</time></trkpt><trkpt lat="45.05395189898157" lon="9.422043998914594"><ele>80.0</ele><time>2026-04-10T13:39:58.156Z</time></trkpt><trkpt lat="45.05391845553037" lon="9.421915413599612"><ele>80.0</ele><time>2026-04-10T13:39:59.157Z</time></trkpt><trkpt lat="45.05387565042192" lon="9.421804524018118"><ele>80.0</ele><time>2026-04-10T13:40:00.155Z</time></trkpt><trkpt lat="45.053834007269515" lon="9.42169775528128"><ele>80.0</ele><time>2026-04-10T13:40:01.155Z</time></trkpt><trkpt lat="45.05379194310407" lon="9.421593846297117"><ele>80.0</ele><time>2026-04-10T13:40:02.156Z</time></trkpt><trkpt lat="45.05372384427931" lon="9.42147879325684"><ele>80.0</ele><time>2026-04-10T13:40:03.157Z</time></trkpt><trkpt lat="45.053675816608866" lon="9.421328844264144"><ele>80.0</ele><time>2026-04-10T13:40:04.155Z</time></trkpt><trkpt lat="45.05362330768873" lon="9.421174562423465"><ele>80.0</ele><time>2026-04-10T13:40:05.157Z</time></trkpt><trkpt lat="45.05356726179564" lon="9.421029559916365"><ele>80.0</ele><time>2026-04-10T13:40:06.152Z</time></trkpt><trkpt lat="45.05350475588376" lon="9.420882941605901"><ele>80.0</ele><time>2026-04-10T13:40:07.154Z</time></trkpt><trkpt lat="45.053439752995736" lon="9.42073971740203"><ele>80.0</ele><time>2026-04-10T13:40:08.153Z</time></trkpt><trkpt lat="45.05337331932993" lon="9.420597866532756"><ele>80.0</ele><time>2026-04-10T13:40:09.154Z</time></trkpt><trkpt lat="45.05330222547803" lon="9.420466912593383"><ele>80.0</ele><time>2026-04-10T13:40:10.16Z</time></trkpt><trkpt lat="45.05321544761357" lon="9.42033247876068"><ele>80.0</ele><time>2026-04-10T13:40:11.156Z</time></trkpt><trkpt lat="45.053124329536864" lon="9.420179265113442"><ele>80.0</ele><time>2026-04-10T13:40:12.154Z</time></trkpt><trkpt lat="45.05301999295225" lon="9.420019927175652"><ele>80.0</ele><time>2026-04-10T13:40:13.153Z</time></trkpt><trkpt lat="45.05290075782935" lon="9.41986402925432"><ele>80.0</ele><time>2026-04-10T13:40:14.155Z</time></trkpt><trkpt lat="45.0527706020479" lon="9.419697375979537"><ele>80.0</ele><time>2026-04-10T13:40:15.153Z</time></trkpt><trkpt lat="45.05263912605792" lon="9.419529837706607"><ele>80.0</ele><time>2026-04-10T13:40:16.17Z</time></trkpt><trkpt lat="45.052497373698586" lon="9.41936103855399"><ele>81.0</ele><time>2026-04-10T13:40:17.157Z</time></trkpt><trkpt lat="45.05235437092283" lon="9.419184709509839"><ele>82.0</ele><time>2026-04-10T13:40:18.156Z</time></trkpt><trkpt lat="45.052217289806194" lon="9.419004884273072"><ele>83.0</ele><time>2026-04-10T13:40:19.157Z</time></trkpt><trkpt lat="45.05209379787698" lon="9.418834818716643"><ele>82.66666666666667</ele><time>2026-04-10T13:40:20.16Z</time></trkpt><trkpt lat="45.0519819615715" lon="9.418669521269132"><ele>82.33333333333333</ele><time>2026-04-10T13:40:21.161Z</time></trkpt><trkpt lat="45.05185907017391" lon="9.418536634418532"><ele>82.0</ele><time>2026-04-10T13:40:22.162Z</time></trkpt><trkpt lat="45.051741546997015" lon="9.41839680689287"><ele>82.0</ele><time>2026-04-10T13:40:23.163Z</time></trkpt><trkpt lat="45.05162940673728" lon="9.418238126909754"><ele>82.0</ele><time>2026-04-10T13:40:24.157Z</time></trkpt><trkpt lat="45.05148914602779" lon="9.418098695249736"><ele>82.0</ele><time>2026-04-10T13:40:25.158Z</time></trkpt><trkpt lat="45.05135000333509" lon="9.417958674513677"><ele>82.33333333333333</ele><time>2026-04-10T13:40:26.172Z</time></trkpt><trkpt lat="45.051226232986345" lon="9.417815157200097"><ele>82.66666666666667</ele><time>2026-04-10T13:40:27.161Z</time></trkpt><trkpt lat="45.05110358706629" lon="9.417668539499648"><ele>83.0</ele><time>2026-04-10T13:40:28.158Z</time></trkpt><trkpt lat="45.050977390273836" lon="9.417526167298275"><ele>83.0</ele><time>2026-04-10T13:40:29.167Z</time></trkpt><trkpt lat="45.05085756932448" lon="9.417380972147733"><ele>83.0</ele><time>2026-04-10T13:40:30.157Z</time></trkpt><trkpt lat="45.05072929947637" lon="9.41722987683491"><ele>83.0</ele><time>2026-04-10T13:40:31.161Z</time></trkpt><trkpt lat="45.05059013570653" lon="9.417063156803405"><ele>82.66666666666667</ele><time>2026-04-10T13:40:32.163Z</time></trkpt><trkpt lat="45.05045554274965" lon="9.416856247786887"><ele>82.33333333333333</ele><time>2026-04-10T13:40:33.153Z</time></trkpt><trkpt lat="45.05029761022109" lon="9.416646825510743"><ele>82.0</ele><time>2026-04-10T13:40:34.166Z</time></trkpt><trkpt lat="45.05012010429974" lon="9.416437361531734"><ele>82.33333333333333</ele><time>2026-04-10T13:40:35.168Z</time></trkpt><trkpt lat="45.049961379490206" lon="9.41621989605192"><ele>82.66666666666667</ele><time>2026-04-10T13:40:36.168Z</time></trkpt><trkpt lat="45.049818563941216" lon="9.416021512840839"><ele>83.0</ele><time>2026-04-10T13:40:37.16Z</time></trkpt><trkpt lat="45.04968467125621" lon="9.415835372207848"><ele>83.0</ele><time>2026-04-10T13:40:38.167Z</time></trkpt><trkpt lat="45.04954891530042" lon="9.415652830184195"><ele>83.0</ele><time>2026-04-10T13:40:39.159Z</time></trkpt><trkpt lat="45.04939542490208" lon="9.415475337551852"><ele>83.0</ele><time>2026-04-10T13:40:40.153Z</time></trkpt><trkpt lat="45.049225332897194" lon="9.41532004695081"><ele>82.0</ele><time>2026-04-10T13:40:41.161Z</time></trkpt><trkpt lat="45.04904456622001" lon="9.415185132140262"><ele>81.0</ele><time>2026-04-10T13:40:42.161Z</time></trkpt><trkpt lat="45.04887045106757" lon="9.415022935117493"><ele>80.0</ele><time>2026-04-10T13:40:43.155Z</time></trkpt><trkpt lat="45.0486881618586" lon="9.41487795659416"><ele>80.0</ele><time>2026-04-10T13:40:44.161Z</time></trkpt><trkpt lat="45.04850959100506" lon="9.41473593535267"><ele>80.0</ele><time>2026-04-10T13:40:45.158Z</time></trkpt><trkpt lat="45.048340585493285" lon="9.414602302061635"><ele>80.0</ele><time>2026-04-10T13:40:46.155Z</time></trkpt><trkpt lat="45.0481716138377" lon="9.414469917003789"><ele>80.66666666666667</ele><time>2026-04-10T13:40:47.163Z</time></trkpt><trkpt lat="45.0480063636237" lon="9.414339250524801"><ele>81.33333333333333</ele><time>2026-04-10T13:40:48.155Z</time></trkpt><trkpt lat="45.04784212170363" lon="9.414210947587488"><ele>82.0</ele><time>2026-04-10T13:40:49.159Z</time></trkpt><trkpt lat="45.04768113260922" lon="9.414085502887618"><ele>82.0</ele><time>2026-04-10T13:40:50.158Z</time></trkpt><trkpt lat="45.04752335088758" lon="9.413959858138659"><ele>82.0</ele><time>2026-04-10T13:40:51.163Z</time></trkpt><trkpt lat="45.047364588950984" lon="9.413833629958429"><ele>82.0</ele><time>2026-04-10T13:40:52.157Z</time></trkpt><trkpt lat="45.047207224989045" lon="9.41370982123669"><ele>83.66666666666666</ele><time>2026-04-10T13:40:53.161Z</time></trkpt><trkpt lat="45.04704860362913" lon="9.413585028169829"><ele>85.33333333333333</ele><time>2026-04-10T13:40:54.157Z</time></trkpt><trkpt lat="45.046887862101805" lon="9.413454587563084"><ele>87.0</ele><time>2026-04-10T13:40:55.158Z</time></trkpt><trkpt lat="45.0467290637097" lon="9.4133257238095"><ele>86.66666666666667</ele><time>2026-04-10T13:40:56.152Z</time></trkpt><trkpt lat="45.046577149122484" lon="9.41320447058442"><ele>86.33333333333334</ele><time>2026-04-10T13:40:57.177Z</time></trkpt><trkpt lat="45.046437152986194" lon="9.413092854957013"><ele>86.0</ele><time>2026-04-10T13:40:58.155Z</time></trkpt><trkpt lat="45.04629430354172" lon="9.412975887699966"><ele>86.66666666666667</ele><time>2026-04-10T13:40:59.186Z</time></trkpt><trkpt lat="45.04614449597851" lon="9.412861788203157"><ele>87.33333333333333</ele><time>2026-04-10T13:41:00.16Z</time></trkpt><trkpt lat="45.045989975878086" lon="9.412738200344165"><ele>88.0</ele><time>2026-04-10T13:41:01.175Z</time></trkpt><trkpt lat="45.04582543610155" lon="9.412607815652802"><ele>88.66666666666666</ele><time>2026-04-10T13:41:02.158Z</time></trkpt><trkpt lat="45.04565551822212" lon="9.412474670170411"><ele>89.33333333333333</ele><time>2026-04-10T13:41:03.19Z</time></trkpt><trkpt lat="45.04548124451311" lon="9.412335322066188"><ele>90.0</ele><time>2026-04-10T13:41:04.154Z</time></trkpt><trkpt lat="45.045299161081346" lon="9.412185924054306"><ele>90.33333333333333</ele><time>2026-04-10T13:41:05.167Z</time></trkpt><trkpt lat="45.045111687369214" lon="9.412034719515908"><ele>90.66666666666666</ele><time>2026-04-10T13:41:06.157Z</time></trkpt><trkpt lat="45.04492747716605" lon="9.411880995360063"><ele>91.0</ele><time>2026-04-10T13:41:07.173Z</time></trkpt><trkpt lat="45.044756083166526" lon="9.411740679735752"><ele>91.0</ele><time>2026-04-10T13:41:08.184Z</time></trkpt><trkpt lat="45.044599755247816" lon="9.411615033350294"><ele>91.0</ele><time>2026-04-10T13:41:09.156Z</time></trkpt><trkpt lat="45.0444552505921" lon="9.411494922474677"><ele>91.0</ele><time>2026-04-10T13:41:10.165Z</time></trkpt><trkpt lat="45.04432364056799" lon="9.411367980320867"><ele>91.66666666666666</ele><time>2026-04-10T13:41:11.172Z</time></trkpt><trkpt lat="45.044212444823415" lon="9.411218978029103"><ele>92.33333333333333</ele><time>2026-04-10T13:41:12.184Z</time></trkpt><trkpt lat="45.04412409473634" lon="9.411047375535178"><ele>93.0</ele><time>2026-04-10T13:41:13.183Z</time></trkpt><trkpt lat="45.04405300653758" lon="9.410859326199516"><ele>93.0</ele><time>2026-04-10T13:41:14.156Z</time></trkpt><trkpt lat="45.04399109015392" lon="9.410657848673496"><ele>93.0</ele><time>2026-04-10T13:41:15.186Z</time></trkpt><trkpt lat="45.04393927700473" lon="9.410451210130306"><ele>93.0</ele><time>2026-04-10T13:41:16.183Z</time></trkpt><trkpt lat="45.043909452337296" lon="9.410235283003441"><ele>93.33333333333333</ele><time>2026-04-10T13:41:17.16Z</time></trkpt><trkpt lat="45.04389797564132" lon="9.409992772875803"><ele>93.66666666666666</ele><time>2026-04-10T13:41:18.157Z</time></trkpt><trkpt lat="45.04389677053068" lon="9.409743616198982"><ele>94.0</ele><time>2026-04-10T13:41:19.165Z</time></trkpt><trkpt lat="45.0439037377131" lon="9.409489542081792"><ele>94.33333333333333</ele><time>2026-04-10T13:41:20.177Z</time></trkpt><trkpt lat="45.04389267199007" lon="9.409235769069177"><ele>94.66666666666667</ele><time>2026-04-10T13:41:21.177Z</time></trkpt><trkpt lat="45.043864242361366" lon="9.408994884917114"><ele>95.0</ele><time>2026-04-10T13:41:22.188Z</time></trkpt><trkpt lat="45.04382381164254" lon="9.40878179733275"><ele>96.33333333333334</ele><time>2026-04-10T13:41:23.157Z</time></trkpt><trkpt lat="45.04378765509092" lon="9.408567711513781"><ele>97.66666666666667</ele><time>2026-04-10T13:41:24.178Z</time></trkpt><trkpt lat="45.04375442045861" lon="9.408335368003769"><ele>99.0</ele><time>2026-04-10T13:41:25.163Z</time></trkpt><trkpt lat="45.0437157520568" lon="9.408087311217319"><ele>99.33333333333334</ele><time>2026-04-10T13:41:26.184Z</time></trkpt><trkpt lat="45.04367923866705" lon="9.407827584763057"><ele>99.66666666666667</ele><time>2026-04-10T13:41:27.156Z</time></trkpt><trkpt lat="45.04364771760722" lon="9.407551625767194"><ele>100.0</ele><time>2026-04-10T13:41:28.161Z</time></trkpt><trkpt lat="45.04361810753166" lon="9.40726903841866"><ele>100.33333333333334</ele><time>2026-04-10T13:41:29.172Z</time></trkpt><trkpt lat="45.04359027197796" lon="9.406985499635855"><ele>100.66666666666666</ele><time>2026-04-10T13:41:30.185Z</time></trkpt><trkpt lat="45.04352364842869" lon="9.406723546294764"><ele>101.0</ele><time>2026-04-10T13:41:31.164Z</time></trkpt><trkpt lat="45.04343155796934" lon="9.406500419272382"><ele>102.0</ele><time>2026-04-10T13:41:32.155Z</time></trkpt><trkpt lat="45.043378322397494" lon="9.406263458375987"><ele>103.0</ele><time>2026-04-10T13:41:33.168Z</time></trkpt><trkpt lat="45.0433214126741" lon="9.406041118461674"><ele>104.0</ele><time>2026-04-10T13:41:34.176Z</time></trkpt><trkpt lat="45.043295993505915" lon="9.405831002650023"><ele>104.25</ele><time>2026-04-10T13:41:35.162Z</time></trkpt><trkpt lat="45.043266493913954" lon="9.405644216476505"><ele>104.5</ele><time>2026-04-10T13:41:36.153Z</time></trkpt><trkpt lat="45.043212129092886" lon="9.405484491439925"><ele>104.75</ele><time>2026-04-10T13:41:37.183Z</time></trkpt><trkpt lat="45.043124016524516" lon="9.405373136290557"><ele>105.0</ele><time>2026-04-10T13:41:38.164Z</time></trkpt><trkpt lat="45.043017255291545" lon="9.405291307596146"><ele>105.75</ele><time>2026-04-10T13:41:39.158Z</time></trkpt><trkpt lat="45.042877945572315" lon="9.405309425807285"><ele>106.5</ele><time>2026-04-10T13:41:40.179Z</time></trkpt><trkpt lat="45.04273349441521" lon="9.405340156557868"><ele>107.25</ele><time>2026-04-10T13:41:41.158Z</time></trkpt><trkpt lat="45.04258715019173" lon="9.405370940173626"><ele>108.0</ele><time>2026-04-10T13:41:42.187Z</time></trkpt><trkpt lat="45.04245533916034" lon="9.405395585389744"><ele>109.5</ele><time>2026-04-10T13:41:43.191Z</time></trkpt><trkpt lat="45.04233935667802" lon="9.405339983139086"><ele>111.0</ele><time>2026-04-10T13:41:44.179Z</time></trkpt><trkpt lat="45.042253910213745" lon="9.40524105710408"><ele>112.5</ele><time>2026-04-10T13:41:45.155Z</time></trkpt><trkpt lat="45.04220161636632" lon="9.405098525644354"><ele>114.0</ele><time>2026-04-10T13:41:46.158Z</time></trkpt><trkpt lat="45.042161963925366" lon="9.404926085857335"><ele>114.0</ele><time>2026-04-10T13:41:47.179Z</time></trkpt><trkpt lat="45.04211742021537" lon="9.404737153685454"><ele>114.0</ele><time>2026-04-10T13:41:48.159Z</time></trkpt><trkpt lat="45.04206844697364" lon="9.404530382119454"><ele>114.0</ele><time>2026-04-10T13:41:49.16Z</time></trkpt><trkpt lat="45.04201673437144" lon="9.404307827997247"><ele>114.0</ele><time>2026-04-10T13:41:50.159Z</time></trkpt><trkpt lat="45.04196047893095" lon="9.404075246673969"><ele>114.0</ele><time>2026-04-10T13:41:51.168Z</time></trkpt><trkpt lat="45.041899993325174" lon="9.403836623277137"><ele>114.0</ele><time>2026-04-10T13:41:52.169Z</time></trkpt><trkpt lat="45.04183988664206" lon="9.403597935465495"><ele>114.33333333333334</ele><time>2026-04-10T13:41:53.156Z</time></trkpt><trkpt lat="45.04178100626258" lon="9.403352271104808"><ele>114.66666666666667</ele><time>2026-04-10T13:41:54.164Z</time></trkpt><trkpt lat="45.04172090359332" lon="9.403093882119911"><ele>115.0</ele><time>2026-04-10T13:41:55.165Z</time></trkpt><trkpt lat="45.04165827230266" lon="9.402822275806217"><ele>118.33333333333334</ele><time>2026-04-10T13:41:56.171Z</time></trkpt><trkpt lat="45.041593723610966" lon="9.402545514237296"><ele>121.66666666666666</ele><time>2026-04-10T13:41:57.163Z</time></trkpt><trkpt lat="45.041535961866344" lon="9.402287451541437"><ele>125.0</ele><time>2026-04-10T13:41:58.164Z</time></trkpt><trkpt lat="45.04148224079546" lon="9.402054193325073"><ele>125.0</ele><time>2026-04-10T13:41:59.168Z</time></trkpt><trkpt lat="45.04143049810305" lon="9.40184176777189"><ele>125.0</ele><time>2026-04-10T13:42:00.169Z</time></trkpt><trkpt lat="45.04137941332099" lon="9.401652870615852"><ele>125.0</ele><time>2026-04-10T13:42:01.173Z</time></trkpt><trkpt lat="45.04130950572337" lon="9.401488617789806"><ele>125.0</ele><time>2026-04-10T13:42:02.16Z</time></trkpt><trkpt lat="45.0412129270225" lon="9.401341925978986"><ele>125.0</ele><time>2026-04-10T13:42:03.166Z</time></trkpt><trkpt lat="45.04109130624024" lon="9.401199521407282"><ele>125.0</ele><time>2026-04-10T13:42:04.153Z</time></trkpt><trkpt lat="45.040966280653365" lon="9.401052909519574"><ele>125.0</ele><time>2026-04-10T13:42:05.172Z</time></trkpt><trkpt lat="45.04083595616987" lon="9.40091193936464"><ele>125.25</ele><time>2026-04-10T13:42:06.168Z</time></trkpt><trkpt lat="45.04072260212216" lon="9.400792551919753"><ele>125.5</ele><time>2026-04-10T13:42:07.172Z</time></trkpt><trkpt lat="45.04062458613515" lon="9.400678161760633"><ele>125.75</ele><time>2026-04-10T13:42:08.155Z</time></trkpt><trkpt lat="45.04054154460077" lon="9.400564667432292"><ele>126.0</ele><time>2026-04-10T13:42:09.156Z</time></trkpt><trkpt lat="45.04045489545663" lon="9.400441574969141"><ele>126.75</ele><time>2026-04-10T13:42:10.156Z</time></trkpt><trkpt lat="45.04035883874493" lon="9.40030728384888"><ele>127.5</ele><time>2026-04-10T13:42:11.173Z</time></trkpt><trkpt lat="45.040263717072975" lon="9.400171272780948"><ele>128.25</ele><time>2026-04-10T13:42:12.157Z</time></trkpt><trkpt lat="45.04018821204698" lon="9.400036293190471"><ele>129.0</ele><time>2026-04-10T13:42:13.18Z</time></trkpt><trkpt lat="45.040108024976306" lon="9.399889711961313"><ele>129.0</ele><time>2026-04-10T13:42:14.222Z</time></trkpt><trkpt lat="45.040017414146554" lon="9.399728322157038"><ele>129.0</ele><time>2026-04-10T13:42:15.162Z</time></trkpt><trkpt lat="45.039916047577215" lon="9.399550930165878"><ele>129.0</ele><time>2026-04-10T13:42:16.159Z</time></trkpt><trkpt lat="45.039805975675925" lon="9.399362134216318"><ele>130.0</ele><time>2026-04-10T13:42:17.165Z</time></trkpt><trkpt lat="45.03968619977304" lon="9.399166462047328"><ele>131.0</ele><time>2026-04-10T13:42:18.168Z</time></trkpt><trkpt lat="45.0395567252121" lon="9.3989749292858"><ele>132.0</ele><time>2026-04-10T13:42:19.156Z</time></trkpt><trkpt lat="45.039422984572646" lon="9.398777318204283"><ele>132.33333333333334</ele><time>2026-04-10T13:42:20.159Z</time></trkpt><trkpt lat="45.03928385044233" lon="9.398588700766808"><ele>132.66666666666669</ele><time>2026-04-10T13:42:21.164Z</time></trkpt><trkpt lat="45.03916903537409" lon="9.39839972116371"><ele>133.0</ele><time>2026-04-10T13:42:22.185Z</time></trkpt><trkpt lat="45.03905282167768" lon="9.398233573950126"><ele>133.25</ele><time>2026-04-10T13:42:23.166Z</time></trkpt><trkpt lat="45.03894729223058" lon="9.398078466649574"><ele>133.5</ele><time>2026-04-10T13:42:24.157Z</time></trkpt><trkpt lat="45.038848235441385" lon="9.397931120177407"><ele>133.75</ele><time>2026-04-10T13:42:25.166Z</time></trkpt><trkpt lat="45.03874824985758" lon="9.397786868194357"><ele>134.0</ele><time>2026-04-10T13:42:26.164Z</time></trkpt><trkpt lat="45.03864834241445" lon="9.3976517223387"><ele>134.5</ele><time>2026-04-10T13:42:27.152Z</time></trkpt><trkpt lat="45.038535655881354" lon="9.397532090971387"><ele>135.0</ele><time>2026-04-10T13:42:28.157Z</time></trkpt><trkpt lat="45.03840282512156" lon="9.397439270196708"><ele>135.5</ele><time>2026-04-10T13:42:29.172Z</time></trkpt><trkpt lat="45.03826101350953" lon="9.397362685385353"><ele>136.0</ele><time>2026-04-10T13:42:30.156Z</time></trkpt><trkpt lat="45.0381060886774" lon="9.397285908369838"><ele>136.0</ele><time>2026-04-10T13:42:31.157Z</time></trkpt><trkpt lat="45.03793824917021" lon="9.397207969359862"><ele>136.0</ele><time>2026-04-10T13:42:32.171Z</time></trkpt><trkpt lat="45.03775974021731" lon="9.397126050374029"><ele>136.0</ele><time>2026-04-10T13:42:33.158Z</time></trkpt><trkpt lat="45.03756673659517" lon="9.397037356674089"><ele>135.66666666666669</ele><time>2026-04-10T13:42:34.17Z</time></trkpt><trkpt lat="45.037361373159214" lon="9.396941278727942"><ele>135.33333333333334</ele><time>2026-04-10T13:42:35.156Z</time></trkpt><trkpt lat="45.0371709191493" lon="9.396842916526264"><ele>135.0</ele><time>2026-04-10T13:42:36.154Z</time></trkpt><trkpt lat="45.03699711703459" lon="9.396748444610381"><ele>135.0</ele><time>2026-04-10T13:42:37.169Z</time></trkpt><trkpt lat="45.0368321000422" lon="9.396645632682201"><ele>135.0</ele><time>2026-04-10T13:42:38.168Z</time></trkpt><trkpt lat="45.03668534860481" lon="9.396535702186263"><ele>135.0</ele><time>2026-04-10T13:42:39.161Z</time></trkpt><trkpt lat="45.036549985110156" lon="9.396418663081393"><ele>134.0</ele><time>2026-04-10T13:42:40.157Z</time></trkpt><trkpt lat="45.03641504212891" lon="9.396280405478361"><ele>133.0</ele><time>2026-04-10T13:42:41.171Z</time></trkpt><trkpt lat="45.03626417102434" lon="9.396134525141797"><ele>132.0</ele><time>2026-04-10T13:42:42.169Z</time></trkpt><trkpt lat="45.03611971297839" lon="9.395951676895"><ele>132.0</ele><time>2026-04-10T13:42:43.176Z</time></trkpt><trkpt lat="45.03597208836576" lon="9.395758593742107"><ele>132.0</ele><time>2026-04-10T13:42:44.157Z</time></trkpt><trkpt lat="45.03583083146129" lon="9.395570364091103"><ele>132.0</ele><time>2026-04-10T13:42:45.164Z</time></trkpt><trkpt lat="45.03570059382198" lon="9.395395697254244"><ele>131.66666666666666</ele><time>2026-04-10T13:42:46.178Z</time></trkpt><trkpt lat="45.03558371858545" lon="9.395228151486567"><ele>131.33333333333331</ele><time>2026-04-10T13:42:47.172Z</time></trkpt><trkpt lat="45.035475753661316" lon="9.395060242604512"><ele>131.0</ele><time>2026-04-10T13:42:48.154Z</time></trkpt><trkpt lat="45.03537893494603" lon="9.394887340067958"><ele>131.0</ele><time>2026-04-10T13:42:49.154Z</time></trkpt><trkpt lat="45.035292272629114" lon="9.394704234683667"><ele>131.0</ele><time>2026-04-10T13:42:50.165Z</time></trkpt><trkpt lat="45.035211158459916" lon="9.394507202307908"><ele>131.0</ele><time>2026-04-10T13:42:51.17Z</time></trkpt><trkpt lat="45.03514459518038" lon="9.394317080186708"><ele>131.25</ele><time>2026-04-10T13:42:52.149Z</time></trkpt><trkpt lat="45.035089731341294" lon="9.394136340342717"><ele>131.5</ele><time>2026-04-10T13:42:53.16Z</time></trkpt><trkpt lat="45.035034111282464" lon="9.393967082078778"><ele>131.75</ele><time>2026-04-10T13:42:54.185Z</time></trkpt><trkpt lat="45.034980969154134" lon="9.393802033528855"><ele>132.0</ele><time>2026-04-10T13:42:55.162Z</time></trkpt><trkpt lat="45.03491930055708" lon="9.39364767909062"><ele>132.66666666666666</ele><time>2026-04-10T13:42:56.164Z</time></trkpt><trkpt lat="45.0348369583483" lon="9.393476138296537"><ele>133.33333333333331</ele><time>2026-04-10T13:42:57.157Z</time></trkpt><trkpt lat="45.034733560580996" lon="9.393293473150115"><ele>134.0</ele><time>2026-04-10T13:42:58.162Z</time></trkpt><trkpt lat="45.03460772937688" lon="9.393104743142972"><ele>134.66666666666666</ele><time>2026-04-10T13:42:59.173Z</time></trkpt><trkpt lat="45.03448214690437" lon="9.392940636548348"><ele>135.33333333333334</ele><time>2026-04-10T13:43:00.16Z</time></trkpt><trkpt lat="45.03434514951344" lon="9.392805603248934"><ele>136.0</ele><time>2026-04-10T13:43:01.153Z</time></trkpt><trkpt lat="45.034192284107846" lon="9.39267096064661"><ele>137.33333333333334</ele><time>2026-04-10T13:43:02.162Z</time></trkpt><trkpt lat="45.03401744707627" lon="9.392542659066395"><ele>138.66666666666666</ele><time>2026-04-10T13:43:03.169Z</time></trkpt><trkpt lat="45.0338232368051" lon="9.39241926441076"><ele>140.0</ele><time>2026-04-10T13:43:04.173Z</time></trkpt><trkpt lat="45.033608671787675" lon="9.392294476429464"><ele>140.0</ele><time>2026-04-10T13:43:05.159Z</time></trkpt><trkpt lat="45.033400260762754" lon="9.392141088796079"><ele>140.0</ele><time>2026-04-10T13:43:06.154Z</time></trkpt><trkpt lat="45.03318749927186" lon="9.392010613731198"><ele>142.0</ele><time>2026-04-10T13:43:07.154Z</time></trkpt><trkpt lat="45.032980077044286" lon="9.39187440058683"><ele>144.0</ele><time>2026-04-10T13:43:08.158Z</time></trkpt><trkpt lat="45.032788466972356" lon="9.391744896127424"><ele>146.0</ele><time>2026-04-10T13:43:09.152Z</time></trkpt><trkpt lat="45.032608417394705" lon="9.39162783037931"><ele>145.66666666666666</ele><time>2026-04-10T13:43:10.152Z</time></trkpt><trkpt lat="45.032438279355844" lon="9.391516157379751"><ele>145.33333333333334</ele><time>2026-04-10T13:43:11.175Z</time></trkpt><trkpt lat="45.03226980544735" lon="9.391436309943865"><ele>145.0</ele><time>2026-04-10T13:43:12.151Z</time></trkpt><trkpt lat="45.03210726455451" lon="9.391337171128695"><ele>145.0</ele><time>2026-04-10T13:43:13.153Z</time></trkpt><trkpt lat="45.03194383703891" lon="9.391218588212087"><ele>145.0</ele><time>2026-04-10T13:43:14.156Z</time></trkpt><trkpt lat="45.031766353458586" lon="9.391108111787622"><ele>145.0</ele><time>2026-04-10T13:43:15.167Z</time></trkpt><trkpt lat="45.031576838536296" lon="9.391019291497447"><ele>146.0</ele><time>2026-04-10T13:43:16.166Z</time></trkpt><trkpt lat="45.031399844293766" lon="9.390911178958993"><ele>147.0</ele><time>2026-04-10T13:43:17.154Z</time></trkpt><trkpt lat="45.03123635421521" lon="9.390816340115032"><ele>148.0</ele><time>2026-04-10T13:43:18.166Z</time></trkpt><trkpt lat="45.031083877010424" lon="9.390729315742005"><ele>148.0</ele><time>2026-04-10T13:43:19.158Z</time></trkpt><trkpt lat="45.03092085138462" lon="9.39061944825972"><ele>148.0</ele><time>2026-04-10T13:43:20.172Z</time></trkpt><trkpt lat="45.03075760111423" lon="9.390493016224848"><ele>148.0</ele><time>2026-04-10T13:43:21.153Z</time></trkpt><trkpt lat="45.03058910259964" lon="9.390354132274695"><ele>147.0</ele><time>2026-04-10T13:43:22.155Z</time></trkpt><trkpt lat="45.03041316256495" lon="9.390205034691169"><ele>146.0</ele><time>2026-04-10T13:43:23.149Z</time></trkpt><trkpt lat="45.03022827406532" lon="9.390055420594948"><ele>145.0</ele><time>2026-04-10T13:43:24.165Z</time></trkpt><trkpt lat="45.03004057998898" lon="9.389898368639132"><ele>146.33333333333334</ele><time>2026-04-10T13:43:25.158Z</time></trkpt><trkpt lat="45.029854052848556" lon="9.389735981774054"><ele>147.66666666666666</ele><time>2026-04-10T13:43:26.166Z</time></trkpt><trkpt lat="45.029665133117156" lon="9.389574187847769"><ele>149.0</ele><time>2026-04-10T13:43:27.15Z</time></trkpt><trkpt lat="45.02947810814854" lon="9.389413299206755"><ele>149.33333333333331</ele><time>2026-04-10T13:43:28.181Z</time></trkpt><trkpt lat="45.029303706391" lon="9.389270451474658"><ele>149.66666666666666</ele><time>2026-04-10T13:43:29.152Z</time></trkpt><trkpt lat="45.02914434240401" lon="9.389138114321792"><ele>150.0</ele><time>2026-04-10T13:43:30.153Z</time></trkpt><trkpt lat="45.02899108381993" lon="9.38901164729303"><ele>150.66666666666666</ele><time>2026-04-10T13:43:31.159Z</time></trkpt><trkpt lat="45.02884289329713" lon="9.388896660799954"><ele>151.33333333333331</ele><time>2026-04-10T13:43:32.162Z</time></trkpt><trkpt lat="45.02870317879461" lon="9.388772511493507"><ele>152.0</ele><time>2026-04-10T13:43:33.156Z</time></trkpt><trkpt lat="45.02856711161029" lon="9.388644320102006"><ele>152.0</ele><time>2026-04-10T13:43:34.154Z</time></trkpt><trkpt lat="45.0284234053149" lon="9.388521927015665"><ele>152.0</ele><time>2026-04-10T13:43:35.153Z</time></trkpt><trkpt lat="45.0282699598701" lon="9.388384744772264"><ele>152.0</ele><time>2026-04-10T13:43:36.163Z</time></trkpt><trkpt lat="45.028103950260316" lon="9.38824836841734"><ele>154.0</ele><time>2026-04-10T13:43:37.158Z</time></trkpt><trkpt lat="45.027929399810084" lon="9.388105796779845"><ele>156.0</ele><time>2026-04-10T13:43:38.155Z</time></trkpt><trkpt lat="45.02775726015399" lon="9.387961417238715"><ele>158.0</ele><time>2026-04-10T13:43:39.158Z</time></trkpt><trkpt lat="45.02758741386204" lon="9.387821297015986"><ele>159.0</ele><time>2026-04-10T13:43:40.153Z</time></trkpt><trkpt lat="45.02742314527581" lon="9.3876832528079"><ele>160.0</ele><time>2026-04-10T13:43:41.174Z</time></trkpt><trkpt lat="45.027257533682885" lon="9.387550353407955"><ele>161.0</ele><time>2026-04-10T13:43:42.156Z</time></trkpt><trkpt lat="45.02709557719469" lon="9.3874144889329"><ele>161.0</ele><time>2026-04-10T13:43:43.154Z</time></trkpt><trkpt lat="45.02694772146929" lon="9.387290971631225"><ele>161.0</ele><time>2026-04-10T13:43:44.157Z</time></trkpt><trkpt lat="45.02680705816623" lon="9.38717589790943"><ele>161.0</ele><time>2026-04-10T13:43:45.172Z</time></trkpt><trkpt lat="45.026665823839075" lon="9.387063567165631"><ele>160.33333333333331</ele><time>2026-04-10T13:43:46.153Z</time></trkpt><trkpt lat="45.026527531450476" lon="9.386937448180868"><ele>159.66666666666666</ele><time>2026-04-10T13:43:47.154Z</time></trkpt><trkpt lat="45.026392139723704" lon="9.386781968418934"><ele>159.0</ele><time>2026-04-10T13:43:48.157Z</time></trkpt><trkpt lat="45.02625638330012" lon="9.38659349629486"><ele>159.0</ele><time>2026-04-10T13:43:49.161Z</time></trkpt><trkpt lat="45.02612972588415" lon="9.386386953461924"><ele>159.0</ele><time>2026-04-10T13:43:50.159Z</time></trkpt><trkpt lat="45.02601414417643" lon="9.38616671225449"><ele>159.0</ele><time>2026-04-10T13:43:51.161Z</time></trkpt><trkpt lat="45.02592003356143" lon="9.385926088960964"><ele>159.0</ele><time>2026-04-10T13:43:52.154Z</time></trkpt><trkpt lat="45.02584193185841" lon="9.385674205157326"><ele>159.0</ele><time>2026-04-10T13:43:53.15Z</time></trkpt><trkpt lat="45.02577753952474" lon="9.385412023439248"><ele>159.0</ele><time>2026-04-10T13:43:54.158Z</time></trkpt><trkpt lat="45.02572384524164" lon="9.385150862397873"><ele>159.0</ele><time>2026-04-10T13:43:55.194Z</time></trkpt><trkpt lat="45.02568264594351" lon="9.384908138928534"><ele>159.0</ele><time>2026-04-10T13:43:56.152Z</time></trkpt><trkpt lat="45.02564101796644" lon="9.384674872886619"><ele>159.0</ele><time>2026-04-10T13:43:57.157Z</time></trkpt><trkpt lat="45.02559918901737" lon="9.384446103717012"><ele>160.75</ele><time>2026-04-10T13:43:58.15Z</time></trkpt><trkpt lat="45.02556071836334" lon="9.384231112054836"><ele>162.5</ele><time>2026-04-10T13:43:59.173Z</time></trkpt><trkpt lat="45.02552107611738" lon="9.38403137010155"><ele>164.25</ele><time>2026-04-10T13:44:00.153Z</time></trkpt><trkpt lat="45.02547433472131" lon="9.383847496567736"><ele>166.0</ele><time>2026-04-10T13:44:01.153Z</time></trkpt><trkpt lat="45.025422846099296" lon="9.383664696802768"><ele>166.75</ele><time>2026-04-10T13:44:02.151Z</time></trkpt><trkpt lat="45.02536541120415" lon="9.383480181850711"><ele>167.5</ele><time>2026-04-10T13:44:03.166Z</time></trkpt><trkpt lat="45.025304327873286" lon="9.383304172840774"><ele>168.25</ele><time>2026-04-10T13:44:04.15Z</time></trkpt><trkpt lat="45.02524983070655" lon="9.383146880553282"><ele>169.0</ele><time>2026-04-10T13:44:05.152Z</time></trkpt><trkpt lat="45.02519904852167" lon="9.383002908863475"><ele>169.39999999999998</ele><time>2026-04-10T13:44:06.152Z</time></trkpt><trkpt lat="45.025145215435344" lon="9.382867221962789"><ele>169.8</ele><time>2026-04-10T13:44:07.149Z</time></trkpt><trkpt lat="45.025095720554106" lon="9.382743705808418"><ele>170.2</ele><time>2026-04-10T13:44:08.174Z</time></trkpt><trkpt lat="45.02505053599434" lon="9.382628282496752"><ele>170.60000000000002</ele><time>2026-04-10T13:44:09.153Z</time></trkpt><trkpt lat="45.02500723095064" lon="9.382523150075661"><ele>171.0</ele><time>2026-04-10T13:44:10.153Z</time></trkpt><trkpt lat="45.02495907715073" lon="9.382408867765028"><ele>170.5</ele><time>2026-04-10T13:44:11.157Z</time></trkpt><trkpt lat="45.02490695084958" lon="9.382277972075888"><ele>170.0</ele><time>2026-04-10T13:44:12.155Z</time></trkpt><trkpt lat="45.02485348855807" lon="9.382130073725618"><ele>169.5</ele><time>2026-04-10T13:44:13.159Z</time></trkpt><trkpt lat="45.02479137059041" lon="9.381974714081096"><ele>169.0</ele><time>2026-04-10T13:44:14.158Z</time></trkpt><trkpt lat="45.02473289972571" lon="9.381804669423769"><ele>169.0</ele><time>2026-04-10T13:44:15.166Z</time></trkpt><trkpt lat="45.024680636972555" lon="9.381628272983138"><ele>169.0</ele><time>2026-04-10T13:44:16.154Z</time></trkpt><trkpt lat="45.024633891309655" lon="9.38144232762917"><ele>169.0</ele><time>2026-04-10T13:44:17.149Z</time></trkpt><trkpt lat="45.02458364994913" lon="9.381251682680553"><ele>169.0</ele><time>2026-04-10T13:44:18.157Z</time></trkpt><trkpt lat="45.02452882676555" lon="9.381058212607067"><ele>170.0</ele><time>2026-04-10T13:44:19.156Z</time></trkpt><trkpt lat="45.024468119064395" lon="9.380862346543248"><ele>171.0</ele><time>2026-04-10T13:44:20.161Z</time></trkpt><trkpt lat="45.024418909683355" lon="9.38066229911178"><ele>172.0</ele><time>2026-04-10T13:44:21.16Z</time></trkpt><trkpt lat="45.02436140438492" lon="9.380468964591701"><ele>173.0</ele><time>2026-04-10T13:44:22.156Z</time></trkpt><trkpt lat="45.024299592678624" lon="9.380287697259053"><ele>173.25</ele><time>2026-04-10T13:44:23.151Z</time></trkpt><trkpt lat="45.024226579601745" lon="9.38010987790753"><ele>173.5</ele><time>2026-04-10T13:44:24.149Z</time></trkpt><trkpt lat="45.0241599698305" lon="9.379947796422073"><ele>173.75</ele><time>2026-04-10T13:44:25.149Z</time></trkpt><trkpt lat="45.02409835938796" lon="9.379804208544709"><ele>174.0</ele><time>2026-04-10T13:44:26.161Z</time></trkpt><trkpt lat="45.02401831008305" lon="9.379684945475836"><ele>174.39999999999998</ele><time>2026-04-10T13:44:27.15Z</time></trkpt><trkpt lat="45.02396102757793" lon="9.379555074894839"><ele>174.8</ele><time>2026-04-10T13:44:28.15Z</time></trkpt><trkpt lat="45.023910202435886" lon="9.379429854342533"><ele>175.2</ele><time>2026-04-10T13:44:29.155Z</time></trkpt><trkpt lat="45.0238738478284" lon="9.37931062395443"><ele>175.60000000000002</ele><time>2026-04-10T13:44:30.167Z</time></trkpt><trkpt lat="45.02383938892573" lon="9.379196539629756"><ele>176.0</ele><time>2026-04-10T13:44:31.152Z</time></trkpt><trkpt lat="45.02381382731427" lon="9.379067319816741"><ele>176.0</ele><time>2026-04-10T13:44:32.153Z</time></trkpt><trkpt lat="45.023764382839964" lon="9.378930207709834"><ele>176.0</ele><time>2026-04-10T13:44:33.152Z</time></trkpt><trkpt lat="45.02372993649308" lon="9.378788142672347"><ele>176.0</ele><time>2026-04-10T13:44:34.151Z</time></trkpt><trkpt lat="45.023688865442104" lon="9.378655182369274"><ele>176.0</ele><time>2026-04-10T13:44:35.158Z</time></trkpt><trkpt lat="45.02363205703003" lon="9.378533322375889"><ele>176.0</ele><time>2026-04-10T13:44:36.161Z</time></trkpt><trkpt lat="45.023574587255666" lon="9.378418076565083"><ele>176.8</ele><time>2026-04-10T13:44:37.16Z</time></trkpt><trkpt lat="45.02351722502823" lon="9.378303873009502"><ele>177.60000000000002</ele><time>2026-04-10T13:44:38.162Z</time></trkpt><trkpt lat="45.02345507304888" lon="9.37820465694666"><ele>178.4</ele><time>2026-04-10T13:44:39.155Z</time></trkpt><trkpt lat="45.02338141076747" lon="9.378107935047092"><ele>179.2</ele><time>2026-04-10T13:44:40.153Z</time></trkpt><trkpt lat="45.02329729911867" lon="9.378007201495313"><ele>180.0</ele><time>2026-04-10T13:44:41.155Z</time></trkpt><trkpt lat="45.02321004201179" lon="9.377911165541652"><ele>181.0</ele><time>2026-04-10T13:44:42.163Z</time></trkpt><trkpt lat="45.02311135264636" lon="9.377806429536921"><ele>182.0</ele><time>2026-04-10T13:44:43.158Z</time></trkpt><trkpt lat="45.02301141610364" lon="9.37768490627458"><ele>183.0</ele><time>2026-04-10T13:44:44.156Z</time></trkpt><trkpt lat="45.02291596626929" lon="9.377559703279484"><ele>184.0</ele><time>2026-04-10T13:44:45.157Z</time></trkpt><trkpt lat="45.02280897208366" lon="9.377433690719569"><ele>184.0</ele><time>2026-04-10T13:44:46.886Z</time></trkpt><trkpt lat="45.022632883717264" lon="9.37720606456448"><ele>184.0</ele><time>2026-04-10T13:44:48.149Z</time></trkpt><trkpt lat="45.02254621748543" lon="9.377093324578142"><ele>184.0</ele><time>2026-04-10T13:44:49.15Z</time></trkpt><trkpt lat="45.02245583812073" lon="9.377008462996336"><ele>183.5</ele><time>2026-04-10T13:44:50.154Z</time></trkpt><trkpt lat="45.02235704410364" lon="9.376915886822252"><ele>183.0</ele><time>2026-04-10T13:44:51.16Z</time></trkpt><trkpt lat="45.02226800134688" lon="9.376794421275942"><ele>182.5</ele><time>2026-04-10T13:44:52.159Z</time></trkpt><trkpt lat="45.022167222559276" lon="9.376695953695815"><ele>182.0</ele><time>2026-04-10T13:44:53.156Z</time></trkpt><trkpt lat="45.0220618897345" lon="9.376594408358986"><ele>182.0</ele><time>2026-04-10T13:44:54.149Z</time></trkpt><trkpt lat="45.02195062833028" lon="9.376495266630544"><ele>182.0</ele><time>2026-04-10T13:44:55.151Z</time></trkpt><trkpt lat="45.021830100566625" lon="9.376397487895339"><ele>182.0</ele><time>2026-04-10T13:44:56.153Z</time></trkpt><trkpt lat="45.02170573843938" lon="9.37629583734405"><ele>182.0</ele><time>2026-04-10T13:44:57.15Z</time></trkpt><trkpt lat="45.02158122855659" lon="9.376217058843011"><ele>183.75</ele><time>2026-04-10T13:44:58.159Z</time></trkpt><trkpt lat="45.02145100958016" lon="9.376169583925979"><ele>185.5</ele><time>2026-04-10T13:44:59.163Z</time></trkpt><trkpt lat="45.021307912676" lon="9.376150216475219"><ele>187.25</ele><time>2026-04-10T13:45:00.154Z</time></trkpt><trkpt lat="45.02116942731933" lon="9.376120299833673"><ele>189.0</ele><time>2026-04-10T13:45:01.157Z</time></trkpt><trkpt lat="45.021045659331364" lon="9.37610962706991"><ele>189.0</ele><time>2026-04-10T13:45:02.158Z</time></trkpt><trkpt lat="45.020923930129335" lon="9.376088217715393"><ele>189.0</ele><time>2026-04-10T13:45:03.149Z</time></trkpt><trkpt lat="45.020801434608494" lon="9.376059814706107"><ele>189.0</ele><time>2026-04-10T13:45:04.148Z</time></trkpt><trkpt lat="45.0206771276305" lon="9.37602162435518"><ele>189.0</ele><time>2026-04-10T13:45:05.154Z</time></trkpt><trkpt lat="45.020539520667626" lon="9.375998585915722"><ele>189.0</ele><time>2026-04-10T13:45:06.158Z</time></trkpt><trkpt lat="45.02040375417909" lon="9.375934094285443"><ele>189.0</ele><time>2026-04-10T13:45:07.153Z</time></trkpt><trkpt lat="45.02027062312068" lon="9.375871017913544"><ele>189.0</ele><time>2026-04-10T13:45:08.151Z</time></trkpt><trkpt lat="45.02015486434585" lon="9.37582191513169"><ele>189.0</ele><time>2026-04-10T13:45:09.152Z</time></trkpt><trkpt lat="45.02005483659315" lon="9.375749370879683"><ele>188.2</ele><time>2026-04-10T13:45:10.146Z</time></trkpt><trkpt lat="45.01996187788637" lon="9.37570311748209"><ele>187.39999999999998</ele><time>2026-04-10T13:45:11.153Z</time></trkpt><trkpt lat="45.019870752276894" lon="9.375673402076577"><ele>186.6</ele><time>2026-04-10T13:45:12.345Z</time></trkpt><trkpt lat="45.01977655830994" lon="9.375644581044664"><ele>185.8</ele><time>2026-04-10T13:45:13.153Z</time></trkpt><trkpt lat="45.01966338020956" lon="9.375614058105128"><ele>185.0</ele><time>2026-04-10T13:45:14.147Z</time></trkpt><trkpt lat="45.0195401140319" lon="9.375583628131125"><ele>185.0</ele><time>2026-04-10T13:45:15.149Z</time></trkpt><trkpt lat="45.019409365300035" lon="9.375560417094054"><ele>185.0</ele><time>2026-04-10T13:45:16.146Z</time></trkpt><trkpt lat="45.01927270145281" lon="9.375553763562026"><ele>185.0</ele><time>2026-04-10T13:45:17.156Z</time></trkpt><trkpt lat="45.019138431779815" lon="9.375577206453755"><ele>185.0</ele><time>2026-04-10T13:45:18.153Z</time></trkpt><trkpt lat="45.019012914900635" lon="9.375641099926849"><ele>183.5</ele><time>2026-04-10T13:45:19.152Z</time></trkpt><trkpt lat="45.01890285316122" lon="9.375708548084507"><ele>182.0</ele><time>2026-04-10T13:45:20.153Z</time></trkpt><trkpt lat="45.018796281656854" lon="9.37575412252058"><ele>180.5</ele><time>2026-04-10T13:45:21.158Z</time></trkpt><trkpt lat="45.018680801756126" lon="9.375750572774683"><ele>179.0</ele><time>2026-04-10T13:45:22.149Z</time></trkpt><trkpt lat="45.01855796312855" lon="9.37568937256559"><ele>179.0</ele><time>2026-04-10T13:45:23.581Z</time></trkpt><trkpt lat="45.01845060655724" lon="9.375584931475371"><ele>179.0</ele><time>2026-04-10T13:45:24.151Z</time></trkpt><trkpt lat="45.0183526311224" lon="9.375432938865641"><ele>179.0</ele><time>2026-04-10T13:45:25.154Z</time></trkpt><trkpt lat="45.01826017132497" lon="9.375261593379145"><ele>179.0</ele><time>2026-04-10T13:45:26.167Z</time></trkpt><trkpt lat="45.01816552725013" lon="9.375092635013617"><ele>177.66666666666666</ele><time>2026-04-10T13:45:27.167Z</time></trkpt><trkpt lat="45.018074297175474" lon="9.374928048813183"><ele>176.33333333333334</ele><time>2026-04-10T13:45:28.151Z</time></trkpt><trkpt lat="45.01798251139839" lon="9.374754828574117"><ele>175.0</ele><time>2026-04-10T13:45:29.166Z</time></trkpt><trkpt lat="45.017882968737666" lon="9.374573586481086"><ele>179.33333333333334</ele><time>2026-04-10T13:45:30.152Z</time></trkpt><trkpt lat="45.0177847647952" lon="9.374389179745105"><ele>183.66666666666666</ele><time>2026-04-10T13:45:31.151Z</time></trkpt><trkpt lat="45.017689754824595" lon="9.374228386193609"><ele>188.0</ele><time>2026-04-10T13:45:32.15Z</time></trkpt><trkpt lat="45.01759434005184" lon="9.374085161872783"><ele>188.0</ele><time>2026-04-10T13:45:33.148Z</time></trkpt><trkpt lat="45.01749534328484" lon="9.373934168505908"><ele>188.0</ele><time>2026-04-10T13:45:34.723Z</time></trkpt><trkpt lat="45.0172873415072" lon="9.37359793678421"><ele>188.0</ele><time>2026-04-10T13:45:36.152Z</time></trkpt><trkpt lat="45.01717558870539" lon="9.373419334014061"><ele>188.0</ele><time>2026-04-10T13:45:37.154Z</time></trkpt><trkpt lat="45.01706723724437" lon="9.373235715830038"><ele>188.0</ele><time>2026-04-10T13:45:38.15Z</time></trkpt><trkpt lat="45.016971282283905" lon="9.373067530219444"><ele>188.5</ele><time>2026-04-10T13:45:39.149Z</time></trkpt><trkpt lat="45.01686938761535" lon="9.37292921269156"><ele>189.0</ele><time>2026-04-10T13:45:40.152Z</time></trkpt><trkpt lat="45.01673962647606" lon="9.372831064733495"><ele>189.5</ele><time>2026-04-10T13:45:41.151Z</time></trkpt><trkpt lat="45.016595458118886" lon="9.372747919326562"><ele>190.0</ele><time>2026-04-10T13:45:42.159Z</time></trkpt><trkpt lat="45.016453787103174" lon="9.372657810269382"><ele>190.0</ele><time>2026-04-10T13:45:43.148Z</time></trkpt><trkpt lat="45.01632519160202" lon="9.372570456511104"><ele>190.0</ele><time>2026-04-10T13:45:44.152Z</time></trkpt><trkpt lat="45.016213988131234" lon="9.372466063758116"><ele>190.0</ele><time>2026-04-10T13:45:45.153Z</time></trkpt><trkpt lat="45.01610613387548" lon="9.372327985530458"><ele>190.0</ele><time>2026-04-10T13:45:46.147Z</time></trkpt><trkpt lat="45.01600746239953" lon="9.37216574460313"><ele>191.33333333333334</ele><time>2026-04-10T13:45:47.154Z</time></trkpt><trkpt lat="45.01590812717902" lon="9.371969255986471"><ele>192.66666666666669</ele><time>2026-04-10T13:45:48.149Z</time></trkpt><trkpt lat="45.01580529215409" lon="9.371763690650045"><ele>194.0</ele><time>2026-04-10T13:45:49.15Z</time></trkpt><trkpt lat="45.01569821251712" lon="9.37156753545478"><ele>194.0</ele><time>2026-04-10T13:45:50.147Z</time></trkpt><trkpt lat="45.01556337929318" lon="9.371389167510678"><ele>194.0</ele><time>2026-04-10T13:45:51.152Z</time></trkpt><trkpt lat="45.015417481393484" lon="9.371216175935004"><ele>194.0</ele><time>2026-04-10T13:45:52.159Z</time></trkpt><trkpt lat="45.0152748294437" lon="9.371050170346125"><ele>196.66666666666669</ele><time>2026-04-10T13:45:53.157Z</time></trkpt><trkpt lat="45.01514551405455" lon="9.37090085803366"><ele>199.33333333333331</ele><time>2026-04-10T13:45:54.152Z</time></trkpt><trkpt lat="45.015014818708025" lon="9.370775134838398"><ele>202.0</ele><time>2026-04-10T13:45:55.149Z</time></trkpt><trkpt lat="45.01487842118471" lon="9.370669419350639"><ele>202.0</ele><time>2026-04-10T13:45:56.158Z</time></trkpt><trkpt lat="45.014752228914354" lon="9.370581238323037"><ele>202.0</ele><time>2026-04-10T13:45:57.155Z</time></trkpt><trkpt lat="45.01462920300753" lon="9.37052562068076"><ele>202.0</ele><time>2026-04-10T13:45:58.154Z</time></trkpt><trkpt lat="45.014517054194535" lon="9.370497317049663"><ele>202.0</ele><time>2026-04-10T13:45:59.154Z</time></trkpt><trkpt lat="45.0144286511946" lon="9.370480219149291"><ele>201.49999999999997</ele><time>2026-04-10T13:46:00.158Z</time></trkpt><trkpt lat="45.01435626273075" lon="9.370471824418228"><ele>201.0</ele><time>2026-04-10T13:46:01.148Z</time></trkpt><trkpt lat="45.01429006347243" lon="9.370473342639922"><ele>200.5</ele><time>2026-04-10T13:46:02.182Z</time></trkpt><trkpt lat="45.01416450319017" lon="9.370468901534576"><ele>200.0</ele><time>2026-04-10T13:46:04.144Z</time></trkpt><trkpt lat="45.014087079874656" lon="9.370465163557498"><ele>199.49999999999997</ele><time>2026-04-10T13:46:05.154Z</time></trkpt><trkpt lat="45.01399929807801" lon="9.370469594854107"><ele>199.0</ele><time>2026-04-10T13:46:06.151Z</time></trkpt><trkpt lat="45.01391007937512" lon="9.370552853516816"><ele>200.39999999999998</ele><time>2026-04-10T13:46:07.146Z</time></trkpt><trkpt lat="45.013818829539034" lon="9.370640542073748"><ele>201.8</ele><time>2026-04-10T13:46:08.15Z</time></trkpt><trkpt lat="45.01373603456956" lon="9.370746751608916"><ele>203.2</ele><time>2026-04-10T13:46:09.155Z</time></trkpt><trkpt lat="45.01365964371845" lon="9.370840067674825"><ele>204.60000000000002</ele><time>2026-04-10T13:46:10.149Z</time></trkpt><trkpt lat="45.01357858688207" lon="9.370908004206319"><ele>206.0</ele><time>2026-04-10T13:46:11.153Z</time></trkpt><trkpt lat="45.013482534037564" lon="9.370967588466874"><ele>206.0</ele><time>2026-04-10T13:46:12.15Z</time></trkpt><trkpt lat="45.013366456607514" lon="9.370998053716258"><ele>206.0</ele><time>2026-04-10T13:46:13.159Z</time></trkpt><trkpt lat="45.013243146257054" lon="9.371014488899194"><ele>206.0</ele><time>2026-04-10T13:46:14.153Z</time></trkpt><trkpt lat="45.013116951079894" lon="9.37102521493339"><ele>206.0</ele><time>2026-04-10T13:46:15.149Z</time></trkpt><trkpt lat="45.012987515870755" lon="9.371037583972106"><ele>205.5</ele><time>2026-04-10T13:46:16.155Z</time></trkpt><trkpt lat="45.012851312813524" lon="9.37105579547449"><ele>205.0</ele><time>2026-04-10T13:46:17.152Z</time></trkpt><trkpt lat="45.01271078194741" lon="9.371070350527877"><ele>204.5</ele><time>2026-04-10T13:46:18.15Z</time></trkpt><trkpt lat="45.01258679136399" lon="9.371088336516722"><ele>204.0</ele><time>2026-04-10T13:46:19.153Z</time></trkpt><trkpt lat="45.012467891312596" lon="9.371116871449662"><ele>205.0</ele><time>2026-04-10T13:46:20.148Z</time></trkpt><trkpt lat="45.01235689327934" lon="9.371166689411702"><ele>206.0</ele><time>2026-04-10T13:46:21.154Z</time></trkpt><trkpt lat="45.0122471287122" lon="9.371225927070086"><ele>207.0</ele><time>2026-04-10T13:46:22.152Z</time></trkpt><trkpt lat="45.01216614657779" lon="9.371364901560915"><ele>208.0</ele><time>2026-04-10T13:46:23.15Z</time></trkpt><trkpt lat="45.01210642333957" lon="9.37150579421762"><ele>208.83333333333331</ele><time>2026-04-10T13:46:24.151Z</time></trkpt><trkpt lat="45.01204194647237" lon="9.371609474467018"><ele>209.66666666666666</ele><time>2026-04-10T13:46:25.149Z</time></trkpt><trkpt lat="45.01198915743809" lon="9.37169164743394"><ele>210.5</ele><time>2026-04-10T13:46:26.153Z</time></trkpt><trkpt lat="45.011925680065694" lon="9.371752544539856"><ele>211.33333333333331</ele><time>2026-04-10T13:46:27.15Z</time></trkpt><trkpt lat="45.01184485590108" lon="9.371803417236235"><ele>212.16666666666666</ele><time>2026-04-10T13:46:28.149Z</time></trkpt><trkpt lat="45.01174785992228" lon="9.371827523881201"><ele>213.0</ele><time>2026-04-10T13:46:29.155Z</time></trkpt><trkpt lat="45.011632753685376" lon="9.3718454098427"><ele>213.0</ele><time>2026-04-10T13:46:30.157Z</time></trkpt><trkpt lat="45.0115055154808" lon="9.371857452292092"><ele>213.0</ele><time>2026-04-10T13:46:31.159Z</time></trkpt><trkpt lat="45.011374123533905" lon="9.371874324222363"><ele>213.0</ele><time>2026-04-10T13:46:32.153Z</time></trkpt><trkpt lat="45.01124923578924" lon="9.37187422242867"><ele>213.0</ele><time>2026-04-10T13:46:33.162Z</time></trkpt><trkpt lat="45.011141401223526" lon="9.371870298458608"><ele>213.0</ele><time>2026-04-10T13:46:34.153Z</time></trkpt><trkpt lat="45.01104091946735" lon="9.371865407708519"><ele>213.0</ele><time>2026-04-10T13:46:35.153Z</time></trkpt><trkpt lat="45.01094066364759" lon="9.371846646026214"><ele>213.0</ele><time>2026-04-10T13:46:36.147Z</time></trkpt><trkpt lat="45.010838428489016" lon="9.371797081233106"><ele>213.0</ele><time>2026-04-10T13:46:37.159Z</time></trkpt><trkpt lat="45.01074474739175" lon="9.371721413224503"><ele>213.0</ele><time>2026-04-10T13:46:38.154Z</time></trkpt><trkpt lat="45.01066050100724" lon="9.371628218384451"><ele>210.75</ele><time>2026-04-10T13:46:39.154Z</time></trkpt><trkpt lat="45.01059409717983" lon="9.371515483577983"><ele>208.5</ele><time>2026-04-10T13:46:40.153Z</time></trkpt><trkpt lat="45.0105327412584" lon="9.371382830099334"><ele>206.25</ele><time>2026-04-10T13:46:41.153Z</time></trkpt><trkpt lat="45.01047436047452" lon="9.371222446872169"><ele>204.0</ele><time>2026-04-10T13:46:42.154Z</time></trkpt><trkpt lat="45.01043331519379" lon="9.37103995715743"><ele>204.0</ele><time>2026-04-10T13:46:43.163Z</time></trkpt><trkpt lat="45.010410582746275" lon="9.370862293058268"><ele>204.0</ele><time>2026-04-10T13:46:44.158Z</time></trkpt><trkpt lat="45.010396014390125" lon="9.370694935624885"><ele>204.0</ele><time>2026-04-10T13:46:45.154Z</time></trkpt><trkpt lat="45.01037738767501" lon="9.370539083979216"><ele>204.0</ele><time>2026-04-10T13:46:46.151Z</time></trkpt><trkpt lat="45.010344279381016" lon="9.370396975750257"><ele>206.25</ele><time>2026-04-10T13:46:47.155Z</time></trkpt><trkpt lat="45.01029178574258" lon="9.370266217527199"><ele>208.5</ele><time>2026-04-10T13:46:48.159Z</time></trkpt><trkpt lat="45.010217320022115" lon="9.37012072243125"><ele>210.75</ele><time>2026-04-10T13:46:49.154Z</time></trkpt><trkpt lat="45.010114508443884" lon="9.369975264248795"><ele>213.0</ele><time>2026-04-10T13:46:50.167Z</time></trkpt><trkpt lat="45.01000414695976" lon="9.369815834788666"><ele>213.0</ele><time>2026-04-10T13:46:51.149Z</time></trkpt><trkpt lat="45.0098861427419" lon="9.36964346800012"><ele>213.0</ele><time>2026-04-10T13:46:52.155Z</time></trkpt><trkpt lat="45.009762695433466" lon="9.369467748039629"><ele>213.0</ele><time>2026-04-10T13:46:53.163Z</time></trkpt><trkpt lat="45.00963645371057" lon="9.369284674265002"><ele>213.0</ele><time>2026-04-10T13:46:54.156Z</time></trkpt><trkpt lat="45.00951249913405" lon="9.369101850305892"><ele>213.0</ele><time>2026-04-10T13:46:55.186Z</time></trkpt><trkpt lat="45.009382715225755" lon="9.368913767859214"><ele>213.0</ele><time>2026-04-10T13:46:56.156Z</time></trkpt><trkpt lat="45.009251514030524" lon="9.368719302575233"><ele>213.33333333333331</ele><time>2026-04-10T13:46:57.166Z</time></trkpt><trkpt lat="45.00912977217211" lon="9.368533155639897"><ele>213.66666666666666</ele><time>2026-04-10T13:46:58.165Z</time></trkpt><trkpt lat="45.009017023829514" lon="9.368364536274022"><ele>214.0</ele><time>2026-04-10T13:46:59.163Z</time></trkpt><trkpt lat="45.00891117093787" lon="9.368201589923048"><ele>214.0</ele><time>2026-04-10T13:47:00.155Z</time></trkpt><trkpt lat="45.00880853303571" lon="9.368060211376449"><ele>214.0</ele><time>2026-04-10T13:47:01.152Z</time></trkpt><trkpt lat="45.00869604884609" lon="9.367936381448562"><ele>214.0</ele><time>2026-04-10T13:47:02.174Z</time></trkpt><trkpt lat="45.00853660030691" lon="9.367874045543333"><ele>214.0</ele><time>2026-04-10T13:47:03.17Z</time></trkpt><trkpt lat="45.00835405366934" lon="9.367868228736084"><ele>214.0</ele><time>2026-04-10T13:47:04.15Z</time></trkpt><trkpt lat="45.00816143700809" lon="9.367853192777188"><ele>214.0</ele><time>2026-04-10T13:47:05.153Z</time></trkpt><trkpt lat="45.00795312173883" lon="9.367821556136633"><ele>214.33333333333331</ele><time>2026-04-10T13:47:06.169Z</time></trkpt><trkpt lat="45.00773971373041" lon="9.36780684426998"><ele>214.66666666666669</ele><time>2026-04-10T13:47:07.171Z</time></trkpt><trkpt lat="45.0075405652768" lon="9.367794455463509"><ele>215.0</ele><time>2026-04-10T13:47:08.15Z</time></trkpt><trkpt lat="45.00736521081971" lon="9.367780700714654"><ele>215.33333333333334</ele><time>2026-04-10T13:47:09.169Z</time></trkpt><trkpt lat="45.00720848720633" lon="9.367766631163127"><ele>215.66666666666669</ele><time>2026-04-10T13:47:10.165Z</time></trkpt><trkpt lat="45.00705720346507" lon="9.367695347910255"><ele>216.0</ele><time>2026-04-10T13:47:11.168Z</time></trkpt><trkpt lat="45.00689431939565" lon="9.36759529201777"><ele>216.0</ele><time>2026-04-10T13:47:12.152Z</time></trkpt><trkpt lat="45.006726185133836" lon="9.367490640065581"><ele>216.0</ele><time>2026-04-10T13:47:13.159Z</time></trkpt><trkpt lat="45.006554405687325" lon="9.367353386087348"><ele>216.0</ele><time>2026-04-10T13:47:14.165Z</time></trkpt><trkpt lat="45.00637062205203" lon="9.36723267856851"><ele>217.33333333333331</ele><time>2026-04-10T13:47:15.169Z</time></trkpt><trkpt lat="45.00617767115975" lon="9.367112153395782"><ele>218.66666666666666</ele><time>2026-04-10T13:47:16.164Z</time></trkpt><trkpt lat="45.005972178393975" lon="9.36700074126162"><ele>220.0</ele><time>2026-04-10T13:47:17.152Z</time></trkpt><trkpt lat="45.00576433465876" lon="9.36692574138003"><ele>222.66666666666666</ele><time>2026-04-10T13:47:18.155Z</time></trkpt><trkpt lat="45.00558464642082" lon="9.366850523890944"><ele>225.33333333333331</ele><time>2026-04-10T13:47:19.168Z</time></trkpt><trkpt lat="45.0054176255757" lon="9.366784633243231"><ele>228.0</ele><time>2026-04-10T13:47:20.166Z</time></trkpt><trkpt lat="45.00524714137426" lon="9.36671901071613"><ele>228.0</ele><time>2026-04-10T13:47:21.167Z</time></trkpt><trkpt lat="45.005086720954665" lon="9.366659140867416"><ele>228.0</ele><time>2026-04-10T13:47:22.155Z</time></trkpt><trkpt lat="45.004939275903794" lon="9.366605496628603"><ele>228.0</ele><time>2026-04-10T13:47:23.147Z</time></trkpt><trkpt lat="45.00479856156156" lon="9.366555972271106"><ele>228.5</ele><time>2026-04-10T13:47:24.166Z</time></trkpt><trkpt lat="45.004663398906196" lon="9.366506655561793"><ele>229.0</ele><time>2026-04-10T13:47:25.166Z</time></trkpt><trkpt lat="45.00453442182149" lon="9.366460635307888"><ele>229.5</ele><time>2026-04-10T13:47:26.159Z</time></trkpt><trkpt lat="45.004408093406106" lon="9.36642312693455"><ele>230.0</ele><time>2026-04-10T13:47:27.163Z</time></trkpt><trkpt lat="45.004289573267755" lon="9.36639074533667"><ele>230.25</ele><time>2026-04-10T13:47:28.159Z</time></trkpt><trkpt lat="45.00418193108857" lon="9.366356430497893"><ele>230.5</ele><time>2026-04-10T13:47:29.157Z</time></trkpt><trkpt lat="45.0040741311242" lon="9.366314409228325"><ele>230.75</ele><time>2026-04-10T13:47:30.16Z</time></trkpt><trkpt lat="45.00396471891744" lon="9.36627227242821"><ele>231.0</ele><time>2026-04-10T13:47:31.165Z</time></trkpt><trkpt lat="45.00385204470584" lon="9.366232394338788"><ele>230.0</ele><time>2026-04-10T13:47:32.162Z</time></trkpt><trkpt lat="45.003733611787816" lon="9.366188240092724"><ele>229.0</ele><time>2026-04-10T13:47:33.164Z</time></trkpt><trkpt lat="45.00360827310744" lon="9.36613340677643"><ele>228.0</ele><time>2026-04-10T13:47:34.153Z</time></trkpt><trkpt lat="45.00347593778687" lon="9.366073550515615"><ele>227.0</ele><time>2026-04-10T13:47:35.148Z</time></trkpt><trkpt lat="45.00333841499993" lon="9.366003602769716"><ele>226.75</ele><time>2026-04-10T13:47:36.151Z</time></trkpt><trkpt lat="45.0032023438826" lon="9.365923189455593"><ele>226.5</ele><time>2026-04-10T13:47:37.153Z</time></trkpt><trkpt lat="45.00308144739379" lon="9.365833484830006"><ele>226.25</ele><time>2026-04-10T13:47:38.15Z</time></trkpt><trkpt lat="45.002966392777985" lon="9.365746308682267"><ele>226.0</ele><time>2026-04-10T13:47:39.146Z</time></trkpt><trkpt lat="45.002848348816464" lon="9.36565457445178"><ele>226.0</ele><time>2026-04-10T13:47:40.149Z</time></trkpt><trkpt lat="45.00272285215467" lon="9.36555346550495"><ele>226.0</ele><time>2026-04-10T13:47:41.179Z</time></trkpt><trkpt lat="45.002591493448904" lon="9.36544082669317"><ele>226.0</ele><time>2026-04-10T13:47:42.171Z</time></trkpt><trkpt lat="45.00245751051903" lon="9.365317509405893"><ele>227.66666666666666</ele><time>2026-04-10T13:47:43.164Z</time></trkpt><trkpt lat="45.00232264561933" lon="9.365171751906134"><ele>229.33333333333331</ele><time>2026-04-10T13:47:44.151Z</time></trkpt><trkpt lat="45.00219909583121" lon="9.365007254326523"><ele>231.0</ele><time>2026-04-10T13:47:45.164Z</time></trkpt><trkpt lat="45.00207331538915" lon="9.364845681343633"><ele>231.25</ele><time>2026-04-10T13:47:46.157Z</time></trkpt><trkpt lat="45.001976768994076" lon="9.364692443051501"><ele>231.5</ele><time>2026-04-10T13:47:47.149Z</time></trkpt><trkpt lat="45.00187243729502" lon="9.364557935731312"><ele>231.75</ele><time>2026-04-10T13:47:48.165Z</time></trkpt><trkpt lat="45.001764850641734" lon="9.364417744892085"><ele>232.0</ele><time>2026-04-10T13:47:49.169Z</time></trkpt><trkpt lat="45.00165977962911" lon="9.364272722448673"><ele>232.5</ele><time>2026-04-10T13:47:50.165Z</time></trkpt><trkpt lat="45.00155353859769" lon="9.364148137793787"><ele>233.0</ele><time>2026-04-10T13:47:51.15Z</time></trkpt><trkpt lat="45.001469965181364" lon="9.36400262148165"><ele>233.5</ele><time>2026-04-10T13:47:52.152Z</time></trkpt><trkpt lat="45.00138368531258" lon="9.363842291429316"><ele>234.0</ele><time>2026-04-10T13:47:53.149Z</time></trkpt><trkpt lat="45.00130330939524" lon="9.363666076211603"><ele>234.0</ele><time>2026-04-10T13:47:54.166Z</time></trkpt><trkpt lat="45.001230844347845" lon="9.363484316704007"><ele>234.0</ele><time>2026-04-10T13:47:55.167Z</time></trkpt><trkpt lat="45.00116188775201" lon="9.363307403710897"><ele>234.0</ele><time>2026-04-10T13:47:56.15Z</time></trkpt><trkpt lat="45.00110327666139" lon="9.363145306688397"><ele>234.0</ele><time>2026-04-10T13:47:57.165Z</time></trkpt><trkpt lat="45.00104300744297" lon="9.362992530223314"><ele>233.75</ele><time>2026-04-10T13:47:58.182Z</time></trkpt><trkpt lat="45.000981612348674" lon="9.362843515116582"><ele>233.5</ele><time>2026-04-10T13:47:59.183Z</time></trkpt><trkpt lat="45.00091598844031" lon="9.362698823918349"><ele>233.25</ele><time>2026-04-10T13:48:00.149Z</time></trkpt><trkpt lat="45.00084227691834" lon="9.362544969401892"><ele>233.0</ele><time>2026-04-10T13:48:01.149Z</time></trkpt><trkpt lat="45.00074467524974" lon="9.362387534370956"><ele>232.33333333333334</ele><time>2026-04-10T13:48:02.151Z</time></trkpt><trkpt lat="45.00063912533043" lon="9.362226564359183"><ele>231.66666666666669</ele><time>2026-04-10T13:48:03.178Z</time></trkpt><trkpt lat="45.000530391374014" lon="9.362058778424684"><ele>231.0</ele><time>2026-04-10T13:48:04.148Z</time></trkpt><trkpt lat="45.0004181772458" lon="9.361892915335497"><ele>231.0</ele><time>2026-04-10T13:48:05.164Z</time></trkpt><trkpt lat="45.00031351834886" lon="9.36173909672828"><ele>231.0</ele><time>2026-04-10T13:48:06.159Z</time></trkpt><trkpt lat="45.00021982289066" lon="9.361598077721315"><ele>231.0</ele><time>2026-04-10T13:48:07.182Z</time></trkpt><trkpt lat="45.00015526713138" lon="9.361466627061906"><ele>231.0</ele><time>2026-04-10T13:48:08.152Z</time></trkpt><trkpt lat="45.00009354320071" lon="9.361382682535474"><ele>231.83333333333334</ele><time>2026-04-10T13:48:09.146Z</time></trkpt><trkpt lat="45.000041877887625" lon="9.36130784342312"><ele>232.66666666666669</ele><time>2026-04-10T13:48:10.148Z</time></trkpt><trkpt lat="44.999998607130664" lon="9.36124204566205"><ele>233.5</ele><time>2026-04-10T13:48:11.151Z</time></trkpt><trkpt lat="44.99994824923657" lon="9.361180244294765"><ele>234.33333333333334</ele><time>2026-04-10T13:48:12.167Z</time></trkpt><trkpt lat="44.999880196695635" lon="9.361117082364206"><ele>235.16666666666669</ele><time>2026-04-10T13:48:13.159Z</time></trkpt><trkpt lat="44.99979313616179" lon="9.361051767727025"><ele>236.0</ele><time>2026-04-10T13:48:14.163Z</time></trkpt><trkpt lat="44.999696881518894" lon="9.361000736898658"><ele>236.0</ele><time>2026-04-10T13:48:15.157Z</time></trkpt><trkpt lat="44.99959830950654" lon="9.360928975247047"><ele>236.00000000000003</ele><time>2026-04-10T13:48:16.152Z</time></trkpt><trkpt lat="44.99949564435503" lon="9.360870443231617"><ele>236.00000000000003</ele><time>2026-04-10T13:48:17.151Z</time></trkpt><trkpt lat="44.99938358104395" lon="9.36080903306476"><ele>236.0</ele><time>2026-04-10T13:48:18.173Z</time></trkpt><trkpt lat="44.99928524531327" lon="9.360765201134894"><ele>236.0</ele><time>2026-04-10T13:48:19.15Z</time></trkpt><trkpt lat="44.99919340687824" lon="9.360727171691732"><ele>236.0</ele><time>2026-04-10T13:48:20.149Z</time></trkpt><trkpt lat="44.999110107809884" lon="9.360680146384487"><ele>236.00000000000003</ele><time>2026-04-10T13:48:21.15Z</time></trkpt><trkpt lat="44.999012776194036" lon="9.360616998364003"><ele>236.00000000000003</ele><time>2026-04-10T13:48:22.167Z</time></trkpt><trkpt lat="44.998907564353814" lon="9.360539579821447"><ele>236.0</ele><time>2026-04-10T13:48:23.151Z</time></trkpt><trkpt lat="44.99879367573847" lon="9.360455780858326"><ele>236.0</ele><time>2026-04-10T13:48:24.148Z</time></trkpt><trkpt lat="44.99867606873997" lon="9.360360380082676"><ele>236.0</ele><time>2026-04-10T13:48:25.149Z</time></trkpt><trkpt lat="44.99856102391376" lon="9.360255562247266"><ele>236.0</ele><time>2026-04-10T13:48:26.175Z</time></trkpt><trkpt lat="44.99844277774268" lon="9.360144611238066"><ele>236.0</ele><time>2026-04-10T13:48:27.158Z</time></trkpt><trkpt lat="44.998325473716946" lon="9.360029682929135"><ele>236.0</ele><time>2026-04-10T13:48:28.183Z</time></trkpt><trkpt lat="44.99820553181284" lon="9.359907820323771"><ele>236.33333333333334</ele><time>2026-04-10T13:48:29.153Z</time></trkpt><trkpt lat="44.998082145798115" lon="9.359792175847677"><ele>236.66666666666669</ele><time>2026-04-10T13:48:30.164Z</time></trkpt><trkpt lat="44.9979536193276" lon="9.359676207337902"><ele>237.0</ele><time>2026-04-10T13:48:31.168Z</time></trkpt><trkpt lat="44.99782603040463" lon="9.359567000044366"><ele>237.0</ele><time>2026-04-10T13:48:32.157Z</time></trkpt><trkpt lat="44.99771055184214" lon="9.35946351435906"><ele>237.0</ele><time>2026-04-10T13:48:33.155Z</time></trkpt><trkpt lat="44.99760044483811" lon="9.359373121333645"><ele>237.0</ele><time>2026-04-10T13:48:34.157Z</time></trkpt><trkpt lat="44.99749380314957" lon="9.359300782074092"><ele>237.0</ele><time>2026-04-10T13:48:35.16Z</time></trkpt><trkpt lat="44.99740139389605" lon="9.359198630178714"><ele>237.5</ele><time>2026-04-10T13:48:36.17Z</time></trkpt><trkpt lat="44.99729329150347" lon="9.359105707518909"><ele>238.0</ele><time>2026-04-10T13:48:37.147Z</time></trkpt><trkpt lat="44.997173472981295" lon="9.359019907181864"><ele>238.5</ele><time>2026-04-10T13:48:38.156Z</time></trkpt><trkpt lat="44.997047704964935" lon="9.358910086716596"><ele>239.0</ele><time>2026-04-10T13:48:39.156Z</time></trkpt><trkpt lat="44.99690771401902" lon="9.358787366300893"><ele>239.0</ele><time>2026-04-10T13:48:40.173Z</time></trkpt><trkpt lat="44.99675491017462" lon="9.358648793141324"><ele>239.0</ele><time>2026-04-10T13:48:41.164Z</time></trkpt><trkpt lat="44.996595342455926" lon="9.358498494969151"><ele>239.0</ele><time>2026-04-10T13:48:42.15Z</time></trkpt><trkpt lat="44.99643618551492" lon="9.358348053493405"><ele>239.33333333333334</ele><time>2026-04-10T13:48:43.149Z</time></trkpt><trkpt lat="44.996260732955164" lon="9.358187752971533"><ele>239.66666666666669</ele><time>2026-04-10T13:48:44.165Z</time></trkpt><trkpt lat="44.996093596977715" lon="9.358041842540327"><ele>240.0</ele><time>2026-04-10T13:48:45.163Z</time></trkpt><trkpt lat="44.99593568250925" lon="9.357924739147158"><ele>243.0</ele><time>2026-04-10T13:48:46.154Z</time></trkpt><trkpt lat="44.995794955082324" lon="9.357808766934577"><ele>246.0</ele><time>2026-04-10T13:48:47.162Z</time></trkpt><trkpt lat="44.995657275196294" lon="9.357721588143054"><ele>249.0</ele><time>2026-04-10T13:48:48.147Z</time></trkpt><trkpt lat="44.99553044956871" lon="9.357645944527292"><ele>249.0</ele><time>2026-04-10T13:48:49.146Z</time></trkpt><trkpt lat="44.99540346490647" lon="9.357576300320718"><ele>249.0</ele><time>2026-04-10T13:48:50.152Z</time></trkpt><trkpt lat="44.995260452719656" lon="9.357528698087142"><ele>249.0</ele><time>2026-04-10T13:48:51.152Z</time></trkpt><trkpt lat="44.99512051852655" lon="9.35745900708703"><ele>249.0</ele><time>2026-04-10T13:48:52.167Z</time></trkpt><trkpt lat="44.9949682143942" lon="9.357379386787583"><ele>251.0</ele><time>2026-04-10T13:48:53.163Z</time></trkpt><trkpt lat="44.99479776642342" lon="9.357299914534092"><ele>253.0</ele><time>2026-04-10T13:48:54.154Z</time></trkpt><trkpt lat="44.99463029469445" lon="9.357223958793561"><ele>255.0</ele><time>2026-04-10T13:48:55.151Z</time></trkpt><trkpt lat="44.99447903845096" lon="9.357156514686253"><ele>256.0</ele><time>2026-04-10T13:48:56.16Z</time></trkpt><trkpt lat="44.99433986543997" lon="9.357083583238131"><ele>257.0</ele><time>2026-04-10T13:48:57.145Z</time></trkpt><trkpt lat="44.994195601197454" lon="9.35698985049038"><ele>258.0</ele><time>2026-04-10T13:48:58.151Z</time></trkpt><trkpt lat="44.99405890220522" lon="9.356871709279561"><ele>259.0</ele><time>2026-04-10T13:48:59.153Z</time></trkpt><trkpt lat="44.99393584644957" lon="9.356722002671486"><ele>260.0</ele><time>2026-04-10T13:49:00.157Z</time></trkpt><trkpt lat="44.993819408070216" lon="9.356559155023568"><ele>261.0</ele><time>2026-04-10T13:49:01.171Z</time></trkpt><trkpt lat="44.99371440570977" lon="9.356402505528482"><ele>259.3333333333333</ele><time>2026-04-10T13:49:02.154Z</time></trkpt><trkpt lat="44.993612911730594" lon="9.356254205783928"><ele>257.66666666666663</ele><time>2026-04-10T13:49:03.151Z</time></trkpt><trkpt lat="44.993504580681495" lon="9.356097069265498"><ele>256.0</ele><time>2026-04-10T13:49:04.163Z</time></trkpt><trkpt lat="44.99340959718867" lon="9.355920027366855"><ele>258.3333333333333</ele><time>2026-04-10T13:49:05.166Z</time></trkpt><trkpt lat="44.99329971873379" lon="9.355754955602784"><ele>260.6666666666667</ele><time>2026-04-10T13:49:06.154Z</time></trkpt><trkpt lat="44.99318834009106" lon="9.355598209673472"><ele>263.0</ele><time>2026-04-10T13:49:07.154Z</time></trkpt><trkpt lat="44.993069454206164" lon="9.3554371713846"><ele>263.0</ele><time>2026-04-10T13:49:08.156Z</time></trkpt><trkpt lat="44.99294916120314" lon="9.355283003981718"><ele>263.0</ele><time>2026-04-10T13:49:09.172Z</time></trkpt><trkpt lat="44.992842523422176" lon="9.355165649508773"><ele>263.0</ele><time>2026-04-10T13:49:10.153Z</time></trkpt><trkpt lat="44.992739644690445" lon="9.355066820069233"><ele>263.0</ele><time>2026-04-10T13:49:11.149Z</time></trkpt><trkpt lat="44.99262715999892" lon="9.35499325494085"><ele>263.0</ele><time>2026-04-10T13:49:12.149Z</time></trkpt><trkpt lat="44.992507396922456" lon="9.354976216869767"><ele>263.0</ele><time>2026-04-10T13:49:13.154Z</time></trkpt><trkpt lat="44.9923862887874" lon="9.354986686215074"><ele>263.0</ele><time>2026-04-10T13:49:14.158Z</time></trkpt><trkpt lat="44.9922622968409" lon="9.35504941994973"><ele>263.0</ele><time>2026-04-10T13:49:15.149Z</time></trkpt><trkpt lat="44.992143075196495" lon="9.355164651523522"><ele>265.75</ele><time>2026-04-10T13:49:16.154Z</time></trkpt><trkpt lat="44.99204465896744" lon="9.355322905992407"><ele>268.5</ele><time>2026-04-10T13:49:17.16Z</time></trkpt><trkpt lat="44.9919740103944" lon="9.3554864735042"><ele>271.25</ele><time>2026-04-10T13:49:18.149Z</time></trkpt><trkpt lat="44.99191772969517" lon="9.355643372798548"><ele>274.0</ele><time>2026-04-10T13:49:19.153Z</time></trkpt><trkpt lat="44.991814097501994" lon="9.355753884766186"><ele>274.59999999999997</ele><time>2026-04-10T13:49:20.153Z</time></trkpt><trkpt lat="44.9917152955886" lon="9.355853806747646"><ele>275.2</ele><time>2026-04-10T13:49:21.155Z</time></trkpt><trkpt lat="44.99160454801693" lon="9.35586306952625"><ele>275.79999999999995</ele><time>2026-04-10T13:49:22.161Z</time></trkpt><trkpt lat="44.991505626176554" lon="9.355858744754732"><ele>276.4</ele><time>2026-04-10T13:49:23.155Z</time></trkpt><trkpt lat="44.991399096388974" lon="9.355835618681288"><ele>277.0</ele><time>2026-04-10T13:49:24.152Z</time></trkpt><trkpt lat="44.99131388874125" lon="9.355738834816776"><ele>278.75</ele><time>2026-04-10T13:49:25.154Z</time></trkpt><trkpt lat="44.99123022041997" lon="9.355610490383164"><ele>280.5</ele><time>2026-04-10T13:49:26.154Z</time></trkpt><trkpt lat="44.99112958704727" lon="9.355459893636693"><ele>282.25</ele><time>2026-04-10T13:49:27.148Z</time></trkpt><trkpt lat="44.991019222245846" lon="9.355299514020974"><ele>284.0</ele><time>2026-04-10T13:49:28.152Z</time></trkpt><trkpt lat="44.990912281134655" lon="9.355175146137368"><ele>287.0</ele><time>2026-04-10T13:49:29.151Z</time></trkpt><trkpt lat="44.99079450686217" lon="9.355069637563574"><ele>290.0</ele><time>2026-04-10T13:49:30.159Z</time></trkpt><trkpt lat="44.99067124525237" lon="9.355011973995824"><ele>293.0</ele><time>2026-04-10T13:49:31.153Z</time></trkpt><trkpt lat="44.99054562668281" lon="9.354970817882084"><ele>296.0</ele><time>2026-04-10T13:49:32.16Z</time></trkpt><trkpt lat="44.99040736323697" lon="9.354953512000256"><ele>296.0</ele><time>2026-04-10T13:49:33.153Z</time></trkpt><trkpt lat="44.99028708597508" lon="9.354948489851694"><ele>296.0</ele><time>2026-04-10T13:49:34.149Z</time></trkpt><trkpt lat="44.99018226844117" lon="9.35493741321461"><ele>296.0</ele><time>2026-04-10T13:49:35.15Z</time></trkpt><trkpt lat="44.99008280385248" lon="9.354939713788218"><ele>296.0</ele><time>2026-04-10T13:49:36.147Z</time></trkpt><trkpt lat="44.98997581314163" lon="9.354942268492728"><ele>296.0</ele><time>2026-04-10T13:49:37.161Z</time></trkpt><trkpt lat="44.98986836997649" lon="9.354945474335866"><ele>297.2</ele><time>2026-04-10T13:49:38.158Z</time></trkpt><trkpt lat="44.98975930536694" lon="9.354958371626797"><ele>298.40000000000003</ele><time>2026-04-10T13:49:39.16Z</time></trkpt><trkpt lat="44.98966019774654" lon="9.35497300804438"><ele>299.6</ele><time>2026-04-10T13:49:40.173Z</time></trkpt><trkpt lat="44.9895690026182" lon="9.354990086791114"><ele>300.8</ele><time>2026-04-10T13:49:41.152Z</time></trkpt><trkpt lat="44.98948162233842" lon="9.355020190381003"><ele>302.0</ele><time>2026-04-10T13:49:42.158Z</time></trkpt><trkpt lat="44.9893921601059" lon="9.35504860411064"><ele>302.0</ele><time>2026-04-10T13:49:43.154Z</time></trkpt><trkpt lat="44.98930169422806" lon="9.355102085272241"><ele>302.0</ele><time>2026-04-10T13:49:44.159Z</time></trkpt><trkpt lat="44.98922057721749" lon="9.355193621505803"><ele>302.0</ele><time>2026-04-10T13:49:45.162Z</time></trkpt><trkpt lat="44.98912679424376" lon="9.355253404925314"><ele>302.0</ele><time>2026-04-10T13:49:46.154Z</time></trkpt><trkpt lat="44.98902991043352" lon="9.355299015026082"><ele>302.0</ele><time>2026-04-10T13:49:47.156Z</time></trkpt><trkpt lat="44.988931916891595" lon="9.35533011434457"><ele>304.5</ele><time>2026-04-10T13:49:48.166Z</time></trkpt><trkpt lat="44.988823846330135" lon="9.355349557023422"><ele>307.0</ele><time>2026-04-10T13:49:49.158Z</time></trkpt><trkpt lat="44.988707595480356" lon="9.355337111850965"><ele>309.5</ele><time>2026-04-10T13:49:50.16Z</time></trkpt><trkpt lat="44.988579150653145" lon="9.355337494996602"><ele>312.0</ele><time>2026-04-10T13:49:51.166Z</time></trkpt><trkpt lat="44.98845501420212" lon="9.35531838100137"><ele>312.0</ele><time>2026-04-10T13:49:52.15Z</time></trkpt><trkpt lat="44.988352303657955" lon="9.355299322355464"><ele>312.0</ele><time>2026-04-10T13:49:53.15Z</time></trkpt><trkpt lat="44.98825482972198" lon="9.355294469640196"><ele>312.0</ele><time>2026-04-10T13:49:54.172Z</time></trkpt><trkpt lat="44.988163632228215" lon="9.355310334099023"><ele>312.0</ele><time>2026-04-10T13:49:55.168Z</time></trkpt><trkpt lat="44.988075716175615" lon="9.35534111198754"><ele>312.0</ele><time>2026-04-10T13:49:56.152Z</time></trkpt><trkpt lat="44.98800376208701" lon="9.355362695556614"><ele>313.4</ele><time>2026-04-10T13:49:57.15Z</time></trkpt><trkpt lat="44.98792261553398" lon="9.355367624365726"><ele>314.79999999999995</ele><time>2026-04-10T13:49:59.139Z</time></trkpt><trkpt lat="44.98784070042531" lon="9.3553606430971"><ele>316.2</ele><time>2026-04-10T13:50:02.147Z</time></trkpt><trkpt lat="44.98771732807396" lon="9.355337875223553"><ele>317.59999999999997</ele><time>2026-04-10T13:50:04.149Z</time></trkpt><trkpt lat="44.98763589748499" lon="9.355330551795245"><ele>319.0</ele><time>2026-04-10T13:50:05.147Z</time></trkpt><trkpt lat="44.98753517711194" lon="9.355329350284695"><ele>319.2</ele><time>2026-04-10T13:50:06.151Z</time></trkpt><trkpt lat="44.987438789077466" lon="9.3553122959124"><ele>319.4</ele><time>2026-04-10T13:50:07.145Z</time></trkpt><trkpt lat="44.98734805855696" lon="9.355288205921452"><ele>319.6</ele><time>2026-04-10T13:50:08.17Z</time></trkpt><trkpt lat="44.98724586492253" lon="9.355286055568657"><ele>319.8</ele><time>2026-04-10T13:50:09.159Z</time></trkpt><trkpt lat="44.98714448399699" lon="9.355301166524814"><ele>320.0</ele><time>2026-04-10T13:50:10.159Z</time></trkpt><trkpt lat="44.98705318218583" lon="9.35532438064313"><ele>320.0</ele><time>2026-04-10T13:50:11.15Z</time></trkpt><trkpt lat="44.98695625988828" lon="9.355342232157545"><ele>320.0</ele><time>2026-04-10T13:50:12.155Z</time></trkpt><trkpt lat="44.986851725333146" lon="9.35538384405984"><ele>320.0</ele><time>2026-04-10T13:50:13.155Z</time></trkpt><trkpt lat="44.98675028916379" lon="9.355421834675605"><ele>320.0</ele><time>2026-04-10T13:50:14.159Z</time></trkpt><trkpt lat="44.986643310682894" lon="9.355495863639964"><ele>320.0</ele><time>2026-04-10T13:50:15.151Z</time></trkpt><trkpt lat="44.98653437906014" lon="9.355557189928138"><ele>320.75</ele><time>2026-04-10T13:50:16.151Z</time></trkpt><trkpt lat="44.98642420315902" lon="9.355625299005977"><ele>321.5</ele><time>2026-04-10T13:50:17.157Z</time></trkpt><trkpt lat="44.98631105269027" lon="9.355689619866803"><ele>322.25</ele><time>2026-04-10T13:50:18.155Z</time></trkpt><trkpt lat="44.98620430743883" lon="9.355756667957774"><ele>323.0</ele><time>2026-04-10T13:50:19.15Z</time></trkpt><trkpt lat="44.9860939362932" lon="9.355828242085122"><ele>323.0</ele><time>2026-04-10T13:50:20.154Z</time></trkpt><trkpt lat="44.98598997224543" lon="9.355887308015888"><ele>323.0</ele><time>2026-04-10T13:50:21.165Z</time></trkpt><trkpt lat="44.985892368534195" lon="9.355944784677098"><ele>323.0</ele><time>2026-04-10T13:50:22.165Z</time></trkpt><trkpt lat="44.9858075276786" lon="9.35601025383921"><ele>323.0</ele><time>2026-04-10T13:50:23.151Z</time></trkpt><trkpt lat="44.98571813077936" lon="9.356077223100217"><ele>323.0</ele><time>2026-04-10T13:50:24.153Z</time></trkpt><trkpt lat="44.98566370100161" lon="9.356186760473971"><ele>324.33333333333337</ele><time>2026-04-10T13:50:25.146Z</time></trkpt><trkpt lat="44.98562554957213" lon="9.356304929611673"><ele>325.6666666666667</ele><time>2026-04-10T13:50:26.15Z</time></trkpt><trkpt lat="44.9855831667029" lon="9.356409594242525"><ele>327.0</ele><time>2026-04-10T13:50:27.158Z</time></trkpt><trkpt lat="44.98552400809861" lon="9.356472924832275"><ele>328.3333333333333</ele><time>2026-04-10T13:50:28.157Z</time></trkpt><trkpt lat="44.98544573513016" lon="9.356495169545198"><ele>329.66666666666663</ele><time>2026-04-10T13:50:29.148Z</time></trkpt><trkpt lat="44.985344920082866" lon="9.356512965110936"><ele>331.0</ele><time>2026-04-10T13:50:30.151Z</time></trkpt><trkpt lat="44.98522978442685" lon="9.35652015939001"><ele>331.0</ele><time>2026-04-10T13:50:31.15Z</time></trkpt><trkpt lat="44.985107128892494" lon="9.356525384217681"><ele>331.0</ele><time>2026-04-10T13:50:32.149Z</time></trkpt><trkpt lat="44.98497401172344" lon="9.356506159119812"><ele>331.0</ele><time>2026-04-10T13:50:33.15Z</time></trkpt><trkpt lat="44.98486226949624" lon="9.356507570039206"><ele>331.0</ele><time>2026-04-10T13:50:34.144Z</time></trkpt><trkpt lat="44.9847672504682" lon="9.356509813697974"><ele>332.6</ele><time>2026-04-10T13:50:35.149Z</time></trkpt><trkpt lat="44.98468863070421" lon="9.356508285768577"><ele>334.20000000000005</ele><time>2026-04-10T13:50:36.146Z</time></trkpt><trkpt lat="44.98461097102294" lon="9.356514908698358"><ele>335.79999999999995</ele><time>2026-04-10T13:50:37.15Z</time></trkpt><trkpt lat="44.98451592944786" lon="9.356532756563094"><ele>337.4</ele><time>2026-04-10T13:50:38.158Z</time></trkpt><trkpt lat="44.98442024216652" lon="9.356559274248884"><ele>339.0</ele><time>2026-04-10T13:50:39.145Z</time></trkpt><trkpt lat="44.98431391207488" lon="9.356586598821746"><ele>339.0</ele><time>2026-04-10T13:50:40.147Z</time></trkpt><trkpt lat="44.984203483188466" lon="9.356614087846994"><ele>339.0</ele><time>2026-04-10T13:50:41.148Z</time></trkpt><trkpt lat="44.98409669011684" lon="9.356652857648303"><ele>339.0</ele><time>2026-04-10T13:50:42.158Z</time></trkpt><trkpt lat="44.98400114437417" lon="9.35669189767014"><ele>339.0</ele><time>2026-04-10T13:50:43.145Z</time></trkpt><trkpt lat="44.98390846397286" lon="9.356727237309968"><ele>339.0</ele><time>2026-04-10T13:50:44.15Z</time></trkpt><trkpt lat="44.98380538294072" lon="9.35676147004792"><ele>340.6</ele><time>2026-04-10T13:50:45.149Z</time></trkpt><trkpt lat="44.98370919871696" lon="9.356801623176645"><ele>342.2</ele><time>2026-04-10T13:50:46.149Z</time></trkpt><trkpt lat="44.98360648890946" lon="9.35684192393555"><ele>343.8</ele><time>2026-04-10T13:50:47.148Z</time></trkpt><trkpt lat="44.98349104677867" lon="9.356877716134795"><ele>345.40000000000003</ele><time>2026-04-10T13:50:48.145Z</time></trkpt><trkpt lat="44.98337174350951" lon="9.356914424585096"><ele>347.0</ele><time>2026-04-10T13:50:49.144Z</time></trkpt><trkpt lat="44.98324876571515" lon="9.356947558783064"><ele>349.5</ele><time>2026-04-10T13:50:50.15Z</time></trkpt><trkpt lat="44.98311956338537" lon="9.356978964662447"><ele>352.0</ele><time>2026-04-10T13:50:51.157Z</time></trkpt><trkpt lat="44.98299224240703" lon="9.35700431498562"><ele>354.5</ele><time>2026-04-10T13:50:52.15Z</time></trkpt><trkpt lat="44.98285666276483" lon="9.357028276429693"><ele>357.0</ele><time>2026-04-10T13:50:53.147Z</time></trkpt><trkpt lat="44.982717572331694" lon="9.35703658326516"><ele>357.0</ele><time>2026-04-10T13:50:54.145Z</time></trkpt><trkpt lat="44.98257123341737" lon="9.35703391183177"><ele>357.0</ele><time>2026-04-10T13:50:55.149Z</time></trkpt><trkpt lat="44.98242445406238" lon="9.357015998381435"><ele>357.0</ele><time>2026-04-10T13:50:56.148Z</time></trkpt><trkpt lat="44.982274416221564" lon="9.356988277030418"><ele>357.0</ele><time>2026-04-10T13:50:57.149Z</time></trkpt><trkpt lat="44.9821262101343" lon="9.356944703187919"><ele>359.5</ele><time>2026-04-10T13:50:58.154Z</time></trkpt><trkpt lat="44.98198510226405" lon="9.356883359806986"><ele>362.0</ele><time>2026-04-10T13:50:59.147Z</time></trkpt><trkpt lat="44.98186930685615" lon="9.356827906356477"><ele>364.5</ele><time>2026-04-10T13:51:00.156Z</time></trkpt><trkpt lat="44.98175226032101" lon="9.356820311746135"><ele>367.0</ele><time>2026-04-10T13:51:01.149Z</time></trkpt><trkpt lat="44.9816181504196" lon="9.356827724619714"><ele>368.75</ele><time>2026-04-10T13:51:02.153Z</time></trkpt><trkpt lat="44.98148272504914" lon="9.356838241507347"><ele>370.5</ele><time>2026-04-10T13:51:03.147Z</time></trkpt><trkpt lat="44.98136252391586" lon="9.356863569124924"><ele>372.25</ele><time>2026-04-10T13:51:04.149Z</time></trkpt><trkpt lat="44.981250144377974" lon="9.35691671565495"><ele>374.0</ele><time>2026-04-10T13:51:05.149Z</time></trkpt><trkpt lat="44.981150037855755" lon="9.35699139987395"><ele>374.0</ele><time>2026-04-10T13:51:06.151Z</time></trkpt><trkpt lat="44.98104757251023" lon="9.357084838495505"><ele>374.0</ele><time>2026-04-10T13:51:07.15Z</time></trkpt><trkpt lat="44.980945260717185" lon="9.35720615804467"><ele>374.0</ele><time>2026-04-10T13:51:08.15Z</time></trkpt><trkpt lat="44.98085209797535" lon="9.357333259984"><ele>374.0</ele><time>2026-04-10T13:51:09.15Z</time></trkpt><trkpt lat="44.98076955374354" lon="9.35744921344098"><ele>376.0</ele><time>2026-04-10T13:51:10.153Z</time></trkpt><trkpt lat="44.980694643859" lon="9.35756563811787"><ele>378.0</ele><time>2026-04-10T13:51:11.145Z</time></trkpt><trkpt lat="44.98063370204067" lon="9.357677097038316"><ele>380.0</ele><time>2026-04-10T13:51:12.151Z</time></trkpt><trkpt lat="44.98057469190442" lon="9.357790404400165"><ele>382.0</ele><time>2026-04-10T13:51:13.16Z</time></trkpt><trkpt lat="44.980504559824965" lon="9.357899475688784"><ele>384.0</ele><time>2026-04-10T13:51:14.152Z</time></trkpt><trkpt lat="44.980427966215245" lon="9.357996307564997"><ele>384.0</ele><time>2026-04-10T13:51:15.151Z</time></trkpt><trkpt lat="44.98034239700714" lon="9.358058769308364"><ele>384.0</ele><time>2026-04-10T13:51:16.156Z</time></trkpt><trkpt lat="44.98026729198921" lon="9.35810356533894"><ele>384.0</ele><time>2026-04-10T13:51:17.155Z</time></trkpt><trkpt lat="44.98020246715667" lon="9.358131601353561"><ele>384.0</ele><time>2026-04-10T13:51:18.153Z</time></trkpt><trkpt lat="44.98012621676867" lon="9.358132529654812"><ele>384.0</ele><time>2026-04-10T13:51:19.148Z</time></trkpt><trkpt lat="44.980054343728895" lon="9.358129141880127"><ele>384.0</ele><time>2026-04-10T13:51:20.15Z</time></trkpt><trkpt lat="44.97998724524795" lon="9.35812252159876"><ele>383.5</ele><time>2026-04-10T13:51:21.145Z</time></trkpt><trkpt lat="44.979920470598444" lon="9.358120279687327"><ele>383.0</ele><time>2026-04-10T13:51:22.148Z</time></trkpt><trkpt lat="44.97984448143389" lon="9.358120003647045"><ele>382.5</ele><time>2026-04-10T13:51:23.15Z</time></trkpt><trkpt lat="44.97976061821676" lon="9.35811210414561"><ele>382.0</ele><time>2026-04-10T13:51:24.16Z</time></trkpt><trkpt lat="44.979669927314966" lon="9.358099987366929"><ele>381.5</ele><time>2026-04-10T13:51:25.149Z</time></trkpt><trkpt lat="44.9795646626749" lon="9.358082676037366"><ele>381.0</ele><time>2026-04-10T13:51:26.148Z</time></trkpt><trkpt lat="44.979453289833714" lon="9.358046662717033"><ele>381.25</ele><time>2026-04-10T13:51:27.145Z</time></trkpt><trkpt lat="44.97933987951422" lon="9.358012074945304"><ele>381.5</ele><time>2026-04-10T13:51:28.15Z</time></trkpt><trkpt lat="44.979217888433645" lon="9.357965111978357"><ele>381.75</ele><time>2026-04-10T13:51:29.144Z</time></trkpt><trkpt lat="44.979100568042334" lon="9.357924346289517"><ele>382.0</ele><time>2026-04-10T13:51:30.143Z</time></trkpt><trkpt lat="44.978980694812535" lon="9.357880420855695"><ele>381.0</ele><time>2026-04-10T13:51:31.146Z</time></trkpt><trkpt lat="44.97885837779417" lon="9.35784035275244"><ele>380.0</ele><time>2026-04-10T13:51:32.143Z</time></trkpt><trkpt lat="44.9787347181024" lon="9.357813752493163"><ele>379.0</ele><time>2026-04-10T13:51:33.153Z</time></trkpt><trkpt lat="44.97861463682541" lon="9.357805320034947"><ele>378.0</ele><time>2026-04-10T13:51:34.149Z</time></trkpt><trkpt lat="44.97847701843567" lon="9.35777824522448"><ele>377.0</ele><time>2026-04-10T13:51:35.149Z</time></trkpt><trkpt lat="44.978325144801815" lon="9.357785521724228"><ele>376.0</ele><time>2026-04-10T13:51:36.149Z</time></trkpt><trkpt lat="44.97815926715837" lon="9.35779040106857"><ele>375.0</ele><time>2026-04-10T13:51:37.146Z</time></trkpt><trkpt lat="44.97799126294638" lon="9.357792857072868"><ele>375.0</ele><time>2026-04-10T13:51:38.146Z</time></trkpt><trkpt lat="44.977819437969096" lon="9.357794316242781"><ele>375.0</ele><time>2026-04-10T13:51:39.156Z</time></trkpt><trkpt lat="44.9776421484868" lon="9.357801341833676"><ele>375.0</ele><time>2026-04-10T13:51:40.147Z</time></trkpt><trkpt lat="44.97746041415931" lon="9.357811301299533"><ele>374.3333333333333</ele><time>2026-04-10T13:51:41.147Z</time></trkpt><trkpt lat="44.977273338119254" lon="9.357813369938613"><ele>373.66666666666663</ele><time>2026-04-10T13:51:42.146Z</time></trkpt><trkpt lat="44.97708493231119" lon="9.35781118051177"><ele>373.0</ele><time>2026-04-10T13:51:43.149Z</time></trkpt><trkpt lat="44.97689538393267" lon="9.357807569658645"><ele>373.0</ele><time>2026-04-10T13:51:44.156Z</time></trkpt><trkpt lat="44.97670125565223" lon="9.35780674749078"><ele>373.0</ele><time>2026-04-10T13:51:45.149Z</time></trkpt><trkpt lat="44.97651518215964" lon="9.357818472542663"><ele>373.0</ele><time>2026-04-10T13:51:46.149Z</time></trkpt><trkpt lat="44.97634791670082" lon="9.357827233768672"><ele>373.75</ele><time>2026-04-10T13:51:47.147Z</time></trkpt><trkpt lat="44.97620056341489" lon="9.357829897753524"><ele>374.5</ele><time>2026-04-10T13:51:48.149Z</time></trkpt><trkpt lat="44.976069478319374" lon="9.357831537221406"><ele>375.25</ele><time>2026-04-10T13:51:49.14Z</time></trkpt><trkpt lat="44.97594815256587" lon="9.357836869878048"><ele>376.0</ele><time>2026-04-10T13:51:50.167Z</time></trkpt><trkpt lat="44.97583695914858" lon="9.357864855015494"><ele>376.0</ele><time>2026-04-10T13:51:51.157Z</time></trkpt><trkpt lat="44.97572299833101" lon="9.357903451651449"><ele>376.0</ele><time>2026-04-10T13:51:52.149Z</time></trkpt><trkpt lat="44.975629902161955" lon="9.358036496598114"><ele>376.0</ele><time>2026-04-10T13:51:53.167Z</time></trkpt><trkpt lat="44.97552580718106" lon="9.358167138426074"><ele>376.0</ele><time>2026-04-10T13:51:54.144Z</time></trkpt><trkpt lat="44.975440365440505" lon="9.358323147467788"><ele>376.0</ele><time>2026-04-10T13:51:55.154Z</time></trkpt><trkpt lat="44.97535713750334" lon="9.35847587960403"><ele>376.0</ele><time>2026-04-10T13:51:56.173Z</time></trkpt><trkpt lat="44.97527286701133" lon="9.358621081227373"><ele>376.0</ele><time>2026-04-10T13:51:57.143Z</time></trkpt><trkpt lat="44.9751635542212" lon="9.358713629816396"><ele>376.0</ele><time>2026-04-10T13:51:58.149Z</time></trkpt><trkpt lat="44.97504502494025" lon="9.35878144556564"><ele>378.25</ele><time>2026-04-10T13:51:59.163Z</time></trkpt><trkpt lat="44.97492035620639" lon="9.358830365816043"><ele>380.5</ele><time>2026-04-10T13:52:00.16Z</time></trkpt><trkpt lat="44.97479032502482" lon="9.358856628998785"><ele>382.75</ele><time>2026-04-10T13:52:01.163Z</time></trkpt><trkpt lat="44.974654083337924" lon="9.358861525596918"><ele>385.0</ele><time>2026-04-10T13:52:02.164Z</time></trkpt><trkpt lat="44.97451668334965" lon="9.358857977580255"><ele>385.0</ele><time>2026-04-10T13:52:03.154Z</time></trkpt><trkpt lat="44.974371238425775" lon="9.35884612317114"><ele>385.0</ele><time>2026-04-10T13:52:04.153Z</time></trkpt><trkpt lat="44.97422485779885" lon="9.358815491869699"><ele>385.0</ele><time>2026-04-10T13:52:05.166Z</time></trkpt><trkpt lat="44.974090347911265" lon="9.358759652913477"><ele>385.0</ele><time>2026-04-10T13:52:06.163Z</time></trkpt><trkpt lat="44.97397582641004" lon="9.358680153508322"><ele>386.4</ele><time>2026-04-10T13:52:07.16Z</time></trkpt><trkpt lat="44.97387120610362" lon="9.35859057719376"><ele>387.8</ele><time>2026-04-10T13:52:08.165Z</time></trkpt><trkpt lat="44.97377298473086" lon="9.35850699210233"><ele>389.20000000000005</ele><time>2026-04-10T13:52:09.159Z</time></trkpt><trkpt lat="44.97368682377725" lon="9.358436340084646"><ele>390.6</ele><time>2026-04-10T13:52:10.149Z</time></trkpt><trkpt lat="44.97361043558364" lon="9.358385168153289"><ele>392.0</ele><time>2026-04-10T13:52:11.162Z</time></trkpt><trkpt lat="44.973511599878904" lon="9.358329837743124"><ele>391.99999999999994</ele><time>2026-04-10T13:52:13.146Z</time></trkpt><trkpt lat="44.97343158789073" lon="9.358333803284747"><ele>392.0</ele><time>2026-04-10T13:52:15.153Z</time></trkpt><trkpt lat="44.973341746788" lon="9.358417036586179"><ele>392.0</ele><time>2026-04-10T13:52:17.151Z</time></trkpt><trkpt lat="44.97330156434955" lon="9.358492691835247"><ele>392.0</ele><time>2026-04-10T13:52:18.172Z</time></trkpt><trkpt lat="44.973264509685336" lon="9.358581152705232"><ele>391.99999999999994</ele><time>2026-04-10T13:52:19.157Z</time></trkpt><trkpt lat="44.973210910241505" lon="9.358677943530408"><ele>392.0</ele><time>2026-04-10T13:52:20.165Z</time></trkpt><trkpt lat="44.97318143058962" lon="9.358805671572208"><ele>393.0</ele><time>2026-04-10T13:52:21.158Z</time></trkpt><trkpt lat="44.97311331993151" lon="9.358921301641406"><ele>394.0</ele><time>2026-04-10T13:52:22.152Z</time></trkpt><trkpt lat="44.97306414245732" lon="9.35905763217484"><ele>395.0</ele><time>2026-04-10T13:52:23.16Z</time></trkpt><trkpt lat="44.97301755527543" lon="9.359194542654503"><ele>396.0</ele><time>2026-04-10T13:52:24.156Z</time></trkpt><trkpt lat="44.97297363160321" lon="9.35932589568538"><ele>397.0</ele><time>2026-04-10T13:52:25.552Z</time></trkpt><trkpt lat="44.972925620836335" lon="9.359464009031138"><ele>397.0</ele><time>2026-04-10T13:52:26.155Z</time></trkpt><trkpt lat="44.972880161436684" lon="9.359606572376661"><ele>397.0</ele><time>2026-04-10T13:52:27.151Z</time></trkpt><trkpt lat="44.9728346094648" lon="9.359758454306345"><ele>397.0</ele><time>2026-04-10T13:52:28.167Z</time></trkpt><trkpt lat="44.97279302653588" lon="9.359899235961423"><ele>397.0</ele><time>2026-04-10T13:52:29.142Z</time></trkpt><trkpt lat="44.972754617930526" lon="9.360021589682189"><ele>397.0</ele><time>2026-04-10T13:52:30.156Z</time></trkpt><trkpt lat="44.97272116277242" lon="9.360125219432632"><ele>396.83333333333337</ele><time>2026-04-10T13:52:31.169Z</time></trkpt><trkpt lat="44.97269351614863" lon="9.36020982732449"><ele>396.6666666666667</ele><time>2026-04-10T13:52:32.151Z</time></trkpt><trkpt lat="44.97263647008595" lon="9.360371276273321"><ele>396.5</ele><time>2026-04-10T13:52:34.411Z</time></trkpt><trkpt lat="44.97259764863234" lon="9.360470805881256"><ele>396.33333333333337</ele><time>2026-04-10T13:52:35.15Z</time></trkpt><trkpt lat="44.97255111205389" lon="9.360575475506955"><ele>396.1666666666667</ele><time>2026-04-10T13:52:36.162Z</time></trkpt><trkpt lat="44.97250680682319" lon="9.360678592099848"><ele>396.0</ele><time>2026-04-10T13:52:37.145Z</time></trkpt><trkpt lat="44.97244486804982" lon="9.360770213504653"><ele>396.4</ele><time>2026-04-10T13:52:38.168Z</time></trkpt><trkpt lat="44.97240429877896" lon="9.360879868194667"><ele>396.8</ele><time>2026-04-10T13:52:39.154Z</time></trkpt><trkpt lat="44.972370792180385" lon="9.360998055400442"><ele>397.2</ele><time>2026-04-10T13:52:40.165Z</time></trkpt><trkpt lat="44.97234012465882" lon="9.361123033037098"><ele>397.59999999999997</ele><time>2026-04-10T13:52:41.144Z</time></trkpt><trkpt lat="44.972314244211674" lon="9.361253648485635"><ele>398.0</ele><time>2026-04-10T13:52:42.161Z</time></trkpt><trkpt lat="44.97228906994576" lon="9.361386893986257"><ele>396.4</ele><time>2026-04-10T13:52:43.161Z</time></trkpt><trkpt lat="44.97226563791896" lon="9.361523433151827"><ele>394.79999999999995</ele><time>2026-04-10T13:52:44.16Z</time></trkpt><trkpt lat="44.97224078546897" lon="9.361662746254044"><ele>393.2</ele><time>2026-04-10T13:52:45.148Z</time></trkpt><trkpt lat="44.972217633815504" lon="9.361807021261638"><ele>391.6</ele><time>2026-04-10T13:52:46.157Z</time></trkpt><trkpt lat="44.97219178912613" lon="9.361956928224433"><ele>390.0</ele><time>2026-04-10T13:52:47.167Z</time></trkpt><trkpt lat="44.97216615578323" lon="9.362116181226488"><ele>388.5</ele><time>2026-04-10T13:52:48.162Z</time></trkpt><trkpt lat="44.97213958297923" lon="9.362285474239322"><ele>387.0</ele><time>2026-04-10T13:52:49.146Z</time></trkpt><trkpt lat="44.972109242511294" lon="9.362463851316592"><ele>385.5</ele><time>2026-04-10T13:52:50.145Z</time></trkpt><trkpt lat="44.97207765745036" lon="9.362650437917413"><ele>384.0</ele><time>2026-04-10T13:52:51.148Z</time></trkpt><trkpt lat="44.972045164948" lon="9.3628433821221"><ele>382.25</ele><time>2026-04-10T13:52:52.162Z</time></trkpt><trkpt lat="44.97201434441717" lon="9.363042550830217"><ele>380.5</ele><time>2026-04-10T13:52:53.147Z</time></trkpt><trkpt lat="44.97196565582893" lon="9.3632374359924"><ele>378.75</ele><time>2026-04-10T13:52:54.164Z</time></trkpt><trkpt lat="44.97194707430766" lon="9.363434554694896"><ele>377.0</ele><time>2026-04-10T13:52:55.163Z</time></trkpt><trkpt lat="44.971936350231545" lon="9.363628523285717"><ele>377.0</ele><time>2026-04-10T13:52:56.176Z</time></trkpt><trkpt lat="44.971924806361784" lon="9.363818230545645"><ele>377.0</ele><time>2026-04-10T13:52:57.159Z</time></trkpt><trkpt lat="44.97191417580995" lon="9.364003723434418"><ele>377.0</ele><time>2026-04-10T13:52:58.153Z</time></trkpt><trkpt lat="44.971906945697704" lon="9.364174339754205"><ele>377.0</ele><time>2026-04-10T13:52:59.153Z</time></trkpt><trkpt lat="44.97189811744373" lon="9.364343309943388"><ele>375.6</ele><time>2026-04-10T13:53:00.165Z</time></trkpt><trkpt lat="44.97188691564935" lon="9.364500615746131"><ele>374.20000000000005</ele><time>2026-04-10T13:53:01.145Z</time></trkpt><trkpt lat="44.97187067700495" lon="9.364656884426978"><ele>372.8</ele><time>2026-04-10T13:53:02.165Z</time></trkpt><trkpt lat="44.971849288110356" lon="9.364812594572525"><ele>371.4</ele><time>2026-04-10T13:53:03.152Z</time></trkpt><trkpt lat="44.97182117331953" lon="9.36496638581564"><ele>370.0</ele><time>2026-04-10T13:53:04.147Z</time></trkpt><trkpt lat="44.971785053877745" lon="9.365115957823539"><ele>368.8</ele><time>2026-04-10T13:53:05.168Z</time></trkpt><trkpt lat="44.97174198172072" lon="9.365262067737143"><ele>367.6</ele><time>2026-04-10T13:53:06.144Z</time></trkpt><trkpt lat="44.97169665047155" lon="9.365403814851321"><ele>366.4</ele><time>2026-04-10T13:53:07.158Z</time></trkpt><trkpt lat="44.97165260131482" lon="9.36553769408576"><ele>365.2</ele><time>2026-04-10T13:53:08.147Z</time></trkpt><trkpt lat="44.97161467590895" lon="9.365652262974967"><ele>364.0</ele><time>2026-04-10T13:53:09.163Z</time></trkpt><trkpt lat="44.97158353825485" lon="9.365741408670358"><ele>363.2</ele><time>2026-04-10T13:53:10.144Z</time></trkpt><trkpt lat="44.97151961920085" lon="9.365835084627852"><ele>362.4</ele><time>2026-04-10T13:53:12.148Z</time></trkpt><trkpt lat="44.97145585445709" lon="9.365920843923641"><ele>361.6</ele><time>2026-04-10T13:53:15.166Z</time></trkpt><trkpt lat="44.9714380205937" lon="9.366006671640061"><ele>360.8</ele><time>2026-04-10T13:53:18.148Z</time></trkpt><trkpt lat="44.97150255419039" lon="9.365923992381155"><ele>360.0</ele><time>2026-04-10T13:53:23.165Z</time></trkpt><trkpt lat="44.97146221085263" lon="9.365748430533026"><ele>360.0</ele><time>2026-04-10T13:53:25.172Z</time></trkpt><trkpt lat="44.97163906900419" lon="9.365631755799384"><ele>360.0</ele><time>2026-04-10T13:53:26.251Z</time></trkpt><trkpt lat="44.97168611633548" lon="9.365512634623379"><ele>360.0</ele><time>2026-04-10T13:53:27.168Z</time></trkpt><trkpt lat="44.971732752030235" lon="9.365382834996305"><ele>360.0</ele><time>2026-04-10T13:53:28.151Z</time></trkpt><trkpt lat="44.97177321503785" lon="9.365240205297365"><ele>361.0</ele><time>2026-04-10T13:53:29.177Z</time></trkpt><trkpt lat="44.97182332973319" lon="9.365100481506222"><ele>362.0</ele><time>2026-04-10T13:53:30.17Z</time></trkpt><trkpt lat="44.97186111773301" lon="9.364938036941917"><ele>363.0</ele><time>2026-04-10T13:53:31.155Z</time></trkpt><trkpt lat="44.97189462002663" lon="9.364764889789495"><ele>364.0</ele><time>2026-04-10T13:53:32.153Z</time></trkpt><trkpt lat="44.97190503324698" lon="9.364577910095036"><ele>365.5</ele><time>2026-04-10T13:53:33.156Z</time></trkpt><trkpt lat="44.97192478762074" lon="9.364397938255642"><ele>367.0</ele><time>2026-04-10T13:53:34.157Z</time></trkpt><trkpt lat="44.97193784596517" lon="9.364231487457301"><ele>368.5</ele><time>2026-04-10T13:53:35.147Z</time></trkpt><trkpt lat="44.971945471329285" lon="9.364049067309145"><ele>370.0</ele><time>2026-04-10T13:53:36.148Z</time></trkpt><trkpt lat="44.97195212682507" lon="9.363854933661377"><ele>371.75</ele><time>2026-04-10T13:53:37.159Z</time></trkpt><trkpt lat="44.97196438004707" lon="9.363654311435424"><ele>373.5</ele><time>2026-04-10T13:53:38.177Z</time></trkpt><trkpt lat="44.97198011523442" lon="9.363448036076358"><ele>375.25</ele><time>2026-04-10T13:53:39.17Z</time></trkpt><trkpt lat="44.97200049476964" lon="9.363237471044402"><ele>377.0</ele><time>2026-04-10T13:53:40.149Z</time></trkpt><trkpt lat="44.97203333339837" lon="9.36301429864899"><ele>379.33333333333337</ele><time>2026-04-10T13:53:41.15Z</time></trkpt><trkpt lat="44.97207328555214" lon="9.362783533023402"><ele>381.6666666666667</ele><time>2026-04-10T13:53:42.178Z</time></trkpt><trkpt lat="44.97211354412288" lon="9.362538209289601"><ele>384.0</ele><time>2026-04-10T13:53:43.167Z</time></trkpt><trkpt lat="44.972174625351634" lon="9.362292225254869"><ele>386.0</ele><time>2026-04-10T13:53:44.141Z</time></trkpt><trkpt lat="44.97222063593908" lon="9.36204431207678"><ele>388.0</ele><time>2026-04-10T13:53:45.157Z</time></trkpt><trkpt lat="44.97226418915976" lon="9.361796485423591"><ele>390.0</ele><time>2026-04-10T13:53:46.157Z</time></trkpt><trkpt lat="44.97230907644764" lon="9.361537335125929"><ele>392.66666666666663</ele><time>2026-04-10T13:53:47.168Z</time></trkpt><trkpt lat="44.97234872001169" lon="9.361302200976374"><ele>395.3333333333333</ele><time>2026-04-10T13:53:48.15Z</time></trkpt><trkpt lat="44.97238866866401" lon="9.361096974233465"><ele>398.0</ele><time>2026-04-10T13:53:49.156Z</time></trkpt><trkpt lat="44.972434004944496" lon="9.360918508585154"><ele>398.0</ele><time>2026-04-10T13:53:50.171Z</time></trkpt><trkpt lat="44.972489040525915" lon="9.360763911513219"><ele>398.0</ele><time>2026-04-10T13:53:51.18Z</time></trkpt><trkpt lat="44.97255176224117" lon="9.360619888584472"><ele>398.0</ele><time>2026-04-10T13:53:52.149Z</time></trkpt><trkpt lat="44.97261933054608" lon="9.360469772066624"><ele>398.0</ele><time>2026-04-10T13:53:53.15Z</time></trkpt><trkpt lat="44.97268426772516" lon="9.360321924271389"><ele>397.79999999999995</ele><time>2026-04-10T13:53:54.163Z</time></trkpt><trkpt lat="44.97273343064444" lon="9.360193518425422"><ele>397.6</ele><time>2026-04-10T13:53:55.176Z</time></trkpt><trkpt lat="44.97277690323687" lon="9.360067039222146"><ele>397.4</ele><time>2026-04-10T13:53:56.152Z</time></trkpt><trkpt lat="44.97282159594845" lon="9.359919159617426"><ele>397.20000000000005</ele><time>2026-04-10T13:53:57.15Z</time></trkpt><trkpt lat="44.972869668463126" lon="9.359755218718526"><ele>397.0</ele><time>2026-04-10T13:53:58.151Z</time></trkpt><trkpt lat="44.97292770540466" lon="9.359574139384655"><ele>397.0</ele><time>2026-04-10T13:53:59.151Z</time></trkpt><trkpt lat="44.97299173744171" lon="9.359380015227426"><ele>397.0</ele><time>2026-04-10T13:54:00.148Z</time></trkpt><trkpt lat="44.97305882498248" lon="9.359174123543733"><ele>397.0</ele><time>2026-04-10T13:54:01.154Z</time></trkpt><trkpt lat="44.97313857057849" lon="9.358988155077208"><ele>397.0</ele><time>2026-04-10T13:54:02.146Z</time></trkpt><trkpt lat="44.973187551489275" lon="9.35879433964863"><ele>397.0</ele><time>2026-04-10T13:54:03.15Z</time></trkpt><trkpt lat="44.97325882493985" lon="9.35864110953951"><ele>397.0</ele><time>2026-04-10T13:54:04.173Z</time></trkpt><trkpt lat="44.973304418220636" lon="9.358522065147342"><ele>397.0</ele><time>2026-04-10T13:54:05.146Z</time></trkpt><trkpt lat="44.973343613633745" lon="9.358441392531395"><ele>397.0</ele><time>2026-04-10T13:54:06.147Z</time></trkpt><trkpt lat="44.97343288109335" lon="9.358369436078311"><ele>396.0</ele><time>2026-04-10T13:54:08.151Z</time></trkpt><trkpt lat="44.9734280425622" lon="9.358258747533368"><ele>395.0</ele><time>2026-04-10T13:54:09.153Z</time></trkpt><trkpt lat="44.97341629380435" lon="9.358076499615288"><ele>394.0</ele><time>2026-04-10T13:54:11.16Z</time></trkpt><trkpt lat="44.97340837276654" lon="9.357936059310614"><ele>393.0</ele><time>2026-04-10T13:54:12.154Z</time></trkpt><trkpt lat="44.97340021583111" lon="9.357769448537143"><ele>392.0</ele><time>2026-04-10T13:54:13.149Z</time></trkpt><trkpt lat="44.97339175917326" lon="9.357583472871076"><ele>391.25</ele><time>2026-04-10T13:54:14.151Z</time></trkpt><trkpt lat="44.97337672756546" lon="9.357393033622742"><ele>390.5</ele><time>2026-04-10T13:54:15.156Z</time></trkpt><trkpt lat="44.973363343528874" lon="9.357212600765314"><ele>389.75</ele><time>2026-04-10T13:54:16.154Z</time></trkpt><trkpt lat="44.97334588884381" lon="9.357038645598582"><ele>389.0</ele><time>2026-04-10T13:54:17.15Z</time></trkpt><trkpt lat="44.97331745926355" lon="9.356872310476593"><ele>389.0</ele><time>2026-04-10T13:54:18.175Z</time></trkpt><trkpt lat="44.97327796117089" lon="9.356721336113168"><ele>389.0</ele><time>2026-04-10T13:54:19.149Z</time></trkpt><trkpt lat="44.97322920968772" lon="9.356583366884974"><ele>389.0</ele><time>2026-04-10T13:54:20.148Z</time></trkpt><trkpt lat="44.9731680156919" lon="9.356447449482769"><ele>389.0</ele><time>2026-04-10T13:54:21.152Z</time></trkpt><trkpt lat="44.97309877544934" lon="9.356316328716638"><ele>388.2</ele><time>2026-04-10T13:54:22.167Z</time></trkpt><trkpt lat="44.97302187673305" lon="9.35618889843642"><ele>387.4</ele><time>2026-04-10T13:54:23.153Z</time></trkpt><trkpt lat="44.97294685132258" lon="9.356080670115889"><ele>386.6</ele><time>2026-04-10T13:54:24.152Z</time></trkpt><trkpt lat="44.97286687996005" lon="9.355984691230486"><ele>385.8</ele><time>2026-04-10T13:54:25.15Z</time></trkpt><trkpt lat="44.97278799824514" lon="9.355896460490898"><ele>385.0</ele><time>2026-04-10T13:54:26.147Z</time></trkpt><trkpt lat="44.97272040958213" lon="9.355806255550029"><ele>385.0</ele><time>2026-04-10T13:54:27.148Z</time></trkpt><trkpt lat="44.9726546753853" lon="9.355708348718162"><ele>385.0</ele><time>2026-04-10T13:54:28.155Z</time></trkpt><trkpt lat="44.97258987613949" lon="9.355599949942722"><ele>385.0</ele><time>2026-04-10T13:54:29.149Z</time></trkpt><trkpt lat="44.972528679204984" lon="9.3554844848602"><ele>385.0</ele><time>2026-04-10T13:54:30.155Z</time></trkpt><trkpt lat="44.97246317552633" lon="9.355362417089145"><ele>385.0</ele><time>2026-04-10T13:54:31.147Z</time></trkpt><trkpt lat="44.97240495797898" lon="9.355237509345242"><ele>385.50000000000006</ele><time>2026-04-10T13:54:32.148Z</time></trkpt><trkpt lat="44.97235899260503" lon="9.355117394203488"><ele>386.0</ele><time>2026-04-10T13:54:33.149Z</time></trkpt><trkpt lat="44.97231947075322" lon="9.355007941150031"><ele>386.5</ele><time>2026-04-10T13:54:34.174Z</time></trkpt><trkpt lat="44.97229009473654" lon="9.35489905739473"><ele>387.0</ele><time>2026-04-10T13:54:35.153Z</time></trkpt><trkpt lat="44.9722752903348" lon="9.354780266145173"><ele>387.50000000000006</ele><time>2026-04-10T13:54:36.151Z</time></trkpt><trkpt lat="44.972272173788724" lon="9.354658846820634"><ele>388.0</ele><time>2026-04-10T13:54:37.15Z</time></trkpt><trkpt lat="44.97227838872347" lon="9.354536338861637"><ele>388.4</ele><time>2026-04-10T13:54:38.174Z</time></trkpt><trkpt lat="44.97228265321648" lon="9.3544165192593"><ele>388.79999999999995</ele><time>2026-04-10T13:54:39.154Z</time></trkpt><trkpt lat="44.97228131303347" lon="9.354291190621666"><ele>389.2</ele><time>2026-04-10T13:54:40.149Z</time></trkpt><trkpt lat="44.97227403154359" lon="9.354162235636657"><ele>389.6</ele><time>2026-04-10T13:54:41.15Z</time></trkpt><trkpt lat="44.972237049396476" lon="9.35403167683399"><ele>390.0</ele><time>2026-04-10T13:54:42.16Z</time></trkpt><trkpt lat="44.97219440913094" lon="9.35390094028802"><ele>389.75</ele><time>2026-04-10T13:54:43.152Z</time></trkpt><trkpt lat="44.97213736475002" lon="9.353771863338482"><ele>389.5</ele><time>2026-04-10T13:54:44.158Z</time></trkpt><trkpt lat="44.97207505496777" lon="9.353635207680057"><ele>389.25</ele><time>2026-04-10T13:54:45.148Z</time></trkpt><trkpt lat="44.972011486969805" lon="9.353482170597038"><ele>389.0</ele><time>2026-04-10T13:54:46.15Z</time></trkpt><trkpt lat="44.971937164640224" lon="9.353305081117632"><ele>389.0</ele><time>2026-04-10T13:54:47.145Z</time></trkpt><trkpt lat="44.97186026089427" lon="9.353109170968096"><ele>389.0</ele><time>2026-04-10T13:54:48.144Z</time></trkpt><trkpt lat="44.971780087369005" lon="9.352899744351443"><ele>389.0</ele><time>2026-04-10T13:54:49.146Z</time></trkpt><trkpt lat="44.9716974094796" lon="9.352682538535847"><ele>391.0</ele><time>2026-04-10T13:54:50.149Z</time></trkpt><trkpt lat="44.97161208694063" lon="9.352454858438124"><ele>393.0</ele><time>2026-04-10T13:54:51.149Z</time></trkpt><trkpt lat="44.97152319218018" lon="9.352218881840269"><ele>395.0</ele><time>2026-04-10T13:54:52.146Z</time></trkpt><trkpt lat="44.971443110238475" lon="9.351978207948198"><ele>395.0</ele><time>2026-04-10T13:54:53.156Z</time></trkpt><trkpt lat="44.971363594827814" lon="9.351741590815763"><ele>395.0</ele><time>2026-04-10T13:54:54.151Z</time></trkpt><trkpt lat="44.97127213625979" lon="9.351517742549971"><ele>395.0</ele><time>2026-04-10T13:54:55.151Z</time></trkpt><trkpt lat="44.97117137128526" lon="9.351314670455187"><ele>393.66666666666663</ele><time>2026-04-10T13:54:56.152Z</time></trkpt><trkpt lat="44.97107776173799" lon="9.351117112138535"><ele>392.33333333333337</ele><time>2026-04-10T13:54:57.147Z</time></trkpt><trkpt lat="44.97098995900564" lon="9.350936180004298"><ele>391.0</ele><time>2026-04-10T13:54:58.147Z</time></trkpt><trkpt lat="44.970892501771615" lon="9.350765121265875"><ele>392.0</ele><time>2026-04-10T13:54:59.164Z</time></trkpt><trkpt lat="44.97079869022975" lon="9.350614785914207"><ele>393.0</ele><time>2026-04-10T13:55:00.151Z</time></trkpt><trkpt lat="44.97071081702577" lon="9.3504773775445"><ele>394.0</ele><time>2026-04-10T13:55:01.152Z</time></trkpt><trkpt lat="44.97062718490481" lon="9.350353485246753"><ele>395.0</ele><time>2026-04-10T13:55:02.155Z</time></trkpt><trkpt lat="44.97054202771128" lon="9.35023684243527"><ele>395.0</ele><time>2026-04-10T13:55:03.161Z</time></trkpt><trkpt lat="44.97045113195608" lon="9.350121170467268"><ele>395.0</ele><time>2026-04-10T13:55:04.148Z</time></trkpt><trkpt lat="44.970350784252894" lon="9.349997102095065"><ele>395.0</ele><time>2026-04-10T13:55:05.157Z</time></trkpt><trkpt lat="44.970235011143956" lon="9.349868531938819"><ele>395.0</ele><time>2026-04-10T13:55:06.16Z</time></trkpt><trkpt lat="44.97011315409657" lon="9.349728914033308"><ele>395.0</ele><time>2026-04-10T13:55:07.153Z</time></trkpt><trkpt lat="44.96999287225972" lon="9.34958126299389"><ele>395.0</ele><time>2026-04-10T13:55:08.151Z</time></trkpt><trkpt lat="44.96989011537498" lon="9.349433919427817"><ele>395.0</ele><time>2026-04-10T13:55:09.151Z</time></trkpt><trkpt lat="44.969807122813606" lon="9.34928544873573"><ele>395.0</ele><time>2026-04-10T13:55:10.15Z</time></trkpt><trkpt lat="44.969737885046335" lon="9.349132726220427"><ele>395.0</ele><time>2026-04-10T13:55:11.15Z</time></trkpt><trkpt lat="44.969674718502446" lon="9.348961357811673"><ele>395.0</ele><time>2026-04-10T13:55:12.148Z</time></trkpt><trkpt lat="44.96961498447409" lon="9.348784794179235"><ele>395.0</ele><time>2026-04-10T13:55:13.15Z</time></trkpt><trkpt lat="44.969554970899935" lon="9.348602312443523"><ele>395.0</ele><time>2026-04-10T13:55:14.146Z</time></trkpt><trkpt lat="44.96949297782557" lon="9.348409909091906"><ele>394.66666666666663</ele><time>2026-04-10T13:55:15.158Z</time></trkpt><trkpt lat="44.9694233523354" lon="9.348209033319659"><ele>394.33333333333337</ele><time>2026-04-10T13:55:16.146Z</time></trkpt><trkpt lat="44.96935810725258" lon="9.348008126157069"><ele>394.0</ele><time>2026-04-10T13:55:17.149Z</time></trkpt><trkpt lat="44.96929801246206" lon="9.34780558874823"><ele>395.6666666666667</ele><time>2026-04-10T13:55:18.158Z</time></trkpt><trkpt lat="44.9692409836812" lon="9.347587025900628"><ele>397.33333333333337</ele><time>2026-04-10T13:55:19.144Z</time></trkpt><trkpt lat="44.96919791281038" lon="9.347352908243804"><ele>399.0</ele><time>2026-04-10T13:55:20.146Z</time></trkpt><trkpt lat="44.96918338221367" lon="9.347107795558198"><ele>404.66666666666663</ele><time>2026-04-10T13:55:21.15Z</time></trkpt><trkpt lat="44.96917207356923" lon="9.346855400339615"><ele>410.3333333333333</ele><time>2026-04-10T13:55:22.15Z</time></trkpt><trkpt lat="44.96915604452836" lon="9.346626364075295"><ele>416.0</ele><time>2026-04-10T13:55:23.152Z</time></trkpt><trkpt lat="44.969137258826606" lon="9.346437302913655"><ele>417.0</ele><time>2026-04-10T13:55:24.149Z</time></trkpt><trkpt lat="44.969109772416715" lon="9.346281499155385"><ele>418.0</ele><time>2026-04-10T13:55:25.158Z</time></trkpt><trkpt lat="44.96907374522456" lon="9.34614277017175"><ele>419.0</ele><time>2026-04-10T13:55:26.144Z</time></trkpt><trkpt lat="44.969032064469" lon="9.346002713231686"><ele>420.0</ele><time>2026-04-10T13:55:27.146Z</time></trkpt><trkpt lat="44.968985937942406" lon="9.345855343508093"><ele>421.0</ele><time>2026-04-10T13:55:28.148Z</time></trkpt><trkpt lat="44.96893545431095" lon="9.345701644733234"><ele>421.0</ele><time>2026-04-10T13:55:29.151Z</time></trkpt><trkpt lat="44.96889094102413" lon="9.345546411659448"><ele>421.0</ele><time>2026-04-10T13:55:30.16Z</time></trkpt><trkpt lat="44.968820571851765" lon="9.345408624172606"><ele>421.0</ele><time>2026-04-10T13:55:31.147Z</time></trkpt><trkpt lat="44.96874456531152" lon="9.345271581333483"><ele>421.0</ele><time>2026-04-10T13:55:32.151Z</time></trkpt><trkpt lat="44.968666177660744" lon="9.345136452688852"><ele>421.0</ele><time>2026-04-10T13:55:33.149Z</time></trkpt><trkpt lat="44.968588548990404" lon="9.34500075254529"><ele>421.0</ele><time>2026-04-10T13:55:34.148Z</time></trkpt><trkpt lat="44.96852183790996" lon="9.344873714019087"><ele>421.0</ele><time>2026-04-10T13:55:35.149Z</time></trkpt><trkpt lat="44.96846542952222" lon="9.34476325648808"><ele>421.0</ele><time>2026-04-10T13:55:36.153Z</time></trkpt><trkpt lat="44.96842216220555" lon="9.344652856034296"><ele>421.0</ele><time>2026-04-10T13:55:37.149Z</time></trkpt><trkpt lat="44.96839950399254" lon="9.344528713010481"><ele>421.0</ele><time>2026-04-10T13:55:38.159Z</time></trkpt><trkpt lat="44.968397499319366" lon="9.3443929764224"><ele>421.0</ele><time>2026-04-10T13:55:39.149Z</time></trkpt><trkpt lat="44.968401951834466" lon="9.3442405841653"><ele>421.0</ele><time>2026-04-10T13:55:40.155Z</time></trkpt><trkpt lat="44.96841483926582" lon="9.344079034898856"><ele>421.0</ele><time>2026-04-10T13:55:41.153Z</time></trkpt><trkpt lat="44.96842919552185" lon="9.343908045097095"><ele>421.0</ele><time>2026-04-10T13:55:42.149Z</time></trkpt><trkpt lat="44.968432459288756" lon="9.343735314165567"><ele>420.25</ele><time>2026-04-10T13:55:43.147Z</time></trkpt><trkpt lat="44.96842402932519" lon="9.343565912667982"><ele>419.5</ele><time>2026-04-10T13:55:44.148Z</time></trkpt><trkpt lat="44.96840561440926" lon="9.343392067981771"><ele>418.75</ele><time>2026-04-10T13:55:45.144Z</time></trkpt><trkpt lat="44.96837731197573" lon="9.34321276604991"><ele>418.0</ele><time>2026-04-10T13:55:46.145Z</time></trkpt><trkpt lat="44.96833444969242" lon="9.343032500336149"><ele>421.0</ele><time>2026-04-10T13:55:47.15Z</time></trkpt><trkpt lat="44.96827819304574" lon="9.342854682558936"><ele>424.0</ele><time>2026-04-10T13:55:48.147Z</time></trkpt><trkpt lat="44.96822040780026" lon="9.342669153517159"><ele>427.0</ele><time>2026-04-10T13:55:49.147Z</time></trkpt><trkpt lat="44.96816347933005" lon="9.342477332630752"><ele>430.0</ele><time>2026-04-10T13:55:50.146Z</time></trkpt><trkpt lat="44.96809706412947" lon="9.342291805987426"><ele>429.5</ele><time>2026-04-10T13:55:51.146Z</time></trkpt><trkpt lat="44.96801439485643" lon="9.342130058528307"><ele>429.0</ele><time>2026-04-10T13:55:52.152Z</time></trkpt><trkpt lat="44.967934500379464" lon="9.34197944355746"><ele>428.5</ele><time>2026-04-10T13:55:53.155Z</time></trkpt><trkpt lat="44.96783758011192" lon="9.341884087361262"><ele>428.0</ele><time>2026-04-10T13:55:54.147Z</time></trkpt><trkpt lat="44.9677432663385" lon="9.341799524892709"><ele>428.0</ele><time>2026-04-10T13:55:55.145Z</time></trkpt><trkpt lat="44.96765220207921" lon="9.341675828310642"><ele>428.0</ele><time>2026-04-10T13:55:56.145Z</time></trkpt><trkpt lat="44.96755823152868" lon="9.341541481251086"><ele>428.0</ele><time>2026-04-10T13:55:57.16Z</time></trkpt><trkpt lat="44.96747446555934" lon="9.341388128573875"><ele>428.0</ele><time>2026-04-10T13:55:58.151Z</time></trkpt><trkpt lat="44.96739297591567" lon="9.341226999655783"><ele>430.25</ele><time>2026-04-10T13:55:59.145Z</time></trkpt><trkpt lat="44.96731275838532" lon="9.341067944803523"><ele>432.5</ele><time>2026-04-10T13:56:00.145Z</time></trkpt><trkpt lat="44.96721400701792" lon="9.34093799222488"><ele>434.75</ele><time>2026-04-10T13:56:01.148Z</time></trkpt><trkpt lat="44.96712209556814" lon="9.340802462070835"><ele>437.0</ele><time>2026-04-10T13:56:02.15Z</time></trkpt><trkpt lat="44.96702096598141" lon="9.340670470897328"><ele>438.5</ele><time>2026-04-10T13:56:03.147Z</time></trkpt><trkpt lat="44.96692924650077" lon="9.34052041583422"><ele>440.0</ele><time>2026-04-10T13:56:04.15Z</time></trkpt><trkpt lat="44.96682407504718" lon="9.34037662375746"><ele>441.5</ele><time>2026-04-10T13:56:05.15Z</time></trkpt><trkpt lat="44.966691274769744" lon="9.340261912777134"><ele>443.0</ele><time>2026-04-10T13:56:06.149Z</time></trkpt><trkpt lat="44.966566646423885" lon="9.340145471244595"><ele>443.0</ele><time>2026-04-10T13:56:07.146Z</time></trkpt><trkpt lat="44.96644393999236" lon="9.340031698601226"><ele>443.0</ele><time>2026-04-10T13:56:08.146Z</time></trkpt><trkpt lat="44.96632624912112" lon="9.339932315804228"><ele>443.0</ele><time>2026-04-10T13:56:09.146Z</time></trkpt><trkpt lat="44.966228482440364" lon="9.339845081608734"><ele>443.0</ele><time>2026-04-10T13:56:10.149Z</time></trkpt><trkpt lat="44.96616261761889" lon="9.339755871971743"><ele>442.79999999999995</ele><time>2026-04-10T13:56:11.145Z</time></trkpt><trkpt lat="44.96610314591347" lon="9.339670608318686"><ele>442.59999999999997</ele><time>2026-04-10T13:56:12.149Z</time></trkpt><trkpt lat="44.966047287095826" lon="9.339561961578736"><ele>442.40000000000003</ele><time>2026-04-10T13:56:13.15Z</time></trkpt><trkpt lat="44.965987240228856" lon="9.339431301140996"><ele>442.20000000000005</ele><time>2026-04-10T13:56:14.155Z</time></trkpt><trkpt lat="44.96591683240145" lon="9.339281232767616"><ele>442.0</ele><time>2026-04-10T13:56:15.152Z</time></trkpt><trkpt lat="44.96585283302904" lon="9.339138098151956"><ele>444.25</ele><time>2026-04-10T13:56:16.148Z</time></trkpt><trkpt lat="44.965783706438785" lon="9.338999311967775"><ele>446.5</ele><time>2026-04-10T13:56:17.155Z</time></trkpt><trkpt lat="44.965700490608455" lon="9.338844971008669"><ele>448.75</ele><time>2026-04-10T13:56:18.147Z</time></trkpt><trkpt lat="44.96560721809928" lon="9.3386940709598"><ele>451.0</ele><time>2026-04-10T13:56:19.157Z</time></trkpt><trkpt lat="44.965492483772366" lon="9.338583738759148"><ele>451.25</ele><time>2026-04-10T13:56:20.149Z</time></trkpt><trkpt lat="44.96538652435051" lon="9.338486665206629"><ele>451.5</ele><time>2026-04-10T13:56:21.149Z</time></trkpt><trkpt lat="44.965291735492464" lon="9.338412808342559"><ele>451.75</ele><time>2026-04-10T13:56:22.148Z</time></trkpt><trkpt lat="44.96519573227053" lon="9.338327109656884"><ele>452.0</ele><time>2026-04-10T13:56:23.143Z</time></trkpt><trkpt lat="44.96510310655889" lon="9.338232286315552"><ele>451.8333333333333</ele><time>2026-04-10T13:56:24.157Z</time></trkpt><trkpt lat="44.96502174859989" lon="9.33812843162481"><ele>451.66666666666663</ele><time>2026-04-10T13:56:25.149Z</time></trkpt><trkpt lat="44.96495130720239" lon="9.338013659770699"><ele>451.5</ele><time>2026-04-10T13:56:26.152Z</time></trkpt><trkpt lat="44.96488930876094" lon="9.337917791535016"><ele>451.33333333333337</ele><time>2026-04-10T13:56:27.149Z</time></trkpt><trkpt lat="44.964851518728935" lon="9.337831853653318"><ele>451.1666666666667</ele><time>2026-04-10T13:56:28.147Z</time></trkpt><trkpt lat="44.96483156253495" lon="9.337739600777"><ele>451.0</ele><time>2026-04-10T13:56:29.151Z</time></trkpt><trkpt lat="44.96482999077257" lon="9.33763959116424"><ele>451.6</ele><time>2026-04-10T13:56:30.146Z</time></trkpt><trkpt lat="44.964846696611986" lon="9.337517121314646"><ele>452.20000000000005</ele><time>2026-04-10T13:56:31.153Z</time></trkpt><trkpt lat="44.96486091896909" lon="9.337378987385348"><ele>452.79999999999995</ele><time>2026-04-10T13:56:32.15Z</time></trkpt><trkpt lat="44.9648707695901" lon="9.337239818631188"><ele>453.4</ele><time>2026-04-10T13:56:33.15Z</time></trkpt><trkpt lat="44.964844817635935" lon="9.337114370899894"><ele>454.0</ele><time>2026-04-10T13:56:34.152Z</time></trkpt><trkpt lat="44.96479388176414" lon="9.336994965494734"><ele>454.0</ele><time>2026-04-10T13:56:35.147Z</time></trkpt><trkpt lat="44.964719221796706" lon="9.336861796679974"><ele>454.0</ele><time>2026-04-10T13:56:36.15Z</time></trkpt><trkpt lat="44.96462963601464" lon="9.336727854234319"><ele>454.0</ele><time>2026-04-10T13:56:37.143Z</time></trkpt><trkpt lat="44.96454175184509" lon="9.336615696296128"><ele>454.0</ele><time>2026-04-10T13:56:38.149Z</time></trkpt><trkpt lat="44.964431904993205" lon="9.336533921000091"><ele>454.0</ele><time>2026-04-10T13:56:39.144Z</time></trkpt><trkpt lat="44.96429669224754" lon="9.336481655212319"><ele>454.0</ele><time>2026-04-10T13:56:40.147Z</time></trkpt><trkpt lat="44.96415959470738" lon="9.336440218357295"><ele>454.0</ele><time>2026-04-10T13:56:41.155Z</time></trkpt><trkpt lat="44.96403410729824" lon="9.336390458261189"><ele>454.0</ele><time>2026-04-10T13:56:42.149Z</time></trkpt><trkpt lat="44.96391477080112" lon="9.33638894734141"><ele>454.79999999999995</ele><time>2026-04-10T13:56:43.152Z</time></trkpt><trkpt lat="44.96380842457997" lon="9.336360402560292"><ele>455.59999999999997</ele><time>2026-04-10T13:56:44.151Z</time></trkpt><trkpt lat="44.963710161934316" lon="9.33630170535251"><ele>456.4</ele><time>2026-04-10T13:56:45.146Z</time></trkpt><trkpt lat="44.96362215353394" lon="9.336224753259538"><ele>457.2</ele><time>2026-04-10T13:56:46.149Z</time></trkpt><trkpt lat="44.96353164579606" lon="9.336120457167718"><ele>458.0</ele><time>2026-04-10T13:56:47.15Z</time></trkpt><trkpt lat="44.96344509815015" lon="9.335978497667949"><ele>458.0</ele><time>2026-04-10T13:56:48.15Z</time></trkpt><trkpt lat="44.963383994107026" lon="9.335849411542299"><ele>457.99999999999994</ele><time>2026-04-10T13:56:49.149Z</time></trkpt><trkpt lat="44.96333373013969" lon="9.335743588593242"><ele>457.99999999999994</ele><time>2026-04-10T13:56:50.152Z</time></trkpt><trkpt lat="44.96329603948183" lon="9.33566151068585"><ele>458.0</ele><time>2026-04-10T13:56:51.153Z</time></trkpt><trkpt lat="44.963247358408324" lon="9.335572168777292"><ele>458.0</ele><time>2026-04-10T13:56:52.147Z</time></trkpt><trkpt lat="44.96318493203688" lon="9.335459243559292"><ele>456.2</ele><time>2026-04-10T13:56:53.145Z</time></trkpt><trkpt lat="44.96311605628327" lon="9.335337246168839"><ele>454.4</ele><time>2026-04-10T13:56:54.146Z</time></trkpt><trkpt lat="44.96305526551276" lon="9.335226936682494"><ele>452.59999999999997</ele><time>2026-04-10T13:56:55.148Z</time></trkpt><trkpt lat="44.9630055776207" lon="9.335110800247888"><ele>450.79999999999995</ele><time>2026-04-10T13:56:56.16Z</time></trkpt><trkpt lat="44.962957580536326" lon="9.334962347914455"><ele>449.0</ele><time>2026-04-10T13:56:57.154Z</time></trkpt><trkpt lat="44.96292156045186" lon="9.334781097607786"><ele>448.0</ele><time>2026-04-10T13:56:58.148Z</time></trkpt><trkpt lat="44.96288437342267" lon="9.334571355475264"><ele>447.0</ele><time>2026-04-10T13:56:59.155Z</time></trkpt><trkpt lat="44.962854572542476" lon="9.334339990824969"><ele>446.0</ele><time>2026-04-10T13:57:00.15Z</time></trkpt><trkpt lat="44.96282002919924" lon="9.33409193550078"><ele>445.66666666666663</ele><time>2026-04-10T13:57:01.15Z</time></trkpt><trkpt lat="44.96279196544791" lon="9.333850603648864"><ele>445.33333333333337</ele><time>2026-04-10T13:57:02.149Z</time></trkpt><trkpt lat="44.96276409746929" lon="9.33361768982069"><ele>445.0</ele><time>2026-04-10T13:57:03.154Z</time></trkpt><trkpt lat="44.962724893265595" lon="9.333366941086023"><ele>445.0</ele><time>2026-04-10T13:57:04.15Z</time></trkpt><trkpt lat="44.962682476712196" lon="9.333106391847274"><ele>445.0</ele><time>2026-04-10T13:57:05.147Z</time></trkpt><trkpt lat="44.962638972310856" lon="9.33285429751146"><ele>445.0</ele><time>2026-04-10T13:57:06.148Z</time></trkpt><trkpt lat="44.96259147646415" lon="9.332626977356353"><ele>445.33333333333337</ele><time>2026-04-10T13:57:07.15Z</time></trkpt><trkpt lat="44.96254546318329" lon="9.332419176160435"><ele>445.66666666666663</ele><time>2026-04-10T13:57:08.149Z</time></trkpt><trkpt lat="44.96249772581564" lon="9.33220722147009"><ele>446.0</ele><time>2026-04-10T13:57:09.144Z</time></trkpt><trkpt lat="44.9624444918878" lon="9.33200193330611"><ele>450.66666666666663</ele><time>2026-04-10T13:57:10.169Z</time></trkpt><trkpt lat="44.96239075076346" lon="9.331795489263417"><ele>455.33333333333337</ele><time>2026-04-10T13:57:11.151Z</time></trkpt><trkpt lat="44.962338857909145" lon="9.331593128384798"><ele>460.0</ele><time>2026-04-10T13:57:12.152Z</time></trkpt><trkpt lat="44.96228685095216" lon="9.331391415302427"><ele>460.0</ele><time>2026-04-10T13:57:13.175Z</time></trkpt><trkpt lat="44.962237937360285" lon="9.331213641739886"><ele>460.0</ele><time>2026-04-10T13:57:14.152Z</time></trkpt><trkpt lat="44.96218675590644" lon="9.331061801793739"><ele>460.0</ele><time>2026-04-10T13:57:15.175Z</time></trkpt><trkpt lat="44.96212442500173" lon="9.330937446175911"><ele>460.0</ele><time>2026-04-10T13:57:16.164Z</time></trkpt><trkpt lat="44.9620646826075" lon="9.330826931618288"><ele>460.0</ele><time>2026-04-10T13:57:17.152Z</time></trkpt><trkpt lat="44.96200654233062" lon="9.33071066023883"><ele>460.0</ele><time>2026-04-10T13:57:18.179Z</time></trkpt><trkpt lat="44.96195562673733" lon="9.33057992695515"><ele>460.0</ele><time>2026-04-10T13:57:19.148Z</time></trkpt><trkpt lat="44.96191328282203" lon="9.330425387881368"><ele>460.0</ele><time>2026-04-10T13:57:20.167Z</time></trkpt><trkpt lat="44.961879720994645" lon="9.33024654237686"><ele>459.25</ele><time>2026-04-10T13:57:21.163Z</time></trkpt><trkpt lat="44.96185088818233" lon="9.330057490361325"><ele>458.5</ele><time>2026-04-10T13:57:22.149Z</time></trkpt><trkpt lat="44.961827938340114" lon="9.329859233271563"><ele>457.75</ele><time>2026-04-10T13:57:23.171Z</time></trkpt><trkpt lat="44.96180402235953" lon="9.329656593204556"><ele>457.0</ele><time>2026-04-10T13:57:24.165Z</time></trkpt><trkpt lat="44.96176327708847" lon="9.329452257483366"><ele>463.25</ele><time>2026-04-10T13:57:25.164Z</time></trkpt><trkpt lat="44.961698247343875" lon="9.329260767749595"><ele>469.5</ele><time>2026-04-10T13:57:26.156Z</time></trkpt><trkpt lat="44.96162727839524" lon="9.329071255484234"><ele>475.75</ele><time>2026-04-10T13:57:27.164Z</time></trkpt><trkpt lat="44.96156470103119" lon="9.328888892229132"><ele>482.0</ele><time>2026-04-10T13:57:28.172Z</time></trkpt><trkpt lat="44.961511422282115" lon="9.328710583780948"><ele>483.20000000000005</ele><time>2026-04-10T13:57:29.163Z</time></trkpt><trkpt lat="44.96146685535858" lon="9.32854495118071"><ele>484.40000000000003</ele><time>2026-04-10T13:57:30.165Z</time></trkpt><trkpt lat="44.96142346806958" lon="9.328398506864414"><ele>485.59999999999997</ele><time>2026-04-10T13:57:31.155Z</time></trkpt><trkpt lat="44.96138297350219" lon="9.328293180563305"><ele>486.79999999999995</ele><time>2026-04-10T13:57:32.146Z</time></trkpt><trkpt lat="44.96134477726135" lon="9.328210490545247"><ele>488.0</ele><time>2026-04-10T13:57:33.421Z</time></trkpt><trkpt lat="44.96127927950012" lon="9.328082042574998"><ele>488.0</ele><time>2026-04-10T13:57:35.168Z</time></trkpt><trkpt lat="44.9612267985681" lon="9.328023740188506"><ele>487.99999999999994</ele><time>2026-04-10T13:57:37.176Z</time></trkpt><trkpt lat="44.96117576548268" lon="9.327946530611735"><ele>487.99999999999994</ele><time>2026-04-10T13:57:39.173Z</time></trkpt><trkpt lat="44.96101787820313" lon="9.328036182588791"><ele>488.0</ele><time>2026-04-10T13:57:40.152Z</time></trkpt><trkpt lat="44.960940369679854" lon="9.328122942524416"><ele>488.0</ele><time>2026-04-10T13:57:41.151Z</time></trkpt><trkpt lat="44.96086100545306" lon="9.32821935567493"><ele>488.2</ele><time>2026-04-10T13:57:42.148Z</time></trkpt><trkpt lat="44.96077252772897" lon="9.328326972405424"><ele>488.4</ele><time>2026-04-10T13:57:43.148Z</time></trkpt><trkpt lat="44.96068875025119" lon="9.32842644551324"><ele>488.59999999999997</ele><time>2026-04-10T13:57:44.149Z</time></trkpt><trkpt lat="44.960615043071286" lon="9.32852366039946"><ele>488.79999999999995</ele><time>2026-04-10T13:57:45.164Z</time></trkpt><trkpt lat="44.96054087065411" lon="9.32861297148335"><ele>489.0</ele><time>2026-04-10T13:57:46.153Z</time></trkpt><trkpt lat="44.96045430709978" lon="9.328695820049388"><ele>489.0</ele><time>2026-04-10T13:57:47.146Z</time></trkpt><trkpt lat="44.96036125388126" lon="9.328764435981947"><ele>489.0</ele><time>2026-04-10T13:57:48.568Z</time></trkpt><trkpt lat="44.960271403652904" lon="9.32881393829431"><ele>489.0</ele><time>2026-04-10T13:57:49.145Z</time></trkpt><trkpt lat="44.96017735945921" lon="9.328847373899325"><ele>489.0</ele><time>2026-04-10T13:57:50.165Z</time></trkpt><trkpt lat="44.96007502390908" lon="9.328858879573383"><ele>489.0</ele><time>2026-04-10T13:57:51.156Z</time></trkpt><trkpt lat="44.959961358920765" lon="9.328843783008708"><ele>489.25</ele><time>2026-04-10T13:57:52.155Z</time></trkpt><trkpt lat="44.959847488530485" lon="9.328878213793073"><ele>489.5</ele><time>2026-04-10T13:57:53.18Z</time></trkpt><trkpt lat="44.959726568294606" lon="9.328904557121726"><ele>489.75</ele><time>2026-04-10T13:57:54.175Z</time></trkpt><trkpt lat="44.95960626616616" lon="9.328940012870792"><ele>490.0</ele><time>2026-04-10T13:57:55.177Z</time></trkpt><trkpt lat="44.95948812102289" lon="9.328948899712833"><ele>488.2</ele><time>2026-04-10T13:57:56.184Z</time></trkpt><trkpt lat="44.95938237431247" lon="9.328970390265717"><ele>486.4</ele><time>2026-04-10T13:57:57.176Z</time></trkpt><trkpt lat="44.95928161913473" lon="9.328969850936106"><ele>484.6</ele><time>2026-04-10T13:57:58.167Z</time></trkpt><trkpt lat="44.95918282244097" lon="9.32895045511597"><ele>482.8</ele><time>2026-04-10T13:57:59.173Z</time></trkpt><trkpt lat="44.95908311290976" lon="9.328956868597288"><ele>481.0</ele><time>2026-04-10T13:58:00.165Z</time></trkpt><trkpt lat="44.95898399589137" lon="9.32898801022615"><ele>479.8</ele><time>2026-04-10T13:58:01.16Z</time></trkpt><trkpt lat="44.95889182774024" lon="9.329032182179295"><ele>478.6</ele><time>2026-04-10T13:58:02.156Z</time></trkpt><trkpt lat="44.9588080511736" lon="9.329070386096362"><ele>477.4</ele><time>2026-04-10T13:58:03.163Z</time></trkpt><trkpt lat="44.958723241548654" lon="9.329099425951387"><ele>476.2</ele><time>2026-04-10T13:58:04.177Z</time></trkpt><trkpt lat="44.95862551594302" lon="9.32912901642094"><ele>475.0</ele><time>2026-04-10T13:58:05.155Z</time></trkpt><trkpt lat="44.958522516190534" lon="9.329177672127875"><ele>475.0</ele><time>2026-04-10T13:58:06.16Z</time></trkpt><trkpt lat="44.95842095440915" lon="9.329195427839318"><ele>475.0</ele><time>2026-04-10T13:58:07.159Z</time></trkpt><trkpt lat="44.9583264668767" lon="9.329219673933526"><ele>475.0</ele><time>2026-04-10T13:58:08.18Z</time></trkpt><trkpt lat="44.95823876741214" lon="9.329234325135443"><ele>475.0</ele><time>2026-04-10T13:58:09.162Z</time></trkpt><trkpt lat="44.95814792907456" lon="9.3292394483402"><ele>475.0</ele><time>2026-04-10T13:58:10.165Z</time></trkpt><trkpt lat="44.95805219249152" lon="9.329248477855161"><ele>474.5</ele><time>2026-04-10T13:58:11.163Z</time></trkpt><trkpt lat="44.957941133853154" lon="9.32925789771511"><ele>474.0</ele><time>2026-04-10T13:58:12.169Z</time></trkpt><trkpt lat="44.95782098450664" lon="9.329263224713628"><ele>473.5</ele><time>2026-04-10T13:58:13.156Z</time></trkpt><trkpt lat="44.957691757235125" lon="9.32927156613939"><ele>473.0</ele><time>2026-04-10T13:58:14.146Z</time></trkpt><trkpt lat="44.95755251117373" lon="9.329285946170074"><ele>473.0</ele><time>2026-04-10T13:58:15.173Z</time></trkpt><trkpt lat="44.95742393839083" lon="9.329308891380146"><ele>473.0</ele><time>2026-04-10T13:58:16.15Z</time></trkpt><trkpt lat="44.957300684317005" lon="9.329325942623274"><ele>473.0</ele><time>2026-04-10T13:58:17.149Z</time></trkpt><trkpt lat="44.95719435491602" lon="9.32935578822835"><ele>473.0</ele><time>2026-04-10T13:58:18.151Z</time></trkpt><trkpt lat="44.95709716150624" lon="9.329375509576243"><ele>472.99999999999994</ele><time>2026-04-10T13:58:19.153Z</time></trkpt><trkpt lat="44.95699986454058" lon="9.329393312430392"><ele>473.0</ele><time>2026-04-10T13:58:20.159Z</time></trkpt><trkpt lat="44.95690980588717" lon="9.329405453192095"><ele>473.0</ele><time>2026-04-10T13:58:21.146Z</time></trkpt><trkpt lat="44.956822800027176" lon="9.329406694865472"><ele>473.0</ele><time>2026-04-10T13:58:22.155Z</time></trkpt><trkpt lat="44.956742823097045" lon="9.329399526256244"><ele>472.99999999999994</ele><time>2026-04-10T13:58:23.172Z</time></trkpt><trkpt lat="44.956671175760825" lon="9.329397648164813"><ele>473.0</ele><time>2026-04-10T13:58:24.149Z</time></trkpt><trkpt lat="44.95660337536042" lon="9.329402513423403"><ele>474.0</ele><time>2026-04-10T13:58:25.153Z</time></trkpt><trkpt lat="44.956486716791005" lon="9.329412062597175"><ele>474.99999999999994</ele><time>2026-04-10T13:58:27.151Z</time></trkpt><trkpt lat="44.95639109157973" lon="9.329419813105115"><ele>475.99999999999994</ele><time>2026-04-10T13:58:29.164Z</time></trkpt><trkpt lat="44.956301336529094" lon="9.329430795985473"><ele>477.0</ele><time>2026-04-10T13:58:31.178Z</time></trkpt><trkpt lat="44.956237003267354" lon="9.329439992882612"><ele>478.0</ele><time>2026-04-10T13:58:32.177Z</time></trkpt><trkpt lat="44.95615461561614" lon="9.329454529108247"><ele>478.0</ele><time>2026-04-10T13:58:33.146Z</time></trkpt><trkpt lat="44.95605425406077" lon="9.329469529185205"><ele>477.99999999999994</ele><time>2026-04-10T13:58:34.147Z</time></trkpt><trkpt lat="44.95594585620714" lon="9.329475830972827"><ele>477.99999999999994</ele><time>2026-04-10T13:58:35.148Z</time></trkpt><trkpt lat="44.95582844871855" lon="9.32947408617411"><ele>478.0</ele><time>2026-04-10T13:58:36.161Z</time></trkpt><trkpt lat="44.9557156511596" lon="9.32943689019116"><ele>478.0</ele><time>2026-04-10T13:58:37.158Z</time></trkpt><trkpt lat="44.95560066752579" lon="9.329416840265532"><ele>477.2</ele><time>2026-04-10T13:58:38.145Z</time></trkpt><trkpt lat="44.955488589146526" lon="9.329406471166568"><ele>476.4</ele><time>2026-04-10T13:58:39.154Z</time></trkpt><trkpt lat="44.955378942097035" lon="9.329410733833612"><ele>475.59999999999997</ele><time>2026-04-10T13:58:40.153Z</time></trkpt><trkpt lat="44.955280752338986" lon="9.329437794432732"><ele>474.79999999999995</ele><time>2026-04-10T13:58:41.158Z</time></trkpt><trkpt lat="44.95518128541792" lon="9.329476908437657"><ele>474.0</ele><time>2026-04-10T13:58:42.156Z</time></trkpt><trkpt lat="44.95508321095519" lon="9.329525618167487"><ele>473.6</ele><time>2026-04-10T13:58:43.17Z</time></trkpt><trkpt lat="44.95498405443535" lon="9.32958388149315"><ele>473.2</ele><time>2026-04-10T13:58:44.176Z</time></trkpt><trkpt lat="44.95488540014735" lon="9.329646870173283"><ele>472.80000000000007</ele><time>2026-04-10T13:58:45.172Z</time></trkpt><trkpt lat="44.9547824706384" lon="9.329716265017495"><ele>472.40000000000003</ele><time>2026-04-10T13:58:46.15Z</time></trkpt><trkpt lat="44.95467886402345" lon="9.329792441058967"><ele>472.0</ele><time>2026-04-10T13:58:47.147Z</time></trkpt><trkpt lat="44.9545849890867" lon="9.32987552911439"><ele>471.1666666666667</ele><time>2026-04-10T13:58:48.166Z</time></trkpt><trkpt lat="44.95451239587803" lon="9.329967653642303"><ele>470.33333333333337</ele><time>2026-04-10T13:58:49.158Z</time></trkpt><trkpt lat="44.95445781761796" lon="9.330071654112492"><ele>469.5</ele><time>2026-04-10T13:58:50.152Z</time></trkpt><trkpt lat="44.9544088889839" lon="9.330161940141206"><ele>468.66666666666663</ele><time>2026-04-10T13:58:51.151Z</time></trkpt><trkpt lat="44.95434362265269" lon="9.330230253933424"><ele>467.8333333333333</ele><time>2026-04-10T13:58:52.149Z</time></trkpt><trkpt lat="44.954255081840934" lon="9.330283951723285"><ele>467.0</ele><time>2026-04-10T13:58:53.151Z</time></trkpt><trkpt lat="44.954143164563675" lon="9.330313023580336"><ele>467.0</ele><time>2026-04-10T13:58:54.152Z</time></trkpt><trkpt lat="44.954003930680464" lon="9.330330171443233"><ele>467.0</ele><time>2026-04-10T13:58:55.145Z</time></trkpt><trkpt lat="44.95384910791474" lon="9.33034877981849"><ele>467.0</ele><time>2026-04-10T13:58:56.147Z</time></trkpt><trkpt lat="44.95369471770574" lon="9.330368227247403"><ele>467.0</ele><time>2026-04-10T13:58:57.192Z</time></trkpt><trkpt lat="44.95356072532116" lon="9.330385451032114"><ele>467.0</ele><time>2026-04-10T13:58:58.151Z</time></trkpt><trkpt lat="44.953442235355105" lon="9.330412750756402"><ele>467.0</ele><time>2026-04-10T13:58:59.155Z</time></trkpt><trkpt lat="44.95333309628969" lon="9.330430716854643"><ele>467.0</ele><time>2026-04-10T13:59:00.171Z</time></trkpt><trkpt lat="44.95324378051886" lon="9.330523927052207"><ele>467.25</ele><time>2026-04-10T13:59:01.151Z</time></trkpt><trkpt lat="44.95318848381406" lon="9.330677296120406"><ele>467.5</ele><time>2026-04-10T13:59:02.153Z</time></trkpt><trkpt lat="44.95311649622975" lon="9.330838147062016"><ele>467.75</ele><time>2026-04-10T13:59:03.155Z</time></trkpt><trkpt lat="44.95302510788349" lon="9.330998904413816"><ele>468.0</ele><time>2026-04-10T13:59:04.152Z</time></trkpt><trkpt lat="44.952947333639486" lon="9.331174924669542"><ele>468.0</ele><time>2026-04-10T13:59:05.159Z</time></trkpt><trkpt lat="44.95288053321155" lon="9.331327361431653"><ele>467.99999999999994</ele><time>2026-04-10T13:59:06.148Z</time></trkpt><trkpt lat="44.95282534050488" lon="9.33142477953282"><ele>467.99999999999994</ele><time>2026-04-10T13:59:07.161Z</time></trkpt><trkpt lat="44.95276368026047" lon="9.331507000447617"><ele>468.0</ele><time>2026-04-10T13:59:08.15Z</time></trkpt><trkpt lat="44.952685615080966" lon="9.331569064139815"><ele>468.0</ele><time>2026-04-10T13:59:09.146Z</time></trkpt><trkpt lat="44.95258212497305" lon="9.331617355298524"><ele>469.0</ele><time>2026-04-10T13:59:10.146Z</time></trkpt><trkpt lat="44.952459852799606" lon="9.331646073255978"><ele>470.0</ele><time>2026-04-10T13:59:11.149Z</time></trkpt><trkpt lat="44.95233499370646" lon="9.33168478996868"><ele>471.0</ele><time>2026-04-10T13:59:12.144Z</time></trkpt><trkpt lat="44.95222127676324" lon="9.331748357905225"><ele>472.0</ele><time>2026-04-10T13:59:13.149Z</time></trkpt><trkpt lat="44.95213247410104" lon="9.33184139423705"><ele>472.0</ele><time>2026-04-10T13:59:14.148Z</time></trkpt><trkpt lat="44.95203524115418" lon="9.331918027248868"><ele>472.0</ele><time>2026-04-10T13:59:15.169Z</time></trkpt><trkpt lat="44.95192446555536" lon="9.332007502556344"><ele>472.0</ele><time>2026-04-10T13:59:16.151Z</time></trkpt><trkpt lat="44.95181611407093" lon="9.332119595749372"><ele>472.0</ele><time>2026-04-10T13:59:17.153Z</time></trkpt><trkpt lat="44.951702820435784" lon="9.33222907443235"><ele>472.20000000000005</ele><time>2026-04-10T13:59:18.149Z</time></trkpt><trkpt lat="44.95159487824837" lon="9.332328837309758"><ele>472.40000000000003</ele><time>2026-04-10T13:59:19.155Z</time></trkpt><trkpt lat="44.95149600295881" lon="9.33241846277387"><ele>472.59999999999997</ele><time>2026-04-10T13:59:20.168Z</time></trkpt><trkpt lat="44.95141131544745" lon="9.332491495164922"><ele>472.79999999999995</ele><time>2026-04-10T13:59:21.148Z</time></trkpt><trkpt lat="44.95132321715244" lon="9.33255711867501"><ele>473.0</ele><time>2026-04-10T13:59:22.151Z</time></trkpt><trkpt lat="44.95122872368609" lon="9.33261879073557"><ele>472.99999999999994</ele><time>2026-04-10T13:59:23.153Z</time></trkpt><trkpt lat="44.95113968407715" lon="9.332680857187338"><ele>473.0</ele><time>2026-04-10T13:59:24.163Z</time></trkpt><trkpt lat="44.95106765440965" lon="9.332743579352892"><ele>473.0</ele><time>2026-04-10T13:59:25.168Z</time></trkpt><trkpt lat="44.95101093981404" lon="9.33281251894964"><ele>473.0</ele><time>2026-04-10T13:59:26.146Z</time></trkpt><trkpt lat="44.95096926301573" lon="9.332883189412177"><ele>472.99999999999994</ele><time>2026-04-10T13:59:27.151Z</time></trkpt><trkpt lat="44.95091742937866" lon="9.332979476781873"><ele>473.0</ele><time>2026-04-10T13:59:29.151Z</time></trkpt><trkpt lat="44.95089275027831" lon="9.333074371614494"><ele>471.99999999999994</ele><time>2026-04-10T13:59:31.188Z</time></trkpt><trkpt lat="44.950875108976554" lon="9.33321650326919"><ele>471.0</ele><time>2026-04-10T13:59:33.171Z</time></trkpt><trkpt lat="44.95089444190804" lon="9.333330225116528"><ele>470.0</ele><time>2026-04-10T13:59:34.146Z</time></trkpt><trkpt lat="44.95089340074518" lon="9.33344763433535"><ele>469.0</ele><time>2026-04-10T13:59:35.172Z</time></trkpt><trkpt lat="44.95088573340483" lon="9.333557803906839"><ele>467.99999999999994</ele><time>2026-04-10T13:59:36.148Z</time></trkpt><trkpt lat="44.950872892158266" lon="9.333660364298122"><ele>467.0</ele><time>2026-04-10T13:59:37.155Z</time></trkpt><trkpt lat="44.95084910707235" lon="9.333758777961432"><ele>468.3333333333333</ele><time>2026-04-10T13:59:38.148Z</time></trkpt><trkpt lat="44.950818411862926" lon="9.333840037195811"><ele>469.66666666666663</ele><time>2026-04-10T13:59:39.157Z</time></trkpt><trkpt lat="44.950772165886754" lon="9.333913871946232"><ele>471.0</ele><time>2026-04-10T13:59:40.147Z</time></trkpt><trkpt lat="44.950712078615645" lon="9.333976653282939"><ele>472.33333333333337</ele><time>2026-04-10T13:59:41.165Z</time></trkpt><trkpt lat="44.950646438814616" lon="9.334041408733636"><ele>473.6666666666667</ele><time>2026-04-10T13:59:42.161Z</time></trkpt><trkpt lat="44.95058128206157" lon="9.334101453750142"><ele>475.0</ele><time>2026-04-10T13:59:43.159Z</time></trkpt><trkpt lat="44.95048442647437" lon="9.33421018796879"><ele>475.0</ele><time>2026-04-10T13:59:45.172Z</time></trkpt><trkpt lat="44.95039619046772" lon="9.334319600626461"><ele>475.0</ele><time>2026-04-10T13:59:47.18Z</time></trkpt><trkpt lat="44.95030620192388" lon="9.334438348369751"><ele>475.0</ele><time>2026-04-10T13:59:49.176Z</time></trkpt><trkpt lat="44.950255803924115" lon="9.334514102640115"><ele>475.0</ele><time>2026-04-10T13:59:50.158Z</time></trkpt><trkpt lat="44.950200563869494" lon="9.334590900309903"><ele>475.0</ele><time>2026-04-10T13:59:51.15Z</time></trkpt><trkpt lat="44.95014776814528" lon="9.33467879317829"><ele>475.1666666666667</ele><time>2026-04-10T13:59:52.17Z</time></trkpt><trkpt lat="44.95009385223146" lon="9.334779139100895"><ele>475.33333333333337</ele><time>2026-04-10T13:59:53.177Z</time></trkpt><trkpt lat="44.95004941259003" lon="9.334878276204268"><ele>475.5</ele><time>2026-04-10T13:59:54.17Z</time></trkpt><trkpt lat="44.950006744902616" lon="9.3349653734062"><ele>475.66666666666663</ele><time>2026-04-10T13:59:55.176Z</time></trkpt><trkpt lat="44.94995827892263" lon="9.335052656832563"><ele>475.8333333333333</ele><time>2026-04-10T13:59:56.174Z</time></trkpt><trkpt lat="44.94990032632919" lon="9.335134746836225"><ele>476.0</ele><time>2026-04-10T13:59:57.164Z</time></trkpt><trkpt lat="44.94982828764702" lon="9.335202563700417"><ele>475.99999999999994</ele><time>2026-04-10T13:59:58.17Z</time></trkpt><trkpt lat="44.94975037620941" lon="9.335264582250641"><ele>476.0</ele><time>2026-04-10T13:59:59.172Z</time></trkpt><trkpt lat="44.94967389521081" lon="9.335318614712888"><ele>476.0</ele><time>2026-04-10T14:00:00.167Z</time></trkpt><trkpt lat="44.94960672142609" lon="9.335367109073697"><ele>476.0</ele><time>2026-04-10T14:00:01.165Z</time></trkpt><trkpt lat="44.949539430703865" lon="9.335410794836676"><ele>475.99999999999994</ele><time>2026-04-10T14:00:02.154Z</time></trkpt><trkpt lat="44.94947603706736" lon="9.335459659886391"><ele>476.0</ele><time>2026-04-10T14:00:03.169Z</time></trkpt><trkpt lat="44.94941048592613" lon="9.33551553917438"><ele>475.99999999999994</ele><time>2026-04-10T14:00:04.174Z</time></trkpt><trkpt lat="44.94934096220019" lon="9.335571135697208"><ele>476.0</ele><time>2026-04-10T14:00:05.17Z</time></trkpt><trkpt lat="44.94927861552092" lon="9.335630628557649"><ele>476.0</ele><time>2026-04-10T14:00:06.179Z</time></trkpt><trkpt lat="44.94922379645025" lon="9.335689762772706"><ele>476.0</ele><time>2026-04-10T14:00:07.163Z</time></trkpt><trkpt lat="44.94915676568385" lon="9.335817081373714"><ele>475.99999999999994</ele><time>2026-04-10T14:00:09.158Z</time></trkpt><trkpt lat="44.9491121685255" lon="9.335933082745482"><ele>476.0</ele><time>2026-04-10T14:00:11.155Z</time></trkpt><trkpt lat="44.949076455523276" lon="9.336015716968204"><ele>475.99999999999994</ele><time>2026-04-10T14:00:13.16Z</time></trkpt><trkpt lat="44.94906190868234" lon="9.336119414687843"><ele>476.0</ele><time>2026-04-10T14:02:01.149Z</time></trkpt><trkpt lat="44.949115391188556" lon="9.336208375875657"><ele>476.0</ele><time>2026-04-10T14:02:04.146Z</time></trkpt><trkpt lat="44.94915479372567" lon="9.336312182460041"><ele>476.0</ele><time>2026-04-10T14:02:06.147Z</time></trkpt><trkpt lat="44.949190427459534" lon="9.336412844047699"><ele>475.99999999999994</ele><time>2026-04-10T14:02:07.152Z</time></trkpt><trkpt lat="44.949229799547794" lon="9.336533363128352"><ele>476.0</ele><time>2026-04-10T14:02:08.148Z</time></trkpt><trkpt lat="44.94926544927539" lon="9.336669542042824"><ele>473.6</ele><time>2026-04-10T14:02:09.149Z</time></trkpt><trkpt lat="44.94928760273066" lon="9.336801722984038"><ele>471.20000000000005</ele><time>2026-04-10T14:02:10.165Z</time></trkpt><trkpt lat="44.94930999301138" lon="9.336932363670375"><ele>468.79999999999995</ele><time>2026-04-10T14:02:11.178Z</time></trkpt><trkpt lat="44.949351491411626" lon="9.337070150031458"><ele>466.4</ele><time>2026-04-10T14:02:12.151Z</time></trkpt><trkpt lat="44.9494271770954" lon="9.337183376714256"><ele>464.0</ele><time>2026-04-10T14:02:13.171Z</time></trkpt><trkpt lat="44.94950466099189" lon="9.337326587391926"><ele>463.0</ele><time>2026-04-10T14:02:14.154Z</time></trkpt><trkpt lat="44.94958187152583" lon="9.337466218402351"><ele>462.0</ele><time>2026-04-10T14:02:15.15Z</time></trkpt><trkpt lat="44.94961989111983" lon="9.337605475802402"><ele>461.0</ele><time>2026-04-10T14:02:16.196Z</time></trkpt><trkpt lat="44.949641872011966" lon="9.337714117307923"><ele>460.0</ele><time>2026-04-10T14:02:17.149Z</time></trkpt><trkpt lat="44.94963029713487" lon="9.337809821945598"><ele>459.0</ele><time>2026-04-10T14:02:18.15Z</time></trkpt><trkpt lat="44.94956476149056" lon="9.337967223058502"><ele>458.8333333333333</ele><time>2026-04-10T14:02:20.158Z</time></trkpt><trkpt lat="44.94947515502667" lon="9.338072601709511"><ele>458.66666666666663</ele><time>2026-04-10T14:02:22.177Z</time></trkpt><trkpt lat="44.94942217981737" lon="9.338161843065206"><ele>458.5</ele><time>2026-04-10T14:02:24.163Z</time></trkpt><trkpt lat="44.94938980664747" lon="9.338269770324839"><ele>458.3333333333333</ele><time>2026-04-10T14:02:26.178Z</time></trkpt><trkpt lat="44.94938645084257" lon="9.338360903118454"><ele>458.16666666666663</ele><time>2026-04-10T14:02:27.146Z</time></trkpt><trkpt lat="44.94940472470469" lon="9.338486472451255"><ele>458.0</ele><time>2026-04-10T14:02:28.149Z</time></trkpt><trkpt lat="44.94943486082275" lon="9.338645548269595"><ele>458.0</ele><time>2026-04-10T14:02:29.15Z</time></trkpt><trkpt lat="44.94947855426575" lon="9.338815790253454"><ele>458.0</ele><time>2026-04-10T14:02:30.155Z</time></trkpt><trkpt lat="44.94953202628206" lon="9.338967374487947"><ele>458.0</ele><time>2026-04-10T14:02:31.153Z</time></trkpt><trkpt lat="44.94960001377375" lon="9.339110985414523"><ele>458.0</ele><time>2026-04-10T14:02:32.264Z</time></trkpt><trkpt lat="44.949678222362316" lon="9.339232309808652"><ele>458.79999999999995</ele><time>2026-04-10T14:02:33.146Z</time></trkpt><trkpt lat="44.9497604764203" lon="9.339329966470668"><ele>459.59999999999997</ele><time>2026-04-10T14:02:34.15Z</time></trkpt><trkpt lat="44.94984253934501" lon="9.33941872511284"><ele>460.40000000000003</ele><time>2026-04-10T14:02:35.154Z</time></trkpt><trkpt lat="44.94991981802501" lon="9.339511332256743"><ele>461.20000000000005</ele><time>2026-04-10T14:02:36.165Z</time></trkpt><trkpt lat="44.949969944763716" lon="9.339617137591247"><ele>462.0</ele><time>2026-04-10T14:02:37.144Z</time></trkpt><trkpt lat="44.94999683504887" lon="9.339727548691434"><ele>463.8</ele><time>2026-04-10T14:02:38.157Z</time></trkpt><trkpt lat="44.950000957462784" lon="9.339873866264544"><ele>465.6</ele><time>2026-04-10T14:02:39.158Z</time></trkpt><trkpt lat="44.94999007407445" lon="9.340037065395942"><ele>467.40000000000003</ele><time>2026-04-10T14:02:40.15Z</time></trkpt><trkpt lat="44.94998282534216" lon="9.340191036974991"><ele>469.20000000000005</ele><time>2026-04-10T14:02:41.156Z</time></trkpt><trkpt lat="44.94998298324626" lon="9.340316194243478"><ele>471.0</ele><time>2026-04-10T14:02:42.171Z</time></trkpt><trkpt lat="44.94999704131262" lon="9.340415781922584"><ele>470.0</ele><time>2026-04-10T14:02:43.151Z</time></trkpt><trkpt lat="44.95008671499286" lon="9.340533640759666"><ele>469.0</ele><time>2026-04-10T14:02:45.152Z</time></trkpt><trkpt lat="44.95015836154161" lon="9.340570651266967"><ele>468.0</ele><time>2026-04-10T14:02:46.167Z</time></trkpt><trkpt lat="44.950250907211505" lon="9.340588901227756"><ele>467.0</ele><time>2026-04-10T14:02:47.151Z</time></trkpt><trkpt lat="44.95036487064527" lon="9.340591468962723"><ele>466.0</ele><time>2026-04-10T14:02:48.15Z</time></trkpt><trkpt lat="44.95049805963796" lon="9.340612395712244"><ele>466.0</ele><time>2026-04-10T14:02:49.151Z</time></trkpt><trkpt lat="44.950639385953096" lon="9.340625580573894"><ele>466.0</ele><time>2026-04-10T14:02:50.148Z</time></trkpt><trkpt lat="44.95076686187592" lon="9.34064063620837"><ele>466.0</ele><time>2026-04-10T14:02:51.15Z</time></trkpt><trkpt lat="44.95089317631462" lon="9.340678012579948"><ele>466.0</ele><time>2026-04-10T14:02:52.151Z</time></trkpt><trkpt lat="44.95102904517831" lon="9.340746631625052"><ele>462.5</ele><time>2026-04-10T14:02:53.162Z</time></trkpt><trkpt lat="44.951165803666285" lon="9.340821531496847"><ele>459.0</ele><time>2026-04-10T14:02:54.148Z</time></trkpt><trkpt lat="44.95130839242016" lon="9.340878344016701"><ele>455.5</ele><time>2026-04-10T14:02:55.178Z</time></trkpt><trkpt lat="44.951450420854364" lon="9.340922156936674"><ele>452.0</ele><time>2026-04-10T14:02:56.158Z</time></trkpt><trkpt lat="44.951566869424134" lon="9.340950490257217"><ele>452.0</ele><time>2026-04-10T14:02:57.15Z</time></trkpt><trkpt lat="44.95165883337139" lon="9.340995480424956"><ele>452.00000000000006</ele><time>2026-04-10T14:02:58.164Z</time></trkpt><trkpt lat="44.951741357967336" lon="9.341064869815586"><ele>452.00000000000006</ele><time>2026-04-10T14:02:59.153Z</time></trkpt><trkpt lat="44.951820733373744" lon="9.341179199226406"><ele>452.0</ele><time>2026-04-10T14:03:00.147Z</time></trkpt><trkpt lat="44.95190108500363" lon="9.341296401805446"><ele>452.0</ele><time>2026-04-10T14:03:01.15Z</time></trkpt><trkpt lat="44.95198941857801" lon="9.34139462331869"><ele>452.6</ele><time>2026-04-10T14:03:02.159Z</time></trkpt><trkpt lat="44.952084486265804" lon="9.34145307433854"><ele>453.20000000000005</ele><time>2026-04-10T14:03:03.16Z</time></trkpt><trkpt lat="44.95219150214229" lon="9.341458263368384"><ele>453.8</ele><time>2026-04-10T14:03:04.16Z</time></trkpt><trkpt lat="44.95230681306856" lon="9.341433304353743"><ele>454.4</ele><time>2026-04-10T14:03:05.272Z</time></trkpt><trkpt lat="44.952407506518306" lon="9.341400464101332"><ele>455.0</ele><time>2026-04-10T14:03:06.148Z</time></trkpt><trkpt lat="44.95249428581993" lon="9.341393340105757"><ele>450.25</ele><time>2026-04-10T14:03:07.147Z</time></trkpt><trkpt lat="44.95257166481944" lon="9.341455245483376"><ele>445.5</ele><time>2026-04-10T14:03:08.159Z</time></trkpt><trkpt lat="44.9526479526407" lon="9.341554927458574"><ele>440.75</ele><time>2026-04-10T14:03:09.148Z</time></trkpt><trkpt lat="44.9526983579066" lon="9.341722490395274"><ele>436.0</ele><time>2026-04-10T14:03:10.145Z</time></trkpt><trkpt lat="44.95276790147332" lon="9.341896078732068"><ele>436.0</ele><time>2026-04-10T14:03:11.149Z</time></trkpt><trkpt lat="44.95282704357501" lon="9.342050136706007"><ele>436.0</ele><time>2026-04-10T14:03:12.157Z</time></trkpt><trkpt lat="44.95286947713584" lon="9.342169932717514"><ele>436.0</ele><time>2026-04-10T14:03:13.154Z</time></trkpt><trkpt lat="44.95289938444878" lon="9.34228200040441"><ele>436.0</ele><time>2026-04-10T14:03:14.158Z</time></trkpt><trkpt lat="44.952893283893836" lon="9.342389277890977"><ele>436.0</ele><time>2026-04-10T14:03:15.153Z</time></trkpt><trkpt lat="44.952856771042846" lon="9.342477549301723"><ele>436.5</ele><time>2026-04-10T14:03:16.161Z</time></trkpt><trkpt lat="44.95279823625586" lon="9.342592961037948"><ele>437.0</ele><time>2026-04-10T14:03:17.167Z</time></trkpt><trkpt lat="44.9527230945924" lon="9.342742793941948"><ele>437.5</ele><time>2026-04-10T14:03:18.156Z</time></trkpt><trkpt lat="44.95264530411396" lon="9.342929527934379"><ele>438.0</ele><time>2026-04-10T14:03:19.152Z</time></trkpt><trkpt lat="44.95259642260051" lon="9.343097167270276"><ele>436.79999999999995</ele><time>2026-04-10T14:03:20.169Z</time></trkpt><trkpt lat="44.952562241994" lon="9.3432591247684"><ele>435.59999999999997</ele><time>2026-04-10T14:03:21.164Z</time></trkpt><trkpt lat="44.952544094767404" lon="9.34340169369396"><ele>434.40000000000003</ele><time>2026-04-10T14:03:22.151Z</time></trkpt><trkpt lat="44.952549949455616" lon="9.343524580206315"><ele>433.20000000000005</ele><time>2026-04-10T14:03:23.148Z</time></trkpt><trkpt lat="44.952581753898414" lon="9.343618750254143"><ele>432.0</ele><time>2026-04-10T14:03:24.148Z</time></trkpt><trkpt lat="44.952631304323916" lon="9.343697294160139"><ele>432.0</ele><time>2026-04-10T14:03:25.157Z</time></trkpt><trkpt lat="44.95269450698418" lon="9.343758977366965"><ele>432.0</ele><time>2026-04-10T14:03:26.157Z</time></trkpt><trkpt lat="44.952775819115914" lon="9.34381248639302"><ele>432.0</ele><time>2026-04-10T14:03:27.146Z</time></trkpt><trkpt lat="44.95285029779018" lon="9.34386782740573"><ele>432.0</ele><time>2026-04-10T14:03:28.153Z</time></trkpt><trkpt lat="44.95290545479296" lon="9.343935363833998"><ele>432.0</ele><time>2026-04-10T14:03:29.175Z</time></trkpt><trkpt lat="44.952941459895655" lon="9.344010983693101"><ele>432.0</ele><time>2026-04-10T14:03:30.148Z</time></trkpt><trkpt lat="44.95296889738509" lon="9.344095648530281"><ele>432.0</ele><time>2026-04-10T14:03:31.148Z</time></trkpt><trkpt lat="44.95298532721337" lon="9.34422294130372"><ele>432.0</ele><time>2026-04-10T14:03:32.155Z</time></trkpt><trkpt lat="44.9530004977266" lon="9.344406505205747"><ele>432.0</ele><time>2026-04-10T14:03:33.151Z</time></trkpt><trkpt lat="44.953017911544514" lon="9.344612741498253"><ele>432.0</ele><time>2026-04-10T14:03:34.15Z</time></trkpt><trkpt lat="44.95303620465817" lon="9.344828691347704"><ele>432.0</ele><time>2026-04-10T14:03:35.153Z</time></trkpt><trkpt lat="44.95305639721577" lon="9.345028665248504"><ele>432.0</ele><time>2026-04-10T14:03:36.153Z</time></trkpt><trkpt lat="44.95307211661489" lon="9.34521623230866"><ele>432.0</ele><time>2026-04-10T14:03:37.149Z</time></trkpt><trkpt lat="44.95308704628835" lon="9.34537893036763"><ele>432.0</ele><time>2026-04-10T14:03:38.147Z</time></trkpt><trkpt lat="44.95309088649602" lon="9.3455167128923"><ele>431.6666666666667</ele><time>2026-04-10T14:03:39.148Z</time></trkpt><trkpt lat="44.95307592117011" lon="9.345639574947429"><ele>431.33333333333337</ele><time>2026-04-10T14:03:40.151Z</time></trkpt><trkpt lat="44.95304012637876" lon="9.345737913633997"><ele>431.0</ele><time>2026-04-10T14:03:41.152Z</time></trkpt><trkpt lat="44.95297528637488" lon="9.34581513739548"><ele>430.6666666666667</ele><time>2026-04-10T14:03:42.155Z</time></trkpt><trkpt lat="44.952890234810496" lon="9.345873568623622"><ele>430.33333333333337</ele><time>2026-04-10T14:03:43.155Z</time></trkpt><trkpt lat="44.952801295683045" lon="9.345918863896367"><ele>430.0</ele><time>2026-04-10T14:03:44.15Z</time></trkpt><trkpt lat="44.95271771197085" lon="9.345995809721007"><ele>430.0</ele><time>2026-04-10T14:03:45.151Z</time></trkpt><trkpt lat="44.95264058703236" lon="9.346100534907174"><ele>430.0</ele><time>2026-04-10T14:03:46.152Z</time></trkpt><trkpt lat="44.9525769419071" lon="9.346232487894698"><ele>430.0</ele><time>2026-04-10T14:03:47.147Z</time></trkpt><trkpt lat="44.952525619290334" lon="9.346405139420446"><ele>430.0</ele><time>2026-04-10T14:03:48.155Z</time></trkpt><trkpt lat="44.952482758969296" lon="9.346579944246947"><ele>431.0</ele><time>2026-04-10T14:03:49.15Z</time></trkpt><trkpt lat="44.95245058721656" lon="9.346734568455993"><ele>432.0</ele><time>2026-04-10T14:03:50.165Z</time></trkpt><trkpt lat="44.952436678575765" lon="9.346878360064292"><ele>433.0</ele><time>2026-04-10T14:03:51.155Z</time></trkpt><trkpt lat="44.95245614879647" lon="9.347009531700257"><ele>434.0</ele><time>2026-04-10T14:03:52.151Z</time></trkpt><trkpt lat="44.952508400791466" lon="9.347127979130672"><ele>435.0</ele><time>2026-04-10T14:03:53.148Z</time></trkpt><trkpt lat="44.952598539868184" lon="9.347249531406067"><ele>435.0</ele><time>2026-04-10T14:03:54.166Z</time></trkpt><trkpt lat="44.952710139999084" lon="9.347364429218322"><ele>435.0</ele><time>2026-04-10T14:03:55.15Z</time></trkpt><trkpt lat="44.95281241505646" lon="9.347459061546465"><ele>435.0</ele><time>2026-04-10T14:03:56.15Z</time></trkpt><trkpt lat="44.95290584141703" lon="9.34754987200476"><ele>435.0</ele><time>2026-04-10T14:03:57.151Z</time></trkpt><trkpt lat="44.9529597893219" lon="9.34766074016833"><ele>435.0</ele><time>2026-04-10T14:03:58.154Z</time></trkpt><trkpt lat="44.9529992628696" lon="9.347765765650957"><ele>435.0</ele><time>2026-04-10T14:03:59.155Z</time></trkpt><trkpt lat="44.95301621912001" lon="9.347893761559831"><ele>435.0</ele><time>2026-04-10T14:04:00.15Z</time></trkpt><trkpt lat="44.95302507768003" lon="9.348067475675231"><ele>435.0</ele><time>2026-04-10T14:04:01.156Z</time></trkpt><trkpt lat="44.953033366457646" lon="9.34827433276477"><ele>435.0</ele><time>2026-04-10T14:04:02.152Z</time></trkpt><trkpt lat="44.95303928589786" lon="9.348507531506622"><ele>436.0</ele><time>2026-04-10T14:04:03.153Z</time></trkpt><trkpt lat="44.953050224565814" lon="9.34875292517973"><ele>437.0</ele><time>2026-04-10T14:04:04.144Z</time></trkpt><trkpt lat="44.95307801079588" lon="9.348968370610786"><ele>438.0</ele><time>2026-04-10T14:04:05.151Z</time></trkpt><trkpt lat="44.95312325048662" lon="9.34916031095513"><ele>438.0</ele><time>2026-04-10T14:04:06.151Z</time></trkpt><trkpt lat="44.95319904374135" lon="9.34931695691832"><ele>438.0</ele><time>2026-04-10T14:04:07.15Z</time></trkpt><trkpt lat="44.953263102355585" lon="9.349451498765792"><ele>438.0</ele><time>2026-04-10T14:04:08.148Z</time></trkpt><trkpt lat="44.953333478362666" lon="9.34956950735245"><ele>438.0</ele><time>2026-04-10T14:04:09.161Z</time></trkpt><trkpt lat="44.953411235770105" lon="9.349704578404573"><ele>434.33333333333337</ele><time>2026-04-10T14:04:10.155Z</time></trkpt><trkpt lat="44.9535082849301" lon="9.349861054574877"><ele>430.6666666666667</ele><time>2026-04-10T14:04:11.158Z</time></trkpt><trkpt lat="44.95362556728798" lon="9.350029917330883"><ele>427.0</ele><time>2026-04-10T14:04:12.148Z</time></trkpt><trkpt lat="44.953751184569875" lon="9.35020736116473"><ele>427.0</ele><time>2026-04-10T14:04:13.174Z</time></trkpt><trkpt lat="44.95386513898465" lon="9.350374550320762"><ele>427.0</ele><time>2026-04-10T14:04:14.15Z</time></trkpt><trkpt lat="44.95394972700119" lon="9.350538561689492"><ele>427.0</ele><time>2026-04-10T14:04:15.154Z</time></trkpt><trkpt lat="44.95404060717478" lon="9.350678370202015"><ele>427.0</ele><time>2026-04-10T14:04:16.148Z</time></trkpt><trkpt lat="44.95412474391083" lon="9.350820321786609"><ele>427.25</ele><time>2026-04-10T14:04:17.145Z</time></trkpt><trkpt lat="44.95419515251081" lon="9.35097481494465"><ele>427.5</ele><time>2026-04-10T14:04:18.145Z</time></trkpt><trkpt lat="44.95425396473824" lon="9.35115913111459"><ele>427.75</ele><time>2026-04-10T14:04:19.147Z</time></trkpt><trkpt lat="44.95430180773431" lon="9.351379184659287"><ele>428.0</ele><time>2026-04-10T14:04:20.148Z</time></trkpt><trkpt lat="44.95434491596557" lon="9.351607709415948"><ele>423.3333333333333</ele><time>2026-04-10T14:04:21.151Z</time></trkpt><trkpt lat="44.95439016291499" lon="9.351842654978304"><ele>418.66666666666663</ele><time>2026-04-10T14:04:22.151Z</time></trkpt><trkpt lat="44.95443979796304" lon="9.352083506551068"><ele>414.0</ele><time>2026-04-10T14:04:23.162Z</time></trkpt><trkpt lat="44.954488364753324" lon="9.352318345139322"><ele>413.33333333333337</ele><time>2026-04-10T14:04:24.155Z</time></trkpt><trkpt lat="44.95453767071373" lon="9.352549620551539"><ele>412.6666666666667</ele><time>2026-04-10T14:04:25.161Z</time></trkpt><trkpt lat="44.954585140873036" lon="9.352780015287077"><ele>412.0</ele><time>2026-04-10T14:04:26.147Z</time></trkpt><trkpt lat="44.95463120878574" lon="9.353003307140584"><ele>415.0</ele><time>2026-04-10T14:04:27.153Z</time></trkpt><trkpt lat="44.95467855460743" lon="9.353220644840707"><ele>418.0</ele><time>2026-04-10T14:04:28.156Z</time></trkpt><trkpt lat="44.95472283666847" lon="9.353427088896865"><ele>421.0</ele><time>2026-04-10T14:04:29.16Z</time></trkpt><trkpt lat="44.954763405482275" lon="9.35361593144775"><ele>421.0</ele><time>2026-04-10T14:04:30.148Z</time></trkpt><trkpt lat="44.95480234333366" lon="9.353787040603795"><ele>421.0</ele><time>2026-04-10T14:04:31.168Z</time></trkpt><trkpt lat="44.95483041500861" lon="9.35392041170619"><ele>421.0</ele><time>2026-04-10T14:04:32.149Z</time></trkpt><trkpt lat="44.95484155178116" lon="9.354021754210413"><ele>421.0</ele><time>2026-04-10T14:04:33.154Z</time></trkpt><trkpt lat="44.95480549941476" lon="9.35417675141647"><ele>421.0</ele><time>2026-04-10T14:04:35.154Z</time></trkpt><trkpt lat="44.954715723822275" lon="9.354247778209297"><ele>421.20000000000005</ele><time>2026-04-10T14:04:37.16Z</time></trkpt><trkpt lat="44.95464014179705" lon="9.354373344931124"><ele>421.40000000000003</ele><time>2026-04-10T14:04:39.145Z</time></trkpt><trkpt lat="44.95457246292185" lon="9.354528954097185"><ele>421.6</ele><time>2026-04-10T14:04:41.151Z</time></trkpt><trkpt lat="44.95453257323282" lon="9.354639818630789"><ele>421.8</ele><time>2026-04-10T14:04:42.154Z</time></trkpt><trkpt lat="44.954486476473576" lon="9.354767934565459"><ele>422.0</ele><time>2026-04-10T14:04:43.154Z</time></trkpt><trkpt lat="44.954434648940406" lon="9.354912820549954"><ele>422.0</ele><time>2026-04-10T14:04:44.154Z</time></trkpt><trkpt lat="44.95438328265603" lon="9.355073730621804"><ele>422.0</ele><time>2026-04-10T14:04:45.154Z</time></trkpt><trkpt lat="44.95433909362313" lon="9.355237553900396"><ele>422.0</ele><time>2026-04-10T14:04:46.146Z</time></trkpt><trkpt lat="44.95430851227416" lon="9.355416755924145"><ele>422.0</ele><time>2026-04-10T14:04:47.153Z</time></trkpt><trkpt lat="44.9542564205389" lon="9.355567062515327"><ele>422.40000000000003</ele><time>2026-04-10T14:04:48.149Z</time></trkpt><trkpt lat="44.95421664636579" lon="9.35571051733565"><ele>422.8</ele><time>2026-04-10T14:04:49.151Z</time></trkpt><trkpt lat="44.95417558957931" lon="9.35584244632798"><ele>423.2</ele><time>2026-04-10T14:04:50.146Z</time></trkpt><trkpt lat="44.954130812746634" lon="9.355964493082016"><ele>423.6</ele><time>2026-04-10T14:04:51.154Z</time></trkpt><trkpt lat="44.95407817450564" lon="9.356079498136951"><ele>424.0</ele><time>2026-04-10T14:04:52.149Z</time></trkpt><trkpt lat="44.95401682675482" lon="9.35618368592855"><ele>424.00000000000006</ele><time>2026-04-10T14:04:53.152Z</time></trkpt><trkpt lat="44.953953822585454" lon="9.356277989834387"><ele>424.0</ele><time>2026-04-10T14:04:54.146Z</time></trkpt><trkpt lat="44.95388793867443" lon="9.35635370891319"><ele>424.0</ele><time>2026-04-10T14:04:55.157Z</time></trkpt><trkpt lat="44.95381456588578" lon="9.356404257483288"><ele>424.0</ele><time>2026-04-10T14:04:56.151Z</time></trkpt><trkpt lat="44.95374208290636" lon="9.356457640051431"><ele>424.00000000000006</ele><time>2026-04-10T14:04:57.151Z</time></trkpt><trkpt lat="44.95366793060649" lon="9.356513081773045"><ele>424.0</ele><time>2026-04-10T14:04:58.157Z</time></trkpt><trkpt lat="44.953587365927774" lon="9.356566990042461"><ele>425.79999999999995</ele><time>2026-04-10T14:04:59.175Z</time></trkpt><trkpt lat="44.953487038200755" lon="9.356601197865551"><ele>427.59999999999997</ele><time>2026-04-10T14:05:00.157Z</time></trkpt><trkpt lat="44.95339731953857" lon="9.356664268465734"><ele>429.4</ele><time>2026-04-10T14:05:01.154Z</time></trkpt><trkpt lat="44.95329931681098" lon="9.356736607827862"><ele>431.2</ele><time>2026-04-10T14:05:02.154Z</time></trkpt><trkpt lat="44.953193335681966" lon="9.356816846315006"><ele>433.0</ele><time>2026-04-10T14:05:03.151Z</time></trkpt><trkpt lat="44.953094239786665" lon="9.356894158260175"><ele>433.0</ele><time>2026-04-10T14:05:04.144Z</time></trkpt><trkpt lat="44.95300541085541" lon="9.356970820352082"><ele>432.99999999999994</ele><time>2026-04-10T14:05:05.156Z</time></trkpt><trkpt lat="44.952917410262394" lon="9.357049602290862"><ele>432.99999999999994</ele><time>2026-04-10T14:05:06.153Z</time></trkpt><trkpt lat="44.95283142662677" lon="9.357141732440395"><ele>433.0</ele><time>2026-04-10T14:05:07.15Z</time></trkpt><trkpt lat="44.95274753492328" lon="9.357242689470935"><ele>433.0</ele><time>2026-04-10T14:05:08.144Z</time></trkpt><trkpt lat="44.95267106116287" lon="9.357360791708532"><ele>429.5</ele><time>2026-04-10T14:05:09.147Z</time></trkpt><trkpt lat="44.95260156707277" lon="9.357488656359466"><ele>426.0</ele><time>2026-04-10T14:05:10.162Z</time></trkpt><trkpt lat="44.952515069733494" lon="9.357595401229146"><ele>422.5</ele><time>2026-04-10T14:05:11.154Z</time></trkpt><trkpt lat="44.95242896156559" lon="9.357685224784282"><ele>419.0</ele><time>2026-04-10T14:05:12.155Z</time></trkpt><trkpt lat="44.95232313821158" lon="9.357762678974456"><ele>419.0</ele><time>2026-04-10T14:05:13.158Z</time></trkpt><trkpt lat="44.952208533532364" lon="9.357848347381715"><ele>419.0</ele><time>2026-04-10T14:05:14.151Z</time></trkpt><trkpt lat="44.95208876873965" lon="9.357926792983877"><ele>419.0</ele><time>2026-04-10T14:05:15.145Z</time></trkpt><trkpt lat="44.95197671966546" lon="9.35800437565709"><ele>419.0</ele><time>2026-04-10T14:05:16.153Z</time></trkpt><trkpt lat="44.9518786424695" lon="9.358083978033264"><ele>417.4</ele><time>2026-04-10T14:05:17.149Z</time></trkpt><trkpt lat="44.951791553842654" lon="9.358167133244567"><ele>415.79999999999995</ele><time>2026-04-10T14:05:18.148Z</time></trkpt><trkpt lat="44.95172780974276" lon="9.358264331695322"><ele>414.20000000000005</ele><time>2026-04-10T14:05:19.152Z</time></trkpt><trkpt lat="44.95168084256818" lon="9.358382982571298"><ele>412.6</ele><time>2026-04-10T14:05:20.159Z</time></trkpt><trkpt lat="44.951647512573516" lon="9.35849371108893"><ele>411.0</ele><time>2026-04-10T14:05:21.147Z</time></trkpt><trkpt lat="44.95163315566186" lon="9.358610667344655"><ele>411.0</ele><time>2026-04-10T14:05:22.15Z</time></trkpt><trkpt lat="44.95160972335926" lon="9.358723842930917"><ele>411.0</ele><time>2026-04-10T14:05:23.151Z</time></trkpt><trkpt lat="44.95159945097661" lon="9.358823510980708"><ele>411.0</ele><time>2026-04-10T14:05:24.16Z</time></trkpt><trkpt lat="44.95175437884365" lon="9.35893972003429"><ele>411.0</ele><time>2026-04-10T14:05:25.156Z</time></trkpt><trkpt lat="44.951810831375376" lon="9.35903352867275"><ele>411.0</ele><time>2026-04-10T14:05:26.146Z</time></trkpt><trkpt lat="44.951843000980006" lon="9.359134202054156"><ele>409.8</ele><time>2026-04-10T14:05:27.15Z</time></trkpt><trkpt lat="44.95184602690949" lon="9.359233010084301"><ele>408.6</ele><time>2026-04-10T14:05:28.153Z</time></trkpt><trkpt lat="44.951804799667684" lon="9.359346348883038"><ele>407.4</ele><time>2026-04-10T14:05:29.159Z</time></trkpt><trkpt lat="44.951747841124174" lon="9.359468586597004"><ele>406.2</ele><time>2026-04-10T14:05:30.153Z</time></trkpt><trkpt lat="44.95168205542131" lon="9.359603832978546"><ele>405.0</ele><time>2026-04-10T14:05:31.147Z</time></trkpt><trkpt lat="44.9516164814226" lon="9.35973614564958"><ele>402.75</ele><time>2026-04-10T14:05:32.153Z</time></trkpt><trkpt lat="44.95155555042826" lon="9.359880009760333"><ele>400.5</ele><time>2026-04-10T14:05:33.149Z</time></trkpt><trkpt lat="44.95151003291129" lon="9.360026028599648"><ele>398.25</ele><time>2026-04-10T14:05:34.149Z</time></trkpt><trkpt lat="44.951468614203925" lon="9.360181906821907"><ele>396.0</ele><time>2026-04-10T14:05:35.147Z</time></trkpt><trkpt lat="44.95143528956272" lon="9.360344734285295"><ele>396.0</ele><time>2026-04-10T14:05:36.149Z</time></trkpt><trkpt lat="44.95141160442537" lon="9.360507331315745"><ele>396.0</ele><time>2026-04-10T14:05:37.149Z</time></trkpt><trkpt lat="44.95138838623982" lon="9.360674373817657"><ele>396.0</ele><time>2026-04-10T14:05:38.147Z</time></trkpt><trkpt lat="44.951352643808946" lon="9.360841728159253"><ele>396.0</ele><time>2026-04-10T14:05:39.152Z</time></trkpt><trkpt lat="44.95129771470269" lon="9.361000446814131"><ele>394.4</ele><time>2026-04-10T14:05:40.152Z</time></trkpt><trkpt lat="44.95124448817765" lon="9.361156268333325"><ele>392.8</ele><time>2026-04-10T14:05:41.149Z</time></trkpt><trkpt lat="44.95119298643846" lon="9.361287903263074"><ele>391.2</ele><time>2026-04-10T14:05:42.144Z</time></trkpt><trkpt lat="44.95115163461179" lon="9.361419347567232"><ele>389.59999999999997</ele><time>2026-04-10T14:05:43.145Z</time></trkpt><trkpt lat="44.95113363923226" lon="9.361554659105533"><ele>388.0</ele><time>2026-04-10T14:05:44.151Z</time></trkpt><trkpt lat="44.9511374529044" lon="9.361700180030667"><ele>386.25</ele><time>2026-04-10T14:05:45.15Z</time></trkpt><trkpt lat="44.95116284315401" lon="9.361875100056345"><ele>384.5</ele><time>2026-04-10T14:05:46.152Z</time></trkpt><trkpt lat="44.95118536794148" lon="9.362065242920295"><ele>382.75</ele><time>2026-04-10T14:05:47.15Z</time></trkpt><trkpt lat="44.95120179342365" lon="9.362246033066207"><ele>381.0</ele><time>2026-04-10T14:05:48.149Z</time></trkpt><trkpt lat="44.95120314950917" lon="9.362413943110564"><ele>379.8</ele><time>2026-04-10T14:05:49.151Z</time></trkpt><trkpt lat="44.95118684410153" lon="9.362565896599651"><ele>378.6</ele><time>2026-04-10T14:05:50.146Z</time></trkpt><trkpt lat="44.95115147055813" lon="9.362691854045906"><ele>377.4</ele><time>2026-04-10T14:05:51.149Z</time></trkpt><trkpt lat="44.95110022239809" lon="9.362792698837174"><ele>376.2</ele><time>2026-04-10T14:05:52.154Z</time></trkpt><trkpt lat="44.95102542934964" lon="9.362872457700776"><ele>375.0</ele><time>2026-04-10T14:05:53.151Z</time></trkpt><trkpt lat="44.95092848264108" lon="9.362944342430945"><ele>374.75</ele><time>2026-04-10T14:05:54.149Z</time></trkpt><trkpt lat="44.95081926544821" lon="9.363020392210537"><ele>374.5</ele><time>2026-04-10T14:05:55.15Z</time></trkpt><trkpt lat="44.95071684530613" lon="9.363099074453997"><ele>374.25</ele><time>2026-04-10T14:05:56.145Z</time></trkpt><trkpt lat="44.95063402752914" lon="9.363186456463392"><ele>374.0</ele><time>2026-04-10T14:05:57.161Z</time></trkpt><trkpt lat="44.95056695896479" lon="9.363307200641428"><ele>374.0</ele><time>2026-04-10T14:05:58.15Z</time></trkpt><trkpt lat="44.950506633552926" lon="9.363467875625265"><ele>374.0</ele><time>2026-04-10T14:05:59.153Z</time></trkpt><trkpt lat="44.9504624247325" lon="9.363649442666613"><ele>374.0</ele><time>2026-04-10T14:06:00.153Z</time></trkpt><trkpt lat="44.95043948308192" lon="9.363820334900069"><ele>374.0</ele><time>2026-04-10T14:06:01.151Z</time></trkpt><trkpt lat="44.95043719310979" lon="9.363996315466446"><ele>371.75</ele><time>2026-04-10T14:06:02.149Z</time></trkpt><trkpt lat="44.95044590576267" lon="9.36418572270346"><ele>369.5</ele><time>2026-04-10T14:06:03.15Z</time></trkpt><trkpt lat="44.950453715974916" lon="9.364392961594344"><ele>367.25</ele><time>2026-04-10T14:06:04.15Z</time></trkpt><trkpt lat="44.95046598964797" lon="9.364590590623958"><ele>365.0</ele><time>2026-04-10T14:06:05.155Z</time></trkpt><trkpt lat="44.95047801044352" lon="9.364773384959825"><ele>364.0</ele><time>2026-04-10T14:06:06.152Z</time></trkpt><trkpt lat="44.950499496898914" lon="9.364951411412408"><ele>363.0</ele><time>2026-04-10T14:06:07.153Z</time></trkpt><trkpt lat="44.95053834518529" lon="9.365122653906763"><ele>362.0</ele><time>2026-04-10T14:06:08.153Z</time></trkpt><trkpt lat="44.950582739798946" lon="9.365293597969089"><ele>361.0</ele><time>2026-04-10T14:06:09.151Z</time></trkpt><trkpt lat="44.950640038058324" lon="9.365482318756314"><ele>360.75</ele><time>2026-04-10T14:06:10.15Z</time></trkpt><trkpt lat="44.95071033138128" lon="9.365670665994836"><ele>360.5</ele><time>2026-04-10T14:06:11.15Z</time></trkpt><trkpt lat="44.95078529441698" lon="9.365859637793035"><ele>360.25</ele><time>2026-04-10T14:06:12.152Z</time></trkpt><trkpt lat="44.95084876842903" lon="9.366038227309453"><ele>360.0</ele><time>2026-04-10T14:06:13.151Z</time></trkpt><trkpt lat="44.95089701151691" lon="9.366200170230446"><ele>359.6</ele><time>2026-04-10T14:06:14.15Z</time></trkpt><trkpt lat="44.95093013034144" lon="9.36633734903801"><ele>359.2</ele><time>2026-04-10T14:06:15.16Z</time></trkpt><trkpt lat="44.95093421848541" lon="9.366475642659903"><ele>358.79999999999995</ele><time>2026-04-10T14:06:16.151Z</time></trkpt><trkpt lat="44.95090908964927" lon="9.366605986954124"><ele>358.4</ele><time>2026-04-10T14:06:17.152Z</time></trkpt><trkpt lat="44.95086120542873" lon="9.366732267679614"><ele>358.0</ele><time>2026-04-10T14:06:18.146Z</time></trkpt><trkpt lat="44.95079099522411" lon="9.366843320211109"><ele>358.0</ele><time>2026-04-10T14:06:19.15Z</time></trkpt><trkpt lat="44.95069968503648" lon="9.366918722931963"><ele>358.0</ele><time>2026-04-10T14:06:20.149Z</time></trkpt><trkpt lat="44.95059327485964" lon="9.36696186033824"><ele>358.0</ele><time>2026-04-10T14:06:21.15Z</time></trkpt><trkpt lat="44.950475842187416" lon="9.366985243251094"><ele>358.0</ele><time>2026-04-10T14:06:22.155Z</time></trkpt><trkpt lat="44.950346799441455" lon="9.366995105157686"><ele>358.0</ele><time>2026-04-10T14:06:23.15Z</time></trkpt><trkpt lat="44.950217320981714" lon="9.367007185262537"><ele>358.0</ele><time>2026-04-10T14:06:24.15Z</time></trkpt><trkpt lat="44.95009534049145" lon="9.36702178664692"><ele>358.0</ele><time>2026-04-10T14:06:25.146Z</time></trkpt><trkpt lat="44.94997993204352" lon="9.36704830781378"><ele>358.0</ele><time>2026-04-10T14:06:26.164Z</time></trkpt><trkpt lat="44.94986714104406" lon="9.367084869267401"><ele>357.25</ele><time>2026-04-10T14:06:27.156Z</time></trkpt><trkpt lat="44.94976695605993" lon="9.36714325471261"><ele>356.5</ele><time>2026-04-10T14:06:28.153Z</time></trkpt><trkpt lat="44.94968072991043" lon="9.367221143539066"><ele>355.75</ele><time>2026-04-10T14:06:29.152Z</time></trkpt><trkpt lat="44.949602264420186" lon="9.367335342125546"><ele>355.0</ele><time>2026-04-10T14:06:30.17Z</time></trkpt><trkpt lat="44.94952426599896" lon="9.3674806992604"><ele>355.0</ele><time>2026-04-10T14:06:31.151Z</time></trkpt><trkpt lat="44.949442710438" lon="9.36764342712351"><ele>355.0</ele><time>2026-04-10T14:06:32.151Z</time></trkpt><trkpt lat="44.949364890834154" lon="9.367786023615835"><ele>355.0</ele><time>2026-04-10T14:06:33.165Z</time></trkpt><trkpt lat="44.94928803593107" lon="9.367910042298947"><ele>355.0</ele><time>2026-04-10T14:06:34.16Z</time></trkpt><trkpt lat="44.949222096065924" lon="9.368003125254713"><ele>354.6</ele><time>2026-04-10T14:06:35.17Z</time></trkpt><trkpt lat="44.94915629613784" lon="9.36804896474429"><ele>354.2</ele><time>2026-04-10T14:06:36.154Z</time></trkpt><trkpt lat="44.949083979069066" lon="9.368045959451058"><ele>353.79999999999995</ele><time>2026-04-10T14:06:37.151Z</time></trkpt><trkpt lat="44.948999954439216" lon="9.36800433210593"><ele>353.4</ele><time>2026-04-10T14:06:38.144Z</time></trkpt><trkpt lat="44.948916753430105" lon="9.367911790839498"><ele>353.0</ele><time>2026-04-10T14:06:39.161Z</time></trkpt><trkpt lat="44.94883241945988" lon="9.367794222333393"><ele>354.0</ele><time>2026-04-10T14:06:40.159Z</time></trkpt><trkpt lat="44.948754252842555" lon="9.36768842715886"><ele>355.0</ele><time>2026-04-10T14:06:41.159Z</time></trkpt><trkpt lat="44.94867993689556" lon="9.367587014502877"><ele>356.0</ele><time>2026-04-10T14:06:42.176Z</time></trkpt><trkpt lat="44.94860195825743" lon="9.367493164224454"><ele>357.0</ele><time>2026-04-10T14:06:43.152Z</time></trkpt><trkpt lat="44.94853047640961" lon="9.367398759750921"><ele>358.0</ele><time>2026-04-10T14:06:44.162Z</time></trkpt><trkpt lat="44.94846648752155" lon="9.367308880588745"><ele>358.00000000000006</ele><time>2026-04-10T14:06:45.157Z</time></trkpt><trkpt lat="44.94839647839913" lon="9.367232480288603"><ele>358.0</ele><time>2026-04-10T14:06:46.151Z</time></trkpt><trkpt lat="44.94832130377507" lon="9.367184637827117"><ele>358.0</ele><time>2026-04-10T14:06:47.174Z</time></trkpt><trkpt lat="44.94825531094215" lon="9.367165707861824"><ele>358.0</ele><time>2026-04-10T14:06:48.155Z</time></trkpt><trkpt lat="44.948186554091045" lon="9.367154533140049"><ele>358.0</ele><time>2026-04-10T14:06:49.151Z</time></trkpt><trkpt lat="44.948122450487375" lon="9.367162288042296"><ele>358.00000000000006</ele><time>2026-04-10T14:06:50.149Z</time></trkpt><trkpt lat="44.94805843317573" lon="9.367178899491154"><ele>358.0</ele><time>2026-04-10T14:06:51.169Z</time></trkpt><trkpt lat="44.947989204533215" lon="9.367208578424643"><ele>356.4</ele><time>2026-04-10T14:06:52.153Z</time></trkpt><trkpt lat="44.94790729130426" lon="9.367249596669323"><ele>354.79999999999995</ele><time>2026-04-10T14:06:53.152Z</time></trkpt><trkpt lat="44.94781602937697" lon="9.36729137055134"><ele>353.2</ele><time>2026-04-10T14:06:54.165Z</time></trkpt><trkpt lat="44.94772269115263" lon="9.367340721811031"><ele>351.6</ele><time>2026-04-10T14:06:55.163Z</time></trkpt><trkpt lat="44.94762705975794" lon="9.367402043901011"><ele>350.0</ele><time>2026-04-10T14:06:56.158Z</time></trkpt><trkpt lat="44.94753053640809" lon="9.367477186032437"><ele>349.0</ele><time>2026-04-10T14:06:57.155Z</time></trkpt><trkpt lat="44.947435146382645" lon="9.367564453191292"><ele>348.0</ele><time>2026-04-10T14:06:58.15Z</time></trkpt><trkpt lat="44.947339963829954" lon="9.36766456860663"><ele>347.0</ele><time>2026-04-10T14:06:59.155Z</time></trkpt><trkpt lat="44.947248574367485" lon="9.367759828540867"><ele>346.0</ele><time>2026-04-10T14:07:00.146Z</time></trkpt><trkpt lat="44.94716300474432" lon="9.367850786611623"><ele>346.0</ele><time>2026-04-10T14:07:01.153Z</time></trkpt><trkpt lat="44.947079374090436" lon="9.367932764043976"><ele>346.0</ele><time>2026-04-10T14:07:02.154Z</time></trkpt><trkpt lat="44.946997273457136" lon="9.367989318825988"><ele>346.0</ele><time>2026-04-10T14:07:03.155Z</time></trkpt><trkpt lat="44.94690931993586" lon="9.36801562112998"><ele>346.0</ele><time>2026-04-10T14:07:04.154Z</time></trkpt><trkpt lat="44.946821833742" lon="9.367982354317723"><ele>346.0</ele><time>2026-04-10T14:07:05.159Z</time></trkpt><trkpt lat="44.94673504394698" lon="9.367959444927603"><ele>346.0</ele><time>2026-04-10T14:07:06.15Z</time></trkpt><trkpt lat="44.946645166936406" lon="9.367932777578126"><ele>346.0</ele><time>2026-04-10T14:07:07.153Z</time></trkpt><trkpt lat="44.94655074546041" lon="9.367932812224016"><ele>346.0</ele><time>2026-04-10T14:07:08.154Z</time></trkpt><trkpt lat="44.94645758617716" lon="9.367969010452521"><ele>346.0</ele><time>2026-04-10T14:07:09.165Z</time></trkpt><trkpt lat="44.946387359549945" lon="9.368075293028001"><ele>346.0</ele><time>2026-04-10T14:07:10.159Z</time></trkpt><trkpt lat="44.94634868460119" lon="9.368191326057326"><ele>344.8333333333333</ele><time>2026-04-10T14:07:11.152Z</time></trkpt><trkpt lat="44.94635586652196" lon="9.368316539131689"><ele>343.66666666666663</ele><time>2026-04-10T14:07:12.149Z</time></trkpt><trkpt lat="44.94638891046522" lon="9.368418647147145"><ele>342.5</ele><time>2026-04-10T14:07:13.155Z</time></trkpt><trkpt lat="44.9464440198942" lon="9.36849782603251"><ele>341.3333333333333</ele><time>2026-04-10T14:07:14.153Z</time></trkpt><trkpt lat="44.94652061297611" lon="9.368561022280135"><ele>340.1666666666667</ele><time>2026-04-10T14:07:15.152Z</time></trkpt><trkpt lat="44.946604747216256" lon="9.368614828270001"><ele>339.0</ele><time>2026-04-10T14:07:16.147Z</time></trkpt><trkpt lat="44.94669281104765" lon="9.368664609313875"><ele>339.0</ele><time>2026-04-10T14:07:17.157Z</time></trkpt><trkpt lat="44.94678021660965" lon="9.368717747630981"><ele>339.0</ele><time>2026-04-10T14:07:18.16Z</time></trkpt><trkpt lat="44.94685680344647" lon="9.368783006052182"><ele>339.0</ele><time>2026-04-10T14:07:19.156Z</time></trkpt><trkpt lat="44.94691811213641" lon="9.368875425709458"><ele>339.0</ele><time>2026-04-10T14:07:20.158Z</time></trkpt><trkpt lat="44.94695661897326" lon="9.368987805939375"><ele>339.0</ele><time>2026-04-10T14:07:21.159Z</time></trkpt><trkpt lat="44.946961643220995" lon="9.369097289109199"><ele>339.0</ele><time>2026-04-10T14:07:22.161Z</time></trkpt><trkpt lat="44.946918134199386" lon="9.369201909104643"><ele>337.2</ele><time>2026-04-10T14:07:23.148Z</time></trkpt><trkpt lat="44.94684924309455" lon="9.36927181067584"><ele>335.4</ele><time>2026-04-10T14:07:24.148Z</time></trkpt><trkpt lat="44.94675748416011" lon="9.369270989035542"><ele>333.6</ele><time>2026-04-10T14:07:25.174Z</time></trkpt><trkpt lat="44.94665697925136" lon="9.369299576607295"><ele>331.8</ele><time>2026-04-10T14:07:26.149Z</time></trkpt><trkpt lat="44.94654845135682" lon="9.36935546405774"><ele>330.0</ele><time>2026-04-10T14:07:27.152Z</time></trkpt><trkpt lat="44.946438050605224" lon="9.369359499064393"><ele>330.0</ele><time>2026-04-10T14:07:28.15Z</time></trkpt><trkpt lat="44.94633357521353" lon="9.369395631932456"><ele>330.0</ele><time>2026-04-10T14:07:29.148Z</time></trkpt><trkpt lat="44.946235927971195" lon="9.369444589087054"><ele>330.0</ele><time>2026-04-10T14:07:30.147Z</time></trkpt><trkpt lat="44.94615128946834" lon="9.369528804004966"><ele>330.0</ele><time>2026-04-10T14:07:31.157Z</time></trkpt><trkpt lat="44.94611764842836" lon="9.36966308667702"><ele>330.0</ele><time>2026-04-10T14:07:32.157Z</time></trkpt><trkpt lat="44.946154346262574" lon="9.369779034893455"><ele>328.4</ele><time>2026-04-10T14:07:33.156Z</time></trkpt><trkpt lat="44.94620207078735" lon="9.369857069376273"><ele>326.8</ele><time>2026-04-10T14:07:34.152Z</time></trkpt><trkpt lat="44.94628402194508" lon="9.369911003348344"><ele>325.20000000000005</ele><time>2026-04-10T14:07:35.155Z</time></trkpt><trkpt lat="44.94639856052818" lon="9.369948819508261"><ele>323.6</ele><time>2026-04-10T14:07:36.155Z</time></trkpt><trkpt lat="44.9465334907538" lon="9.369985977255759"><ele>322.0</ele><time>2026-04-10T14:07:37.158Z</time></trkpt><trkpt lat="44.946670821488404" lon="9.370030174224718"><ele>322.25</ele><time>2026-04-10T14:07:38.156Z</time></trkpt><trkpt lat="44.94679026942597" lon="9.370075458819327"><ele>322.5</ele><time>2026-04-10T14:07:39.159Z</time></trkpt><trkpt lat="44.94690616743307" lon="9.370101950957054"><ele>322.75</ele><time>2026-04-10T14:07:40.183Z</time></trkpt><trkpt lat="44.947041303773446" lon="9.37009748073499"><ele>323.0</ele><time>2026-04-10T14:07:41.153Z</time></trkpt><trkpt lat="44.94717323209026" lon="9.370074240438377"><ele>323.0</ele><time>2026-04-10T14:07:42.16Z</time></trkpt><trkpt lat="44.947290508157906" lon="9.370079892866443"><ele>323.0</ele><time>2026-04-10T14:07:43.16Z</time></trkpt><trkpt lat="44.9473926025234" lon="9.370130032385875"><ele>323.0</ele><time>2026-04-10T14:07:44.167Z</time></trkpt><trkpt lat="44.94747463070869" lon="9.370233467265042"><ele>323.0</ele><time>2026-04-10T14:07:45.156Z</time></trkpt><trkpt lat="44.947557681820854" lon="9.370341104494646"><ele>323.0</ele><time>2026-04-10T14:07:46.149Z</time></trkpt><trkpt lat="44.94764741562351" lon="9.370455621586704"><ele>323.25</ele><time>2026-04-10T14:07:47.15Z</time></trkpt><trkpt lat="44.94770454197038" lon="9.370614298745563"><ele>323.5</ele><time>2026-04-10T14:07:48.163Z</time></trkpt><trkpt lat="44.947745744402575" lon="9.370780136266559"><ele>323.75</ele><time>2026-04-10T14:07:49.154Z</time></trkpt><trkpt lat="44.94777367996079" lon="9.370960327767387"><ele>324.0</ele><time>2026-04-10T14:07:50.16Z</time></trkpt><trkpt lat="44.94777215821839" lon="9.371167148565887"><ele>322.75</ele><time>2026-04-10T14:07:51.177Z</time></trkpt><trkpt lat="44.94780000281697" lon="9.371372177838367"><ele>321.5</ele><time>2026-04-10T14:07:52.163Z</time></trkpt><trkpt lat="44.9478050536234" lon="9.371564063685764"><ele>320.25</ele><time>2026-04-10T14:07:53.152Z</time></trkpt><trkpt lat="44.94782087342969" lon="9.371725722684566"><ele>319.0</ele><time>2026-04-10T14:07:54.17Z</time></trkpt><trkpt lat="44.947827566915095" lon="9.371856338204507"><ele>319.0</ele><time>2026-04-10T14:07:55.153Z</time></trkpt><trkpt lat="44.94780894670455" lon="9.371972521993987"><ele>319.0</ele><time>2026-04-10T14:07:56.155Z</time></trkpt><trkpt lat="44.9477664878093" lon="9.37205246748563"><ele>319.0</ele><time>2026-04-10T14:07:57.153Z</time></trkpt><trkpt lat="44.947701509494266" lon="9.372076927967147"><ele>319.0</ele><time>2026-04-10T14:07:58.156Z</time></trkpt><trkpt lat="44.9476342445184" lon="9.372049652511754"><ele>319.0</ele><time>2026-04-10T14:07:59.152Z</time></trkpt><trkpt lat="44.94758888408282" lon="9.371948894422392"><ele>319.0</ele><time>2026-04-10T14:08:00.168Z</time></trkpt><trkpt lat="44.94755687193008" lon="9.371830310522606"><ele>317.16666666666663</ele><time>2026-04-10T14:08:01.154Z</time></trkpt><trkpt lat="44.947519596730096" lon="9.371710983528919"><ele>315.3333333333333</ele><time>2026-04-10T14:08:02.155Z</time></trkpt><trkpt lat="44.947484897138565" lon="9.371596024294469"><ele>313.5</ele><time>2026-04-10T14:08:03.155Z</time></trkpt><trkpt lat="44.947438332541886" lon="9.371489210867525"><ele>311.6666666666667</ele><time>2026-04-10T14:08:04.162Z</time></trkpt><trkpt lat="44.947365457958405" lon="9.371412932202137"><ele>309.83333333333337</ele><time>2026-04-10T14:08:05.161Z</time></trkpt><trkpt lat="44.94728478114993" lon="9.371379984756784"><ele>308.0</ele><time>2026-04-10T14:08:06.157Z</time></trkpt><trkpt lat="44.9472013008714" lon="9.371392375976079"><ele>308.0</ele><time>2026-04-10T14:08:07.152Z</time></trkpt><trkpt lat="44.9471370081383" lon="9.37144507316308"><ele>308.0</ele><time>2026-04-10T14:08:08.158Z</time></trkpt><trkpt lat="44.94712798563583" lon="9.37157936967244"><ele>308.0</ele><time>2026-04-10T14:08:09.164Z</time></trkpt><trkpt lat="44.94710776813196" lon="9.371674227656639"><ele>308.0</ele><time>2026-04-10T14:08:11.152Z</time></trkpt><trkpt lat="44.94714145913333" lon="9.371760502861957"><ele>308.0</ele><time>2026-04-10T14:08:14.152Z</time></trkpt><trkpt lat="44.947153547585856" lon="9.371877614575931"><ele>308.0</ele><time>2026-04-10T14:08:57.151Z</time></trkpt><trkpt lat="44.94720482958396" lon="9.371992981423011"><ele>308.0</ele><time>2026-04-10T14:08:59.178Z</time></trkpt><trkpt lat="44.94723030671806" lon="9.372094677725011"><ele>308.0</ele><time>2026-04-10T14:09:00.151Z</time></trkpt><trkpt lat="44.94724919497395" lon="9.37221542345471"><ele>308.0</ele><time>2026-04-10T14:09:01.148Z</time></trkpt><trkpt lat="44.94726917663678" lon="9.372339824575501"><ele>308.0</ele><time>2026-04-10T14:09:02.151Z</time></trkpt><trkpt lat="44.947295216004356" lon="9.372461521539126"><ele>308.0</ele><time>2026-04-10T14:09:03.173Z</time></trkpt><trkpt lat="44.94733012224079" lon="9.372576554836275"><ele>308.0</ele><time>2026-04-10T14:09:04.151Z</time></trkpt><trkpt lat="44.94736933425205" lon="9.372692697731855"><ele>306.25</ele><time>2026-04-10T14:09:05.149Z</time></trkpt><trkpt lat="44.947422218855415" lon="9.372815818762309"><ele>304.5</ele><time>2026-04-10T14:09:06.151Z</time></trkpt><trkpt lat="44.947476945148324" lon="9.372961091671808"><ele>302.75</ele><time>2026-04-10T14:09:07.168Z</time></trkpt><trkpt lat="44.94754540699489" lon="9.373112253867653"><ele>301.0</ele><time>2026-04-10T14:09:08.15Z</time></trkpt><trkpt lat="44.94762610626687" lon="9.373240425552142"><ele>301.0</ele><time>2026-04-10T14:09:09.149Z</time></trkpt><trkpt lat="44.94771901535947" lon="9.373348171028136"><ele>301.0</ele><time>2026-04-10T14:09:10.154Z</time></trkpt><trkpt lat="44.94782221069731" lon="9.373441139581018"><ele>301.0</ele><time>2026-04-10T14:09:11.161Z</time></trkpt><trkpt lat="44.94792724882818" lon="9.373519968917977"><ele>301.0</ele><time>2026-04-10T14:09:12.15Z</time></trkpt><trkpt lat="44.94803095941951" lon="9.37359733355102"><ele>301.0</ele><time>2026-04-10T14:09:13.155Z</time></trkpt><trkpt lat="44.948141612085024" lon="9.373676316932311"><ele>301.0</ele><time>2026-04-10T14:09:14.147Z</time></trkpt><trkpt lat="44.94825978179046" lon="9.373772921211199"><ele>301.0</ele><time>2026-04-10T14:09:15.168Z</time></trkpt><trkpt lat="44.948380950778414" lon="9.37388424000466"><ele>301.0</ele><time>2026-04-10T14:09:16.151Z</time></trkpt><trkpt lat="44.948490834511205" lon="9.3740277538161"><ele>299.75</ele><time>2026-04-10T14:09:17.15Z</time></trkpt><trkpt lat="44.948580934801306" lon="9.374203729939392"><ele>298.5</ele><time>2026-04-10T14:09:18.149Z</time></trkpt><trkpt lat="44.94865787955977" lon="9.374377007171995"><ele>297.25</ele><time>2026-04-10T14:09:19.153Z</time></trkpt><trkpt lat="44.948729720040745" lon="9.374536657691369"><ele>296.0</ele><time>2026-04-10T14:09:20.149Z</time></trkpt><trkpt lat="44.948806268098494" lon="9.374679271560579"><ele>293.25</ele><time>2026-04-10T14:09:21.151Z</time></trkpt><trkpt lat="44.94889847946096" lon="9.374805508237166"><ele>290.5</ele><time>2026-04-10T14:09:22.16Z</time></trkpt><trkpt lat="44.94902090668083" lon="9.374915650415183"><ele>287.75</ele><time>2026-04-10T14:09:23.164Z</time></trkpt><trkpt lat="44.94917489791854" lon="9.37503031819308"><ele>285.0</ele><time>2026-04-10T14:09:24.147Z</time></trkpt><trkpt lat="44.94935007360033" lon="9.375170230921041"><ele>285.0</ele><time>2026-04-10T14:09:25.148Z</time></trkpt><trkpt lat="44.94952248177456" lon="9.37531312853319"><ele>285.0</ele><time>2026-04-10T14:09:26.158Z</time></trkpt><trkpt lat="44.94969066733302" lon="9.375445847109566"><ele>285.0</ele><time>2026-04-10T14:09:27.157Z</time></trkpt><trkpt lat="44.949850187879335" lon="9.375567429144905"><ele>281.6666666666667</ele><time>2026-04-10T14:09:28.155Z</time></trkpt><trkpt lat="44.95001629422735" lon="9.37569597081188"><ele>278.33333333333337</ele><time>2026-04-10T14:09:29.154Z</time></trkpt><trkpt lat="44.95017325360028" lon="9.37581853541997"><ele>275.0</ele><time>2026-04-10T14:09:30.15Z</time></trkpt><trkpt lat="44.95032620225106" lon="9.375941381678304"><ele>274.6666666666667</ele><time>2026-04-10T14:09:31.155Z</time></trkpt><trkpt lat="44.95047843976941" lon="9.376060756571116"><ele>274.3333333333333</ele><time>2026-04-10T14:09:32.153Z</time></trkpt><trkpt lat="44.95064179203692" lon="9.376190319071085"><ele>274.0</ele><time>2026-04-10T14:09:33.152Z</time></trkpt><trkpt lat="44.950804781531744" lon="9.376321632247327"><ele>270.66666666666663</ele><time>2026-04-10T14:09:34.152Z</time></trkpt><trkpt lat="44.9509574666973" lon="9.376446788947824"><ele>267.3333333333333</ele><time>2026-04-10T14:09:35.158Z</time></trkpt><trkpt lat="44.951111902790124" lon="9.376563209090977"><ele>264.0</ele><time>2026-04-10T14:09:36.153Z</time></trkpt><trkpt lat="44.95124889997433" lon="9.37666469222913"><ele>264.0</ele><time>2026-04-10T14:09:37.15Z</time></trkpt><trkpt lat="44.95137372460765" lon="9.376753557551284"><ele>264.0</ele><time>2026-04-10T14:09:38.152Z</time></trkpt><trkpt lat="44.951479879834025" lon="9.376858292069024"><ele>264.0</ele><time>2026-04-10T14:09:39.147Z</time></trkpt><trkpt lat="44.95157705602508" lon="9.376954963042616"><ele>264.0</ele><time>2026-04-10T14:09:40.153Z</time></trkpt><trkpt lat="44.95165964060558" lon="9.377067861312177"><ele>263.5</ele><time>2026-04-10T14:09:41.149Z</time></trkpt><trkpt lat="44.95171543858674" lon="9.377212738181974"><ele>263.0</ele><time>2026-04-10T14:09:42.16Z</time></trkpt><trkpt lat="44.951734383340856" lon="9.377386171210421"><ele>262.5</ele><time>2026-04-10T14:09:43.152Z</time></trkpt><trkpt lat="44.951702315041665" lon="9.377570250702925"><ele>262.0</ele><time>2026-04-10T14:09:44.151Z</time></trkpt><trkpt lat="44.951655822559296" lon="9.377789515411788"><ele>261.3333333333333</ele><time>2026-04-10T14:09:45.147Z</time></trkpt><trkpt lat="44.95161304702433" lon="9.378055814231079"><ele>260.6666666666667</ele><time>2026-04-10T14:09:46.152Z</time></trkpt><trkpt lat="44.951549304369564" lon="9.378332081985706"><ele>260.0</ele><time>2026-04-10T14:09:47.15Z</time></trkpt><trkpt lat="44.95148481114387" lon="9.378632286376847"><ele>259.33333333333337</ele><time>2026-04-10T14:09:48.154Z</time></trkpt><trkpt lat="44.95142327787562" lon="9.378924287525978"><ele>258.6666666666667</ele><time>2026-04-10T14:09:49.159Z</time></trkpt><trkpt lat="44.95134857537623" lon="9.379179504021481"><ele>258.0</ele><time>2026-04-10T14:09:50.149Z</time></trkpt><trkpt lat="44.95126727094504" lon="9.37941254845909"><ele>258.0</ele><time>2026-04-10T14:09:51.151Z</time></trkpt><trkpt lat="44.951191862250184" lon="9.379633362875715"><ele>258.0</ele><time>2026-04-10T14:09:52.15Z</time></trkpt><trkpt lat="44.95113736788326" lon="9.379848745623505"><ele>258.0</ele><time>2026-04-10T14:09:53.16Z</time></trkpt><trkpt lat="44.95109252406609" lon="9.3800756751689"><ele>258.0</ele><time>2026-04-10T14:09:54.147Z</time></trkpt><trkpt lat="44.95104783904698" lon="9.380308947423774"><ele>258.0</ele><time>2026-04-10T14:09:55.157Z</time></trkpt><trkpt lat="44.951006224603574" lon="9.380534800192276"><ele>258.0</ele><time>2026-04-10T14:09:56.152Z</time></trkpt><trkpt lat="44.950951718422196" lon="9.380754941960848"><ele>258.0</ele><time>2026-04-10T14:09:57.151Z</time></trkpt><trkpt lat="44.950915393879484" lon="9.380965571944333"><ele>258.0</ele><time>2026-04-10T14:09:58.15Z</time></trkpt><trkpt lat="44.9508741663115" lon="9.381166346708877"><ele>258.0</ele><time>2026-04-10T14:09:59.149Z</time></trkpt><trkpt lat="44.950832962148866" lon="9.381365447209348"><ele>258.0</ele><time>2026-04-10T14:10:00.159Z</time></trkpt><trkpt lat="44.95079359691463" lon="9.381561005662402"><ele>257.6666666666667</ele><time>2026-04-10T14:10:01.151Z</time></trkpt><trkpt lat="44.950754844292796" lon="9.381777032706113"><ele>257.33333333333337</ele><time>2026-04-10T14:10:02.149Z</time></trkpt><trkpt lat="44.95071052005052" lon="9.382021693806232"><ele>257.0</ele><time>2026-04-10T14:10:03.153Z</time></trkpt><trkpt lat="44.95066295700714" lon="9.382284826333771"><ele>255.0</ele><time>2026-04-10T14:10:04.147Z</time></trkpt><trkpt lat="44.950607355242376" lon="9.38257151217187"><ele>253.0</ele><time>2026-04-10T14:10:05.152Z</time></trkpt><trkpt lat="44.95055703582025" lon="9.382844344233352"><ele>251.0</ele><time>2026-04-10T14:10:06.157Z</time></trkpt><trkpt lat="44.95050613966006" lon="9.383110880757705"><ele>248.66666666666669</ele><time>2026-04-10T14:10:07.152Z</time></trkpt><trkpt lat="44.95045472351405" lon="9.383370974049171"><ele>246.33333333333331</ele><time>2026-04-10T14:10:08.149Z</time></trkpt><trkpt lat="44.9504073708846" lon="9.383626880763776"><ele>244.0</ele><time>2026-04-10T14:10:09.151Z</time></trkpt><trkpt lat="44.9503593805583" lon="9.383877791053134"><ele>241.66666666666666</ele><time>2026-04-10T14:10:10.152Z</time></trkpt><trkpt lat="44.95031280176536" lon="9.384124592005358"><ele>239.33333333333331</ele><time>2026-04-10T14:10:11.156Z</time></trkpt><trkpt lat="44.9502698431153" lon="9.3843684268255"><ele>237.0</ele><time>2026-04-10T14:10:12.156Z</time></trkpt><trkpt lat="44.95023171416622" lon="9.384605974334846"><ele>235.5</ele><time>2026-04-10T14:10:13.157Z</time></trkpt><trkpt lat="44.95020041957257" lon="9.384819718301697"><ele>234.0</ele><time>2026-04-10T14:10:14.15Z</time></trkpt><trkpt lat="44.95017081962196" lon="9.385010284506905"><ele>232.5</ele><time>2026-04-10T14:10:15.152Z</time></trkpt><trkpt lat="44.95014750343832" lon="9.385188167594306"><ele>231.0</ele><time>2026-04-10T14:10:16.151Z</time></trkpt><trkpt lat="44.950134799993926" lon="9.38536728566066"><ele>227.66666666666669</ele><time>2026-04-10T14:10:17.151Z</time></trkpt><trkpt lat="44.950138619087824" lon="9.385565835327048"><ele>224.33333333333334</ele><time>2026-04-10T14:10:18.151Z</time></trkpt><trkpt lat="44.95015665755592" lon="9.385790471320584"><ele>221.0</ele><time>2026-04-10T14:10:19.151Z</time></trkpt><trkpt lat="44.95015977529187" lon="9.38604355896595"><ele>221.0</ele><time>2026-04-10T14:10:20.149Z</time></trkpt><trkpt lat="44.95018967846742" lon="9.38630721731333"><ele>221.0</ele><time>2026-04-10T14:10:21.152Z</time></trkpt><trkpt lat="44.95022300545876" lon="9.386605629064256"><ele>221.0</ele><time>2026-04-10T14:10:22.149Z</time></trkpt><trkpt lat="44.95027408648676" lon="9.386921618992039"><ele>217.66666666666669</ele><time>2026-04-10T14:10:23.152Z</time></trkpt><trkpt lat="44.9503065332969" lon="9.387223835360768"><ele>214.33333333333331</ele><time>2026-04-10T14:10:24.155Z</time></trkpt><trkpt lat="44.950339862807766" lon="9.387513570717823"><ele>211.0</ele><time>2026-04-10T14:10:25.153Z</time></trkpt><trkpt lat="44.950380539094375" lon="9.387794309007148"><ele>209.66666666666666</ele><time>2026-04-10T14:10:26.158Z</time></trkpt><trkpt lat="44.95042322765073" lon="9.38806565291415"><ele>208.33333333333331</ele><time>2026-04-10T14:10:27.148Z</time></trkpt><trkpt lat="44.950472256019395" lon="9.388319425626582"><ele>207.0</ele><time>2026-04-10T14:10:28.154Z</time></trkpt><trkpt lat="44.950520993561646" lon="9.388555643321514"><ele>207.0</ele><time>2026-04-10T14:10:29.155Z</time></trkpt><trkpt lat="44.950572451413066" lon="9.38876835771632"><ele>207.0</ele><time>2026-04-10T14:10:30.148Z</time></trkpt><trkpt lat="44.950615134754145" lon="9.388979706605143"><ele>207.0</ele><time>2026-04-10T14:10:31.15Z</time></trkpt><trkpt lat="44.950637172514426" lon="9.389194068494083"><ele>205.66666666666669</ele><time>2026-04-10T14:10:32.155Z</time></trkpt><trkpt lat="44.95064689719269" lon="9.389437685650915"><ele>204.33333333333334</ele><time>2026-04-10T14:10:33.147Z</time></trkpt><trkpt lat="44.95065153402356" lon="9.389698862323451"><ele>203.0</ele><time>2026-04-10T14:10:34.151Z</time></trkpt><trkpt lat="44.95065665613304" lon="9.389953822317665"><ele>202.0</ele><time>2026-04-10T14:10:35.151Z</time></trkpt><trkpt lat="44.950660310061615" lon="9.390197093726167"><ele>201.0</ele><time>2026-04-10T14:10:36.15Z</time></trkpt><trkpt lat="44.95066358987766" lon="9.390435284895355"><ele>200.0</ele><time>2026-04-10T14:10:37.157Z</time></trkpt><trkpt lat="44.95066809854082" lon="9.390649108114426"><ele>199.6</ele><time>2026-04-10T14:10:38.148Z</time></trkpt><trkpt lat="44.9506736905544" lon="9.39083664149934"><ele>199.2</ele><time>2026-04-10T14:10:39.15Z</time></trkpt><trkpt lat="44.950677499118875" lon="9.390983706796488"><ele>198.8</ele><time>2026-04-10T14:10:40.158Z</time></trkpt><trkpt lat="44.95065899916554" lon="9.391082541663403"><ele>198.4</ele><time>2026-04-10T14:10:41.149Z</time></trkpt><trkpt lat="44.95064644103038" lon="9.391210321564897"><ele>198.0</ele><time>2026-04-10T14:10:43.146Z</time></trkpt><trkpt lat="44.950600100751444" lon="9.391300951635728"><ele>197.8</ele><time>2026-04-10T14:10:46.149Z</time></trkpt><trkpt lat="44.950531413887795" lon="9.391375338754008"><ele>197.60000000000002</ele><time>2026-04-10T14:10:48.149Z</time></trkpt><trkpt lat="44.950436069308836" lon="9.3914640970468"><ele>197.39999999999998</ele><time>2026-04-10T14:10:50.15Z</time></trkpt><trkpt lat="44.950377016321724" lon="9.39151676284537"><ele>197.2</ele><time>2026-04-10T14:10:51.149Z</time></trkpt><trkpt lat="44.95029495632087" lon="9.391588587957802"><ele>197.0</ele><time>2026-04-10T14:10:52.146Z</time></trkpt><trkpt lat="44.95019837646866" lon="9.391677166593043"><ele>197.0</ele><time>2026-04-10T14:10:53.15Z</time></trkpt><trkpt lat="44.95008231392324" lon="9.391757599003768"><ele>197.0</ele><time>2026-04-10T14:10:54.159Z</time></trkpt><trkpt lat="44.94999675776525" lon="9.391866278141974"><ele>197.0</ele><time>2026-04-10T14:10:55.152Z</time></trkpt><trkpt lat="44.949925268522115" lon="9.39198488226376"><ele>197.0</ele><time>2026-04-10T14:10:56.15Z</time></trkpt><trkpt lat="44.9498566017205" lon="9.392096011985785"><ele>196.5</ele><time>2026-04-10T14:10:57.152Z</time></trkpt><trkpt lat="44.949785904534124" lon="9.392202046780143"><ele>196.0</ele><time>2026-04-10T14:10:58.149Z</time></trkpt><trkpt lat="44.949702114734514" lon="9.392313803971472"><ele>195.5</ele><time>2026-04-10T14:10:59.147Z</time></trkpt><trkpt lat="44.949607193369374" lon="9.392418172721714"><ele>195.0</ele><time>2026-04-10T14:11:00.145Z</time></trkpt><trkpt lat="44.949509637541084" lon="9.392496542612609"><ele>195.0</ele><time>2026-04-10T14:11:01.148Z</time></trkpt><trkpt lat="44.94941259734697" lon="9.392539010491252"><ele>195.0</ele><time>2026-04-10T14:11:02.155Z</time></trkpt><trkpt lat="44.94931466931072" lon="9.392560633575117"><ele>195.0</ele><time>2026-04-10T14:11:03.146Z</time></trkpt><trkpt lat="44.949227302377366" lon="9.392558869088601"><ele>195.0</ele><time>2026-04-10T14:11:04.154Z</time></trkpt><trkpt lat="44.949150948095884" lon="9.392546058330106"><ele>195.0</ele><time>2026-04-10T14:11:05.148Z</time></trkpt><trkpt lat="44.94906201473923" lon="9.39254688575528"><ele>195.33333333333334</ele><time>2026-04-10T14:11:07.141Z</time></trkpt><trkpt lat="44.948970300281175" lon="9.392641017813405"><ele>195.66666666666669</ele><time>2026-04-10T14:11:09.147Z</time></trkpt><trkpt lat="44.94896264309373" lon="9.392731134188407"><ele>196.0</ele><time>2026-04-10T14:11:15.143Z</time></trkpt><trkpt lat="44.948983352091915" lon="9.392832493108681"><ele>196.33333333333334</ele><time>2026-04-10T14:11:31.141Z</time></trkpt><trkpt lat="44.94889979877449" lon="9.392789851004496"><ele>196.66666666666669</ele><time>2026-04-10T14:11:33.166Z</time></trkpt><trkpt lat="44.94883187988899" lon="9.392724310485207"><ele>197.0</ele><time>2026-04-10T14:11:34.154Z</time></trkpt><trkpt lat="44.948757490028584" lon="9.392649250591349"><ele>197.0</ele><time>2026-04-10T14:11:35.163Z</time></trkpt><trkpt lat="44.94867928147422" lon="9.392570713987586"><ele>197.0</ele><time>2026-04-10T14:11:36.156Z</time></trkpt><trkpt lat="44.948629916939396" lon="9.392459516561772"><ele>197.0</ele><time>2026-04-10T14:11:37.151Z</time></trkpt><trkpt lat="44.94855201442088" lon="9.392377759453613"><ele>197.0</ele><time>2026-04-10T14:11:38.164Z</time></trkpt><trkpt lat="44.94847152193377" lon="9.3922977566886"><ele>197.0</ele><time>2026-04-10T14:11:39.161Z</time></trkpt><trkpt lat="44.94838082537343" lon="9.392214307506286"><ele>197.39999999999998</ele><time>2026-04-10T14:11:40.16Z</time></trkpt><trkpt lat="44.948291323345885" lon="9.392133175805142"><ele>197.79999999999998</ele><time>2026-04-10T14:11:41.165Z</time></trkpt><trkpt lat="44.948203124159654" lon="9.392046200177209"><ele>198.2</ele><time>2026-04-10T14:11:42.161Z</time></trkpt><trkpt lat="44.948119136790375" lon="9.391941488699297"><ele>198.6</ele><time>2026-04-10T14:11:43.169Z</time></trkpt><trkpt lat="44.948033049307064" lon="9.391832430994274"><ele>199.0</ele><time>2026-04-10T14:11:44.161Z</time></trkpt><trkpt lat="44.947945772088495" lon="9.391732992369318"><ele>199.0</ele><time>2026-04-10T14:11:45.155Z</time></trkpt><trkpt lat="44.947865009714526" lon="9.391642892459757"><ele>199.0</ele><time>2026-04-10T14:11:46.176Z</time></trkpt><trkpt lat="44.94776318482597" lon="9.391553361190926"><ele>199.0</ele><time>2026-04-10T14:11:47.175Z</time></trkpt><trkpt lat="44.947654301400505" lon="9.391470985621497"><ele>199.0</ele><time>2026-04-10T14:11:48.17Z</time></trkpt><trkpt lat="44.94754722541173" lon="9.39138443370675"><ele>199.0</ele><time>2026-04-10T14:11:49.16Z</time></trkpt><trkpt lat="44.94744628822573" lon="9.39126290776022"><ele>199.0</ele><time>2026-04-10T14:11:50.175Z</time></trkpt><trkpt lat="44.94734477586238" lon="9.391156476401715"><ele>199.0</ele><time>2026-04-10T14:11:51.172Z</time></trkpt><trkpt lat="44.94725314290014" lon="9.391019586871447"><ele>199.0</ele><time>2026-04-10T14:11:52.167Z</time></trkpt><trkpt lat="44.947163638473555" lon="9.390875123955782"><ele>199.0</ele><time>2026-04-10T14:11:53.151Z</time></trkpt><trkpt lat="44.94707488516781" lon="9.390713795380199"><ele>199.0</ele><time>2026-04-10T14:11:54.153Z</time></trkpt><trkpt lat="44.946993664427616" lon="9.390558461611889"><ele>199.0</ele><time>2026-04-10T14:11:55.172Z</time></trkpt><trkpt lat="44.946911822366474" lon="9.390399396981095"><ele>199.0</ele><time>2026-04-10T14:11:56.178Z</time></trkpt><trkpt lat="44.94683029512742" lon="9.39024275114927"><ele>199.0</ele><time>2026-04-10T14:11:57.155Z</time></trkpt><trkpt lat="44.94674798427498" lon="9.39008280025065"><ele>199.0</ele><time>2026-04-10T14:11:58.167Z</time></trkpt><trkpt lat="44.94666607996426" lon="9.389912995015035"><ele>199.0</ele><time>2026-04-10T14:11:59.159Z</time></trkpt><trkpt lat="44.94657641722111" lon="9.38973021193279"><ele>199.0</ele><time>2026-04-10T14:12:00.197Z</time></trkpt><trkpt lat="44.946482735618204" lon="9.389540945091365"><ele>199.66666666666666</ele><time>2026-04-10T14:12:01.157Z</time></trkpt><trkpt lat="44.94638980511671" lon="9.389350133311662"><ele>200.33333333333331</ele><time>2026-04-10T14:12:02.173Z</time></trkpt><trkpt lat="44.9462955443857" lon="9.389156898652091"><ele>201.0</ele><time>2026-04-10T14:12:03.172Z</time></trkpt><trkpt lat="44.946196860829794" lon="9.388966126822012"><ele>201.66666666666669</ele><time>2026-04-10T14:12:04.157Z</time></trkpt><trkpt lat="44.94609948920961" lon="9.388768115300996"><ele>202.33333333333334</ele><time>2026-04-10T14:12:05.158Z</time></trkpt><trkpt lat="44.945995604814875" lon="9.388564575974945"><ele>203.0</ele><time>2026-04-10T14:12:06.175Z</time></trkpt><trkpt lat="44.945888114040805" lon="9.388351043788"><ele>201.66666666666669</ele><time>2026-04-10T14:12:07.162Z</time></trkpt><trkpt lat="44.94577540160345" lon="9.388114574778955"><ele>200.33333333333331</ele><time>2026-04-10T14:12:08.177Z</time></trkpt><trkpt lat="44.94565715709787" lon="9.387860967431294"><ele>199.0</ele><time>2026-04-10T14:12:09.147Z</time></trkpt><trkpt lat="44.94552901430566" lon="9.387590236935575"><ele>199.0</ele><time>2026-04-10T14:12:10.157Z</time></trkpt><trkpt lat="44.945400928285736" lon="9.387322413140252"><ele>199.0</ele><time>2026-04-10T14:12:11.175Z</time></trkpt><trkpt lat="44.94527065660699" lon="9.38704679719628"><ele>200.0</ele><time>2026-04-10T14:12:12.213Z</time></trkpt><trkpt lat="44.94513870630974" lon="9.386755557805513"><ele>201.0</ele><time>2026-04-10T14:12:13.173Z</time></trkpt><trkpt lat="44.94501314834775" lon="9.386463574057096"><ele>201.0</ele><time>2026-04-10T14:12:14.147Z</time></trkpt><trkpt lat="44.94490463461625" lon="9.386181010236886"><ele>201.0</ele><time>2026-04-10T14:12:15.171Z</time></trkpt><trkpt lat="44.944800175043504" lon="9.385904166713193"><ele>201.0</ele><time>2026-04-10T14:12:16.174Z</time></trkpt><trkpt lat="44.944695795316974" lon="9.385624072687229"><ele>201.0</ele><time>2026-04-10T14:12:17.166Z</time></trkpt><trkpt lat="44.94458774405277" lon="9.385346103824912"><ele>201.0</ele><time>2026-04-10T14:12:18.146Z</time></trkpt><trkpt lat="44.94448804261213" lon="9.385084618369207"><ele>202.0</ele><time>2026-04-10T14:12:19.152Z</time></trkpt><trkpt lat="44.944390053256434" lon="9.384837589658323"><ele>203.0</ele><time>2026-04-10T14:12:20.189Z</time></trkpt><trkpt lat="44.944292303863556" lon="9.38458658734816"><ele>204.0</ele><time>2026-04-10T14:12:21.176Z</time></trkpt><trkpt lat="44.94419380126021" lon="9.384338617364278"><ele>205.0</ele><time>2026-04-10T14:12:22.154Z</time></trkpt><trkpt lat="44.944104254802646" lon="9.384104379852786"><ele>206.0</ele><time>2026-04-10T14:12:23.158Z</time></trkpt><trkpt lat="44.94401353046635" lon="9.383867226945803"><ele>207.0</ele><time>2026-04-10T14:12:24.174Z</time></trkpt><trkpt lat="44.94392320240002" lon="9.383618757188971"><ele>208.33333333333331</ele><time>2026-04-10T14:12:25.173Z</time></trkpt><trkpt lat="44.943829570561405" lon="9.383365282267734"><ele>209.66666666666666</ele><time>2026-04-10T14:12:26.173Z</time></trkpt><trkpt lat="44.943737584838495" lon="9.38310510251698"><ele>211.0</ele><time>2026-04-10T14:12:27.164Z</time></trkpt><trkpt lat="44.94363765171191" lon="9.382846243016788"><ele>212.33333333333331</ele><time>2026-04-10T14:12:28.165Z</time></trkpt><trkpt lat="44.9435366107307" lon="9.382586880024549"><ele>213.66666666666669</ele><time>2026-04-10T14:12:29.175Z</time></trkpt><trkpt lat="44.94344546866749" lon="9.382335202896288"><ele>215.0</ele><time>2026-04-10T14:12:30.16Z</time></trkpt><trkpt lat="44.94335945710041" lon="9.382101797588234"><ele>215.0</ele><time>2026-04-10T14:12:31.151Z</time></trkpt><trkpt lat="44.94327456869273" lon="9.381871907205744"><ele>215.0</ele><time>2026-04-10T14:12:32.172Z</time></trkpt><trkpt lat="44.9431886960871" lon="9.381639307132525"><ele>215.0</ele><time>2026-04-10T14:12:33.182Z</time></trkpt><trkpt lat="44.94310345494426" lon="9.381387477449449"><ele>216.66666666666669</ele><time>2026-04-10T14:12:34.174Z</time></trkpt><trkpt lat="44.94302961227704" lon="9.38112262606241"><ele>218.33333333333331</ele><time>2026-04-10T14:12:35.161Z</time></trkpt><trkpt lat="44.942977726099166" lon="9.380842882029489"><ele>220.0</ele><time>2026-04-10T14:12:36.157Z</time></trkpt><trkpt lat="44.942928508542465" lon="9.380562763828431"><ele>220.66666666666666</ele><time>2026-04-10T14:12:37.154Z</time></trkpt><trkpt lat="44.94288198831195" lon="9.38028561503682"><ele>221.33333333333331</ele><time>2026-04-10T14:12:38.177Z</time></trkpt><trkpt lat="44.94284141028064" lon="9.380028444108508"><ele>222.0</ele><time>2026-04-10T14:12:39.179Z</time></trkpt><trkpt lat="44.94280017419965" lon="9.37978867620983"><ele>223.0</ele><time>2026-04-10T14:12:40.154Z</time></trkpt><trkpt lat="44.9427437543967" lon="9.379547758131643"><ele>224.0</ele><time>2026-04-10T14:12:41.154Z</time></trkpt><trkpt lat="44.94265413500289" lon="9.37931539750343"><ele>225.0</ele><time>2026-04-10T14:12:42.169Z</time></trkpt><trkpt lat="44.9425326638331" lon="9.37909103295362"><ele>225.0</ele><time>2026-04-10T14:12:43.176Z</time></trkpt><trkpt lat="44.94239408279685" lon="9.37887096066625"><ele>225.0</ele><time>2026-04-10T14:12:44.148Z</time></trkpt><trkpt lat="44.94224989438637" lon="9.378651066357584"><ele>225.0</ele><time>2026-04-10T14:12:45.171Z</time></trkpt><trkpt lat="44.94211317771282" lon="9.378451917947338"><ele>225.0</ele><time>2026-04-10T14:12:46.173Z</time></trkpt><trkpt lat="44.94199529744503" lon="9.37825161621246"><ele>225.0</ele><time>2026-04-10T14:12:47.171Z</time></trkpt><trkpt lat="44.94184717504437" lon="9.378080907575944"><ele>225.0</ele><time>2026-04-10T14:12:48.154Z</time></trkpt><trkpt lat="44.941677880766015" lon="9.377938167210282"><ele>225.0</ele><time>2026-04-10T14:12:49.154Z</time></trkpt><trkpt lat="44.94149331944558" lon="9.377820557509931"><ele>225.0</ele><time>2026-04-10T14:12:50.181Z</time></trkpt><trkpt lat="44.941302989461356" lon="9.377705601598318"><ele>225.0</ele><time>2026-04-10T14:12:51.17Z</time></trkpt><trkpt lat="44.94111689353751" lon="9.37759587123538"><ele>225.0</ele><time>2026-04-10T14:12:52.176Z</time></trkpt><trkpt lat="44.94095047206212" lon="9.37748628504274"><ele>225.0</ele><time>2026-04-10T14:12:53.152Z</time></trkpt><trkpt lat="44.940797462676954" lon="9.37737557544986"><ele>225.0</ele><time>2026-04-10T14:12:54.154Z</time></trkpt><trkpt lat="44.94064442825137" lon="9.377261804405288"><ele>227.0</ele><time>2026-04-10T14:12:55.172Z</time></trkpt><trkpt lat="44.94049613873989" lon="9.377131853152896"><ele>229.0</ele><time>2026-04-10T14:12:56.182Z</time></trkpt><trkpt lat="44.94034549588821" lon="9.376991093877418"><ele>231.0</ele><time>2026-04-10T14:12:57.148Z</time></trkpt><trkpt lat="44.94019440507999" lon="9.376829056666663"><ele>231.33333333333331</ele><time>2026-04-10T14:12:58.157Z</time></trkpt><trkpt lat="44.94004182801228" lon="9.376649798590982"><ele>231.66666666666666</ele><time>2026-04-10T14:12:59.179Z</time></trkpt><trkpt lat="44.93989384609532" lon="9.376460210025035"><ele>232.0</ele><time>2026-04-10T14:13:00.174Z</time></trkpt><trkpt lat="44.93975158351729" lon="9.376282034220038"><ele>232.0</ele><time>2026-04-10T14:13:01.143Z</time></trkpt><trkpt lat="44.939621679840876" lon="9.376120615940978"><ele>232.0</ele><time>2026-04-10T14:13:02.153Z</time></trkpt><trkpt lat="44.9394939736748" lon="9.375979907495166"><ele>232.0</ele><time>2026-04-10T14:13:03.178Z</time></trkpt><trkpt lat="44.93936126263348" lon="9.37586800431416"><ele>231.33333333333331</ele><time>2026-04-10T14:13:04.173Z</time></trkpt><trkpt lat="44.939205698092195" lon="9.375781205322381"><ele>230.66666666666669</ele><time>2026-04-10T14:13:05.15Z</time></trkpt><trkpt lat="44.93903759762228" lon="9.375713257359266"><ele>230.0</ele><time>2026-04-10T14:13:06.17Z</time></trkpt><trkpt lat="44.938864649729084" lon="9.375678015121027"><ele>230.0</ele><time>2026-04-10T14:13:07.161Z</time></trkpt><trkpt lat="44.93868838126651" lon="9.375672333106355"><ele>230.0</ele><time>2026-04-10T14:13:08.151Z</time></trkpt><trkpt lat="44.938508836380315" lon="9.375702173878311"><ele>230.0</ele><time>2026-04-10T14:13:09.149Z</time></trkpt><trkpt lat="44.93833045995809" lon="9.375745553231022"><ele>231.66666666666669</ele><time>2026-04-10T14:13:10.162Z</time></trkpt><trkpt lat="44.93815197548491" lon="9.375782552491925"><ele>233.33333333333331</ele><time>2026-04-10T14:13:11.152Z</time></trkpt><trkpt lat="44.93797189174527" lon="9.375782434529034"><ele>235.0</ele><time>2026-04-10T14:13:12.15Z</time></trkpt><trkpt lat="44.93778892676278" lon="9.375745586232489"><ele>235.0</ele><time>2026-04-10T14:13:13.155Z</time></trkpt><trkpt lat="44.937616777784854" lon="9.375663559715425"><ele>235.0</ele><time>2026-04-10T14:13:14.175Z</time></trkpt><trkpt lat="44.93744617674767" lon="9.375590467892238"><ele>235.0</ele><time>2026-04-10T14:13:15.155Z</time></trkpt><trkpt lat="44.93728138657772" lon="9.375465962724412"><ele>237.66666666666666</ele><time>2026-04-10T14:13:16.155Z</time></trkpt><trkpt lat="44.937112172225" lon="9.375318559903443"><ele>240.33333333333331</ele><time>2026-04-10T14:13:17.169Z</time></trkpt><trkpt lat="44.93693987335435" lon="9.375158656857227"><ele>243.0</ele><time>2026-04-10T14:13:18.182Z</time></trkpt><trkpt lat="44.93677986842491" lon="9.374989196910931"><ele>244.0</ele><time>2026-04-10T14:13:19.152Z</time></trkpt><trkpt lat="44.93661547613719" lon="9.374841615416049"><ele>245.0</ele><time>2026-04-10T14:13:20.146Z</time></trkpt><trkpt lat="44.93646010151845" lon="9.374702129399978"><ele>246.0</ele><time>2026-04-10T14:13:21.175Z</time></trkpt><trkpt lat="44.93630382279809" lon="9.37458623315907"><ele>246.0</ele><time>2026-04-10T14:13:22.173Z</time></trkpt><trkpt lat="44.93617225550532" lon="9.374426238015605"><ele>246.0</ele><time>2026-04-10T14:13:23.177Z</time></trkpt><trkpt lat="44.93608256436161" lon="9.37423234611716"><ele>246.0</ele><time>2026-04-10T14:13:24.154Z</time></trkpt><trkpt lat="44.93597600702509" lon="9.374067785376495"><ele>246.33333333333331</ele><time>2026-04-10T14:13:25.149Z</time></trkpt><trkpt lat="44.935874998534445" lon="9.373905431047572"><ele>246.66666666666666</ele><time>2026-04-10T14:13:26.151Z</time></trkpt><trkpt lat="44.93575282112435" lon="9.37378268066054"><ele>247.0</ele><time>2026-04-10T14:13:27.165Z</time></trkpt><trkpt lat="44.93561708541256" lon="9.373695415746349"><ele>247.0</ele><time>2026-04-10T14:13:28.149Z</time></trkpt><trkpt lat="44.93547276164355" lon="9.373668135502943"><ele>247.0</ele><time>2026-04-10T14:13:29.149Z</time></trkpt><trkpt lat="44.935317805960395" lon="9.373667936727093"><ele>247.0</ele><time>2026-04-10T14:13:30.149Z</time></trkpt><trkpt lat="44.93516313531269" lon="9.373692474542842"><ele>246.33333333333331</ele><time>2026-04-10T14:13:31.177Z</time></trkpt><trkpt lat="44.93500604325323" lon="9.373709411618938"><ele>245.66666666666669</ele><time>2026-04-10T14:13:32.152Z</time></trkpt><trkpt lat="44.93484093659404" lon="9.37370933512766"><ele>245.0</ele><time>2026-04-10T14:13:33.154Z</time></trkpt><trkpt lat="44.93467080813186" lon="9.373669279162852"><ele>245.0</ele><time>2026-04-10T14:13:34.171Z</time></trkpt><trkpt lat="44.93450930458654" lon="9.37357928224066"><ele>245.0</ele><time>2026-04-10T14:13:35.181Z</time></trkpt><trkpt lat="44.934360039265556" lon="9.3734367695523"><ele>245.0</ele><time>2026-04-10T14:13:36.148Z</time></trkpt><trkpt lat="44.9342081347607" lon="9.373288774478556"><ele>244.33333333333334</ele><time>2026-04-10T14:13:37.153Z</time></trkpt><trkpt lat="44.934054387481" lon="9.373133802212685"><ele>243.66666666666669</ele><time>2026-04-10T14:13:38.149Z</time></trkpt><trkpt lat="44.93390019150487" lon="9.372970538548609"><ele>243.0</ele><time>2026-04-10T14:13:39.172Z</time></trkpt><trkpt lat="44.93375478355435" lon="9.372823447786073"><ele>243.0</ele><time>2026-04-10T14:13:40.148Z</time></trkpt><trkpt lat="44.93361935466209" lon="9.372685925753553"><ele>243.0</ele><time>2026-04-10T14:13:41.149Z</time></trkpt><trkpt lat="44.93349342936806" lon="9.372556336006815"><ele>243.0</ele><time>2026-04-10T14:13:42.169Z</time></trkpt><trkpt lat="44.933371689200406" lon="9.372454652479705"><ele>242.5</ele><time>2026-04-10T14:13:43.173Z</time></trkpt><trkpt lat="44.93325218788041" lon="9.372362123923283"><ele>242.0</ele><time>2026-04-10T14:13:44.149Z</time></trkpt><trkpt lat="44.93310181897893" lon="9.372368929187303"><ele>241.5</ele><time>2026-04-10T14:13:45.153Z</time></trkpt><trkpt lat="44.932948136998405" lon="9.37236902879642"><ele>241.0</ele><time>2026-04-10T14:13:46.151Z</time></trkpt><trkpt lat="44.93278126959705" lon="9.37238050946764"><ele>241.0</ele><time>2026-04-10T14:13:47.166Z</time></trkpt><trkpt lat="44.93260953306409" lon="9.3723864144128"><ele>241.0</ele><time>2026-04-10T14:13:48.158Z</time></trkpt><trkpt lat="44.93244051593992" lon="9.372387292133768"><ele>241.0</ele><time>2026-04-10T14:13:49.159Z</time></trkpt><trkpt lat="44.93227377371394" lon="9.372393591100257"><ele>241.0</ele><time>2026-04-10T14:13:50.157Z</time></trkpt><trkpt lat="44.93211983129127" lon="9.37239747281951"><ele>241.0</ele><time>2026-04-10T14:13:51.168Z</time></trkpt><trkpt lat="44.93197545014396" lon="9.372384210367036"><ele>241.0</ele><time>2026-04-10T14:13:52.153Z</time></trkpt><trkpt lat="44.93183713439265" lon="9.372335604655454"><ele>241.0</ele><time>2026-04-10T14:13:53.149Z</time></trkpt><trkpt lat="44.93169703297679" lon="9.372251893506153"><ele>243.0</ele><time>2026-04-10T14:13:54.17Z</time></trkpt><trkpt lat="44.93155698377197" lon="9.372137037643027"><ele>245.0</ele><time>2026-04-10T14:13:55.146Z</time></trkpt><trkpt lat="44.93142771758097" lon="9.37197882401434"><ele>247.0</ele><time>2026-04-10T14:13:56.148Z</time></trkpt><trkpt lat="44.9313247860244" lon="9.37182136969461"><ele>247.0</ele><time>2026-04-10T14:13:57.158Z</time></trkpt><trkpt lat="44.93121211450126" lon="9.371695727584871"><ele>247.0</ele><time>2026-04-10T14:13:58.17Z</time></trkpt><trkpt lat="44.93108289414918" lon="9.371605081809273"><ele>247.0</ele><time>2026-04-10T14:13:59.154Z</time></trkpt><trkpt lat="44.93093734397207" lon="9.371555560663726"><ele>247.0</ele><time>2026-04-10T14:14:00.156Z</time></trkpt><trkpt lat="44.93078059648616" lon="9.371559457219202"><ele>247.0</ele><time>2026-04-10T14:14:01.152Z</time></trkpt><trkpt lat="44.930619997529945" lon="9.371575384784137"><ele>247.0</ele><time>2026-04-10T14:14:02.164Z</time></trkpt><trkpt lat="44.930455587225495" lon="9.371563718290012"><ele>247.0</ele><time>2026-04-10T14:14:03.163Z</time></trkpt><trkpt lat="44.930290815134036" lon="9.371523761035217"><ele>247.0</ele><time>2026-04-10T14:14:04.169Z</time></trkpt><trkpt lat="44.930129442827166" lon="9.371440810276912"><ele>247.0</ele><time>2026-04-10T14:14:05.158Z</time></trkpt><trkpt lat="44.92996943646644" lon="9.371325790911527"><ele>247.0</ele><time>2026-04-10T14:14:06.153Z</time></trkpt><trkpt lat="44.92980477046919" lon="9.37121980998333"><ele>248.66666666666666</ele><time>2026-04-10T14:14:07.157Z</time></trkpt><trkpt lat="44.92963452063027" lon="9.371146684971343"><ele>250.33333333333331</ele><time>2026-04-10T14:14:08.148Z</time></trkpt><trkpt lat="44.92946381113537" lon="9.371132046781463"><ele>252.0</ele><time>2026-04-10T14:14:09.153Z</time></trkpt><trkpt lat="44.929292871805536" lon="9.371149324601229"><ele>251.0</ele><time>2026-04-10T14:14:10.152Z</time></trkpt><trkpt lat="44.929117816666675" lon="9.371164873591782"><ele>250.0</ele><time>2026-04-10T14:14:11.173Z</time></trkpt><trkpt lat="44.92893411755121" lon="9.371150946794666"><ele>249.0</ele><time>2026-04-10T14:14:12.155Z</time></trkpt><trkpt lat="44.92874435268505" lon="9.371123756492924"><ele>249.0</ele><time>2026-04-10T14:14:13.163Z</time></trkpt><trkpt lat="44.92854648360277" lon="9.371089154803581"><ele>249.0</ele><time>2026-04-10T14:14:14.156Z</time></trkpt><trkpt lat="44.92835429251448" lon="9.371018476908246"><ele>249.0</ele><time>2026-04-10T14:14:15.176Z</time></trkpt><trkpt lat="44.92814960853404" lon="9.370988541249822"><ele>248.66666666666669</ele><time>2026-04-10T14:14:16.151Z</time></trkpt><trkpt lat="44.92794977994795" lon="9.37093505972006"><ele>248.33333333333334</ele><time>2026-04-10T14:14:17.163Z</time></trkpt><trkpt lat="44.927744636500805" lon="9.370888639644043"><ele>248.0</ele><time>2026-04-10T14:14:18.155Z</time></trkpt><trkpt lat="44.927535327784064" lon="9.370844486302985"><ele>247.33333333333334</ele><time>2026-04-10T14:14:19.162Z</time></trkpt><trkpt lat="44.92734265932086" lon="9.370777829800675"><ele>246.66666666666669</ele><time>2026-04-10T14:14:20.155Z</time></trkpt><trkpt lat="44.92715391183309" lon="9.370747801718608"><ele>246.0</ele><time>2026-04-10T14:14:21.15Z</time></trkpt><trkpt lat="44.926968286198175" lon="9.370755930781245"><ele>246.0</ele><time>2026-04-10T14:14:22.159Z</time></trkpt><trkpt lat="44.926780772033894" lon="9.370746923003352"><ele>246.0</ele><time>2026-04-10T14:14:23.157Z</time></trkpt><trkpt lat="44.92658829333637" lon="9.370749931804143"><ele>246.0</ele><time>2026-04-10T14:14:24.152Z</time></trkpt><trkpt lat="44.9264008097375" lon="9.37073514724704"><ele>245.66666666666669</ele><time>2026-04-10T14:14:25.156Z</time></trkpt><trkpt lat="44.92622532584036" lon="9.370738328886354"><ele>245.33333333333334</ele><time>2026-04-10T14:14:26.159Z</time></trkpt><trkpt lat="44.92605664298345" lon="9.370750079679022"><ele>245.0</ele><time>2026-04-10T14:14:27.153Z</time></trkpt><trkpt lat="44.9259001614151" lon="9.370769563365815"><ele>246.0</ele><time>2026-04-10T14:14:28.167Z</time></trkpt><trkpt lat="44.92574508434477" lon="9.370789954875413"><ele>247.0</ele><time>2026-04-10T14:14:29.154Z</time></trkpt><trkpt lat="44.925596781708265" lon="9.370817010718618"><ele>248.0</ele><time>2026-04-10T14:14:30.156Z</time></trkpt><trkpt lat="44.92544409724285" lon="9.370792624158135"><ele>248.0</ele><time>2026-04-10T14:14:31.159Z</time></trkpt><trkpt lat="44.92530842235827" lon="9.370737588265602"><ele>248.0</ele><time>2026-04-10T14:14:32.156Z</time></trkpt><trkpt lat="44.92517404746017" lon="9.370638558234527"><ele>248.0</ele><time>2026-04-10T14:14:33.161Z</time></trkpt><trkpt lat="44.92504852941004" lon="9.370497938111251"><ele>248.66666666666669</ele><time>2026-04-10T14:14:34.155Z</time></trkpt><trkpt lat="44.924919594793074" lon="9.370310772398348"><ele>249.33333333333331</ele><time>2026-04-10T14:14:35.155Z</time></trkpt><trkpt lat="44.92479159376607" lon="9.370110868907073"><ele>250.0</ele><time>2026-04-10T14:14:36.164Z</time></trkpt><trkpt lat="44.924671845520926" lon="9.369890645389578"><ele>253.33333333333331</ele><time>2026-04-10T14:14:37.15Z</time></trkpt><trkpt lat="44.92457009175403" lon="9.369656765380212"><ele>256.6666666666667</ele><time>2026-04-10T14:14:38.155Z</time></trkpt><trkpt lat="44.92448740025434" lon="9.369409982164022"><ele>260.0</ele><time>2026-04-10T14:14:39.154Z</time></trkpt><trkpt lat="44.92441603246146" lon="9.369150935559922"><ele>260.0</ele><time>2026-04-10T14:14:40.155Z</time></trkpt><trkpt lat="44.924361203513584" lon="9.368875369299188"><ele>260.0</ele><time>2026-04-10T14:14:41.148Z</time></trkpt><trkpt lat="44.924327204448474" lon="9.36858994617149"><ele>260.0</ele><time>2026-04-10T14:14:42.155Z</time></trkpt><trkpt lat="44.924289261632936" lon="9.368300550651004"><ele>261.33333333333337</ele><time>2026-04-10T14:14:43.161Z</time></trkpt><trkpt lat="44.92425024845349" lon="9.368003293299388"><ele>262.6666666666667</ele><time>2026-04-10T14:14:44.154Z</time></trkpt><trkpt lat="44.924212553128804" lon="9.367699409861928"><ele>264.0</ele><time>2026-04-10T14:14:45.151Z</time></trkpt><trkpt lat="44.924158466241835" lon="9.367396506678457"><ele>260.0</ele><time>2026-04-10T14:14:46.163Z</time></trkpt><trkpt lat="44.924088258352064" lon="9.367097128348563"><ele>256.0</ele><time>2026-04-10T14:14:47.149Z</time></trkpt><trkpt lat="44.9240149653311" lon="9.366807997024509"><ele>252.0</ele><time>2026-04-10T14:14:48.154Z</time></trkpt><trkpt lat="44.92393887682964" lon="9.36653156967346"><ele>252.66666666666669</ele><time>2026-04-10T14:14:49.161Z</time></trkpt><trkpt lat="44.92386289209905" lon="9.366260332228507"><ele>253.33333333333334</ele><time>2026-04-10T14:14:50.153Z</time></trkpt><trkpt lat="44.923790455056036" lon="9.365985987367921"><ele>254.0</ele><time>2026-04-10T14:14:51.153Z</time></trkpt><trkpt lat="44.923711496345106" lon="9.365716985904289"><ele>256.0</ele><time>2026-04-10T14:14:52.151Z</time></trkpt><trkpt lat="44.923626145716405" lon="9.365452273079994"><ele>258.0</ele><time>2026-04-10T14:14:53.155Z</time></trkpt><trkpt lat="44.92351597241513" lon="9.365209254487933"><ele>260.0</ele><time>2026-04-10T14:14:54.156Z</time></trkpt><trkpt lat="44.923389866754306" lon="9.36497260788357"><ele>256.33333333333337</ele><time>2026-04-10T14:14:55.153Z</time></trkpt><trkpt lat="44.92325433603399" lon="9.364741180945051"><ele>252.66666666666669</ele><time>2026-04-10T14:14:56.157Z</time></trkpt><trkpt lat="44.92312807517797" lon="9.364522723032241"><ele>249.0</ele><time>2026-04-10T14:14:57.15Z</time></trkpt><trkpt lat="44.92300574403362" lon="9.36431512714444"><ele>249.0</ele><time>2026-04-10T14:14:58.162Z</time></trkpt><trkpt lat="44.92289021698943" lon="9.364130128763763"><ele>249.0</ele><time>2026-04-10T14:14:59.159Z</time></trkpt><trkpt lat="44.92276699123207" lon="9.363968189267187"><ele>249.0</ele><time>2026-04-10T14:15:00.155Z</time></trkpt><trkpt lat="44.92262246279332" lon="9.36383419755795"><ele>248.33333333333331</ele><time>2026-04-10T14:15:01.153Z</time></trkpt><trkpt lat="44.922462801211275" lon="9.363718317171141"><ele>247.66666666666666</ele><time>2026-04-10T14:15:02.16Z</time></trkpt><trkpt lat="44.92230201867037" lon="9.363628875153479"><ele>247.0</ele><time>2026-04-10T14:15:03.147Z</time></trkpt><trkpt lat="44.9221509106949" lon="9.363557748770196"><ele>247.0</ele><time>2026-04-10T14:15:04.151Z</time></trkpt><trkpt lat="44.92200699094516" lon="9.36349961161635"><ele>247.0</ele><time>2026-04-10T14:15:05.155Z</time></trkpt><trkpt lat="44.921876629481474" lon="9.363425817353349"><ele>247.0</ele><time>2026-04-10T14:15:06.154Z</time></trkpt><trkpt lat="44.9217607982444" lon="9.36334383145104"><ele>247.0</ele><time>2026-04-10T14:15:07.158Z</time></trkpt><trkpt lat="44.92164744072238" lon="9.363258605280715"><ele>246.75</ele><time>2026-04-10T14:15:08.154Z</time></trkpt><trkpt lat="44.92154042291852" lon="9.363161279127825"><ele>246.5</ele><time>2026-04-10T14:15:09.152Z</time></trkpt><trkpt lat="44.921438396740214" lon="9.363056608950592"><ele>246.25</ele><time>2026-04-10T14:15:10.154Z</time></trkpt><trkpt lat="44.92134399773656" lon="9.362938554277784"><ele>246.0</ele><time>2026-04-10T14:15:11.156Z</time></trkpt><trkpt lat="44.92126268758508" lon="9.36281598235625"><ele>247.4</ele><time>2026-04-10T14:15:12.155Z</time></trkpt><trkpt lat="44.92119068058337" lon="9.362700559148045"><ele>248.8</ele><time>2026-04-10T14:15:13.156Z</time></trkpt><trkpt lat="44.92113237753884" lon="9.362599118078794"><ele>250.20000000000002</ele><time>2026-04-10T14:15:14.158Z</time></trkpt><trkpt lat="44.9210911084136" lon="9.362507698429644"><ele>251.60000000000002</ele><time>2026-04-10T14:15:15.152Z</time></trkpt><trkpt lat="44.921053033956504" lon="9.3624244406168"><ele>253.0</ele><time>2026-04-10T14:15:16.15Z</time></trkpt><trkpt lat="44.920968702077985" lon="9.362271771712903"><ele>254.75</ele><time>2026-04-10T14:15:18.156Z</time></trkpt><trkpt lat="44.92090709614267" lon="9.362163291500183"><ele>256.5</ele><time>2026-04-10T14:15:19.149Z</time></trkpt><trkpt lat="44.92083938803025" lon="9.362023841587119"><ele>258.25</ele><time>2026-04-10T14:15:20.15Z</time></trkpt><trkpt lat="44.92076577568244" lon="9.361847398423597"><ele>260.0</ele><time>2026-04-10T14:15:21.152Z</time></trkpt><trkpt lat="44.920689543522016" lon="9.361647749749693"><ele>257.6666666666667</ele><time>2026-04-10T14:15:22.152Z</time></trkpt><trkpt lat="44.92062253403567" lon="9.361428052446083"><ele>255.33333333333331</ele><time>2026-04-10T14:15:23.151Z</time></trkpt><trkpt lat="44.92051788444645" lon="9.36120114862415"><ele>253.0</ele><time>2026-04-10T14:15:24.157Z</time></trkpt><trkpt lat="44.920378071720194" lon="9.361001307812394"><ele>253.0</ele><time>2026-04-10T14:15:25.15Z</time></trkpt><trkpt lat="44.920219297645154" lon="9.3607950245082"><ele>253.0</ele><time>2026-04-10T14:15:26.15Z</time></trkpt><trkpt lat="44.92004605569166" lon="9.36057521604302"><ele>253.0</ele><time>2026-04-10T14:15:27.152Z</time></trkpt><trkpt lat="44.919893488712155" lon="9.360374133085855"><ele>254.0</ele><time>2026-04-10T14:15:28.149Z</time></trkpt><trkpt lat="44.91976488255097" lon="9.360175076294222"><ele>255.0</ele><time>2026-04-10T14:15:29.151Z</time></trkpt><trkpt lat="44.919665387115444" lon="9.359964299479536"><ele>256.0</ele><time>2026-04-10T14:15:30.161Z</time></trkpt><trkpt lat="44.91959531873223" lon="9.359735733776535"><ele>258.66666666666663</ele><time>2026-04-10T14:15:31.152Z</time></trkpt><trkpt lat="44.919543678027836" lon="9.359488834190836"><ele>261.3333333333333</ele><time>2026-04-10T14:15:32.152Z</time></trkpt><trkpt lat="44.919506390836226" lon="9.359220812782663"><ele>264.0</ele><time>2026-04-10T14:15:33.152Z</time></trkpt><trkpt lat="44.91946222032064" lon="9.358938598775007"><ele>265.3333333333333</ele><time>2026-04-10T14:15:34.145Z</time></trkpt><trkpt lat="44.919423018144435" lon="9.35865646286859"><ele>266.66666666666663</ele><time>2026-04-10T14:15:35.156Z</time></trkpt><trkpt lat="44.9193451060943" lon="9.35837734932222"><ele>268.0</ele><time>2026-04-10T14:15:36.165Z</time></trkpt><trkpt lat="44.919238101792594" lon="9.358110452891268"><ele>263.66666666666663</ele><time>2026-04-10T14:15:37.15Z</time></trkpt><trkpt lat="44.91915109687492" lon="9.357829465804565"><ele>259.3333333333333</ele><time>2026-04-10T14:15:38.15Z</time></trkpt><trkpt lat="44.919090888591846" lon="9.357518223042568"><ele>255.0</ele><time>2026-04-10T14:15:39.149Z</time></trkpt><trkpt lat="44.91902393634422" lon="9.357224816641121"><ele>255.33333333333331</ele><time>2026-04-10T14:15:40.15Z</time></trkpt><trkpt lat="44.918961334108744" lon="9.356944986244509"><ele>255.66666666666666</ele><time>2026-04-10T14:15:41.149Z</time></trkpt><trkpt lat="44.91889808947241" lon="9.356658005359419"><ele>256.0</ele><time>2026-04-10T14:15:42.152Z</time></trkpt><trkpt lat="44.91883599012027" lon="9.356373474451503"><ele>256.3333333333333</ele><time>2026-04-10T14:15:43.151Z</time></trkpt><trkpt lat="44.91878791935625" lon="9.356096237571187"><ele>256.6666666666667</ele><time>2026-04-10T14:15:44.149Z</time></trkpt><trkpt lat="44.91876193009226" lon="9.355813504534561"><ele>257.0</ele><time>2026-04-10T14:15:45.149Z</time></trkpt><trkpt lat="44.91873349206234" lon="9.355530046582047"><ele>259.6666666666667</ele><time>2026-04-10T14:15:46.149Z</time></trkpt><trkpt lat="44.91869858489601" lon="9.355253314353535"><ele>262.3333333333333</ele><time>2026-04-10T14:15:47.146Z</time></trkpt><trkpt lat="44.91866344570389" lon="9.355000259580121"><ele>265.0</ele><time>2026-04-10T14:15:48.15Z</time></trkpt><trkpt lat="44.91862498175438" lon="9.354757536032608"><ele>268.66666666666663</ele><time>2026-04-10T14:15:49.152Z</time></trkpt><trkpt lat="44.9185768823338" lon="9.354523701286404"><ele>272.3333333333333</ele><time>2026-04-10T14:15:50.155Z</time></trkpt><trkpt lat="44.918509730962995" lon="9.35430103681296"><ele>276.0</ele><time>2026-04-10T14:15:51.156Z</time></trkpt><trkpt lat="44.91841083380866" lon="9.354089219957576"><ele>272.0</ele><time>2026-04-10T14:15:52.149Z</time></trkpt><trkpt lat="44.91830697569856" lon="9.353898636832776"><ele>268.0</ele><time>2026-04-10T14:15:53.147Z</time></trkpt><trkpt lat="44.91821430118351" lon="9.353728432624074"><ele>264.0</ele><time>2026-04-10T14:15:54.152Z</time></trkpt><trkpt lat="44.91810933491719" lon="9.353553484884891"><ele>264.0</ele><time>2026-04-10T14:15:55.156Z</time></trkpt><trkpt lat="44.918019650868544" lon="9.35333962854537"><ele>264.0</ele><time>2026-04-10T14:15:56.15Z</time></trkpt><trkpt lat="44.91793524269802" lon="9.353099846756125"><ele>264.0</ele><time>2026-04-10T14:15:57.152Z</time></trkpt><trkpt lat="44.91784916649083" lon="9.352844546625565"><ele>265.3333333333333</ele><time>2026-04-10T14:15:58.151Z</time></trkpt><trkpt lat="44.91776465608974" lon="9.352605912380826"><ele>266.66666666666663</ele><time>2026-04-10T14:15:59.151Z</time></trkpt><trkpt lat="44.91768789371388" lon="9.352385542355037"><ele>268.0</ele><time>2026-04-10T14:16:00.161Z</time></trkpt><trkpt lat="44.91762128790787" lon="9.352176635929116"><ele>270.3333333333333</ele><time>2026-04-10T14:16:01.155Z</time></trkpt><trkpt lat="44.91758464343573" lon="9.351975625600387"><ele>272.6666666666667</ele><time>2026-04-10T14:16:02.148Z</time></trkpt><trkpt lat="44.91757572399607" lon="9.35175384661923"><ele>275.0</ele><time>2026-04-10T14:16:03.151Z</time></trkpt><trkpt lat="44.917592904275494" lon="9.351510161596417"><ele>276.6666666666667</ele><time>2026-04-10T14:16:04.149Z</time></trkpt><trkpt lat="44.91761846245808" lon="9.35123939778424"><ele>278.3333333333333</ele><time>2026-04-10T14:16:05.148Z</time></trkpt><trkpt lat="44.91764287169968" lon="9.350971058677015"><ele>280.0</ele><time>2026-04-10T14:16:06.151Z</time></trkpt><trkpt lat="44.91766801402922" lon="9.350689138998522"><ele>281.0</ele><time>2026-04-10T14:16:07.153Z</time></trkpt><trkpt lat="44.9176769805692" lon="9.3504061637446"><ele>282.0</ele><time>2026-04-10T14:16:08.152Z</time></trkpt><trkpt lat="44.91766967070247" lon="9.350121746169721"><ele>283.0</ele><time>2026-04-10T14:16:09.147Z</time></trkpt><trkpt lat="44.9176360714596" lon="9.349842085969184"><ele>282.3333333333333</ele><time>2026-04-10T14:16:10.157Z</time></trkpt><trkpt lat="44.917598916795896" lon="9.349562650831839"><ele>281.6666666666667</ele><time>2026-04-10T14:16:11.156Z</time></trkpt><trkpt lat="44.91755626153853" lon="9.349286187546227"><ele>281.0</ele><time>2026-04-10T14:16:12.147Z</time></trkpt><trkpt lat="44.917509165702526" lon="9.349003625292356"><ele>276.33333333333337</ele><time>2026-04-10T14:16:13.147Z</time></trkpt><trkpt lat="44.91745666655252" lon="9.3487168289727"><ele>271.6666666666667</ele><time>2026-04-10T14:16:14.148Z</time></trkpt><trkpt lat="44.917409850090344" lon="9.34843503565059"><ele>267.0</ele><time>2026-04-10T14:16:15.159Z</time></trkpt><trkpt lat="44.9173651684891" lon="9.348176451853826"><ele>269.0</ele><time>2026-04-10T14:16:16.152Z</time></trkpt><trkpt lat="44.917299125942854" lon="9.347942259061064"><ele>271.0</ele><time>2026-04-10T14:16:17.149Z</time></trkpt><trkpt lat="44.9172045644448" lon="9.347714801299581"><ele>273.0</ele><time>2026-04-10T14:16:18.151Z</time></trkpt><trkpt lat="44.91708904885235" lon="9.347492401271118"><ele>273.0</ele><time>2026-04-10T14:16:19.15Z</time></trkpt><trkpt lat="44.916954837448834" lon="9.347273684691919"><ele>273.0</ele><time>2026-04-10T14:16:20.15Z</time></trkpt><trkpt lat="44.91681374774051" lon="9.347045004586867"><ele>273.0</ele><time>2026-04-10T14:16:21.15Z</time></trkpt><trkpt lat="44.91667146561077" lon="9.346819268296995"><ele>273.0</ele><time>2026-04-10T14:16:22.151Z</time></trkpt><trkpt lat="44.916517641963445" lon="9.346583912970338"><ele>273.0</ele><time>2026-04-10T14:16:23.155Z</time></trkpt><trkpt lat="44.916373911773285" lon="9.346359376560056"><ele>273.0</ele><time>2026-04-10T14:16:24.154Z</time></trkpt><trkpt lat="44.91623816958032" lon="9.346137353494395"><ele>273.0</ele><time>2026-04-10T14:16:25.145Z</time></trkpt><trkpt lat="44.91608350342436" lon="9.345930765886449"><ele>273.0</ele><time>2026-04-10T14:16:26.143Z</time></trkpt><trkpt lat="44.9159110874729" lon="9.345745414602996"><ele>273.0</ele><time>2026-04-10T14:16:27.145Z</time></trkpt><trkpt lat="44.91572346879748" lon="9.34558296291206"><ele>272.3333333333333</ele><time>2026-04-10T14:16:28.146Z</time></trkpt><trkpt lat="44.91554455599566" lon="9.345439047724255"><ele>271.66666666666663</ele><time>2026-04-10T14:16:29.149Z</time></trkpt><trkpt lat="44.91537362609193" lon="9.345287080665269"><ele>271.0</ele><time>2026-04-10T14:16:30.159Z</time></trkpt><trkpt lat="44.91520659505973" lon="9.34511482689943"><ele>270.66666666666663</ele><time>2026-04-10T14:16:31.159Z</time></trkpt><trkpt lat="44.91505055997449" lon="9.344917085611764"><ele>270.3333333333333</ele><time>2026-04-10T14:16:32.151Z</time></trkpt><trkpt lat="44.91490300639482" lon="9.344691464618437"><ele>270.0</ele><time>2026-04-10T14:16:33.154Z</time></trkpt><trkpt lat="44.91475899235062" lon="9.344440351738056"><ele>270.0</ele><time>2026-04-10T14:16:34.15Z</time></trkpt><trkpt lat="44.914619475148996" lon="9.344163146890784"><ele>270.0</ele><time>2026-04-10T14:16:35.153Z</time></trkpt><trkpt lat="44.91448066281197" lon="9.343882106767115"><ele>272.0</ele><time>2026-04-10T14:16:36.154Z</time></trkpt><trkpt lat="44.914337553092196" lon="9.34361241710652"><ele>274.0</ele><time>2026-04-10T14:16:37.149Z</time></trkpt><trkpt lat="44.914194927440725" lon="9.343358668741917"><ele>270.66666666666663</ele><time>2026-04-10T14:16:38.149Z</time></trkpt><trkpt lat="44.9140643131963" lon="9.34310497505048"><ele>267.3333333333333</ele><time>2026-04-10T14:16:39.155Z</time></trkpt><trkpt lat="44.91393914603813" lon="9.342851353481727"><ele>264.0</ele><time>2026-04-10T14:16:40.154Z</time></trkpt><trkpt lat="44.9138104587444" lon="9.34261108233401"><ele>264.0</ele><time>2026-04-10T14:16:41.15Z</time></trkpt><trkpt lat="44.91367515801196" lon="9.342369381115692"><ele>264.0</ele><time>2026-04-10T14:16:42.154Z</time></trkpt><trkpt lat="44.913542077543546" lon="9.342114169226097"><ele>264.0</ele><time>2026-04-10T14:16:43.182Z</time></trkpt><trkpt lat="44.913405508989925" lon="9.341851939614731"><ele>267.0</ele><time>2026-04-10T14:16:44.153Z</time></trkpt><trkpt lat="44.91326336543512" lon="9.341578253333704"><ele>270.0</ele><time>2026-04-10T14:16:45.175Z</time></trkpt><trkpt lat="44.91311579468675" lon="9.341297036631534"><ele>272.5</ele><time>2026-04-10T14:16:46.148Z</time></trkpt><trkpt lat="44.91296530422638" lon="9.341008431259466"><ele>275.0</ele><time>2026-04-10T14:16:47.173Z</time></trkpt><trkpt lat="44.91282272334685" lon="9.340727671045117"><ele>274.5</ele><time>2026-04-10T14:16:48.177Z</time></trkpt><trkpt lat="44.912684284950174" lon="9.340464803962156"><ele>274.0</ele><time>2026-04-10T14:16:49.175Z</time></trkpt><trkpt lat="44.91255783793621" lon="9.3402133218884"><ele>274.0</ele><time>2026-04-10T14:16:50.162Z</time></trkpt><trkpt lat="44.91242172522236" lon="9.339993622825425"><ele>274.0</ele><time>2026-04-10T14:16:51.155Z</time></trkpt><trkpt lat="44.91228643297696" lon="9.33976742808519"><ele>274.0</ele><time>2026-04-10T14:16:52.175Z</time></trkpt><trkpt lat="44.9121631532502" lon="9.339554252843907"><ele>276.0</ele><time>2026-04-10T14:16:53.165Z</time></trkpt><trkpt lat="44.912031805997046" lon="9.339364589865587"><ele>278.0</ele><time>2026-04-10T14:16:54.169Z</time></trkpt><trkpt lat="44.911905612224885" lon="9.339161521773237"><ele>280.0</ele><time>2026-04-10T14:16:55.149Z</time></trkpt><trkpt lat="44.91177771329708" lon="9.338954927589935"><ele>280.0</ele><time>2026-04-10T14:16:56.169Z</time></trkpt><trkpt lat="44.91157698831306" lon="9.338825738281585"><ele>280.0</ele><time>2026-04-10T14:16:57.155Z</time></trkpt><trkpt lat="44.911394264782835" lon="9.338644374527624"><ele>280.0</ele><time>2026-04-10T14:16:58.169Z</time></trkpt><trkpt lat="44.91122373156672" lon="9.338477163240686"><ele>280.0</ele><time>2026-04-10T14:16:59.178Z</time></trkpt><trkpt lat="44.91105114892823" lon="9.338328717789093"><ele>280.0</ele><time>2026-04-10T14:17:00.153Z</time></trkpt><trkpt lat="44.91088172080842" lon="9.338159739342778"><ele>280.0</ele><time>2026-04-10T14:17:01.167Z</time></trkpt><trkpt lat="44.91072521124223" lon="9.337987945604182"><ele>281.3333333333333</ele><time>2026-04-10T14:17:02.166Z</time></trkpt><trkpt lat="44.910589031779786" lon="9.3378098376952"><ele>282.6666666666667</ele><time>2026-04-10T14:17:03.169Z</time></trkpt><trkpt lat="44.91046461701677" lon="9.337617695059896"><ele>284.0</ele><time>2026-04-10T14:17:04.151Z</time></trkpt><trkpt lat="44.91036472162841" lon="9.337418552849813"><ele>286.33333333333337</ele><time>2026-04-10T14:17:05.164Z</time></trkpt><trkpt lat="44.91026499017311" lon="9.337202784996853"><ele>288.6666666666667</ele><time>2026-04-10T14:17:06.164Z</time></trkpt><trkpt lat="44.91016168402627" lon="9.336974736998762"><ele>291.0</ele><time>2026-04-10T14:17:07.15Z</time></trkpt><trkpt lat="44.91008218519206" lon="9.336760056599442"><ele>288.0</ele><time>2026-04-10T14:17:08.154Z</time></trkpt><trkpt lat="44.91001482854402" lon="9.336555197677926"><ele>285.0</ele><time>2026-04-10T14:17:09.166Z</time></trkpt><trkpt lat="44.90996072176484" lon="9.336344440161994"><ele>282.0</ele><time>2026-04-10T14:17:10.176Z</time></trkpt><trkpt lat="44.909923365144316" lon="9.336119125800877"><ele>282.0</ele><time>2026-04-10T14:17:11.173Z</time></trkpt><trkpt lat="44.90991739936972" lon="9.335875209319843"><ele>282.0</ele><time>2026-04-10T14:17:12.183Z</time></trkpt><trkpt lat="44.909918906625926" lon="9.335623396940932"><ele>282.0</ele><time>2026-04-10T14:17:13.152Z</time></trkpt><trkpt lat="44.90993599717881" lon="9.335363637196295"><ele>281.6666666666667</ele><time>2026-04-10T14:17:14.166Z</time></trkpt><trkpt lat="44.90996716786527" lon="9.335109361572242"><ele>281.33333333333337</ele><time>2026-04-10T14:17:15.157Z</time></trkpt><trkpt lat="44.91000082395971" lon="9.33488409930394"><ele>281.0</ele><time>2026-04-10T14:17:16.174Z</time></trkpt><trkpt lat="44.910015237979025" lon="9.334694258192348"><ele>281.5</ele><time>2026-04-10T14:17:17.151Z</time></trkpt><trkpt lat="44.90998774177013" lon="9.334526694999825"><ele>282.0</ele><time>2026-04-10T14:17:18.162Z</time></trkpt><trkpt lat="44.90991600356283" lon="9.334350920052211"><ele>282.5</ele><time>2026-04-10T14:17:19.167Z</time></trkpt><trkpt lat="44.909801819847246" lon="9.3341528878487"><ele>283.0</ele><time>2026-04-10T14:17:20.171Z</time></trkpt><trkpt lat="44.9096708030623" lon="9.33395324254909"><ele>285.3333333333333</ele><time>2026-04-10T14:17:21.151Z</time></trkpt><trkpt lat="44.90953366078937" lon="9.333770771780452"><ele>287.6666666666667</ele><time>2026-04-10T14:17:22.169Z</time></trkpt><trkpt lat="44.909385854158714" lon="9.333572568653551"><ele>290.0</ele><time>2026-04-10T14:17:23.18Z</time></trkpt><trkpt lat="44.90925219034486" lon="9.333369332899466"><ele>289.33333333333337</ele><time>2026-04-10T14:17:24.176Z</time></trkpt><trkpt lat="44.909134819706395" lon="9.333176151873428"><ele>288.6666666666667</ele><time>2026-04-10T14:17:25.159Z</time></trkpt><trkpt lat="44.90901762106349" lon="9.332994677114728"><ele>288.0</ele><time>2026-04-10T14:17:26.161Z</time></trkpt><trkpt lat="44.90890421366392" lon="9.332825922297072"><ele>288.0</ele><time>2026-04-10T14:17:27.15Z</time></trkpt><trkpt lat="44.90878702666145" lon="9.332664135269221"><ele>288.0</ele><time>2026-04-10T14:17:28.155Z</time></trkpt><trkpt lat="44.90865711512617" lon="9.332485053659957"><ele>288.0</ele><time>2026-04-10T14:17:29.156Z</time></trkpt><trkpt lat="44.9085062953642" lon="9.332291359406529"><ele>289.3333333333333</ele><time>2026-04-10T14:17:30.152Z</time></trkpt><trkpt lat="44.90835249314147" lon="9.332101666016609"><ele>290.66666666666663</ele><time>2026-04-10T14:17:31.173Z</time></trkpt><trkpt lat="44.908220405197675" lon="9.331911630286047"><ele>292.0</ele><time>2026-04-10T14:17:32.173Z</time></trkpt><trkpt lat="44.90808889556783" lon="9.331698043097159"><ele>292.0</ele><time>2026-04-10T14:17:33.176Z</time></trkpt><trkpt lat="44.90795929601418" lon="9.331481485554818"><ele>292.0</ele><time>2026-04-10T14:17:34.151Z</time></trkpt><trkpt lat="44.90783138663919" lon="9.331283897748644"><ele>292.0</ele><time>2026-04-10T14:17:35.162Z</time></trkpt><trkpt lat="44.90768673946692" lon="9.331094467048482"><ele>293.0</ele><time>2026-04-10T14:17:36.173Z</time></trkpt><trkpt lat="44.907522946371564" lon="9.330951690473007"><ele>294.0</ele><time>2026-04-10T14:17:37.172Z</time></trkpt><trkpt lat="44.90734223046543" lon="9.33083260201997"><ele>295.0</ele><time>2026-04-10T14:17:38.149Z</time></trkpt><trkpt lat="44.90717595960417" lon="9.33073551820888"><ele>295.0</ele><time>2026-04-10T14:17:39.159Z</time></trkpt><trkpt lat="44.90702792332313" lon="9.330632493174512"><ele>295.0</ele><time>2026-04-10T14:17:40.171Z</time></trkpt><trkpt lat="44.90688928208483" lon="9.330520145330052"><ele>295.0</ele><time>2026-04-10T14:17:41.175Z</time></trkpt><trkpt lat="44.90676839970563" lon="9.330384006914937"><ele>296.0</ele><time>2026-04-10T14:17:42.15Z</time></trkpt><trkpt lat="44.9066595292622" lon="9.330220645417098"><ele>297.0</ele><time>2026-04-10T14:17:43.151Z</time></trkpt><trkpt lat="44.90656646076463" lon="9.330038969390069"><ele>298.0</ele><time>2026-04-10T14:17:44.152Z</time></trkpt><trkpt lat="44.90650854761639" lon="9.32981481526052"><ele>300.0</ele><time>2026-04-10T14:17:45.156Z</time></trkpt><trkpt lat="44.906478514256555" lon="9.329592718270094"><ele>302.0</ele><time>2026-04-10T14:17:46.174Z</time></trkpt><trkpt lat="44.90647691566251" lon="9.32936161501028"><ele>304.0</ele><time>2026-04-10T14:17:47.148Z</time></trkpt><trkpt lat="44.90649033140717" lon="9.32912796661583"><ele>305.0</ele><time>2026-04-10T14:17:48.151Z</time></trkpt><trkpt lat="44.90652273316023" lon="9.32889150461709"><ele>306.0</ele><time>2026-04-10T14:17:49.172Z</time></trkpt><trkpt lat="44.90653897651337" lon="9.328657836466244"><ele>307.0</ele><time>2026-04-10T14:17:50.158Z</time></trkpt><trkpt lat="44.90654622174028" lon="9.328441072076785"><ele>307.0</ele><time>2026-04-10T14:17:51.15Z</time></trkpt><trkpt lat="44.90652970747807" lon="9.328227968451067"><ele>307.0</ele><time>2026-04-10T14:17:52.148Z</time></trkpt><trkpt lat="44.90648481142276" lon="9.328000420805001"><ele>307.0</ele><time>2026-04-10T14:17:53.16Z</time></trkpt><trkpt lat="44.90641470897261" lon="9.327766938314385"><ele>307.66666666666663</ele><time>2026-04-10T14:17:54.142Z</time></trkpt><trkpt lat="44.90631860074956" lon="9.32753334450829"><ele>308.3333333333333</ele><time>2026-04-10T14:17:55.165Z</time></trkpt><trkpt lat="44.90620938065578" lon="9.327292633763788"><ele>309.0</ele><time>2026-04-10T14:17:56.162Z</time></trkpt><trkpt lat="44.906090005429235" lon="9.32704163031311"><ele>308.0</ele><time>2026-04-10T14:17:57.151Z</time></trkpt><trkpt lat="44.90597711388279" lon="9.326798019147708"><ele>307.0</ele><time>2026-04-10T14:17:58.148Z</time></trkpt><trkpt lat="44.90587943817314" lon="9.32657892627035"><ele>306.0</ele><time>2026-04-10T14:17:59.147Z</time></trkpt><trkpt lat="44.90578551553976" lon="9.326382470362303"><ele>308.5</ele><time>2026-04-10T14:18:00.192Z</time></trkpt><trkpt lat="44.905704275392765" lon="9.326198308237041"><ele>311.0</ele><time>2026-04-10T14:18:01.156Z</time></trkpt><trkpt lat="44.905648812382196" lon="9.326025222317151"><ele>313.5</ele><time>2026-04-10T14:18:02.162Z</time></trkpt><trkpt lat="44.905609825108534" lon="9.325835628953799"><ele>316.0</ele><time>2026-04-10T14:18:03.164Z</time></trkpt><trkpt lat="44.905592367412794" lon="9.325621399242364"><ele>316.5</ele><time>2026-04-10T14:18:04.145Z</time></trkpt><trkpt lat="44.90559391375459" lon="9.32541138124183"><ele>317.0</ele><time>2026-04-10T14:18:05.155Z</time></trkpt><trkpt lat="44.90562415843997" lon="9.32523120512973"><ele>317.5</ele><time>2026-04-10T14:18:06.148Z</time></trkpt><trkpt lat="44.90567605778704" lon="9.325044001462068"><ele>318.0</ele><time>2026-04-10T14:18:07.171Z</time></trkpt><trkpt lat="44.905758735422076" lon="9.324860584196271"><ele>316.6666666666667</ele><time>2026-04-10T14:18:08.167Z</time></trkpt><trkpt lat="44.905878690818746" lon="9.324712013295741"><ele>315.33333333333337</ele><time>2026-04-10T14:18:09.145Z</time></trkpt><trkpt lat="44.906006890991456" lon="9.324569401451873"><ele>314.0</ele><time>2026-04-10T14:18:10.164Z</time></trkpt><trkpt lat="44.90614358735748" lon="9.324432912762575"><ele>317.33333333333337</ele><time>2026-04-10T14:18:11.528Z</time></trkpt><trkpt lat="44.906283307491904" lon="9.324300546311886"><ele>320.6666666666667</ele><time>2026-04-10T14:18:12.149Z</time></trkpt><trkpt lat="44.90640447384978" lon="9.32417731172095"><ele>324.0</ele><time>2026-04-10T14:18:13.159Z</time></trkpt><trkpt lat="44.906510582592894" lon="9.324051389839111"><ele>323.6666666666667</ele><time>2026-04-10T14:18:14.162Z</time></trkpt><trkpt lat="44.90657046515128" lon="9.323852051176045"><ele>323.33333333333337</ele><time>2026-04-10T14:18:15.162Z</time></trkpt><trkpt lat="44.90662197147044" lon="9.323653596837337"><ele>323.0</ele><time>2026-04-10T14:18:16.15Z</time></trkpt><trkpt lat="44.906645911140956" lon="9.323424549007617"><ele>323.0</ele><time>2026-04-10T14:18:17.152Z</time></trkpt><trkpt lat="44.906665734795205" lon="9.323174147517431"><ele>323.0</ele><time>2026-04-10T14:18:18.149Z</time></trkpt><trkpt lat="44.906701563377645" lon="9.322906096306056"><ele>323.0</ele><time>2026-04-10T14:18:19.148Z</time></trkpt><trkpt lat="44.90673329452348" lon="9.322630269003517"><ele>326.33333333333337</ele><time>2026-04-10T14:18:20.144Z</time></trkpt><trkpt lat="44.9067678553207" lon="9.322340461809834"><ele>329.6666666666667</ele><time>2026-04-10T14:18:21.165Z</time></trkpt><trkpt lat="44.90680644990664" lon="9.322044257886319"><ele>333.0</ele><time>2026-04-10T14:18:22.157Z</time></trkpt><trkpt lat="44.90684677554042" lon="9.321740848701204"><ele>333.3333333333333</ele><time>2026-04-10T14:18:23.358Z</time></trkpt><trkpt lat="44.90688066496815" lon="9.321468009366376"><ele>333.66666666666663</ele><time>2026-04-10T14:18:24.158Z</time></trkpt><trkpt lat="44.90690974916751" lon="9.321220085059544"><ele>334.0</ele><time>2026-04-10T14:18:25.162Z</time></trkpt><trkpt lat="44.90695015598027" lon="9.321013630349913"><ele>334.0</ele><time>2026-04-10T14:18:26.152Z</time></trkpt><trkpt lat="44.90701218899232" lon="9.320821918839398"><ele>334.0</ele><time>2026-04-10T14:18:27.158Z</time></trkpt><trkpt lat="44.90710151432025" lon="9.320636834088749"><ele>334.0</ele><time>2026-04-10T14:18:28.16Z</time></trkpt><trkpt lat="44.90722178266683" lon="9.320460268902067"><ele>332.0</ele><time>2026-04-10T14:18:29.155Z</time></trkpt><trkpt lat="44.90735992544295" lon="9.320289898023173"><ele>330.0</ele><time>2026-04-10T14:18:30.155Z</time></trkpt><trkpt lat="44.907482614658974" lon="9.320136411610495"><ele>328.0</ele><time>2026-04-10T14:18:31.158Z</time></trkpt><trkpt lat="44.90758293545992" lon="9.31997772455305"><ele>333.3333333333333</ele><time>2026-04-10T14:18:32.17Z</time></trkpt><trkpt lat="44.90765790644928" lon="9.319783552120413"><ele>338.6666666666667</ele><time>2026-04-10T14:18:33.15Z</time></trkpt><trkpt lat="44.90769005783073" lon="9.319542901880247"><ele>344.0</ele><time>2026-04-10T14:18:34.157Z</time></trkpt><trkpt lat="44.907707040582956" lon="9.319283538369685"><ele>344.33333333333337</ele><time>2026-04-10T14:18:35.171Z</time></trkpt><trkpt lat="44.9077116348052" lon="9.319008673343827"><ele>344.6666666666667</ele><time>2026-04-10T14:18:36.169Z</time></trkpt><trkpt lat="44.90771673087213" lon="9.318740229081046"><ele>345.0</ele><time>2026-04-10T14:18:37.15Z</time></trkpt><trkpt lat="44.907723824135466" lon="9.31847678588715"><ele>345.3333333333333</ele><time>2026-04-10T14:18:38.149Z</time></trkpt><trkpt lat="44.90772668389429" lon="9.318237690704732"><ele>345.66666666666663</ele><time>2026-04-10T14:18:39.154Z</time></trkpt><trkpt lat="44.90773951818146" lon="9.318036480385418"><ele>346.0</ele><time>2026-04-10T14:18:40.167Z</time></trkpt><trkpt lat="44.907768148181205" lon="9.317838679389961"><ele>345.3333333333333</ele><time>2026-04-10T14:18:41.144Z</time></trkpt><trkpt lat="44.90781251444574" lon="9.31763545870895"><ele>344.6666666666667</ele><time>2026-04-10T14:18:42.159Z</time></trkpt><trkpt lat="44.907870592437746" lon="9.317416410648589"><ele>344.0</ele><time>2026-04-10T14:18:43.149Z</time></trkpt><trkpt lat="44.90793166201628" lon="9.317164810802607"><ele>343.33333333333337</ele><time>2026-04-10T14:18:44.155Z</time></trkpt><trkpt lat="44.90799132822089" lon="9.31690699531999"><ele>342.6666666666667</ele><time>2026-04-10T14:18:45.148Z</time></trkpt><trkpt lat="44.90805234143802" lon="9.316625890743019"><ele>342.0</ele><time>2026-04-10T14:18:46.171Z</time></trkpt><trkpt lat="44.90812373328512" lon="9.316330281986659"><ele>341.6666666666667</ele><time>2026-04-10T14:18:47.146Z</time></trkpt><trkpt lat="44.90818411679402" lon="9.31606114641548"><ele>341.33333333333337</ele><time>2026-04-10T14:18:48.161Z</time></trkpt><trkpt lat="44.908240867585455" lon="9.315811283496268"><ele>341.0</ele><time>2026-04-10T14:18:49.159Z</time></trkpt><trkpt lat="44.908293645306195" lon="9.31554019043616"><ele>339.6666666666667</ele><time>2026-04-10T14:18:50.147Z</time></trkpt><trkpt lat="44.90834534278351" lon="9.31523741809468"><ele>338.3333333333333</ele><time>2026-04-10T14:18:51.145Z</time></trkpt><trkpt lat="44.90838530980763" lon="9.314935754824637"><ele>337.0</ele><time>2026-04-10T14:18:52.149Z</time></trkpt><trkpt lat="44.908419067821534" lon="9.314660077404366"><ele>339.66666666666663</ele><time>2026-04-10T14:18:53.147Z</time></trkpt><trkpt lat="44.90844686534315" lon="9.31439935245486"><ele>342.3333333333333</ele><time>2026-04-10T14:18:54.144Z</time></trkpt><trkpt lat="44.908491517539574" lon="9.314157066919945"><ele>345.0</ele><time>2026-04-10T14:18:55.147Z</time></trkpt><trkpt lat="44.90852739806929" lon="9.313921503581438"><ele>343.6666666666667</ele><time>2026-04-10T14:18:56.151Z</time></trkpt><trkpt lat="44.90857455089025" lon="9.313684780412244"><ele>342.33333333333337</ele><time>2026-04-10T14:18:57.16Z</time></trkpt><trkpt lat="44.90863351241147" lon="9.31343736840472"><ele>341.0</ele><time>2026-04-10T14:18:58.406Z</time></trkpt><trkpt lat="44.908703396923165" lon="9.313168715656401"><ele>341.0</ele><time>2026-04-10T14:18:59.149Z</time></trkpt><trkpt lat="44.90877294951786" lon="9.312911735847175"><ele>341.0</ele><time>2026-04-10T14:19:00.148Z</time></trkpt><trkpt lat="44.90883700355648" lon="9.312676395325735"><ele>341.0</ele><time>2026-04-10T14:19:01.154Z</time></trkpt><trkpt lat="44.90890018176929" lon="9.312444272649719"><ele>340.0</ele><time>2026-04-10T14:19:02.157Z</time></trkpt><trkpt lat="44.90896533640088" lon="9.31220488844026"><ele>339.0</ele><time>2026-04-10T14:19:03.159Z</time></trkpt><trkpt lat="44.909029574836396" lon="9.311976843829816"><ele>338.0</ele><time>2026-04-10T14:19:04.156Z</time></trkpt><trkpt lat="44.9090881032539" lon="9.31177278734563"><ele>338.0</ele><time>2026-04-10T14:19:05.147Z</time></trkpt><trkpt lat="44.9091416111849" lon="9.311588234926202"><ele>338.0</ele><time>2026-04-10T14:19:06.144Z</time></trkpt><trkpt lat="44.909191201498594" lon="9.311420772652665"><ele>338.0</ele><time>2026-04-10T14:19:07.167Z</time></trkpt><trkpt lat="44.909239198284" lon="9.311265458940914"><ele>338.0</ele><time>2026-04-10T14:19:08.148Z</time></trkpt><trkpt lat="44.909280816073895" lon="9.311130787094857"><ele>340.4</ele><time>2026-04-10T14:19:09.142Z</time></trkpt><trkpt lat="44.909319900629" lon="9.311011439993372"><ele>342.79999999999995</ele><time>2026-04-10T14:19:10.145Z</time></trkpt><trkpt lat="44.90934799065819" lon="9.310893585477025"><ele>345.2</ele><time>2026-04-10T14:19:11.169Z</time></trkpt><trkpt lat="44.90934369412566" lon="9.310772628654233"><ele>347.6</ele><time>2026-04-10T14:19:12.148Z</time></trkpt><trkpt lat="44.90930913885514" lon="9.310661862427054"><ele>350.0</ele><time>2026-04-10T14:19:13.146Z</time></trkpt><trkpt lat="44.90929108929946" lon="9.31052618128349"><ele>351.0</ele><time>2026-04-10T14:19:14.146Z</time></trkpt><trkpt lat="44.909266641019336" lon="9.310356547483515"><ele>352.0</ele><time>2026-04-10T14:19:15.148Z</time></trkpt><trkpt lat="44.90923911958735" lon="9.310153120405948"><ele>353.0</ele><time>2026-04-10T14:19:16.146Z</time></trkpt><trkpt lat="44.909214825456445" lon="9.30993821133811"><ele>354.0</ele><time>2026-04-10T14:19:17.147Z</time></trkpt><trkpt lat="44.90918452216271" lon="9.309698635168486"><ele>349.6666666666667</ele><time>2026-04-10T14:19:18.152Z</time></trkpt><trkpt lat="44.90915676305571" lon="9.309468057674257"><ele>345.33333333333337</ele><time>2026-04-10T14:19:19.144Z</time></trkpt><trkpt lat="44.90913077903747" lon="9.309259514538237"><ele>341.0</ele><time>2026-04-10T14:19:20.147Z</time></trkpt><trkpt lat="44.90910399442045" lon="9.309069159489129"><ele>339.75</ele><time>2026-04-10T14:19:21.144Z</time></trkpt><trkpt lat="44.90909623449782" lon="9.30890001668049"><ele>338.5</ele><time>2026-04-10T14:19:22.148Z</time></trkpt><trkpt lat="44.90910689472437" lon="9.30874316375346"><ele>337.25</ele><time>2026-04-10T14:19:23.147Z</time></trkpt><trkpt lat="44.909154478410514" lon="9.308598366850356"><ele>336.0</ele><time>2026-04-10T14:19:24.161Z</time></trkpt><trkpt lat="44.909214695793025" lon="9.308449850027365"><ele>337.6666666666667</ele><time>2026-04-10T14:19:25.157Z</time></trkpt><trkpt lat="44.90930054489475" lon="9.308294989438796"><ele>339.33333333333337</ele><time>2026-04-10T14:19:26.142Z</time></trkpt><trkpt lat="44.909383366103675" lon="9.308123181258786"><ele>341.0</ele><time>2026-04-10T14:19:27.15Z</time></trkpt><trkpt lat="44.90946683211499" lon="9.307924695798432"><ele>341.0</ele><time>2026-04-10T14:19:28.149Z</time></trkpt><trkpt lat="44.90956836866898" lon="9.307717667665449"><ele>341.0</ele><time>2026-04-10T14:19:29.148Z</time></trkpt><trkpt lat="44.90968549351671" lon="9.30751708728864"><ele>341.0</ele><time>2026-04-10T14:19:30.162Z</time></trkpt><trkpt lat="44.90978351115868" lon="9.307322028448855"><ele>342.0</ele><time>2026-04-10T14:19:31.149Z</time></trkpt><trkpt lat="44.90987319604484" lon="9.307151277284772"><ele>343.0</ele><time>2026-04-10T14:19:32.147Z</time></trkpt><trkpt lat="44.909959183972994" lon="9.307013277598818"><ele>344.0</ele><time>2026-04-10T14:19:33.147Z</time></trkpt><trkpt lat="44.910058301262225" lon="9.306874110974105"><ele>345.0</ele><time>2026-04-10T14:19:34.153Z</time></trkpt><trkpt lat="44.91019420443017" lon="9.306762094124185"><ele>345.0</ele><time>2026-04-10T14:19:35.147Z</time></trkpt><trkpt lat="44.9103423126585" lon="9.306646751144266"><ele>345.0</ele><time>2026-04-10T14:19:36.144Z</time></trkpt><trkpt lat="44.91051151496314" lon="9.306513814309447"><ele>345.0</ele><time>2026-04-10T14:19:37.147Z</time></trkpt><trkpt lat="44.91067294992038" lon="9.306364722979039"><ele>345.6666666666667</ele><time>2026-04-10T14:19:38.148Z</time></trkpt><trkpt lat="44.91081727029326" lon="9.306230851796812"><ele>346.33333333333337</ele><time>2026-04-10T14:19:39.15Z</time></trkpt><trkpt lat="44.91094358549946" lon="9.306112524496823"><ele>347.0</ele><time>2026-04-10T14:19:40.145Z</time></trkpt><trkpt lat="44.911048557318566" lon="9.30600424205345"><ele>347.0</ele><time>2026-04-10T14:19:41.149Z</time></trkpt><trkpt lat="44.91112841595727" lon="9.305883679641964"><ele>347.0</ele><time>2026-04-10T14:19:42.344Z</time></trkpt><trkpt lat="44.91116240319408" lon="9.305744539520456"><ele>347.0</ele><time>2026-04-10T14:19:43.15Z</time></trkpt><trkpt lat="44.911185391414286" lon="9.30559002237687"><ele>347.0</ele><time>2026-04-10T14:19:44.143Z</time></trkpt><trkpt lat="44.91117036971046" lon="9.3054187847116"><ele>347.0</ele><time>2026-04-10T14:19:45.144Z</time></trkpt><trkpt lat="44.911123390897124" lon="9.305229979728095"><ele>347.0</ele><time>2026-04-10T14:19:46.142Z</time></trkpt><trkpt lat="44.91107304949401" lon="9.305055698221445"><ele>347.0</ele><time>2026-04-10T14:19:47.145Z</time></trkpt><trkpt lat="44.91104887817635" lon="9.304859367917503"><ele>347.0</ele><time>2026-04-10T14:19:48.149Z</time></trkpt><trkpt lat="44.91106903055353" lon="9.304628128023001"><ele>346.0</ele><time>2026-04-10T14:19:49.146Z</time></trkpt><trkpt lat="44.911057351078156" lon="9.304367256679326"><ele>345.0</ele><time>2026-04-10T14:19:50.152Z</time></trkpt><trkpt lat="44.91106030913367" lon="9.304093567777741"><ele>344.0</ele><time>2026-04-10T14:19:51.157Z</time></trkpt><trkpt lat="44.91106391814063" lon="9.303833255345875"><ele>342.33333333333337</ele><time>2026-04-10T14:19:52.145Z</time></trkpt><trkpt lat="44.911073144504805" lon="9.303591554720178"><ele>340.6666666666667</ele><time>2026-04-10T14:19:53.15Z</time></trkpt><trkpt lat="44.91108124950495" lon="9.30336706227858"><ele>339.0</ele><time>2026-04-10T14:19:54.147Z</time></trkpt><trkpt lat="44.91110329881623" lon="9.303164690696622"><ele>339.0</ele><time>2026-04-10T14:19:55.149Z</time></trkpt><trkpt lat="44.91114824241052" lon="9.302981105984003"><ele>339.0</ele><time>2026-04-10T14:19:56.159Z</time></trkpt><trkpt lat="44.9112247047729" lon="9.302794258038599"><ele>339.0</ele><time>2026-04-10T14:19:57.148Z</time></trkpt><trkpt lat="44.9113321439835" lon="9.302600860839792"><ele>339.0</ele><time>2026-04-10T14:19:58.153Z</time></trkpt><trkpt lat="44.91142152183727" lon="9.302406868559434"><ele>339.0</ele><time>2026-04-10T14:19:59.147Z</time></trkpt><trkpt lat="44.91146891581003" lon="9.302202466659732"><ele>339.0</ele><time>2026-04-10T14:20:00.146Z</time></trkpt><trkpt lat="44.91147232519813" lon="9.301999258154051"><ele>338.3333333333333</ele><time>2026-04-10T14:20:01.151Z</time></trkpt><trkpt lat="44.91143877779955" lon="9.301791445946277"><ele>337.66666666666663</ele><time>2026-04-10T14:20:02.145Z</time></trkpt><trkpt lat="44.91137464229848" lon="9.301556527267328"><ele>337.0</ele><time>2026-04-10T14:20:03.151Z</time></trkpt><trkpt lat="44.91130018566361" lon="9.301310309698746"><ele>337.0</ele><time>2026-04-10T14:20:04.142Z</time></trkpt><trkpt lat="44.91123727803796" lon="9.30108898699008"><ele>337.0</ele><time>2026-04-10T14:20:05.144Z</time></trkpt><trkpt lat="44.91118882204685" lon="9.300876372789132"><ele>337.0</ele><time>2026-04-10T14:20:06.148Z</time></trkpt><trkpt lat="44.91117175965272" lon="9.300668347984626"><ele>334.66666666666663</ele><time>2026-04-10T14:20:07.145Z</time></trkpt><trkpt lat="44.911199986076255" lon="9.300474398420453"><ele>332.3333333333333</ele><time>2026-04-10T14:20:08.142Z</time></trkpt><trkpt lat="44.91126083266319" lon="9.300274125771713"><ele>330.0</ele><time>2026-04-10T14:20:09.169Z</time></trkpt><trkpt lat="44.91135321353403" lon="9.300076439368"><ele>330.0</ele><time>2026-04-10T14:20:10.153Z</time></trkpt><trkpt lat="44.91147420890189" lon="9.299912123374083"><ele>330.0</ele><time>2026-04-10T14:20:11.156Z</time></trkpt><trkpt lat="44.911601639796345" lon="9.29976197477632"><ele>330.0</ele><time>2026-04-10T14:20:12.148Z</time></trkpt><trkpt lat="44.911717118115" lon="9.29957946454199"><ele>329.3333333333333</ele><time>2026-04-10T14:20:13.165Z</time></trkpt><trkpt lat="44.9118209319077" lon="9.29935481240907"><ele>328.66666666666663</ele><time>2026-04-10T14:20:14.144Z</time></trkpt><trkpt lat="44.9119020204199" lon="9.299121277907647"><ele>328.0</ele><time>2026-04-10T14:20:15.151Z</time></trkpt><trkpt lat="44.91195609384514" lon="9.298898319783683"><ele>328.0</ele><time>2026-04-10T14:20:16.154Z</time></trkpt><trkpt lat="44.912002343656" lon="9.298688267555008"><ele>328.0</ele><time>2026-04-10T14:20:17.148Z</time></trkpt><trkpt lat="44.91202982616571" lon="9.298500799742655"><ele>328.0</ele><time>2026-04-10T14:20:18.143Z</time></trkpt><trkpt lat="44.912020744636884" lon="9.298332561583399"><ele>328.0</ele><time>2026-04-10T14:20:19.154Z</time></trkpt><trkpt lat="44.911976378689204" lon="9.298186226897021"><ele>327.3333333333333</ele><time>2026-04-10T14:20:20.155Z</time></trkpt><trkpt lat="44.91188684846437" lon="9.29804463704364"><ele>326.6666666666667</ele><time>2026-04-10T14:20:21.15Z</time></trkpt><trkpt lat="44.91175263011054" lon="9.29790738629733"><ele>326.0</ele><time>2026-04-10T14:20:22.148Z</time></trkpt><trkpt lat="44.91159645310735" lon="9.297760516217675"><ele>326.0</ele><time>2026-04-10T14:20:23.151Z</time></trkpt><trkpt lat="44.91144406094043" lon="9.297609937334975"><ele>326.0</ele><time>2026-04-10T14:20:24.152Z</time></trkpt><trkpt lat="44.91127470636561" lon="9.297459336580118"><ele>326.0</ele><time>2026-04-10T14:20:25.152Z</time></trkpt><trkpt lat="44.91111488788906" lon="9.297311497807593"><ele>325.6666666666667</ele><time>2026-04-10T14:20:26.147Z</time></trkpt><trkpt lat="44.91096950845426" lon="9.297170753996557"><ele>325.3333333333333</ele><time>2026-04-10T14:20:27.148Z</time></trkpt><trkpt lat="44.91084706164846" lon="9.29705105858942"><ele>325.0</ele><time>2026-04-10T14:20:28.151Z</time></trkpt><trkpt lat="44.91075094203517" lon="9.296931186825118"><ele>325.0</ele><time>2026-04-10T14:20:29.153Z</time></trkpt><trkpt lat="44.910684066709194" lon="9.296797964101705"><ele>325.0</ele><time>2026-04-10T14:20:30.154Z</time></trkpt><trkpt lat="44.910652890298515" lon="9.29663796670642"><ele>325.0</ele><time>2026-04-10T14:20:31.16Z</time></trkpt><trkpt lat="44.91066139347922" lon="9.29647030276605"><ele>325.0</ele><time>2026-04-10T14:20:32.151Z</time></trkpt><trkpt lat="44.91070857707704" lon="9.296292606036827"><ele>325.0</ele><time>2026-04-10T14:20:33.151Z</time></trkpt><trkpt lat="44.91077898996444" lon="9.296087165242673"><ele>325.0</ele><time>2026-04-10T14:20:34.155Z</time></trkpt><trkpt lat="44.910856872881176" lon="9.29586022825101"><ele>325.0</ele><time>2026-04-10T14:20:35.147Z</time></trkpt><trkpt lat="44.91090779291831" lon="9.295644863920009"><ele>330.3333333333333</ele><time>2026-04-10T14:20:36.151Z</time></trkpt><trkpt lat="44.910928554911" lon="9.295423010294632"><ele>335.6666666666667</ele><time>2026-04-10T14:20:37.142Z</time></trkpt><trkpt lat="44.91092795759367" lon="9.295172166990344"><ele>341.0</ele><time>2026-04-10T14:20:38.149Z</time></trkpt><trkpt lat="44.91090912391599" lon="9.29491227333195"><ele>337.33333333333337</ele><time>2026-04-10T14:20:39.152Z</time></trkpt><trkpt lat="44.910868309087675" lon="9.2946299734834"><ele>333.6666666666667</ele><time>2026-04-10T14:20:40.147Z</time></trkpt><trkpt lat="44.91081653489894" lon="9.294332935666642"><ele>330.0</ele><time>2026-04-10T14:20:41.15Z</time></trkpt><trkpt lat="44.91077337045834" lon="9.294042131199634"><ele>329.6666666666667</ele><time>2026-04-10T14:20:42.147Z</time></trkpt><trkpt lat="44.910738726939535" lon="9.293778471899156"><ele>329.33333333333337</ele><time>2026-04-10T14:20:43.146Z</time></trkpt><trkpt lat="44.910699858612865" lon="9.293526517986892"><ele>329.0</ele><time>2026-04-10T14:20:44.149Z</time></trkpt><trkpt lat="44.910659990536026" lon="9.293272383671233"><ele>331.33333333333337</ele><time>2026-04-10T14:20:45.164Z</time></trkpt><trkpt lat="44.910623931965205" lon="9.293034169114993"><ele>333.6666666666667</ele><time>2026-04-10T14:20:46.164Z</time></trkpt><trkpt lat="44.91058588472018" lon="9.292810110939108"><ele>336.0</ele><time>2026-04-10T14:20:47.148Z</time></trkpt><trkpt lat="44.91052909420354" lon="9.292610126011072"><ele>336.0</ele><time>2026-04-10T14:20:48.169Z</time></trkpt><trkpt lat="44.91044776633518" lon="9.29243704891457"><ele>336.0</ele><time>2026-04-10T14:20:49.142Z</time></trkpt><trkpt lat="44.910342398181356" lon="9.29228690725926"><ele>336.0</ele><time>2026-04-10T14:20:50.15Z</time></trkpt><trkpt lat="44.910236411189175" lon="9.292160316313549"><ele>336.0</ele><time>2026-04-10T14:20:51.15Z</time></trkpt><trkpt lat="44.91014641859795" lon="9.29200245813914"><ele>338.0</ele><time>2026-04-10T14:20:52.147Z</time></trkpt><trkpt lat="44.91009231234477" lon="9.291792951995813"><ele>340.0</ele><time>2026-04-10T14:20:53.15Z</time></trkpt><trkpt lat="44.91004559038741" lon="9.291565809782163"><ele>342.0</ele><time>2026-04-10T14:20:54.147Z</time></trkpt><trkpt lat="44.910001624771134" lon="9.291342490545182"><ele>338.75</ele><time>2026-04-10T14:20:55.151Z</time></trkpt><trkpt lat="44.90996201847968" lon="9.29113239400052"><ele>335.5</ele><time>2026-04-10T14:20:56.147Z</time></trkpt><trkpt lat="44.90993177716747" lon="9.290938364024043"><ele>332.25</ele><time>2026-04-10T14:20:57.147Z</time></trkpt><trkpt lat="44.90991255665577" lon="9.290760866035308"><ele>329.0</ele><time>2026-04-10T14:20:58.156Z</time></trkpt><trkpt lat="44.90994637685733" lon="9.29057258345412"><ele>329.0</ele><time>2026-04-10T14:20:59.146Z</time></trkpt><trkpt lat="44.91001160238406" lon="9.290375148181298"><ele>329.0</ele><time>2026-04-10T14:21:00.142Z</time></trkpt><trkpt lat="44.91008404511489" lon="9.290169533863404"><ele>329.0</ele><time>2026-04-10T14:21:01.148Z</time></trkpt><trkpt lat="44.91015127571571" lon="9.289988171997495"><ele>333.25</ele><time>2026-04-10T14:21:02.148Z</time></trkpt><trkpt lat="44.910222870177705" lon="9.289827794221972"><ele>337.5</ele><time>2026-04-10T14:21:03.147Z</time></trkpt><trkpt lat="44.910315254292605" lon="9.289677643783362"><ele>341.75</ele><time>2026-04-10T14:21:04.148Z</time></trkpt><trkpt lat="44.91044070287855" lon="9.289537012295702"><ele>346.0</ele><time>2026-04-10T14:21:05.175Z</time></trkpt><trkpt lat="44.91059523565297" lon="9.28939371284596"><ele>346.0</ele><time>2026-04-10T14:21:06.153Z</time></trkpt><trkpt lat="44.9107220725614" lon="9.28918202970189"><ele>346.0</ele><time>2026-04-10T14:21:07.15Z</time></trkpt><trkpt lat="44.91083641241572" lon="9.28896764611722"><ele>346.0</ele><time>2026-04-10T14:21:08.148Z</time></trkpt><trkpt lat="44.91095008840933" lon="9.28877894919839"><ele>348.3333333333333</ele><time>2026-04-10T14:21:09.146Z</time></trkpt><trkpt lat="44.91108406086665" lon="9.28857990571551"><ele>350.6666666666667</ele><time>2026-04-10T14:21:10.147Z</time></trkpt><trkpt lat="44.91125596020986" lon="9.28842283611513"><ele>353.0</ele><time>2026-04-10T14:21:11.148Z</time></trkpt><trkpt lat="44.91144120663519" lon="9.28832026785363"><ele>353.0</ele><time>2026-04-10T14:21:12.146Z</time></trkpt><trkpt lat="44.91160386079088" lon="9.288213063247325"><ele>353.0</ele><time>2026-04-10T14:21:13.149Z</time></trkpt><trkpt lat="44.91176308243661" lon="9.288083513277702"><ele>353.0</ele><time>2026-04-10T14:21:14.149Z</time></trkpt><trkpt lat="44.91190379112698" lon="9.287884178896176"><ele>354.25</ele><time>2026-04-10T14:21:15.149Z</time></trkpt><trkpt lat="44.91199534710192" lon="9.287721736900142"><ele>355.5</ele><time>2026-04-10T14:21:16.165Z</time></trkpt><trkpt lat="44.91206971015032" lon="9.287588355754847"><ele>356.75</ele><time>2026-04-10T14:21:17.162Z</time></trkpt><trkpt lat="44.91212770729228" lon="9.287451202796777"><ele>358.0</ele><time>2026-04-10T14:21:18.149Z</time></trkpt><trkpt lat="44.912152372965785" lon="9.287318248908178"><ele>358.2</ele><time>2026-04-10T14:21:19.161Z</time></trkpt><trkpt lat="44.912125227839724" lon="9.287176640530577"><ele>358.4</ele><time>2026-04-10T14:21:20.161Z</time></trkpt><trkpt lat="44.912029006759816" lon="9.28709015328386"><ele>358.59999999999997</ele><time>2026-04-10T14:21:21.165Z</time></trkpt><trkpt lat="44.91195573229764" lon="9.286999436251815"><ele>358.79999999999995</ele><time>2026-04-10T14:21:22.156Z</time></trkpt><trkpt lat="44.91188244177547" lon="9.286944614655486"><ele>359.0</ele><time>2026-04-10T14:21:23.15Z</time></trkpt><trkpt lat="44.911800083574924" lon="9.286937256971443"><ele>356.79999999999995</ele><time>2026-04-10T14:21:24.158Z</time></trkpt><trkpt lat="44.91172050171614" lon="9.286992364042268"><ele>354.59999999999997</ele><time>2026-04-10T14:21:25.145Z</time></trkpt><trkpt lat="44.911656156906126" lon="9.287113116300945"><ele>352.4</ele><time>2026-04-10T14:21:26.148Z</time></trkpt><trkpt lat="44.91159760057156" lon="9.2872679900403"><ele>350.2</ele><time>2026-04-10T14:21:27.167Z</time></trkpt><trkpt lat="44.91151237336281" lon="9.28738011750822"><ele>348.0</ele><time>2026-04-10T14:21:28.161Z</time></trkpt><trkpt lat="44.91139850751168" lon="9.287480656623003"><ele>348.0</ele><time>2026-04-10T14:21:29.156Z</time></trkpt><trkpt lat="44.91125757669927" lon="9.28757430044785"><ele>348.0</ele><time>2026-04-10T14:21:30.167Z</time></trkpt><trkpt lat="44.91110519203861" lon="9.287608376211384"><ele>348.0</ele><time>2026-04-10T14:21:31.165Z</time></trkpt><trkpt lat="44.910927260440296" lon="9.287670220513563"><ele>355.6666666666667</ele><time>2026-04-10T14:21:32.161Z</time></trkpt><trkpt lat="44.91076889354613" lon="9.287767587718664"><ele>363.33333333333337</ele><time>2026-04-10T14:21:33.16Z</time></trkpt><trkpt lat="44.910602411198326" lon="9.287877903051957"><ele>371.0</ele><time>2026-04-10T14:21:34.156Z</time></trkpt><trkpt lat="44.91041999023896" lon="9.288014733301567"><ele>367.33333333333337</ele><time>2026-04-10T14:21:35.186Z</time></trkpt><trkpt lat="44.91026995128028" lon="9.288149349946387"><ele>363.6666666666667</ele><time>2026-04-10T14:21:36.161Z</time></trkpt><trkpt lat="44.91015198415864" lon="9.288307292231142"><ele>360.0</ele><time>2026-04-10T14:21:37.144Z</time></trkpt><trkpt lat="44.91005261706845" lon="9.288463623894089"><ele>360.0</ele><time>2026-04-10T14:21:38.16Z</time></trkpt><trkpt lat="44.909936530641794" lon="9.28858181006512"><ele>360.0</ele><time>2026-04-10T14:21:39.149Z</time></trkpt><trkpt lat="44.90980573392524" lon="9.288618548525989"><ele>360.0</ele><time>2026-04-10T14:21:40.145Z</time></trkpt><trkpt lat="44.90969051752836" lon="9.288627768357653"><ele>360.0</ele><time>2026-04-10T14:21:41.163Z</time></trkpt><trkpt lat="44.90963837259743" lon="9.288530002146148"><ele>360.0</ele><time>2026-04-10T14:21:42.163Z</time></trkpt><trkpt lat="44.90959617048001" lon="9.288420261960603"><ele>360.0</ele><time>2026-04-10T14:21:43.158Z</time></trkpt><trkpt lat="44.909517534487094" lon="9.288223366311366"><ele>360.0</ele><time>2026-04-10T14:21:44.167Z</time></trkpt><trkpt lat="44.90945184720737" lon="9.288121379078802"><ele>360.0</ele><time>2026-04-10T14:21:45.148Z</time></trkpt><trkpt lat="44.90933474494482" lon="9.288050867140363"><ele>360.8</ele><time>2026-04-10T14:21:46.163Z</time></trkpt><trkpt lat="44.909244709919385" lon="9.287976872670068"><ele>361.6</ele><time>2026-04-10T14:21:47.155Z</time></trkpt><trkpt lat="44.90918108531088" lon="9.28787769245532"><ele>362.4</ele><time>2026-04-10T14:21:48.162Z</time></trkpt><trkpt lat="44.909162750440444" lon="9.287764154869594"><ele>363.2</ele><time>2026-04-10T14:21:49.171Z</time></trkpt><trkpt lat="44.90919001059386" lon="9.287664930126967"><ele>364.0</ele><time>2026-04-10T14:21:50.151Z</time></trkpt><trkpt lat="44.9092441833423" lon="9.287546205758536"><ele>369.5</ele><time>2026-04-10T14:21:51.143Z</time></trkpt><trkpt lat="44.90932077807891" lon="9.287369373815565"><ele>375.0</ele><time>2026-04-10T14:21:52.144Z</time></trkpt><trkpt lat="44.90938541566084" lon="9.287174541746309"><ele>380.5</ele><time>2026-04-10T14:21:53.148Z</time></trkpt><trkpt lat="44.90942346607646" lon="9.286976184670534"><ele>386.0</ele><time>2026-04-10T14:21:54.145Z</time></trkpt><trkpt lat="44.9094357851275" lon="9.286805855327064"><ele>383.8</ele><time>2026-04-10T14:21:55.156Z</time></trkpt><trkpt lat="44.90940451013456" lon="9.28665790458967"><ele>381.6</ele><time>2026-04-10T14:21:56.172Z</time></trkpt><trkpt lat="44.9093159975037" lon="9.286576497444035"><ele>379.4</ele><time>2026-04-10T14:21:57.161Z</time></trkpt><trkpt lat="44.9092217417119" lon="9.286525150742074"><ele>377.2</ele><time>2026-04-10T14:21:58.155Z</time></trkpt><trkpt lat="44.909108396408044" lon="9.286514164653976"><ele>375.0</ele><time>2026-04-10T14:21:59.164Z</time></trkpt><trkpt lat="44.90901708071299" lon="9.28647259638932"><ele>378.4</ele><time>2026-04-10T14:22:00.162Z</time></trkpt><trkpt lat="44.908959398966346" lon="9.286391126858769"><ele>381.8</ele><time>2026-04-10T14:22:01.15Z</time></trkpt><trkpt lat="44.9089298432622" lon="9.286263515273545"><ele>385.20000000000005</ele><time>2026-04-10T14:22:02.156Z</time></trkpt><trkpt lat="44.908924423497965" lon="9.286107395118712"><ele>388.6</ele><time>2026-04-10T14:22:03.153Z</time></trkpt><trkpt lat="44.90891288868766" lon="9.285959468470226"><ele>392.0</ele><time>2026-04-10T14:22:04.175Z</time></trkpt><trkpt lat="44.90887681029852" lon="9.285833363066784"><ele>392.0</ele><time>2026-04-10T14:22:05.165Z</time></trkpt><trkpt lat="44.908805424575405" lon="9.285761985991197"><ele>392.0</ele><time>2026-04-10T14:22:06.149Z</time></trkpt><trkpt lat="44.90871680230502" lon="9.285737117672172"><ele>392.0</ele><time>2026-04-10T14:22:07.151Z</time></trkpt><trkpt lat="44.90861840536324" lon="9.285774706445522"><ele>392.0</ele><time>2026-04-10T14:22:08.156Z</time></trkpt><trkpt lat="44.908514334195026" lon="9.285875305520099"><ele>392.0</ele><time>2026-04-10T14:22:09.153Z</time></trkpt><trkpt lat="44.908410477468614" lon="9.286020428188536"><ele>390.0</ele><time>2026-04-10T14:22:10.166Z</time></trkpt><trkpt lat="44.90830147924688" lon="9.286167555509445"><ele>388.0</ele><time>2026-04-10T14:22:11.153Z</time></trkpt><trkpt lat="44.90819781033843" lon="9.286294393582075"><ele>386.0</ele><time>2026-04-10T14:22:12.159Z</time></trkpt><trkpt lat="44.90809900746166" lon="9.286381208067315"><ele>384.0</ele><time>2026-04-10T14:22:13.162Z</time></trkpt><trkpt lat="44.90800360681323" lon="9.286406244956444"><ele>384.0</ele><time>2026-04-10T14:22:14.153Z</time></trkpt><trkpt lat="44.907915284496866" lon="9.286376433655922"><ele>384.0</ele><time>2026-04-10T14:22:15.152Z</time></trkpt><trkpt lat="44.90782288012602" lon="9.286297484600482"><ele>384.0</ele><time>2026-04-10T14:22:16.154Z</time></trkpt><trkpt lat="44.90771409325971" lon="9.286159791301888"><ele>384.0</ele><time>2026-04-10T14:22:17.495Z</time></trkpt><trkpt lat="44.907585145101386" lon="9.286044545933395"><ele>384.0</ele><time>2026-04-10T14:22:18.147Z</time></trkpt><trkpt lat="44.907425522303214" lon="9.285980303662614"><ele>384.0</ele><time>2026-04-10T14:22:19.166Z</time></trkpt><trkpt lat="44.90726048201492" lon="9.285937730833387"><ele>384.0</ele><time>2026-04-10T14:22:20.162Z</time></trkpt><trkpt lat="44.90711355717413" lon="9.285902331918098"><ele>384.0</ele><time>2026-04-10T14:22:21.154Z</time></trkpt><trkpt lat="44.906976916706775" lon="9.285860495193806"><ele>384.0</ele><time>2026-04-10T14:22:22.62Z</time></trkpt><trkpt lat="44.906849765509016" lon="9.285841103380259"><ele>384.0</ele><time>2026-04-10T14:22:23.143Z</time></trkpt><trkpt lat="44.9067353377679" lon="9.285877063141802"><ele>384.0</ele><time>2026-04-10T14:22:24.16Z</time></trkpt><trkpt lat="44.906638955710065" lon="9.285976120664744"><ele>384.25</ele><time>2026-04-10T14:22:25.154Z</time></trkpt><trkpt lat="44.90655862437583" lon="9.286106197268376"><ele>384.5</ele><time>2026-04-10T14:22:26.152Z</time></trkpt><trkpt lat="44.9064788030863" lon="9.286210457266828"><ele>384.75</ele><time>2026-04-10T14:22:27.165Z</time></trkpt><trkpt lat="44.90638099095807" lon="9.286274237915503"><ele>385.0</ele><time>2026-04-10T14:22:28.164Z</time></trkpt><trkpt lat="44.90626869966653" lon="9.286290301014468"><ele>385.0</ele><time>2026-04-10T14:22:29.146Z</time></trkpt><trkpt lat="44.90613153569961" lon="9.28625665685168"><ele>385.0</ele><time>2026-04-10T14:22:30.15Z</time></trkpt><trkpt lat="44.90598752401438" lon="9.286215872855093"><ele>385.0</ele><time>2026-04-10T14:22:31.16Z</time></trkpt><trkpt lat="44.905835864185484" lon="9.28616302900052"><ele>385.0</ele><time>2026-04-10T14:22:32.159Z</time></trkpt><trkpt lat="44.905675408883134" lon="9.286087804096647"><ele>387.6666666666667</ele><time>2026-04-10T14:22:33.147Z</time></trkpt><trkpt lat="44.90549224175561" lon="9.286021401248265"><ele>390.33333333333337</ele><time>2026-04-10T14:22:34.147Z</time></trkpt><trkpt lat="44.90531623653596" lon="9.2859417590587"><ele>393.0</ele><time>2026-04-10T14:22:35.158Z</time></trkpt><trkpt lat="44.90515698645878" lon="9.285858487188904"><ele>391.25</ele><time>2026-04-10T14:22:36.152Z</time></trkpt><trkpt lat="44.905011505729604" lon="9.285766641180365"><ele>389.5</ele><time>2026-04-10T14:22:37.15Z</time></trkpt><trkpt lat="44.90487460922013" lon="9.285679629836556"><ele>387.75</ele><time>2026-04-10T14:22:38.149Z</time></trkpt><trkpt lat="44.90473951845496" lon="9.285636034442964"><ele>386.0</ele><time>2026-04-10T14:22:39.161Z</time></trkpt><trkpt lat="44.90458465346354" lon="9.285670030892716"><ele>386.0</ele><time>2026-04-10T14:22:40.166Z</time></trkpt><trkpt lat="44.90444496304555" lon="9.28573386832079"><ele>386.0</ele><time>2026-04-10T14:22:41.164Z</time></trkpt><trkpt lat="44.90432323389457" lon="9.28580569826096"><ele>386.0</ele><time>2026-04-10T14:22:42.147Z</time></trkpt><trkpt lat="44.904211771609155" lon="9.285867761375076"><ele>386.0</ele><time>2026-04-10T14:22:43.147Z</time></trkpt><trkpt lat="44.904112872057645" lon="9.285929429985522"><ele>385.66666666666663</ele><time>2026-04-10T14:22:44.159Z</time></trkpt><trkpt lat="44.90402699138902" lon="9.285976978025777"><ele>385.3333333333333</ele><time>2026-04-10T14:22:45.159Z</time></trkpt><trkpt lat="44.90394802986773" lon="9.285993552460173"><ele>385.0</ele><time>2026-04-10T14:22:46.155Z</time></trkpt><trkpt lat="44.903873265527935" lon="9.286020403789772"><ele>384.66666666666663</ele><time>2026-04-10T14:22:47.154Z</time></trkpt><trkpt lat="44.903820896527655" lon="9.286071294484826"><ele>384.3333333333333</ele><time>2026-04-10T14:22:48.165Z</time></trkpt><trkpt lat="44.90373150569012" lon="9.286016319630837"><ele>384.0</ele><time>2026-04-10T14:22:50.151Z</time></trkpt><trkpt lat="44.90365916734901" lon="9.285974631107457"><ele>384.0</ele><time>2026-04-10T14:22:54.147Z</time></trkpt><trkpt lat="44.9035865371456" lon="9.28603190826169"><ele>384.0</ele><time>2026-04-10T14:22:57.143Z</time></trkpt><trkpt lat="44.90349334216519" lon="9.286070058380783"><ele>384.0</ele><time>2026-04-10T14:23:00.146Z</time></trkpt><trkpt lat="44.903433159733545" lon="9.286098759538191"><ele>384.0</ele><time>2026-04-10T14:23:08.141Z</time></trkpt><trkpt lat="44.90335101953952" lon="9.286015892312639"><ele>373.0</ele><time>2026-04-10T14:23:48.167Z</time></trkpt></trkseg></trk></gpx>